<?xml version="1.0" encoding="UTF-8" standalone="no" ?>
<gpx xmlns="http://www.topografix.com/GPX/1/1" xmlns:xsi="http://www.w3.org/2001/XMLSchema-instance" xsi:schemaLocation="http://www.topografix.com/GPX/1/1 http://www.topografix.com/GPX/1/1/gpx.xsd" version="1.1" creator="VisuGPX - https://www.visugpx.com">
  <metadata>
    <name>Tamé Ombleze</name>
    <desc><![CDATA[Tamé Ombleze Aouste sur Sye ]]></desc>
  </metadata>
  <trk>
    <name><![CDATA[Tamé Ombleze aouste cavali]]></name>
    <trkseg>
      <trkpt lat="45.11568" lon="4.96422">
        <ele>197.22892761231</ele>
        <time>2011-05-07T06:39:06Z</time>
      </trkpt>
      <trkpt lat="45.11568" lon="4.96422">
        <ele>197.24295043945</ele>
        <time>2011-05-07T06:39:07Z</time>
      </trkpt>
      <trkpt lat="45.11568" lon="4.96422">
        <ele>197.27153015137</ele>
        <time>2011-05-07T06:39:08Z</time>
      </trkpt>
      <trkpt lat="45.11568" lon="4.9642">
        <ele>197.29823303223</ele>
        <time>2011-05-07T06:39:41Z</time>
      </trkpt>
      <trkpt lat="45.11566" lon="4.96429">
        <ele>196.8957824707</ele>
        <time>2011-05-07T06:40:14Z</time>
      </trkpt>
      <trkpt lat="45.11564" lon="4.96443">
        <ele>196.28561401367</ele>
        <time>2011-05-07T06:40:22Z</time>
      </trkpt>
      <trkpt lat="45.11567" lon="4.96454">
        <ele>195.9686126709</ele>
        <time>2011-05-07T06:40:26Z</time>
      </trkpt>
      <trkpt lat="45.11576" lon="4.96457">
        <ele>196.2286529541</ele>
        <time>2011-05-07T06:40:30Z</time>
      </trkpt>
      <trkpt lat="45.11577" lon="4.96452">
        <ele>196.47006225586</ele>
        <time>2011-05-07T06:40:35Z</time>
      </trkpt>
      <trkpt lat="45.11578" lon="4.96451">
        <ele>196.52261352539</ele>
        <time>2011-05-07T06:40:37Z</time>
      </trkpt>
      <trkpt lat="45.11578" lon="4.96453">
        <ele>196.48034667969</ele>
        <time>2011-05-07T06:40:41Z</time>
      </trkpt>
      <trkpt lat="45.11581" lon="4.96466">
        <ele>196.10807800293</ele>
        <time>2011-05-07T06:40:46Z</time>
      </trkpt>
      <trkpt lat="45.11581" lon="4.96492">
        <ele>195.16998291016</ele>
        <time>2011-05-07T06:40:52Z</time>
      </trkpt>
      <trkpt lat="45.1158" lon="4.96495">
        <ele>195.02821350098</ele>
        <time>2011-05-07T06:40:55Z</time>
      </trkpt>
      <trkpt lat="45.11579" lon="4.96505">
        <ele>194.80412292481</ele>
        <time>2011-05-07T06:41:10Z</time>
      </trkpt>
      <trkpt lat="45.11579" lon="4.96509">
        <ele>194.80885314941</ele>
        <time>2011-05-07T06:41:11Z</time>
      </trkpt>
      <trkpt lat="45.11588" lon="4.96531">
        <ele>195.14485168457</ele>
        <time>2011-05-07T06:41:15Z</time>
      </trkpt>
      <trkpt lat="45.11601" lon="4.96566">
        <ele>195.33891296387</ele>
        <time>2011-05-07T06:41:20Z</time>
      </trkpt>
      <trkpt lat="45.11607" lon="4.96582">
        <ele>195.29370117188</ele>
        <time>2011-05-07T06:41:22Z</time>
      </trkpt>
      <trkpt lat="45.11625" lon="4.96631">
        <ele>194.65032958984</ele>
        <time>2011-05-07T06:41:28Z</time>
      </trkpt>
      <trkpt lat="45.11647" lon="4.96688">
        <ele>194.39108276367</ele>
        <time>2011-05-07T06:41:35Z</time>
      </trkpt>
      <trkpt lat="45.11673" lon="4.96746">
        <ele>195.90950012207</ele>
        <time>2011-05-07T06:41:42Z</time>
      </trkpt>
      <trkpt lat="45.11711" lon="4.96808">
        <ele>195.63127136231</ele>
        <time>2011-05-07T06:41:50Z</time>
      </trkpt>
      <trkpt lat="45.11721" lon="4.96824">
        <ele>195.42854309082</ele>
        <time>2011-05-07T06:41:52Z</time>
      </trkpt>
      <trkpt lat="45.11735" lon="4.9686">
        <ele>195.6417388916</ele>
        <time>2011-05-07T06:41:56Z</time>
      </trkpt>
      <trkpt lat="45.11758" lon="4.96887">
        <ele>196.38650512695</ele>
        <time>2011-05-07T06:42:00Z</time>
      </trkpt>
      <trkpt lat="45.11769" lon="4.96902">
        <ele>196.76341247559</ele>
        <time>2011-05-07T06:42:02Z</time>
      </trkpt>
      <trkpt lat="45.11816" lon="4.96976">
        <ele>198.12811279297</ele>
        <time>2011-05-07T06:42:11Z</time>
      </trkpt>
      <trkpt lat="45.11856" lon="4.97031">
        <ele>198.08706665039</ele>
        <time>2011-05-07T06:42:18Z</time>
      </trkpt>
      <trkpt lat="45.11869" lon="4.97047">
        <ele>197.78147888184</ele>
        <time>2011-05-07T06:42:20Z</time>
      </trkpt>
      <trkpt lat="45.11879" lon="4.97079">
        <ele>197.19229125977</ele>
        <time>2011-05-07T06:42:23Z</time>
      </trkpt>
      <trkpt lat="45.11877" lon="4.97104">
        <ele>196.93087768555</ele>
        <time>2011-05-07T06:42:25Z</time>
      </trkpt>
      <trkpt lat="45.11872" lon="4.97128">
        <ele>196.65409851074</ele>
        <time>2011-05-07T06:42:27Z</time>
      </trkpt>
      <trkpt lat="45.11875" lon="4.97177">
        <ele>196.44137573242</ele>
        <time>2011-05-07T06:42:31Z</time>
      </trkpt>
      <trkpt lat="45.11892" lon="4.97274">
        <ele>196.20663452148</ele>
        <time>2011-05-07T06:42:39Z</time>
      </trkpt>
      <trkpt lat="45.11909" lon="4.97373">
        <ele>195.95275878906</ele>
        <time>2011-05-07T06:42:47Z</time>
      </trkpt>
      <trkpt lat="45.11919" lon="4.97429">
        <ele>196.05075073242</ele>
        <time>2011-05-07T06:42:52Z</time>
      </trkpt>
      <trkpt lat="45.11935" lon="4.97522">
        <ele>196.49446105957</ele>
        <time>2011-05-07T06:43:01Z</time>
      </trkpt>
      <trkpt lat="45.11948" lon="4.97602">
        <ele>196.55718994141</ele>
        <time>2011-05-07T06:43:09Z</time>
      </trkpt>
      <trkpt lat="45.11962" lon="4.97682">
        <ele>196.41720581055</ele>
        <time>2011-05-07T06:43:17Z</time>
      </trkpt>
      <trkpt lat="45.11982" lon="4.97797">
        <ele>197.90393066406</ele>
        <time>2011-05-07T06:43:28Z</time>
      </trkpt>
      <trkpt lat="45.12007" lon="4.9794">
        <ele>199.78797912598</ele>
        <time>2011-05-07T06:43:42Z</time>
      </trkpt>
      <trkpt lat="45.12025" lon="4.98007">
        <ele>201.75729370117</ele>
        <time>2011-05-07T06:43:49Z</time>
      </trkpt>
      <trkpt lat="45.12046" lon="4.98085">
        <ele>203.59967041016</ele>
        <time>2011-05-07T06:43:57Z</time>
      </trkpt>
      <trkpt lat="45.12061" lon="4.98168">
        <ele>206.24418640137</ele>
        <time>2011-05-07T06:44:05Z</time>
      </trkpt>
      <trkpt lat="45.12064" lon="4.98231">
        <ele>205.28439331055</ele>
        <time>2011-05-07T06:44:11Z</time>
      </trkpt>
      <trkpt lat="45.12057" lon="4.98304">
        <ele>204.15431213379</ele>
        <time>2011-05-07T06:44:18Z</time>
      </trkpt>
      <trkpt lat="45.12045" lon="4.98371">
        <ele>204.43556213379</ele>
        <time>2011-05-07T06:44:25Z</time>
      </trkpt>
      <trkpt lat="45.12042" lon="4.9838">
        <ele>204.615234375</ele>
        <time>2011-05-07T06:44:26Z</time>
      </trkpt>
      <trkpt lat="45.12026" lon="4.98404">
        <ele>205.00547790527</ele>
        <time>2011-05-07T06:44:30Z</time>
      </trkpt>
      <trkpt lat="45.12007" lon="4.984">
        <ele>204.6884765625</ele>
        <time>2011-05-07T06:44:33Z</time>
      </trkpt>
      <trkpt lat="45.11987" lon="4.98394">
        <ele>204.06344604492</ele>
        <time>2011-05-07T06:44:36Z</time>
      </trkpt>
      <trkpt lat="45.11976" lon="4.98398">
        <ele>203.82064819336</ele>
        <time>2011-05-07T06:44:38Z</time>
      </trkpt>
      <trkpt lat="45.11978" lon="4.98412">
        <ele>204.10894775391</ele>
        <time>2011-05-07T06:44:40Z</time>
      </trkpt>
      <trkpt lat="45.11987" lon="4.98415">
        <ele>204.50115966797</ele>
        <time>2011-05-07T06:44:42Z</time>
      </trkpt>
      <trkpt lat="45.11998" lon="4.98411">
        <ele>204.78916931152</ele>
        <time>2011-05-07T06:44:45Z</time>
      </trkpt>
      <trkpt lat="45.11998" lon="4.98411">
        <ele>204.81770324707</ele>
        <time>2011-05-07T06:44:47Z</time>
      </trkpt>
      <trkpt lat="45.11999" lon="4.98417">
        <ele>204.96870422363</ele>
        <time>2011-05-07T06:47:33Z</time>
      </trkpt>
      <trkpt lat="45.11996" lon="4.98417">
        <ele>204.85890197754</ele>
        <time>2011-05-07T06:47:35Z</time>
      </trkpt>
      <trkpt lat="45.11985" lon="4.98411">
        <ele>204.34690856934</ele>
        <time>2011-05-07T06:47:40Z</time>
      </trkpt>
      <trkpt lat="45.11981" lon="4.98406">
        <ele>204.11207580566</ele>
        <time>2011-05-07T06:47:42Z</time>
      </trkpt>
      <trkpt lat="45.11983" lon="4.98391">
        <ele>203.89910888672</ele>
        <time>2011-05-07T06:47:46Z</time>
      </trkpt>
      <trkpt lat="45.1199" lon="4.98391">
        <ele>204.0973815918</ele>
        <time>2011-05-07T06:47:48Z</time>
      </trkpt>
      <trkpt lat="45.12017" lon="4.98403">
        <ele>204.87158203125</ele>
        <time>2011-05-07T06:47:55Z</time>
      </trkpt>
      <trkpt lat="45.12023" lon="4.98408">
        <ele>205.07528686523</ele>
        <time>2011-05-07T06:47:57Z</time>
      </trkpt>
      <trkpt lat="45.12027" lon="4.98433">
        <ele>205.32373046875</ele>
        <time>2011-05-07T06:48:02Z</time>
      </trkpt>
      <trkpt lat="45.12025" lon="4.9844">
        <ele>205.30541992188</ele>
        <time>2011-05-07T06:48:03Z</time>
      </trkpt>
      <trkpt lat="45.12018" lon="4.98484">
        <ele>205.2138671875</ele>
        <time>2011-05-07T06:48:09Z</time>
      </trkpt>
      <trkpt lat="45.12014" lon="4.98543">
        <ele>204.57192993164</ele>
        <time>2011-05-07T06:48:16Z</time>
      </trkpt>
      <trkpt lat="45.12014" lon="4.98598">
        <ele>203.88175964356</ele>
        <time>2011-05-07T06:48:22Z</time>
      </trkpt>
      <trkpt lat="45.1202" lon="4.98665">
        <ele>203.48344421387</ele>
        <time>2011-05-07T06:48:29Z</time>
      </trkpt>
      <trkpt lat="45.12038" lon="4.98759">
        <ele>203.37882995606</ele>
        <time>2011-05-07T06:48:39Z</time>
      </trkpt>
      <trkpt lat="45.12064" lon="4.98839">
        <ele>203.73136901856</ele>
        <time>2011-05-07T06:48:48Z</time>
      </trkpt>
      <trkpt lat="45.12101" lon="4.98918">
        <ele>203.86076354981</ele>
        <time>2011-05-07T06:48:58Z</time>
      </trkpt>
      <trkpt lat="45.12141" lon="4.98981">
        <ele>205.99171447754</ele>
        <time>2011-05-07T06:49:07Z</time>
      </trkpt>
      <trkpt lat="45.12173" lon="4.99018">
        <ele>207.67114257812</ele>
        <time>2011-05-07T06:49:14Z</time>
      </trkpt>
      <trkpt lat="45.12199" lon="4.99047">
        <ele>210.83883666992</ele>
        <time>2011-05-07T06:49:20Z</time>
      </trkpt>
      <trkpt lat="45.12211" lon="4.99073">
        <ele>211.68272399902</ele>
        <time>2011-05-07T06:49:24Z</time>
      </trkpt>
      <trkpt lat="45.1221" lon="4.99108">
        <ele>211.14514160156</ele>
        <time>2011-05-07T06:49:28Z</time>
      </trkpt>
      <trkpt lat="45.12188" lon="4.9919">
        <ele>209.36729431152</ele>
        <time>2011-05-07T06:49:36Z</time>
      </trkpt>
      <trkpt lat="45.12162" lon="4.99289">
        <ele>208.32104492188</ele>
        <time>2011-05-07T06:49:45Z</time>
      </trkpt>
      <trkpt lat="45.12139" lon="4.99373">
        <ele>208.48474121094</ele>
        <time>2011-05-07T06:49:53Z</time>
      </trkpt>
      <trkpt lat="45.1212" lon="4.99434">
        <ele>208.14178466797</ele>
        <time>2011-05-07T06:49:59Z</time>
      </trkpt>
      <trkpt lat="45.12095" lon="4.99487">
        <ele>207.18705749512</ele>
        <time>2011-05-07T06:50:05Z</time>
      </trkpt>
      <trkpt lat="45.12056" lon="4.99555">
        <ele>207.10896301269</ele>
        <time>2011-05-07T06:50:14Z</time>
      </trkpt>
      <trkpt lat="45.12005" lon="4.99646">
        <ele>208.03106689453</ele>
        <time>2011-05-07T06:50:25Z</time>
      </trkpt>
      <trkpt lat="45.11957" lon="4.99731">
        <ele>208.05738830566</ele>
        <time>2011-05-07T06:50:35Z</time>
      </trkpt>
      <trkpt lat="45.11914" lon="4.99795">
        <ele>211.54383850098</ele>
        <time>2011-05-07T06:50:43Z</time>
      </trkpt>
      <trkpt lat="45.1188" lon="4.99829">
        <ele>218.17143249512</ele>
        <time>2011-05-07T06:50:49Z</time>
      </trkpt>
      <trkpt lat="45.1184" lon="4.99855">
        <ele>225.10176086426</ele>
        <time>2011-05-07T06:50:56Z</time>
      </trkpt>
      <trkpt lat="45.11824" lon="4.99862">
        <ele>227.490234375</ele>
        <time>2011-05-07T06:50:59Z</time>
      </trkpt>
      <trkpt lat="45.11786" lon="4.99877">
        <ele>231.87782287598</ele>
        <time>2011-05-07T06:51:06Z</time>
      </trkpt>
      <trkpt lat="45.11752" lon="4.9989">
        <ele>234.76834106445</ele>
        <time>2011-05-07T06:51:12Z</time>
      </trkpt>
      <trkpt lat="45.11704" lon="4.99909">
        <ele>235.94110107422</ele>
        <time>2011-05-07T06:51:21Z</time>
      </trkpt>
      <trkpt lat="45.11663" lon="4.99935">
        <ele>235.70849609375</ele>
        <time>2011-05-07T06:51:29Z</time>
      </trkpt>
      <trkpt lat="45.11629" lon="4.99971">
        <ele>235.92585754394</ele>
        <time>2011-05-07T06:51:37Z</time>
      </trkpt>
      <trkpt lat="45.11595" lon="5.00019">
        <ele>244.09928894043</ele>
        <time>2011-05-07T06:51:46Z</time>
      </trkpt>
      <trkpt lat="45.11548" lon="5.00078">
        <ele>242.83023071289</ele>
        <time>2011-05-07T06:51:57Z</time>
      </trkpt>
      <trkpt lat="45.11502" lon="5.00123">
        <ele>238.72151184082</ele>
        <time>2011-05-07T06:52:06Z</time>
      </trkpt>
      <trkpt lat="45.11459" lon="5.00165">
        <ele>237.04507446289</ele>
        <time>2011-05-07T06:52:14Z</time>
      </trkpt>
      <trkpt lat="45.11407" lon="5.00212">
        <ele>237</ele>
        <time>2011-05-07T06:52:23Z</time>
      </trkpt>
      <trkpt lat="45.11338" lon="5.00275">
        <ele>237</ele>
        <time>2011-05-07T06:52:35Z</time>
      </trkpt>
      <trkpt lat="45.11287" lon="5.00314">
        <ele>237.30047607422</ele>
        <time>2011-05-07T06:52:44Z</time>
      </trkpt>
      <trkpt lat="45.11244" lon="5.00338">
        <ele>238</ele>
        <time>2011-05-07T06:52:52Z</time>
      </trkpt>
      <trkpt lat="45.11193" lon="5.00362">
        <ele>238.00175476074</ele>
        <time>2011-05-07T06:53:02Z</time>
      </trkpt>
      <trkpt lat="45.1115" lon="5.00385">
        <ele>239.45384216309</ele>
        <time>2011-05-07T06:53:11Z</time>
      </trkpt>
      <trkpt lat="45.11105" lon="5.00409">
        <ele>243.94766235352</ele>
        <time>2011-05-07T06:53:21Z</time>
      </trkpt>
      <trkpt lat="45.11055" lon="5.0044">
        <ele>249.73237609863</ele>
        <time>2011-05-07T06:53:32Z</time>
      </trkpt>
      <trkpt lat="45.11007" lon="5.00473">
        <ele>256.3620300293</ele>
        <time>2011-05-07T06:53:43Z</time>
      </trkpt>
      <trkpt lat="45.10973" lon="5.00499">
        <ele>261.85412597656</ele>
        <time>2011-05-07T06:53:51Z</time>
      </trkpt>
      <trkpt lat="45.10933" lon="5.00528">
        <ele>266.25311279297</ele>
        <time>2011-05-07T06:54:00Z</time>
      </trkpt>
      <trkpt lat="45.10895" lon="5.00548">
        <ele>269.54870605469</ele>
        <time>2011-05-07T06:54:07Z</time>
      </trkpt>
      <trkpt lat="45.10849" lon="5.00563">
        <ele>270.2028503418</ele>
        <time>2011-05-07T06:54:14Z</time>
      </trkpt>
      <trkpt lat="45.10799" lon="5.00571">
        <ele>267.14239501953</ele>
        <time>2011-05-07T06:54:20Z</time>
      </trkpt>
      <trkpt lat="45.10789" lon="5.00572">
        <ele>266.70587158203</ele>
        <time>2011-05-07T06:54:21Z</time>
      </trkpt>
      <trkpt lat="45.10719" lon="5.00584">
        <ele>259.66174316406</ele>
        <time>2011-05-07T06:54:28Z</time>
      </trkpt>
      <trkpt lat="45.10657" lon="5.00605">
        <ele>254.11518859863</ele>
        <time>2011-05-07T06:54:34Z</time>
      </trkpt>
      <trkpt lat="45.10607" lon="5.00635">
        <ele>242.65936279297</ele>
        <time>2011-05-07T06:54:39Z</time>
      </trkpt>
      <trkpt lat="45.10558" lon="5.00675">
        <ele>236.55700683594</ele>
        <time>2011-05-07T06:54:44Z</time>
      </trkpt>
      <trkpt lat="45.10464" lon="5.00751">
        <ele>224.01022338867</ele>
        <time>2011-05-07T06:54:53Z</time>
      </trkpt>
      <trkpt lat="45.10398" lon="5.00804">
        <ele>226.85331726074</ele>
        <time>2011-05-07T06:55:00Z</time>
      </trkpt>
      <trkpt lat="45.1034" lon="5.00849">
        <ele>229.25897216797</ele>
        <time>2011-05-07T06:55:07Z</time>
      </trkpt>
      <trkpt lat="45.10291" lon="5.00889">
        <ele>232.00909423828</ele>
        <time>2011-05-07T06:55:14Z</time>
      </trkpt>
      <trkpt lat="45.10241" lon="5.00932">
        <ele>233.60061645508</ele>
        <time>2011-05-07T06:55:22Z</time>
      </trkpt>
      <trkpt lat="45.10196" lon="5.00982">
        <ele>233.83413696289</ele>
        <time>2011-05-07T06:55:30Z</time>
      </trkpt>
      <trkpt lat="45.10152" lon="5.0105">
        <ele>233.31881713867</ele>
        <time>2011-05-07T06:55:39Z</time>
      </trkpt>
      <trkpt lat="45.10112" lon="5.01119">
        <ele>227.49047851562</ele>
        <time>2011-05-07T06:55:48Z</time>
      </trkpt>
      <trkpt lat="45.10091" lon="5.01172">
        <ele>229</ele>
        <time>2011-05-07T06:55:54Z</time>
      </trkpt>
      <trkpt lat="45.1008" lon="5.01233">
        <ele>229.91906738281</ele>
        <time>2011-05-07T06:56:00Z</time>
      </trkpt>
      <trkpt lat="45.10069" lon="5.01341">
        <ele>231.13647460938</ele>
        <time>2011-05-07T06:56:10Z</time>
      </trkpt>
      <trkpt lat="45.10061" lon="5.01458">
        <ele>233.08367919922</ele>
        <time>2011-05-07T06:56:20Z</time>
      </trkpt>
      <trkpt lat="45.10048" lon="5.01604">
        <ele>234.92489624023</ele>
        <time>2011-05-07T06:56:32Z</time>
      </trkpt>
      <trkpt lat="45.10035" lon="5.01674">
        <ele>236.0715637207</ele>
        <time>2011-05-07T06:56:38Z</time>
      </trkpt>
      <trkpt lat="45.10012" lon="5.01746">
        <ele>236.44769287109</ele>
        <time>2011-05-07T06:56:45Z</time>
      </trkpt>
      <trkpt lat="45.09984" lon="5.01828">
        <ele>236.41772460938</ele>
        <time>2011-05-07T06:56:54Z</time>
      </trkpt>
      <trkpt lat="45.09954" lon="5.01916">
        <ele>237.32858276367</ele>
        <time>2011-05-07T06:57:05Z</time>
      </trkpt>
      <trkpt lat="45.09927" lon="5.01993">
        <ele>238</ele>
        <time>2011-05-07T06:57:15Z</time>
      </trkpt>
      <trkpt lat="45.099" lon="5.02072">
        <ele>239.5885925293</ele>
        <time>2011-05-07T06:57:25Z</time>
      </trkpt>
      <trkpt lat="45.09875" lon="5.02145">
        <ele>243.01681518555</ele>
        <time>2011-05-07T06:57:34Z</time>
      </trkpt>
      <trkpt lat="45.0985" lon="5.02216">
        <ele>247.54551696777</ele>
        <time>2011-05-07T06:57:43Z</time>
      </trkpt>
      <trkpt lat="45.09843" lon="5.02248">
        <ele>249.86981201172</ele>
        <time>2011-05-07T06:57:47Z</time>
      </trkpt>
      <trkpt lat="45.09844" lon="5.02288">
        <ele>252.52632141113</ele>
        <time>2011-05-07T06:57:52Z</time>
      </trkpt>
      <trkpt lat="45.09862" lon="5.02361">
        <ele>257.02990722656</ele>
        <time>2011-05-07T06:58:02Z</time>
      </trkpt>
      <trkpt lat="45.09877" lon="5.02414">
        <ele>261.85397338867</ele>
        <time>2011-05-07T06:58:09Z</time>
      </trkpt>
      <trkpt lat="45.09893" lon="5.02454">
        <ele>262</ele>
        <time>2011-05-07T06:58:14Z</time>
      </trkpt>
      <trkpt lat="45.09906" lon="5.02479">
        <ele>262</ele>
        <time>2011-05-07T06:58:17Z</time>
      </trkpt>
      <trkpt lat="45.09914" lon="5.02499">
        <ele>262</ele>
        <time>2011-05-07T06:58:19Z</time>
      </trkpt>
      <trkpt lat="45.09939" lon="5.02534">
        <ele>261</ele>
        <time>2011-05-07T06:58:23Z</time>
      </trkpt>
      <trkpt lat="45.09954" lon="5.02551">
        <ele>260.70751953125</ele>
        <time>2011-05-07T06:58:25Z</time>
      </trkpt>
      <trkpt lat="45.09976" lon="5.02599">
        <ele>257.19650268555</ele>
        <time>2011-05-07T06:58:29Z</time>
      </trkpt>
      <trkpt lat="45.10009" lon="5.02676">
        <ele>248.27363586426</ele>
        <time>2011-05-07T06:58:35Z</time>
      </trkpt>
      <trkpt lat="45.10041" lon="5.02719">
        <ele>239.46614074707</ele>
        <time>2011-05-07T06:58:39Z</time>
      </trkpt>
      <trkpt lat="45.1006" lon="5.0277">
        <ele>237.51051330566</ele>
        <time>2011-05-07T06:58:43Z</time>
      </trkpt>
      <trkpt lat="45.10057" lon="5.02797">
        <ele>236.36817932129</ele>
        <time>2011-05-07T06:58:45Z</time>
      </trkpt>
      <trkpt lat="45.10049" lon="5.02818">
        <ele>236.10070800781</ele>
        <time>2011-05-07T06:58:47Z</time>
      </trkpt>
      <trkpt lat="45.10041" lon="5.02828">
        <ele>236.4337310791</ele>
        <time>2011-05-07T06:58:49Z</time>
      </trkpt>
      <trkpt lat="45.10038" lon="5.02832">
        <ele>236.55389404297</ele>
        <time>2011-05-07T06:58:53Z</time>
      </trkpt>
      <trkpt lat="45.10038" lon="5.02832">
        <ele>236.55389404297</ele>
        <time>2011-05-07T06:58:54Z</time>
      </trkpt>
      <trkpt lat="45.10041" lon="5.02856">
        <ele>234.80770874023</ele>
        <time>2011-05-07T06:59:01Z</time>
      </trkpt>
      <trkpt lat="45.10043" lon="5.02862">
        <ele>234.37664794922</ele>
        <time>2011-05-07T06:59:02Z</time>
      </trkpt>
      <trkpt lat="45.10042" lon="5.02892">
        <ele>232.81834411621</ele>
        <time>2011-05-07T06:59:06Z</time>
      </trkpt>
      <trkpt lat="45.10027" lon="5.02948">
        <ele>229.7151184082</ele>
        <time>2011-05-07T06:59:12Z</time>
      </trkpt>
      <trkpt lat="45.10007" lon="5.03015">
        <ele>222.53733825684</ele>
        <time>2011-05-07T06:59:18Z</time>
      </trkpt>
      <trkpt lat="45.09994" lon="5.03063">
        <ele>221.28755187988</ele>
        <time>2011-05-07T06:59:22Z</time>
      </trkpt>
      <trkpt lat="45.09981" lon="5.03109">
        <ele>223.52203369141</ele>
        <time>2011-05-07T06:59:26Z</time>
      </trkpt>
      <trkpt lat="45.09955" lon="5.032">
        <ele>225.74220275879</ele>
        <time>2011-05-07T06:59:34Z</time>
      </trkpt>
      <trkpt lat="45.09935" lon="5.03271">
        <ele>220.31715393066</ele>
        <time>2011-05-07T06:59:40Z</time>
      </trkpt>
      <trkpt lat="45.09902" lon="5.03386">
        <ele>219.47888183594</ele>
        <time>2011-05-07T06:59:49Z</time>
      </trkpt>
      <trkpt lat="45.09879" lon="5.03445">
        <ele>218.28234863281</ele>
        <time>2011-05-07T06:59:54Z</time>
      </trkpt>
      <trkpt lat="45.09852" lon="5.03487">
        <ele>216.66613769531</ele>
        <time>2011-05-07T06:59:59Z</time>
      </trkpt>
      <trkpt lat="45.09813" lon="5.03544">
        <ele>214.8044128418</ele>
        <time>2011-05-07T07:00:07Z</time>
      </trkpt>
      <trkpt lat="45.09801" lon="5.03566">
        <ele>214.04254150391</ele>
        <time>2011-05-07T07:00:10Z</time>
      </trkpt>
      <trkpt lat="45.09797" lon="5.03574">
        <ele>214.03739929199</ele>
        <time>2011-05-07T07:00:11Z</time>
      </trkpt>
      <trkpt lat="45.09789" lon="5.03598">
        <ele>214.31892395019</ele>
        <time>2011-05-07T07:00:14Z</time>
      </trkpt>
      <trkpt lat="45.09784" lon="5.03632">
        <ele>215.20642089844</ele>
        <time>2011-05-07T07:00:18Z</time>
      </trkpt>
      <trkpt lat="45.09787" lon="5.03666">
        <ele>216.60372924805</ele>
        <time>2011-05-07T07:00:22Z</time>
      </trkpt>
      <trkpt lat="45.0979" lon="5.03683">
        <ele>217.72514343262</ele>
        <time>2011-05-07T07:00:24Z</time>
      </trkpt>
      <trkpt lat="45.09801" lon="5.0375">
        <ele>217.8108215332</ele>
        <time>2011-05-07T07:00:31Z</time>
      </trkpt>
      <trkpt lat="45.09814" lon="5.03809">
        <ele>216.52095031738</ele>
        <time>2011-05-07T07:00:37Z</time>
      </trkpt>
      <trkpt lat="45.09837" lon="5.03868">
        <ele>215.96820068359</ele>
        <time>2011-05-07T07:00:44Z</time>
      </trkpt>
      <trkpt lat="45.09869" lon="5.03953">
        <ele>214.97854614258</ele>
        <time>2011-05-07T07:00:54Z</time>
      </trkpt>
      <trkpt lat="45.09879" lon="5.03981">
        <ele>214.33309936523</ele>
        <time>2011-05-07T07:00:57Z</time>
      </trkpt>
      <trkpt lat="45.09883" lon="5.0403">
        <ele>214.08648681641</ele>
        <time>2011-05-07T07:01:02Z</time>
      </trkpt>
      <trkpt lat="45.0988" lon="5.04049">
        <ele>214.77140808106</ele>
        <time>2011-05-07T07:01:04Z</time>
      </trkpt>
      <trkpt lat="45.09865" lon="5.04115">
        <ele>217.15512084961</ele>
        <time>2011-05-07T07:01:11Z</time>
      </trkpt>
      <trkpt lat="45.09852" lon="5.04146">
        <ele>218.17976379394</ele>
        <time>2011-05-07T07:01:15Z</time>
      </trkpt>
      <trkpt lat="45.09822" lon="5.04183">
        <ele>218.74052429199</ele>
        <time>2011-05-07T07:01:21Z</time>
      </trkpt>
      <trkpt lat="45.09772" lon="5.04233">
        <ele>219.88012695312</ele>
        <time>2011-05-07T07:01:30Z</time>
      </trkpt>
      <trkpt lat="45.09731" lon="5.04274">
        <ele>219.8923034668</ele>
        <time>2011-05-07T07:01:38Z</time>
      </trkpt>
      <trkpt lat="45.09687" lon="5.04317">
        <ele>220</ele>
        <time>2011-05-07T07:01:47Z</time>
      </trkpt>
      <trkpt lat="45.09662" lon="5.0435">
        <ele>220</ele>
        <time>2011-05-07T07:01:53Z</time>
      </trkpt>
      <trkpt lat="45.09642" lon="5.04394">
        <ele>220</ele>
        <time>2011-05-07T07:01:59Z</time>
      </trkpt>
      <trkpt lat="45.09626" lon="5.04448">
        <ele>220</ele>
        <time>2011-05-07T07:02:05Z</time>
      </trkpt>
      <trkpt lat="45.09617" lon="5.04477">
        <ele>220</ele>
        <time>2011-05-07T07:02:08Z</time>
      </trkpt>
      <trkpt lat="45.09607" lon="5.04519">
        <ele>220.04997253418</ele>
        <time>2011-05-07T07:02:12Z</time>
      </trkpt>
      <trkpt lat="45.09577" lon="5.04577">
        <ele>220</ele>
        <time>2011-05-07T07:02:18Z</time>
      </trkpt>
      <trkpt lat="45.09549" lon="5.04604">
        <ele>220</ele>
        <time>2011-05-07T07:02:22Z</time>
      </trkpt>
      <trkpt lat="45.09527" lon="5.0462">
        <ele>220.02305603027</ele>
        <time>2011-05-07T07:02:25Z</time>
      </trkpt>
      <trkpt lat="45.09472" lon="5.04644">
        <ele>220</ele>
        <time>2011-05-07T07:02:32Z</time>
      </trkpt>
      <trkpt lat="45.09418" lon="5.04666">
        <ele>221.90966796875</ele>
        <time>2011-05-07T07:02:39Z</time>
      </trkpt>
      <trkpt lat="45.09367" lon="5.04695">
        <ele>220</ele>
        <time>2011-05-07T07:02:46Z</time>
      </trkpt>
      <trkpt lat="45.0936" lon="5.047">
        <ele>219.95779418945</ele>
        <time>2011-05-07T07:02:47Z</time>
      </trkpt>
      <trkpt lat="45.09324" lon="5.04733">
        <ele>216.80924987793</ele>
        <time>2011-05-07T07:02:52Z</time>
      </trkpt>
      <trkpt lat="45.09312" lon="5.04744">
        <ele>215.0206451416</ele>
        <time>2011-05-07T07:02:54Z</time>
      </trkpt>
      <trkpt lat="45.09304" lon="5.04754">
        <ele>213.51866149902</ele>
        <time>2011-05-07T07:02:56Z</time>
      </trkpt>
      <trkpt lat="45.09301" lon="5.04758">
        <ele>212.94589233398</ele>
        <time>2011-05-07T07:02:57Z</time>
      </trkpt>
      <trkpt lat="45.09301" lon="5.04781">
        <ele>211.04890441894</ele>
        <time>2011-05-07T07:03:01Z</time>
      </trkpt>
      <trkpt lat="45.09299" lon="5.04834">
        <ele>206.75071716309</ele>
        <time>2011-05-07T07:03:08Z</time>
      </trkpt>
      <trkpt lat="45.09295" lon="5.04875">
        <ele>203.66525268555</ele>
        <time>2011-05-07T07:03:13Z</time>
      </trkpt>
      <trkpt lat="45.09283" lon="5.04909">
        <ele>200.76147460938</ele>
        <time>2011-05-07T07:03:18Z</time>
      </trkpt>
      <trkpt lat="45.09254" lon="5.04951">
        <ele>200.11140441894</ele>
        <time>2011-05-07T07:03:26Z</time>
      </trkpt>
      <trkpt lat="45.0925" lon="5.04957">
        <ele>200.01223754883</ele>
        <time>2011-05-07T07:03:27Z</time>
      </trkpt>
      <trkpt lat="45.09244" lon="5.04968">
        <ele>200</ele>
        <time>2011-05-07T07:03:29Z</time>
      </trkpt>
      <trkpt lat="45.09234" lon="5.05002">
        <ele>200.06297302246</ele>
        <time>2011-05-07T07:03:34Z</time>
      </trkpt>
      <trkpt lat="45.09237" lon="5.05041">
        <ele>201.58552551269</ele>
        <time>2011-05-07T07:03:39Z</time>
      </trkpt>
      <trkpt lat="45.09258" lon="5.05096">
        <ele>208.23287963867</ele>
        <time>2011-05-07T07:03:47Z</time>
      </trkpt>
      <trkpt lat="45.09291" lon="5.05161">
        <ele>219.95782470703</ele>
        <time>2011-05-07T07:03:57Z</time>
      </trkpt>
      <trkpt lat="45.09321" lon="5.05211">
        <ele>224.80865478516</ele>
        <time>2011-05-07T07:04:04Z</time>
      </trkpt>
      <trkpt lat="45.09347" lon="5.05256">
        <ele>225.26040649414</ele>
        <time>2011-05-07T07:04:10Z</time>
      </trkpt>
      <trkpt lat="45.0938" lon="5.0531">
        <ele>222.6330871582</ele>
        <time>2011-05-07T07:04:17Z</time>
      </trkpt>
      <trkpt lat="45.09405" lon="5.05369">
        <ele>219.42289733887</ele>
        <time>2011-05-07T07:04:24Z</time>
      </trkpt>
      <trkpt lat="45.09421" lon="5.05433">
        <ele>219.16168212891</ele>
        <time>2011-05-07T07:04:31Z</time>
      </trkpt>
      <trkpt lat="45.09428" lon="5.05513">
        <ele>219.40887451172</ele>
        <time>2011-05-07T07:04:39Z</time>
      </trkpt>
      <trkpt lat="45.09433" lon="5.05612">
        <ele>219.60113525391</ele>
        <time>2011-05-07T07:04:49Z</time>
      </trkpt>
      <trkpt lat="45.09428" lon="5.05671">
        <ele>219.39514160156</ele>
        <time>2011-05-07T07:04:55Z</time>
      </trkpt>
      <trkpt lat="45.09414" lon="5.05763">
        <ele>219</ele>
        <time>2011-05-07T07:05:04Z</time>
      </trkpt>
      <trkpt lat="45.09393" lon="5.05841">
        <ele>219</ele>
        <time>2011-05-07T07:05:12Z</time>
      </trkpt>
      <trkpt lat="45.0938" lon="5.05903">
        <ele>218.67852783203</ele>
        <time>2011-05-07T07:05:18Z</time>
      </trkpt>
      <trkpt lat="45.09368" lon="5.06014">
        <ele>219.25280761719</ele>
        <time>2011-05-07T07:05:28Z</time>
      </trkpt>
      <trkpt lat="45.09363" lon="5.06119">
        <ele>219.07427978516</ele>
        <time>2011-05-07T07:05:38Z</time>
      </trkpt>
      <trkpt lat="45.09366" lon="5.06227">
        <ele>219.17041015625</ele>
        <time>2011-05-07T07:05:49Z</time>
      </trkpt>
      <trkpt lat="45.09368" lon="5.06331">
        <ele>219.25280761719</ele>
        <time>2011-05-07T07:06:00Z</time>
      </trkpt>
      <trkpt lat="45.09372" lon="5.06437">
        <ele>219.37640380859</ele>
        <time>2011-05-07T07:06:11Z</time>
      </trkpt>
      <trkpt lat="45.09377" lon="5.06526">
        <ele>219.58239746094</ele>
        <time>2011-05-07T07:06:20Z</time>
      </trkpt>
      <trkpt lat="45.09377" lon="5.06598">
        <ele>219.58239746094</ele>
        <time>2011-05-07T07:06:27Z</time>
      </trkpt>
      <trkpt lat="45.0937" lon="5.06675">
        <ele>219.30773925781</ele>
        <time>2011-05-07T07:06:35Z</time>
      </trkpt>
      <trkpt lat="45.09364" lon="5.0676">
        <ele>219.11547851562</ele>
        <time>2011-05-07T07:06:44Z</time>
      </trkpt>
      <trkpt lat="45.09368" lon="5.06837">
        <ele>219.25280761719</ele>
        <time>2011-05-07T07:06:52Z</time>
      </trkpt>
      <trkpt lat="45.09373" lon="5.06924">
        <ele>219.41760253906</ele>
        <time>2011-05-07T07:07:01Z</time>
      </trkpt>
      <trkpt lat="45.09379" lon="5.07034">
        <ele>219.65106201172</ele>
        <time>2011-05-07T07:07:13Z</time>
      </trkpt>
      <trkpt lat="45.09384" lon="5.07137">
        <ele>219.98965454102</ele>
        <time>2011-05-07T07:07:25Z</time>
      </trkpt>
      <trkpt lat="45.09383" lon="5.07154">
        <ele>220</ele>
        <time>2011-05-07T07:07:27Z</time>
      </trkpt>
      <trkpt lat="45.09375" lon="5.07185">
        <ele>220</ele>
        <time>2011-05-07T07:07:31Z</time>
      </trkpt>
      <trkpt lat="45.09361" lon="5.07199">
        <ele>220</ele>
        <time>2011-05-07T07:07:34Z</time>
      </trkpt>
      <trkpt lat="45.09325" lon="5.07233">
        <ele>218.70098876953</ele>
        <time>2011-05-07T07:07:41Z</time>
      </trkpt>
      <trkpt lat="45.09293" lon="5.073">
        <ele>217.54742431641</ele>
        <time>2011-05-07T07:07:49Z</time>
      </trkpt>
      <trkpt lat="45.09252" lon="5.07386">
        <ele>218</ele>
        <time>2011-05-07T07:07:59Z</time>
      </trkpt>
      <trkpt lat="45.09216" lon="5.07459">
        <ele>218</ele>
        <time>2011-05-07T07:08:08Z</time>
      </trkpt>
      <trkpt lat="45.09179" lon="5.07539">
        <ele>219</ele>
        <time>2011-05-07T07:08:19Z</time>
      </trkpt>
      <trkpt lat="45.09135" lon="5.07631">
        <ele>219.09983825684</ele>
        <time>2011-05-07T07:08:32Z</time>
      </trkpt>
      <trkpt lat="45.0911" lon="5.07668">
        <ele>221.19293212891</ele>
        <time>2011-05-07T07:08:38Z</time>
      </trkpt>
      <trkpt lat="45.09071" lon="5.07708">
        <ele>225.92887878418</ele>
        <time>2011-05-07T07:08:46Z</time>
      </trkpt>
      <trkpt lat="45.0903" lon="5.07747">
        <ele>230.64274597168</ele>
        <time>2011-05-07T07:08:54Z</time>
      </trkpt>
      <trkpt lat="45.08989" lon="5.0778">
        <ele>233.4992980957</ele>
        <time>2011-05-07T07:09:01Z</time>
      </trkpt>
      <trkpt lat="45.08935" lon="5.07813">
        <ele>236.62008666992</ele>
        <time>2011-05-07T07:09:09Z</time>
      </trkpt>
      <trkpt lat="45.08878" lon="5.07852">
        <ele>240</ele>
        <time>2011-05-07T07:09:17Z</time>
      </trkpt>
      <trkpt lat="45.08847" lon="5.07897">
        <ele>242.38049316406</ele>
        <time>2011-05-07T07:09:22Z</time>
      </trkpt>
      <trkpt lat="45.08839" lon="5.07919">
        <ele>243.16246032715</ele>
        <time>2011-05-07T07:09:24Z</time>
      </trkpt>
      <trkpt lat="45.08836" lon="5.07931">
        <ele>243.19651794434</ele>
        <time>2011-05-07T07:09:25Z</time>
      </trkpt>
      <trkpt lat="45.08825" lon="5.07982">
        <ele>241.79551696777</ele>
        <time>2011-05-07T07:09:29Z</time>
      </trkpt>
      <trkpt lat="45.08809" lon="5.08071">
        <ele>235.98352050781</ele>
        <time>2011-05-07T07:09:36Z</time>
      </trkpt>
      <trkpt lat="45.08804" lon="5.08097">
        <ele>234.46424865723</ele>
        <time>2011-05-07T07:09:38Z</time>
      </trkpt>
      <trkpt lat="45.08789" lon="5.08176">
        <ele>230.34858703613</ele>
        <time>2011-05-07T07:09:44Z</time>
      </trkpt>
      <trkpt lat="45.08783" lon="5.08217">
        <ele>228.517578125</ele>
        <time>2011-05-07T07:09:47Z</time>
      </trkpt>
      <trkpt lat="45.08773" lon="5.08289">
        <ele>225.42877197266</ele>
        <time>2011-05-07T07:09:52Z</time>
      </trkpt>
      <trkpt lat="45.08763" lon="5.08363">
        <ele>221.39379882812</ele>
        <time>2011-05-07T07:09:57Z</time>
      </trkpt>
      <trkpt lat="45.08747" lon="5.08489">
        <ele>214.4871673584</ele>
        <time>2011-05-07T07:10:05Z</time>
      </trkpt>
      <trkpt lat="45.08744" lon="5.08505">
        <ele>213.43063354492</ele>
        <time>2011-05-07T07:10:06Z</time>
      </trkpt>
      <trkpt lat="45.0874" lon="5.08547">
        <ele>211.30020141602</ele>
        <time>2011-05-07T07:10:09Z</time>
      </trkpt>
      <trkpt lat="45.0873" lon="5.08603">
        <ele>207.34956359863</ele>
        <time>2011-05-07T07:10:14Z</time>
      </trkpt>
      <trkpt lat="45.08729" lon="5.08628">
        <ele>205.98674011231</ele>
        <time>2011-05-07T07:10:16Z</time>
      </trkpt>
      <trkpt lat="45.08715" lon="5.08703">
        <ele>201.24810791016</ele>
        <time>2011-05-07T07:10:22Z</time>
      </trkpt>
      <trkpt lat="45.08689" lon="5.08801">
        <ele>197.79650878906</ele>
        <time>2011-05-07T07:10:30Z</time>
      </trkpt>
      <trkpt lat="45.08671" lon="5.08871">
        <ele>194.83639526367</ele>
        <time>2011-05-07T07:10:36Z</time>
      </trkpt>
      <trkpt lat="45.08649" lon="5.08924">
        <ele>193.07797241211</ele>
        <time>2011-05-07T07:10:41Z</time>
      </trkpt>
      <trkpt lat="45.08603" lon="5.09015">
        <ele>191.0517578125</ele>
        <time>2011-05-07T07:10:50Z</time>
      </trkpt>
      <trkpt lat="45.08581" lon="5.09083">
        <ele>190.88110351562</ele>
        <time>2011-05-07T07:10:56Z</time>
      </trkpt>
      <trkpt lat="45.0855" lon="5.09201">
        <ele>193.05926513672</ele>
        <time>2011-05-07T07:11:06Z</time>
      </trkpt>
      <trkpt lat="45.08516" lon="5.09258">
        <ele>193.47387695312</ele>
        <time>2011-05-07T07:11:12Z</time>
      </trkpt>
      <trkpt lat="45.08482" lon="5.09314">
        <ele>193.02755737305</ele>
        <time>2011-05-07T07:11:18Z</time>
      </trkpt>
      <trkpt lat="45.08469" lon="5.09358">
        <ele>192.88433837891</ele>
        <time>2011-05-07T07:11:22Z</time>
      </trkpt>
      <trkpt lat="45.0846" lon="5.0943">
        <ele>194.31677246094</ele>
        <time>2011-05-07T07:11:28Z</time>
      </trkpt>
      <trkpt lat="45.0845" lon="5.09522">
        <ele>195.36791992188</ele>
        <time>2011-05-07T07:11:36Z</time>
      </trkpt>
      <trkpt lat="45.08451" lon="5.09556">
        <ele>195.47778320312</ele>
        <time>2011-05-07T07:11:39Z</time>
      </trkpt>
      <trkpt lat="45.08462" lon="5.096">
        <ele>196.88528442383</ele>
        <time>2011-05-07T07:11:43Z</time>
      </trkpt>
      <trkpt lat="45.08506" lon="5.09704">
        <ele>198.35752868652</ele>
        <time>2011-05-07T07:11:53Z</time>
      </trkpt>
      <trkpt lat="45.0854" lon="5.09796">
        <ele>197.76550292969</ele>
        <time>2011-05-07T07:12:02Z</time>
      </trkpt>
      <trkpt lat="45.08568" lon="5.09896">
        <ele>196.29249572754</ele>
        <time>2011-05-07T07:12:11Z</time>
      </trkpt>
      <trkpt lat="45.08601" lon="5.10017">
        <ele>195.01657104492</ele>
        <time>2011-05-07T07:12:22Z</time>
      </trkpt>
      <trkpt lat="45.08629" lon="5.10131">
        <ele>192.92666625977</ele>
        <time>2011-05-07T07:12:33Z</time>
      </trkpt>
      <trkpt lat="45.0865" lon="5.10236">
        <ele>192.10020446777</ele>
        <time>2011-05-07T07:12:43Z</time>
      </trkpt>
      <trkpt lat="45.08671" lon="5.10314">
        <ele>193.14904785156</ele>
        <time>2011-05-07T07:12:50Z</time>
      </trkpt>
      <trkpt lat="45.08705" lon="5.10429">
        <ele>194.77001953125</ele>
        <time>2011-05-07T07:13:00Z</time>
      </trkpt>
      <trkpt lat="45.08735" lon="5.10546">
        <ele>196.45617675781</ele>
        <time>2011-05-07T07:13:10Z</time>
      </trkpt>
      <trkpt lat="45.08766" lon="5.10675">
        <ele>196.58227539062</ele>
        <time>2011-05-07T07:13:21Z</time>
      </trkpt>
      <trkpt lat="45.08775" lon="5.10747">
        <ele>196.89813232422</ele>
        <time>2011-05-07T07:13:27Z</time>
      </trkpt>
      <trkpt lat="45.08778" lon="5.10843">
        <ele>196.02172851562</ele>
        <time>2011-05-07T07:13:35Z</time>
      </trkpt>
      <trkpt lat="45.08784" lon="5.1096">
        <ele>196</ele>
        <time>2011-05-07T07:13:45Z</time>
      </trkpt>
      <trkpt lat="45.08795" lon="5.11026">
        <ele>196</ele>
        <time>2011-05-07T07:13:51Z</time>
      </trkpt>
      <trkpt lat="45.0882" lon="5.11157">
        <ele>195.51861572266</ele>
        <time>2011-05-07T07:14:03Z</time>
      </trkpt>
      <trkpt lat="45.08829" lon="5.11232">
        <ele>195.51356506348</ele>
        <time>2011-05-07T07:14:10Z</time>
      </trkpt>
      <trkpt lat="45.08837" lon="5.1133">
        <ele>195</ele>
        <time>2011-05-07T07:14:19Z</time>
      </trkpt>
      <trkpt lat="45.08846" lon="5.1143">
        <ele>195</ele>
        <time>2011-05-07T07:14:28Z</time>
      </trkpt>
      <trkpt lat="45.08854" lon="5.11519">
        <ele>195</ele>
        <time>2011-05-07T07:14:36Z</time>
      </trkpt>
      <trkpt lat="45.0886" lon="5.11592">
        <ele>195</ele>
        <time>2011-05-07T07:14:43Z</time>
      </trkpt>
      <trkpt lat="45.08867" lon="5.1169">
        <ele>195.85018920898</ele>
        <time>2011-05-07T07:14:52Z</time>
      </trkpt>
      <trkpt lat="45.08875" lon="5.11805">
        <ele>196</ele>
        <time>2011-05-07T07:15:02Z</time>
      </trkpt>
      <trkpt lat="45.08881" lon="5.11903">
        <ele>197</ele>
        <time>2011-05-07T07:15:11Z</time>
      </trkpt>
      <trkpt lat="45.08887" lon="5.11982">
        <ele>197</ele>
        <time>2011-05-07T07:15:19Z</time>
      </trkpt>
      <trkpt lat="45.08892" lon="5.12055">
        <ele>197.98277282715</ele>
        <time>2011-05-07T07:15:26Z</time>
      </trkpt>
      <trkpt lat="45.08898" lon="5.12154">
        <ele>198</ele>
        <time>2011-05-07T07:15:35Z</time>
      </trkpt>
      <trkpt lat="45.08903" lon="5.12241">
        <ele>199</ele>
        <time>2011-05-07T07:15:43Z</time>
      </trkpt>
      <trkpt lat="45.08907" lon="5.12335">
        <ele>199.02928161621</ele>
        <time>2011-05-07T07:15:52Z</time>
      </trkpt>
      <trkpt lat="45.08912" lon="5.12445">
        <ele>200</ele>
        <time>2011-05-07T07:16:03Z</time>
      </trkpt>
      <trkpt lat="45.08906" lon="5.12512">
        <ele>201.06170654297</ele>
        <time>2011-05-07T07:16:10Z</time>
      </trkpt>
      <trkpt lat="45.08887" lon="5.12576">
        <ele>203.67875671387</ele>
        <time>2011-05-07T07:16:17Z</time>
      </trkpt>
      <trkpt lat="45.08863" lon="5.12656">
        <ele>207.6921081543</ele>
        <time>2011-05-07T07:16:25Z</time>
      </trkpt>
      <trkpt lat="45.08842" lon="5.12717">
        <ele>209.4631652832</ele>
        <time>2011-05-07T07:16:31Z</time>
      </trkpt>
      <trkpt lat="45.08821" lon="5.128">
        <ele>208.63824462891</ele>
        <time>2011-05-07T07:16:39Z</time>
      </trkpt>
      <trkpt lat="45.08806" lon="5.12875">
        <ele>207.03149414062</ele>
        <time>2011-05-07T07:16:46Z</time>
      </trkpt>
      <trkpt lat="45.08796" lon="5.12941">
        <ele>206.30688476562</ele>
        <time>2011-05-07T07:16:52Z</time>
      </trkpt>
      <trkpt lat="45.08794" lon="5.12978">
        <ele>206.16955566406</ele>
        <time>2011-05-07T07:16:56Z</time>
      </trkpt>
      <trkpt lat="45.08793" lon="5.12985">
        <ele>206.11462402344</ele>
        <time>2011-05-07T07:16:57Z</time>
      </trkpt>
      <trkpt lat="45.08797" lon="5.1302">
        <ele>206.38928222656</ele>
        <time>2011-05-07T07:17:02Z</time>
      </trkpt>
      <trkpt lat="45.08794" lon="5.13051">
        <ele>206.14208984375</ele>
        <time>2011-05-07T07:17:06Z</time>
      </trkpt>
      <trkpt lat="45.08783" lon="5.13099">
        <ele>205.00920104981</ele>
        <time>2011-05-07T07:17:12Z</time>
      </trkpt>
      <trkpt lat="45.08776" lon="5.13141">
        <ele>202.81799316406</ele>
        <time>2011-05-07T07:17:18Z</time>
      </trkpt>
      <trkpt lat="45.08756" lon="5.13181">
        <ele>200.5284576416</ele>
        <time>2011-05-07T07:17:25Z</time>
      </trkpt>
      <trkpt lat="45.08743" lon="5.13206">
        <ele>199.73083496094</ele>
        <time>2011-05-07T07:17:29Z</time>
      </trkpt>
      <trkpt lat="45.08722" lon="5.13249">
        <ele>199.00299072266</ele>
        <time>2011-05-07T07:17:35Z</time>
      </trkpt>
      <trkpt lat="45.08694" lon="5.13315">
        <ele>199</ele>
        <time>2011-05-07T07:17:44Z</time>
      </trkpt>
      <trkpt lat="45.08667" lon="5.13378">
        <ele>199</ele>
        <time>2011-05-07T07:17:52Z</time>
      </trkpt>
      <trkpt lat="45.08641" lon="5.13443">
        <ele>199</ele>
        <time>2011-05-07T07:18:00Z</time>
      </trkpt>
      <trkpt lat="45.08627" lon="5.13471">
        <ele>199</ele>
        <time>2011-05-07T07:18:04Z</time>
      </trkpt>
      <trkpt lat="45.08615" lon="5.13504">
        <ele>199</ele>
        <time>2011-05-07T07:18:08Z</time>
      </trkpt>
      <trkpt lat="45.0858" lon="5.1358">
        <ele>199</ele>
        <time>2011-05-07T07:18:17Z</time>
      </trkpt>
      <trkpt lat="45.08549" lon="5.13625">
        <ele>199</ele>
        <time>2011-05-07T07:18:23Z</time>
      </trkpt>
      <trkpt lat="45.08495" lon="5.13696">
        <ele>199</ele>
        <time>2011-05-07T07:18:33Z</time>
      </trkpt>
      <trkpt lat="45.0844" lon="5.13768">
        <ele>198.84063720703</ele>
        <time>2011-05-07T07:18:43Z</time>
      </trkpt>
      <trkpt lat="45.08392" lon="5.13832">
        <ele>198</ele>
        <time>2011-05-07T07:18:52Z</time>
      </trkpt>
      <trkpt lat="45.08357" lon="5.13885">
        <ele>197.86059570312</ele>
        <time>2011-05-07T07:18:59Z</time>
      </trkpt>
      <trkpt lat="45.08336" lon="5.13946">
        <ele>197.15518188477</ele>
        <time>2011-05-07T07:19:05Z</time>
      </trkpt>
      <trkpt lat="45.08309" lon="5.1404">
        <ele>198</ele>
        <time>2011-05-07T07:19:14Z</time>
      </trkpt>
      <trkpt lat="45.08276" lon="5.14154">
        <ele>198.97148132324</ele>
        <time>2011-05-07T07:19:26Z</time>
      </trkpt>
      <trkpt lat="45.08255" lon="5.14229">
        <ele>199.09213256836</ele>
        <time>2011-05-07T07:19:34Z</time>
      </trkpt>
      <trkpt lat="45.08238" lon="5.14287">
        <ele>200.06983947754</ele>
        <time>2011-05-07T07:19:41Z</time>
      </trkpt>
      <trkpt lat="45.08222" lon="5.1433">
        <ele>200.89575195312</ele>
        <time>2011-05-07T07:19:47Z</time>
      </trkpt>
      <trkpt lat="45.0822" lon="5.14338">
        <ele>200.98835754394</ele>
        <time>2011-05-07T07:19:48Z</time>
      </trkpt>
      <trkpt lat="45.082" lon="5.14392">
        <ele>201.60791015625</ele>
        <time>2011-05-07T07:19:55Z</time>
      </trkpt>
      <trkpt lat="45.08186" lon="5.14434">
        <ele>201.10569763184</ele>
        <time>2011-05-07T07:20:01Z</time>
      </trkpt>
      <trkpt lat="45.08173" lon="5.14479">
        <ele>200.71870422363</ele>
        <time>2011-05-07T07:20:07Z</time>
      </trkpt>
      <trkpt lat="45.08169" lon="5.14501">
        <ele>201.15307617188</ele>
        <time>2011-05-07T07:20:11Z</time>
      </trkpt>
      <trkpt lat="45.08162" lon="5.14525">
        <ele>200.81561279297</ele>
        <time>2011-05-07T07:20:15Z</time>
      </trkpt>
      <trkpt lat="45.08158" lon="5.14539">
        <ele>201.08239746094</ele>
        <time>2011-05-07T07:20:17Z</time>
      </trkpt>
      <trkpt lat="45.08141" lon="5.14596">
        <ele>201.08798217773</ele>
        <time>2011-05-07T07:20:25Z</time>
      </trkpt>
      <trkpt lat="45.08135" lon="5.14616">
        <ele>200.70861816406</ele>
        <time>2011-05-07T07:20:27Z</time>
      </trkpt>
      <trkpt lat="45.08112" lon="5.14674">
        <ele>199.05412292481</ele>
        <time>2011-05-07T07:20:32Z</time>
      </trkpt>
      <trkpt lat="45.08092" lon="5.14725">
        <ele>198.38703918457</ele>
        <time>2011-05-07T07:20:36Z</time>
      </trkpt>
      <trkpt lat="45.08079" lon="5.1476">
        <ele>198.84930419922</ele>
        <time>2011-05-07T07:20:39Z</time>
      </trkpt>
      <trkpt lat="45.0806" lon="5.14815">
        <ele>198.14892578125</ele>
        <time>2011-05-07T07:20:44Z</time>
      </trkpt>
      <trkpt lat="45.08044" lon="5.14875">
        <ele>198.19921875</ele>
        <time>2011-05-07T07:20:50Z</time>
      </trkpt>
      <trkpt lat="45.08027" lon="5.14949">
        <ele>197.15606689453</ele>
        <time>2011-05-07T07:20:58Z</time>
      </trkpt>
      <trkpt lat="45.08006" lon="5.15026">
        <ele>197.22631835938</ele>
        <time>2011-05-07T07:21:07Z</time>
      </trkpt>
      <trkpt lat="45.0799" lon="5.15094">
        <ele>197.27694702148</ele>
        <time>2011-05-07T07:21:15Z</time>
      </trkpt>
      <trkpt lat="45.0798" lon="5.15167">
        <ele>197.29248046875</ele>
        <time>2011-05-07T07:21:22Z</time>
      </trkpt>
      <trkpt lat="45.07966" lon="5.15275">
        <ele>197.56872558594</ele>
        <time>2011-05-07T07:21:32Z</time>
      </trkpt>
      <trkpt lat="45.07945" lon="5.15353">
        <ele>197.76997375488</ele>
        <time>2011-05-07T07:21:40Z</time>
      </trkpt>
      <trkpt lat="45.07921" lon="5.15446">
        <ele>197.3360748291</ele>
        <time>2011-05-07T07:21:50Z</time>
      </trkpt>
      <trkpt lat="45.079" lon="5.15539">
        <ele>197.05561828613</ele>
        <time>2011-05-07T07:21:59Z</time>
      </trkpt>
      <trkpt lat="45.07883" lon="5.15626">
        <ele>196.60864257812</ele>
        <time>2011-05-07T07:22:07Z</time>
      </trkpt>
      <trkpt lat="45.07873" lon="5.15691">
        <ele>196.71882629394</ele>
        <time>2011-05-07T07:22:13Z</time>
      </trkpt>
      <trkpt lat="45.07852" lon="5.15786">
        <ele>196.87849426269</ele>
        <time>2011-05-07T07:22:22Z</time>
      </trkpt>
      <trkpt lat="45.07823" lon="5.15903">
        <ele>197.04844665527</ele>
        <time>2011-05-07T07:22:33Z</time>
      </trkpt>
      <trkpt lat="45.07794" lon="5.16009">
        <ele>195.7724609375</ele>
        <time>2011-05-07T07:22:43Z</time>
      </trkpt>
      <trkpt lat="45.07779" lon="5.16066">
        <ele>195.09922790527</ele>
        <time>2011-05-07T07:22:48Z</time>
      </trkpt>
      <trkpt lat="45.07758" lon="5.1611">
        <ele>193.544921875</ele>
        <time>2011-05-07T07:22:52Z</time>
      </trkpt>
      <trkpt lat="45.07722" lon="5.16169">
        <ele>191.0682220459</ele>
        <time>2011-05-07T07:22:58Z</time>
      </trkpt>
      <trkpt lat="45.07706" lon="5.16194">
        <ele>190.85774230957</ele>
        <time>2011-05-07T07:23:02Z</time>
      </trkpt>
      <trkpt lat="45.07699" lon="5.16205">
        <ele>190.31518554688</ele>
        <time>2011-05-07T07:23:04Z</time>
      </trkpt>
      <trkpt lat="45.07674" lon="5.16245">
        <ele>190</ele>
        <time>2011-05-07T07:23:11Z</time>
      </trkpt>
      <trkpt lat="45.07667" lon="5.16253">
        <ele>190</ele>
        <time>2011-05-07T07:23:14Z</time>
      </trkpt>
      <trkpt lat="45.07664" lon="5.16255">
        <ele>190</ele>
        <time>2011-05-07T07:23:15Z</time>
      </trkpt>
      <trkpt lat="45.07666" lon="5.16283">
        <ele>189.99340820312</ele>
        <time>2011-05-07T07:23:19Z</time>
      </trkpt>
      <trkpt lat="45.07676" lon="5.16329">
        <ele>189.44013977051</ele>
        <time>2011-05-07T07:23:24Z</time>
      </trkpt>
      <trkpt lat="45.07683" lon="5.16359">
        <ele>189.58081054688</ele>
        <time>2011-05-07T07:23:27Z</time>
      </trkpt>
      <trkpt lat="45.0769" lon="5.1639">
        <ele>189</ele>
        <time>2011-05-07T07:23:30Z</time>
      </trkpt>
      <trkpt lat="45.07712" lon="5.16493">
        <ele>189.63824462891</ele>
        <time>2011-05-07T07:23:40Z</time>
      </trkpt>
      <trkpt lat="45.07734" lon="5.16589">
        <ele>189.8786315918</ele>
        <time>2011-05-07T07:23:49Z</time>
      </trkpt>
      <trkpt lat="45.07764" lon="5.16728">
        <ele>189.51965332031</ele>
        <time>2011-05-07T07:24:01Z</time>
      </trkpt>
      <trkpt lat="45.07789" lon="5.16837">
        <ele>189.92936706543</ele>
        <time>2011-05-07T07:24:10Z</time>
      </trkpt>
      <trkpt lat="45.07815" lon="5.16931">
        <ele>186.99227905273</ele>
        <time>2011-05-07T07:24:18Z</time>
      </trkpt>
      <trkpt lat="45.07841" lon="5.1701">
        <ele>186.79870605469</ele>
        <time>2011-05-07T07:24:25Z</time>
      </trkpt>
      <trkpt lat="45.07872" lon="5.1708">
        <ele>187.24131774902</ele>
        <time>2011-05-07T07:24:32Z</time>
      </trkpt>
      <trkpt lat="45.07913" lon="5.17159">
        <ele>187.21597290039</ele>
        <time>2011-05-07T07:24:40Z</time>
      </trkpt>
      <trkpt lat="45.07956" lon="5.17232">
        <ele>186.53752136231</ele>
        <time>2011-05-07T07:24:47Z</time>
      </trkpt>
      <trkpt lat="45.0797" lon="5.17254">
        <ele>186.56890869141</ele>
        <time>2011-05-07T07:24:49Z</time>
      </trkpt>
      <trkpt lat="45.08008" lon="5.1731">
        <ele>188.80490112305</ele>
        <time>2011-05-07T07:24:54Z</time>
      </trkpt>
      <trkpt lat="45.08051" lon="5.17369">
        <ele>190.15563964844</ele>
        <time>2011-05-07T07:24:59Z</time>
      </trkpt>
      <trkpt lat="45.08073" lon="5.17407">
        <ele>189.73504638672</ele>
        <time>2011-05-07T07:25:02Z</time>
      </trkpt>
      <trkpt lat="45.08102" lon="5.17456">
        <ele>191.28303527832</ele>
        <time>2011-05-07T07:25:06Z</time>
      </trkpt>
      <trkpt lat="45.08131" lon="5.17502">
        <ele>186.64672851562</ele>
        <time>2011-05-07T07:25:10Z</time>
      </trkpt>
      <trkpt lat="45.08183" lon="5.1758">
        <ele>180.55044555664</ele>
        <time>2011-05-07T07:25:17Z</time>
      </trkpt>
      <trkpt lat="45.08252" lon="5.17675">
        <ele>177.22404479981</ele>
        <time>2011-05-07T07:25:26Z</time>
      </trkpt>
      <trkpt lat="45.0832" lon="5.17764">
        <ele>186.13098144531</ele>
        <time>2011-05-07T07:25:35Z</time>
      </trkpt>
      <trkpt lat="45.08379" lon="5.17838">
        <ele>199.1862487793</ele>
        <time>2011-05-07T07:25:43Z</time>
      </trkpt>
      <trkpt lat="45.08411" lon="5.17893">
        <ele>191.83868408203</ele>
        <time>2011-05-07T07:25:48Z</time>
      </trkpt>
      <trkpt lat="45.08435" lon="5.17939">
        <ele>187.13265991211</ele>
        <time>2011-05-07T07:25:52Z</time>
      </trkpt>
      <trkpt lat="45.08477" lon="5.18022">
        <ele>182.71588134766</ele>
        <time>2011-05-07T07:25:59Z</time>
      </trkpt>
      <trkpt lat="45.085" lon="5.18084">
        <ele>177.71943664551</ele>
        <time>2011-05-07T07:26:04Z</time>
      </trkpt>
      <trkpt lat="45.08525" lon="5.1817">
        <ele>174.09396362305</ele>
        <time>2011-05-07T07:26:11Z</time>
      </trkpt>
      <trkpt lat="45.08561" lon="5.18288">
        <ele>168.53890991211</ele>
        <time>2011-05-07T07:26:21Z</time>
      </trkpt>
      <trkpt lat="45.08566" lon="5.18356">
        <ele>163.35083007812</ele>
        <time>2011-05-07T07:26:26Z</time>
      </trkpt>
      <trkpt lat="45.08566" lon="5.18446">
        <ele>159.37249755859</ele>
        <time>2011-05-07T07:26:32Z</time>
      </trkpt>
      <trkpt lat="45.08567" lon="5.18504">
        <ele>158.41369628906</ele>
        <time>2011-05-07T07:26:36Z</time>
      </trkpt>
      <trkpt lat="45.08569" lon="5.18577">
        <ele>157.70680236816</ele>
        <time>2011-05-07T07:26:41Z</time>
      </trkpt>
      <trkpt lat="45.08568" lon="5.18667">
        <ele>156.45489501953</ele>
        <time>2011-05-07T07:26:48Z</time>
      </trkpt>
      <trkpt lat="45.08566" lon="5.18741">
        <ele>156.60113525391</ele>
        <time>2011-05-07T07:26:54Z</time>
      </trkpt>
      <trkpt lat="45.08564" lon="5.18753">
        <ele>156.58020019531</ele>
        <time>2011-05-07T07:26:55Z</time>
      </trkpt>
      <trkpt lat="45.08548" lon="5.18794">
        <ele>156.1569519043</ele>
        <time>2011-05-07T07:26:59Z</time>
      </trkpt>
      <trkpt lat="45.08545" lon="5.18818">
        <ele>156.20690917969</ele>
        <time>2011-05-07T07:27:01Z</time>
      </trkpt>
      <trkpt lat="45.08551" lon="5.1884">
        <ele>156.71481323242</ele>
        <time>2011-05-07T07:27:03Z</time>
      </trkpt>
      <trkpt lat="45.08557" lon="5.18875">
        <ele>157.11328125</ele>
        <time>2011-05-07T07:27:06Z</time>
      </trkpt>
      <trkpt lat="45.08552" lon="5.18949">
        <ele>157.03518676758</ele>
        <time>2011-05-07T07:27:12Z</time>
      </trkpt>
      <trkpt lat="45.08546" lon="5.19035">
        <ele>157.38177490234</ele>
        <time>2011-05-07T07:27:19Z</time>
      </trkpt>
      <trkpt lat="45.0854" lon="5.19108">
        <ele>157.43865966797</ele>
        <time>2011-05-07T07:27:25Z</time>
      </trkpt>
      <trkpt lat="45.08531" lon="5.1922">
        <ele>157.24560546875</ele>
        <time>2011-05-07T07:27:34Z</time>
      </trkpt>
      <trkpt lat="45.08522" lon="5.19328">
        <ele>157.61389160156</ele>
        <time>2011-05-07T07:27:43Z</time>
      </trkpt>
      <trkpt lat="45.08513" lon="5.19454">
        <ele>157.63833618164</ele>
        <time>2011-05-07T07:27:54Z</time>
      </trkpt>
      <trkpt lat="45.08508" lon="5.19535">
        <ele>157.57019042969</ele>
        <time>2011-05-07T07:28:02Z</time>
      </trkpt>
      <trkpt lat="45.08506" lon="5.19604">
        <ele>158.20269775391</ele>
        <time>2011-05-07T07:28:09Z</time>
      </trkpt>
      <trkpt lat="45.08505" lon="5.19666">
        <ele>158.37406921387</ele>
        <time>2011-05-07T07:28:15Z</time>
      </trkpt>
      <trkpt lat="45.08503" lon="5.19768">
        <ele>158.81063842773</ele>
        <time>2011-05-07T07:28:24Z</time>
      </trkpt>
      <trkpt lat="45.08502" lon="5.19867">
        <ele>159.13073730469</ele>
        <time>2011-05-07T07:28:33Z</time>
      </trkpt>
      <trkpt lat="45.08501" lon="5.19976">
        <ele>160.03790283203</ele>
        <time>2011-05-07T07:28:43Z</time>
      </trkpt>
      <trkpt lat="45.08503" lon="5.20066">
        <ele>160.18566894531</ele>
        <time>2011-05-07T07:28:51Z</time>
      </trkpt>
      <trkpt lat="45.08504" lon="5.20151">
        <ele>160.48449707031</ele>
        <time>2011-05-07T07:28:58Z</time>
      </trkpt>
      <trkpt lat="45.08506" lon="5.20253">
        <ele>160.69625854492</ele>
        <time>2011-05-07T07:29:07Z</time>
      </trkpt>
      <trkpt lat="45.08508" lon="5.20377">
        <ele>159.69009399414</ele>
        <time>2011-05-07T07:29:18Z</time>
      </trkpt>
      <trkpt lat="45.0851" lon="5.20492">
        <ele>159.35375976562</ele>
        <time>2011-05-07T07:29:28Z</time>
      </trkpt>
      <trkpt lat="45.08512" lon="5.20607">
        <ele>159.42242431641</ele>
        <time>2011-05-07T07:29:38Z</time>
      </trkpt>
      <trkpt lat="45.08512" lon="5.20655">
        <ele>158.43615722656</ele>
        <time>2011-05-07T07:29:42Z</time>
      </trkpt>
      <trkpt lat="45.08513" lon="5.20703">
        <ele>158.47735595703</ele>
        <time>2011-05-07T07:29:46Z</time>
      </trkpt>
      <trkpt lat="45.08516" lon="5.20849">
        <ele>157.66189575195</ele>
        <time>2011-05-07T07:29:58Z</time>
      </trkpt>
      <trkpt lat="45.08517" lon="5.20959">
        <ele>157.51354980469</ele>
        <time>2011-05-07T07:30:07Z</time>
      </trkpt>
      <trkpt lat="45.08513" lon="5.21024">
        <ele>158</ele>
        <time>2011-05-07T07:30:13Z</time>
      </trkpt>
      <trkpt lat="45.08501" lon="5.21068">
        <ele>159</ele>
        <time>2011-05-07T07:30:18Z</time>
      </trkpt>
      <trkpt lat="45.08484" lon="5.21124">
        <ele>159</ele>
        <time>2011-05-07T07:30:25Z</time>
      </trkpt>
      <trkpt lat="45.08479" lon="5.2114">
        <ele>159.01200866699</ele>
        <time>2011-05-07T07:30:27Z</time>
      </trkpt>
      <trkpt lat="45.08472" lon="5.21173">
        <ele>159.23014831543</ele>
        <time>2011-05-07T07:30:31Z</time>
      </trkpt>
      <trkpt lat="45.08475" lon="5.21206">
        <ele>160.99667358398</ele>
        <time>2011-05-07T07:30:35Z</time>
      </trkpt>
      <trkpt lat="45.08485" lon="5.21239">
        <ele>163.07179260254</ele>
        <time>2011-05-07T07:30:39Z</time>
      </trkpt>
      <trkpt lat="45.08498" lon="5.21288">
        <ele>166.63424682617</ele>
        <time>2011-05-07T07:30:46Z</time>
      </trkpt>
      <trkpt lat="45.08502" lon="5.21301">
        <ele>167.83587646484</ele>
        <time>2011-05-07T07:30:48Z</time>
      </trkpt>
      <trkpt lat="45.08517" lon="5.21353">
        <ele>171.31100463867</ele>
        <time>2011-05-07T07:30:56Z</time>
      </trkpt>
      <trkpt lat="45.0853" lon="5.21396">
        <ele>174.58796691894</ele>
        <time>2011-05-07T07:31:03Z</time>
      </trkpt>
      <trkpt lat="45.08544" lon="5.21445">
        <ele>177.58520507812</ele>
        <time>2011-05-07T07:31:11Z</time>
      </trkpt>
      <trkpt lat="45.08559" lon="5.21497">
        <ele>180.13903808594</ele>
        <time>2011-05-07T07:31:20Z</time>
      </trkpt>
      <trkpt lat="45.08577" lon="5.21546">
        <ele>181.50776672363</ele>
        <time>2011-05-07T07:31:29Z</time>
      </trkpt>
      <trkpt lat="45.08595" lon="5.21593">
        <ele>182.34451293945</ele>
        <time>2011-05-07T07:31:38Z</time>
      </trkpt>
      <trkpt lat="45.0862" lon="5.21652">
        <ele>183.4714050293</ele>
        <time>2011-05-07T07:31:49Z</time>
      </trkpt>
      <trkpt lat="45.08647" lon="5.21707">
        <ele>184.125</ele>
        <time>2011-05-07T07:31:59Z</time>
      </trkpt>
      <trkpt lat="45.08667" lon="5.21747">
        <ele>184.99980163574</ele>
        <time>2011-05-07T07:32:06Z</time>
      </trkpt>
      <trkpt lat="45.08682" lon="5.21777">
        <ele>185.53593444824</ele>
        <time>2011-05-07T07:32:11Z</time>
      </trkpt>
      <trkpt lat="45.08686" lon="5.21804">
        <ele>185.97799682617</ele>
        <time>2011-05-07T07:32:15Z</time>
      </trkpt>
      <trkpt lat="45.08678" lon="5.21821">
        <ele>186.21586608887</ele>
        <time>2011-05-07T07:32:18Z</time>
      </trkpt>
      <trkpt lat="45.08673" lon="5.21824">
        <ele>186.15548706055</ele>
        <time>2011-05-07T07:32:19Z</time>
      </trkpt>
      <trkpt lat="45.08645" lon="5.21833">
        <ele>186</ele>
        <time>2011-05-07T07:32:24Z</time>
      </trkpt>
      <trkpt lat="45.08608" lon="5.21818">
        <ele>186</ele>
        <time>2011-05-07T07:32:30Z</time>
      </trkpt>
      <trkpt lat="45.0858" lon="5.21808">
        <ele>185.87998962402</ele>
        <time>2011-05-07T07:32:34Z</time>
      </trkpt>
      <trkpt lat="45.08548" lon="5.21815">
        <ele>185.24969482422</ele>
        <time>2011-05-07T07:32:38Z</time>
      </trkpt>
      <trkpt lat="45.0853" lon="5.21838">
        <ele>185.22117614746</ele>
        <time>2011-05-07T07:32:41Z</time>
      </trkpt>
      <trkpt lat="45.08525" lon="5.21847">
        <ele>185.44396972656</ele>
        <time>2011-05-07T07:32:42Z</time>
      </trkpt>
      <trkpt lat="45.08488" lon="5.21935">
        <ele>186.35794067383</ele>
        <time>2011-05-07T07:32:51Z</time>
      </trkpt>
      <trkpt lat="45.08461" lon="5.22007">
        <ele>187.15347290039</ele>
        <time>2011-05-07T07:32:59Z</time>
      </trkpt>
      <trkpt lat="45.08426" lon="5.22075">
        <ele>187.31878662109</ele>
        <time>2011-05-07T07:33:07Z</time>
      </trkpt>
      <trkpt lat="45.08382" lon="5.22143">
        <ele>187.73950195312</ele>
        <time>2011-05-07T07:33:16Z</time>
      </trkpt>
      <trkpt lat="45.08363" lon="5.22188">
        <ele>187.82757568359</ele>
        <time>2011-05-07T07:33:21Z</time>
      </trkpt>
      <trkpt lat="45.08336" lon="5.22268">
        <ele>188.17353820801</ele>
        <time>2011-05-07T07:33:29Z</time>
      </trkpt>
      <trkpt lat="45.08327" lon="5.22331">
        <ele>189.69854736328</ele>
        <time>2011-05-07T07:33:35Z</time>
      </trkpt>
      <trkpt lat="45.08316" lon="5.22408">
        <ele>191.06231689453</ele>
        <time>2011-05-07T07:33:42Z</time>
      </trkpt>
      <trkpt lat="45.08298" lon="5.22473">
        <ele>192.73199462891</ele>
        <time>2011-05-07T07:33:48Z</time>
      </trkpt>
      <trkpt lat="45.08272" lon="5.22519">
        <ele>192.47930908203</ele>
        <time>2011-05-07T07:33:53Z</time>
      </trkpt>
      <trkpt lat="45.08225" lon="5.22581">
        <ele>192.03549194336</ele>
        <time>2011-05-07T07:34:01Z</time>
      </trkpt>
      <trkpt lat="45.08184" lon="5.2264">
        <ele>192.25015258789</ele>
        <time>2011-05-07T07:34:09Z</time>
      </trkpt>
      <trkpt lat="45.08144" lon="5.22696">
        <ele>185.62887573242</ele>
        <time>2011-05-07T07:34:18Z</time>
      </trkpt>
      <trkpt lat="45.08115" lon="5.22737">
        <ele>183.23466491699</ele>
        <time>2011-05-07T07:34:25Z</time>
      </trkpt>
      <trkpt lat="45.08093" lon="5.22784">
        <ele>183.09483337402</ele>
        <time>2011-05-07T07:34:32Z</time>
      </trkpt>
      <trkpt lat="45.08073" lon="5.22835">
        <ele>183.93780517578</ele>
        <time>2011-05-07T07:34:39Z</time>
      </trkpt>
      <trkpt lat="45.08047" lon="5.22899">
        <ele>184.7834777832</ele>
        <time>2011-05-07T07:34:48Z</time>
      </trkpt>
      <trkpt lat="45.08035" lon="5.22947">
        <ele>186.18006896973</ele>
        <time>2011-05-07T07:34:54Z</time>
      </trkpt>
      <trkpt lat="45.08028" lon="5.22999">
        <ele>187.99876403809</ele>
        <time>2011-05-07T07:35:00Z</time>
      </trkpt>
      <trkpt lat="45.08016" lon="5.23051">
        <ele>190.38948059082</ele>
        <time>2011-05-07T07:35:06Z</time>
      </trkpt>
      <trkpt lat="45.07988" lon="5.23133">
        <ele>192.4319152832</ele>
        <time>2011-05-07T07:35:16Z</time>
      </trkpt>
      <trkpt lat="45.07962" lon="5.23207">
        <ele>193.81741333008</ele>
        <time>2011-05-07T07:35:25Z</time>
      </trkpt>
      <trkpt lat="45.07941" lon="5.23266">
        <ele>194.99433898926</ele>
        <time>2011-05-07T07:35:32Z</time>
      </trkpt>
      <trkpt lat="45.07915" lon="5.23321">
        <ele>197.90388488769</ele>
        <time>2011-05-07T07:35:39Z</time>
      </trkpt>
      <trkpt lat="45.07889" lon="5.23374">
        <ele>199.47035217285</ele>
        <time>2011-05-07T07:35:46Z</time>
      </trkpt>
      <trkpt lat="45.07865" lon="5.23434">
        <ele>200.67182922363</ele>
        <time>2011-05-07T07:35:53Z</time>
      </trkpt>
      <trkpt lat="45.07846" lon="5.23503">
        <ele>202.11892700195</ele>
        <time>2011-05-07T07:36:00Z</time>
      </trkpt>
      <trkpt lat="45.07819" lon="5.23608">
        <ele>204.4362487793</ele>
        <time>2011-05-07T07:36:11Z</time>
      </trkpt>
      <trkpt lat="45.07796" lon="5.23687">
        <ele>206.37020874023</ele>
        <time>2011-05-07T07:36:19Z</time>
      </trkpt>
      <trkpt lat="45.07758" lon="5.23818">
        <ele>206.2724609375</ele>
        <time>2011-05-07T07:36:32Z</time>
      </trkpt>
      <trkpt lat="45.07729" lon="5.23915">
        <ele>206.24530029297</ele>
        <time>2011-05-07T07:36:42Z</time>
      </trkpt>
      <trkpt lat="45.07705" lon="5.23993">
        <ele>206</ele>
        <time>2011-05-07T07:36:50Z</time>
      </trkpt>
      <trkpt lat="45.07681" lon="5.2402">
        <ele>205.51214599609</ele>
        <time>2011-05-07T07:36:54Z</time>
      </trkpt>
      <trkpt lat="45.07665" lon="5.24025">
        <ele>205</ele>
        <time>2011-05-07T07:36:56Z</time>
      </trkpt>
      <trkpt lat="45.07574" lon="5.24034">
        <ele>204</ele>
        <time>2011-05-07T07:37:07Z</time>
      </trkpt>
      <trkpt lat="45.07509" lon="5.2404">
        <ele>202.31860351562</ele>
        <time>2011-05-07T07:37:15Z</time>
      </trkpt>
      <trkpt lat="45.07443" lon="5.24047">
        <ele>201.64855957031</ele>
        <time>2011-05-07T07:37:23Z</time>
      </trkpt>
      <trkpt lat="45.07365" lon="5.24055">
        <ele>200.97451782227</ele>
        <time>2011-05-07T07:37:33Z</time>
      </trkpt>
      <trkpt lat="45.0729" lon="5.24062">
        <ele>199.15519714356</ele>
        <time>2011-05-07T07:37:42Z</time>
      </trkpt>
      <trkpt lat="45.07237" lon="5.24066">
        <ele>195.6139831543</ele>
        <time>2011-05-07T07:37:48Z</time>
      </trkpt>
      <trkpt lat="45.07208" lon="5.24068">
        <ele>194.17407226562</ele>
        <time>2011-05-07T07:37:51Z</time>
      </trkpt>
      <trkpt lat="45.07168" lon="5.24061">
        <ele>191.2998046875</ele>
        <time>2011-05-07T07:37:55Z</time>
      </trkpt>
      <trkpt lat="45.0714" lon="5.24047">
        <ele>189.69973754883</ele>
        <time>2011-05-07T07:37:58Z</time>
      </trkpt>
      <trkpt lat="45.07112" lon="5.24048">
        <ele>187.81600952148</ele>
        <time>2011-05-07T07:38:01Z</time>
      </trkpt>
      <trkpt lat="45.07099" lon="5.24066">
        <ele>187.50358581543</ele>
        <time>2011-05-07T07:38:03Z</time>
      </trkpt>
      <trkpt lat="45.07091" lon="5.24089">
        <ele>187.59197998047</ele>
        <time>2011-05-07T07:38:05Z</time>
      </trkpt>
      <trkpt lat="45.0707" lon="5.24192">
        <ele>188.92572021484</ele>
        <time>2011-05-07T07:38:14Z</time>
      </trkpt>
      <trkpt lat="45.07062" lon="5.24234">
        <ele>189.01098632812</ele>
        <time>2011-05-07T07:38:18Z</time>
      </trkpt>
      <trkpt lat="45.0705" lon="5.24273">
        <ele>189.27030944824</ele>
        <time>2011-05-07T07:38:22Z</time>
      </trkpt>
      <trkpt lat="45.07032" lon="5.24316">
        <ele>188.39617919922</ele>
        <time>2011-05-07T07:38:27Z</time>
      </trkpt>
      <trkpt lat="45.06992" lon="5.24376">
        <ele>185.76251220703</ele>
        <time>2011-05-07T07:38:35Z</time>
      </trkpt>
      <trkpt lat="45.06961" lon="5.24394">
        <ele>183.29580688477</ele>
        <time>2011-05-07T07:38:40Z</time>
      </trkpt>
      <trkpt lat="45.06954" lon="5.24391">
        <ele>182.72595214844</ele>
        <time>2011-05-07T07:38:41Z</time>
      </trkpt>
      <trkpt lat="45.06899" lon="5.24363">
        <ele>175.15710449219</ele>
        <time>2011-05-07T07:38:48Z</time>
      </trkpt>
      <trkpt lat="45.06861" lon="5.24349">
        <ele>168.64436340332</ele>
        <time>2011-05-07T07:38:52Z</time>
      </trkpt>
      <trkpt lat="45.0679" lon="5.24324">
        <ele>160</ele>
        <time>2011-05-07T07:38:59Z</time>
      </trkpt>
      <trkpt lat="45.0674" lon="5.24306">
        <ele>160</ele>
        <time>2011-05-07T07:39:04Z</time>
      </trkpt>
      <trkpt lat="45.06693" lon="5.24288">
        <ele>160</ele>
        <time>2011-05-07T07:39:09Z</time>
      </trkpt>
      <trkpt lat="45.0659" lon="5.2425">
        <ele>166.55947875977</ele>
        <time>2011-05-07T07:39:20Z</time>
      </trkpt>
      <trkpt lat="45.06551" lon="5.24227">
        <ele>172.95805358887</ele>
        <time>2011-05-07T07:39:25Z</time>
      </trkpt>
      <trkpt lat="45.06527" lon="5.24207">
        <ele>176.6872253418</ele>
        <time>2011-05-07T07:39:29Z</time>
      </trkpt>
      <trkpt lat="45.06516" lon="5.24196">
        <ele>178.31457519531</ele>
        <time>2011-05-07T07:39:31Z</time>
      </trkpt>
      <trkpt lat="45.06506" lon="5.24183">
        <ele>179.94357299805</ele>
        <time>2011-05-07T07:39:33Z</time>
      </trkpt>
      <trkpt lat="45.06503" lon="5.24176">
        <ele>180.88255310059</ele>
        <time>2011-05-07T07:39:34Z</time>
      </trkpt>
      <trkpt lat="45.065" lon="5.24168">
        <ele>181.8270111084</ele>
        <time>2011-05-07T07:39:35Z</time>
      </trkpt>
      <trkpt lat="45.06491" lon="5.24131">
        <ele>188.68524169922</ele>
        <time>2011-05-07T07:39:41Z</time>
      </trkpt>
      <trkpt lat="45.06488" lon="5.24127">
        <ele>189.51887512207</ele>
        <time>2011-05-07T07:39:42Z</time>
      </trkpt>
      <trkpt lat="45.06472" lon="5.24124">
        <ele>193.79975891113</ele>
        <time>2011-05-07T07:39:46Z</time>
      </trkpt>
      <trkpt lat="45.06461" lon="5.24131">
        <ele>196.84660339356</ele>
        <time>2011-05-07T07:39:48Z</time>
      </trkpt>
      <trkpt lat="45.06429" lon="5.24153">
        <ele>201.4157409668</ele>
        <time>2011-05-07T07:39:54Z</time>
      </trkpt>
      <trkpt lat="45.064" lon="5.24174">
        <ele>202.74108886719</ele>
        <time>2011-05-07T07:39:59Z</time>
      </trkpt>
      <trkpt lat="45.0634" lon="5.24213">
        <ele>202.86196899414</ele>
        <time>2011-05-07T07:40:08Z</time>
      </trkpt>
      <trkpt lat="45.06292" lon="5.2424">
        <ele>206.19529724121</ele>
        <time>2011-05-07T07:40:15Z</time>
      </trkpt>
      <trkpt lat="45.06244" lon="5.24244">
        <ele>215.03741455078</ele>
        <time>2011-05-07T07:40:21Z</time>
      </trkpt>
      <trkpt lat="45.06189" lon="5.24255">
        <ele>218.09045410156</ele>
        <time>2011-05-07T07:40:28Z</time>
      </trkpt>
      <trkpt lat="45.0613" lon="5.24263">
        <ele>229.09020996094</ele>
        <time>2011-05-07T07:40:35Z</time>
      </trkpt>
      <trkpt lat="45.06087" lon="5.24266">
        <ele>243.03520202637</ele>
        <time>2011-05-07T07:40:40Z</time>
      </trkpt>
      <trkpt lat="45.06049" lon="5.24284">
        <ele>240.22593688965</ele>
        <time>2011-05-07T07:40:45Z</time>
      </trkpt>
      <trkpt lat="45.06028" lon="5.24304">
        <ele>231.03942871094</ele>
        <time>2011-05-07T07:40:48Z</time>
      </trkpt>
      <trkpt lat="45.05992" lon="5.24366">
        <ele>200.89167785644</ele>
        <time>2011-05-07T07:40:54Z</time>
      </trkpt>
      <trkpt lat="45.05986" lon="5.24376">
        <ele>199.39103698731</ele>
        <time>2011-05-07T07:40:55Z</time>
      </trkpt>
      <trkpt lat="45.05973" lon="5.24412">
        <ele>190.27055358887</ele>
        <time>2011-05-07T07:40:58Z</time>
      </trkpt>
      <trkpt lat="45.05972" lon="5.24426">
        <ele>187.15760803223</ele>
        <time>2011-05-07T07:40:59Z</time>
      </trkpt>
      <trkpt lat="45.05972" lon="5.24439">
        <ele>184.31649780273</ele>
        <time>2011-05-07T07:41:00Z</time>
      </trkpt>
      <trkpt lat="45.05973" lon="5.24506">
        <ele>175.13525390625</ele>
        <time>2011-05-07T07:41:05Z</time>
      </trkpt>
      <trkpt lat="45.05973" lon="5.24533">
        <ele>172.79064941406</ele>
        <time>2011-05-07T07:41:07Z</time>
      </trkpt>
      <trkpt lat="45.05975" lon="5.24559">
        <ele>172.20217895508</ele>
        <time>2011-05-07T07:41:09Z</time>
      </trkpt>
      <trkpt lat="45.05987" lon="5.24647">
        <ele>168.63223266602</ele>
        <time>2011-05-07T07:41:16Z</time>
      </trkpt>
      <trkpt lat="45.06003" lon="5.24683">
        <ele>165.595703125</ele>
        <time>2011-05-07T07:41:19Z</time>
      </trkpt>
      <trkpt lat="45.06019" lon="5.2469">
        <ele>163.23364257812</ele>
        <time>2011-05-07T07:41:21Z</time>
      </trkpt>
      <trkpt lat="45.06029" lon="5.24695">
        <ele>161.96762084961</ele>
        <time>2011-05-07T07:41:22Z</time>
      </trkpt>
      <trkpt lat="45.06053" lon="5.24717">
        <ele>161.15644836426</ele>
        <time>2011-05-07T07:41:26Z</time>
      </trkpt>
      <trkpt lat="45.06056" lon="5.24749">
        <ele>160.97631835938</ele>
        <time>2011-05-07T07:41:29Z</time>
      </trkpt>
      <trkpt lat="45.06047" lon="5.24783">
        <ele>162.30590820312</ele>
        <time>2011-05-07T07:41:32Z</time>
      </trkpt>
      <trkpt lat="45.06026" lon="5.24849">
        <ele>163.22485351562</ele>
        <time>2011-05-07T07:41:38Z</time>
      </trkpt>
      <trkpt lat="45.06013" lon="5.24883">
        <ele>164.54321289062</ele>
        <time>2011-05-07T07:41:41Z</time>
      </trkpt>
      <trkpt lat="45.05994" lon="5.24926">
        <ele>166.685546875</ele>
        <time>2011-05-07T07:41:45Z</time>
      </trkpt>
      <trkpt lat="45.05939" lon="5.24992">
        <ele>169.53576660156</ele>
        <time>2011-05-07T07:41:53Z</time>
      </trkpt>
      <trkpt lat="45.05883" lon="5.25042">
        <ele>175.0888671875</ele>
        <time>2011-05-07T07:42:01Z</time>
      </trkpt>
      <trkpt lat="45.05849" lon="5.25077">
        <ele>179.65951538086</ele>
        <time>2011-05-07T07:42:07Z</time>
      </trkpt>
      <trkpt lat="45.05832" lon="5.25117">
        <ele>181.13000488281</ele>
        <time>2011-05-07T07:42:12Z</time>
      </trkpt>
      <trkpt lat="45.0583" lon="5.25126">
        <ele>181.23986816406</ele>
        <time>2011-05-07T07:42:13Z</time>
      </trkpt>
      <trkpt lat="45.05824" lon="5.25213">
        <ele>180.66812133789</ele>
        <time>2011-05-07T07:42:22Z</time>
      </trkpt>
      <trkpt lat="45.05828" lon="5.25285">
        <ele>179.17486572266</ele>
        <time>2011-05-07T07:42:29Z</time>
      </trkpt>
      <trkpt lat="45.05832" lon="5.25321">
        <ele>179.05126953125</ele>
        <time>2011-05-07T07:42:32Z</time>
      </trkpt>
      <trkpt lat="45.05833" lon="5.25403">
        <ele>178.9853515625</ele>
        <time>2011-05-07T07:42:38Z</time>
      </trkpt>
      <trkpt lat="45.05833" lon="5.25418">
        <ele>179.02632141113</ele>
        <time>2011-05-07T07:42:39Z</time>
      </trkpt>
      <trkpt lat="45.05822" lon="5.25473">
        <ele>180.39459228516</ele>
        <time>2011-05-07T07:42:43Z</time>
      </trkpt>
      <trkpt lat="45.05817" lon="5.25486">
        <ele>180.57312011719</ele>
        <time>2011-05-07T07:42:44Z</time>
      </trkpt>
      <trkpt lat="45.05789" lon="5.25556">
        <ele>182.1787109375</ele>
        <time>2011-05-07T07:42:50Z</time>
      </trkpt>
      <trkpt lat="45.05765" lon="5.25615">
        <ele>183.03448486328</ele>
        <time>2011-05-07T07:42:56Z</time>
      </trkpt>
      <trkpt lat="45.05761" lon="5.25633">
        <ele>184.02325439453</ele>
        <time>2011-05-07T07:42:58Z</time>
      </trkpt>
      <trkpt lat="45.05758" lon="5.2565">
        <ele>184.74943542481</ele>
        <time>2011-05-07T07:43:00Z</time>
      </trkpt>
      <trkpt lat="45.05756" lon="5.25715">
        <ele>186.98994445801</ele>
        <time>2011-05-07T07:43:08Z</time>
      </trkpt>
      <trkpt lat="45.05758" lon="5.25746">
        <ele>187.46963500977</ele>
        <time>2011-05-07T07:43:12Z</time>
      </trkpt>
      <trkpt lat="45.05751" lon="5.25772">
        <ele>189.51937866211</ele>
        <time>2011-05-07T07:43:16Z</time>
      </trkpt>
      <trkpt lat="45.05741" lon="5.25765">
        <ele>190.1653137207</ele>
        <time>2011-05-07T07:43:18Z</time>
      </trkpt>
      <trkpt lat="45.05737" lon="5.25742">
        <ele>189.63314819336</ele>
        <time>2011-05-07T07:43:21Z</time>
      </trkpt>
      <trkpt lat="45.05736" lon="5.25687">
        <ele>187.71054077148</ele>
        <time>2011-05-07T07:43:28Z</time>
      </trkpt>
      <trkpt lat="45.05727" lon="5.25658">
        <ele>187.03022766113</ele>
        <time>2011-05-07T07:43:32Z</time>
      </trkpt>
      <trkpt lat="45.05703" lon="5.25627">
        <ele>188.24577331543</ele>
        <time>2011-05-07T07:43:38Z</time>
      </trkpt>
      <trkpt lat="45.05687" lon="5.25619">
        <ele>189.53955078125</ele>
        <time>2011-05-07T07:43:41Z</time>
      </trkpt>
      <trkpt lat="45.05644" lon="5.25615">
        <ele>191.82159423828</ele>
        <time>2011-05-07T07:43:49Z</time>
      </trkpt>
      <trkpt lat="45.05601" lon="5.25618">
        <ele>194.66088867188</ele>
        <time>2011-05-07T07:43:57Z</time>
      </trkpt>
      <trkpt lat="45.05566" lon="5.25637">
        <ele>195.71145629883</ele>
        <time>2011-05-07T07:44:04Z</time>
      </trkpt>
      <trkpt lat="45.05535" lon="5.25669">
        <ele>197.73547363281</ele>
        <time>2011-05-07T07:44:11Z</time>
      </trkpt>
      <trkpt lat="45.05486" lon="5.2573">
        <ele>198.28308105469</ele>
        <time>2011-05-07T07:44:23Z</time>
      </trkpt>
      <trkpt lat="45.05466" lon="5.25755">
        <ele>199</ele>
        <time>2011-05-07T07:44:28Z</time>
      </trkpt>
      <trkpt lat="45.05443" lon="5.25796">
        <ele>199</ele>
        <time>2011-05-07T07:44:35Z</time>
      </trkpt>
      <trkpt lat="45.05438" lon="5.2581">
        <ele>199</ele>
        <time>2011-05-07T07:44:37Z</time>
      </trkpt>
      <trkpt lat="45.0543" lon="5.25868">
        <ele>200</ele>
        <time>2011-05-07T07:44:44Z</time>
      </trkpt>
      <trkpt lat="45.05422" lon="5.25949">
        <ele>200</ele>
        <time>2011-05-07T07:44:53Z</time>
      </trkpt>
      <trkpt lat="45.05407" lon="5.26023">
        <ele>200</ele>
        <time>2011-05-07T07:45:01Z</time>
      </trkpt>
      <trkpt lat="45.05389" lon="5.26083">
        <ele>200</ele>
        <time>2011-05-07T07:45:08Z</time>
      </trkpt>
      <trkpt lat="45.05362" lon="5.26133">
        <ele>200</ele>
        <time>2011-05-07T07:45:15Z</time>
      </trkpt>
      <trkpt lat="45.05334" lon="5.2618">
        <ele>200.48275756836</ele>
        <time>2011-05-07T07:45:22Z</time>
      </trkpt>
      <trkpt lat="45.05324" lon="5.26221">
        <ele>203.54393005371</ele>
        <time>2011-05-07T07:45:27Z</time>
      </trkpt>
      <trkpt lat="45.05322" lon="5.26275">
        <ele>209.68531799316</ele>
        <time>2011-05-07T07:45:33Z</time>
      </trkpt>
      <trkpt lat="45.05324" lon="5.26284">
        <ele>210.43965148926</ele>
        <time>2011-05-07T07:45:34Z</time>
      </trkpt>
      <trkpt lat="45.05335" lon="5.26356">
        <ele>217.61009216309</ele>
        <time>2011-05-07T07:45:42Z</time>
      </trkpt>
      <trkpt lat="45.05344" lon="5.26422">
        <ele>220</ele>
        <time>2011-05-07T07:45:49Z</time>
      </trkpt>
      <trkpt lat="45.05347" lon="5.26469">
        <ele>220</ele>
        <time>2011-05-07T07:45:54Z</time>
      </trkpt>
      <trkpt lat="45.0534" lon="5.26525">
        <ele>220</ele>
        <time>2011-05-07T07:46:00Z</time>
      </trkpt>
      <trkpt lat="45.0532" lon="5.26563">
        <ele>220</ele>
        <time>2011-05-07T07:46:05Z</time>
      </trkpt>
      <trkpt lat="45.05315" lon="5.26569">
        <ele>220</ele>
        <time>2011-05-07T07:46:06Z</time>
      </trkpt>
      <trkpt lat="45.05268" lon="5.26611">
        <ele>220</ele>
        <time>2011-05-07T07:46:14Z</time>
      </trkpt>
      <trkpt lat="45.05224" lon="5.2665">
        <ele>220</ele>
        <time>2011-05-07T07:46:21Z</time>
      </trkpt>
      <trkpt lat="45.05179" lon="5.26699">
        <ele>220</ele>
        <time>2011-05-07T07:46:28Z</time>
      </trkpt>
      <trkpt lat="45.05131" lon="5.26755">
        <ele>220</ele>
        <time>2011-05-07T07:46:36Z</time>
      </trkpt>
      <trkpt lat="45.05091" lon="5.26806">
        <ele>220</ele>
        <time>2011-05-07T07:46:43Z</time>
      </trkpt>
      <trkpt lat="45.05086" lon="5.26815">
        <ele>220</ele>
        <time>2011-05-07T07:46:44Z</time>
      </trkpt>
      <trkpt lat="45.05074" lon="5.26853">
        <ele>220.64965820312</ele>
        <time>2011-05-07T07:46:48Z</time>
      </trkpt>
      <trkpt lat="45.05077" lon="5.26884">
        <ele>220.48486328125</ele>
        <time>2011-05-07T07:46:51Z</time>
      </trkpt>
      <trkpt lat="45.05094" lon="5.26946">
        <ele>219.62445068359</ele>
        <time>2011-05-07T07:46:57Z</time>
      </trkpt>
      <trkpt lat="45.05106" lon="5.26997">
        <ele>219.19873046875</ele>
        <time>2011-05-07T07:47:02Z</time>
      </trkpt>
      <trkpt lat="45.05106" lon="5.27049">
        <ele>219.18499755859</ele>
        <time>2011-05-07T07:47:07Z</time>
      </trkpt>
      <trkpt lat="45.05096" lon="5.27119">
        <ele>221.45474243164</ele>
        <time>2011-05-07T07:47:14Z</time>
      </trkpt>
      <trkpt lat="45.05077" lon="5.27197">
        <ele>225.74475097656</ele>
        <time>2011-05-07T07:47:22Z</time>
      </trkpt>
      <trkpt lat="45.05067" lon="5.27267">
        <ele>228.75529479981</ele>
        <time>2011-05-07T07:47:29Z</time>
      </trkpt>
      <trkpt lat="45.05066" lon="5.27338">
        <ele>229.12596130371</ele>
        <time>2011-05-07T07:47:35Z</time>
      </trkpt>
      <trkpt lat="45.05066" lon="5.27417">
        <ele>226.61267089844</ele>
        <time>2011-05-07T07:47:41Z</time>
      </trkpt>
      <trkpt lat="45.05066" lon="5.27487">
        <ele>224.74279785156</ele>
        <time>2011-05-07T07:47:46Z</time>
      </trkpt>
      <trkpt lat="45.05074" lon="5.27541">
        <ele>222.70458984375</ele>
        <time>2011-05-07T07:47:50Z</time>
      </trkpt>
      <trkpt lat="45.05092" lon="5.27574">
        <ele>221.33203125</ele>
        <time>2011-05-07T07:47:53Z</time>
      </trkpt>
      <trkpt lat="45.05107" lon="5.27593">
        <ele>219.72523498535</ele>
        <time>2011-05-07T07:47:55Z</time>
      </trkpt>
      <trkpt lat="45.05162" lon="5.2764">
        <ele>204.26545715332</ele>
        <time>2011-05-07T07:48:01Z</time>
      </trkpt>
      <trkpt lat="45.05215" lon="5.27705">
        <ele>198</ele>
        <time>2011-05-07T07:48:07Z</time>
      </trkpt>
      <trkpt lat="45.05223" lon="5.27716">
        <ele>198</ele>
        <time>2011-05-07T07:48:08Z</time>
      </trkpt>
      <trkpt lat="45.05254" lon="5.27737">
        <ele>198.52505493164</ele>
        <time>2011-05-07T07:48:11Z</time>
      </trkpt>
      <trkpt lat="45.05277" lon="5.27731">
        <ele>198.31561279297</ele>
        <time>2011-05-07T07:48:13Z</time>
      </trkpt>
      <trkpt lat="45.05288" lon="5.27724">
        <ele>198.07873535156</ele>
        <time>2011-05-07T07:48:14Z</time>
      </trkpt>
      <trkpt lat="45.05344" lon="5.27687">
        <ele>197.71401977539</ele>
        <time>2011-05-07T07:48:20Z</time>
      </trkpt>
      <trkpt lat="45.0538" lon="5.27683">
        <ele>197.59899902344</ele>
        <time>2011-05-07T07:48:24Z</time>
      </trkpt>
      <trkpt lat="45.05398" lon="5.27692">
        <ele>197.92687988281</ele>
        <time>2011-05-07T07:48:26Z</time>
      </trkpt>
      <trkpt lat="45.05476" lon="5.27751">
        <ele>196.03909301758</ele>
        <time>2011-05-07T07:48:35Z</time>
      </trkpt>
      <trkpt lat="45.05484" lon="5.27759">
        <ele>196.55923461914</ele>
        <time>2011-05-07T07:48:36Z</time>
      </trkpt>
      <trkpt lat="45.05509" lon="5.27801">
        <ele>199.53083801269</ele>
        <time>2011-05-07T07:48:40Z</time>
      </trkpt>
      <trkpt lat="45.05517" lon="5.2784">
        <ele>201.22262573242</ele>
        <time>2011-05-07T07:48:43Z</time>
      </trkpt>
      <trkpt lat="45.05518" lon="5.27935">
        <ele>205.00930786133</ele>
        <time>2011-05-07T07:48:50Z</time>
      </trkpt>
      <trkpt lat="45.05516" lon="5.28045">
        <ele>209.42599487305</ele>
        <time>2011-05-07T07:48:58Z</time>
      </trkpt>
      <trkpt lat="45.05516" lon="5.28207">
        <ele>212.42211914062</ele>
        <time>2011-05-07T07:49:10Z</time>
      </trkpt>
      <trkpt lat="45.05516" lon="5.28337">
        <ele>212.87170410156</ele>
        <time>2011-05-07T07:49:20Z</time>
      </trkpt>
      <trkpt lat="45.05514" lon="5.28459">
        <ele>213.00903320312</ele>
        <time>2011-05-07T07:49:30Z</time>
      </trkpt>
      <trkpt lat="45.05508" lon="5.28542">
        <ele>213.42102050781</ele>
        <time>2011-05-07T07:49:37Z</time>
      </trkpt>
      <trkpt lat="45.05502" lon="5.28589">
        <ele>213.86047363281</ele>
        <time>2011-05-07T07:49:41Z</time>
      </trkpt>
      <trkpt lat="45.05487" lon="5.28629">
        <ele>214.45208740234</ele>
        <time>2011-05-07T07:49:45Z</time>
      </trkpt>
      <trkpt lat="45.05484" lon="5.28639">
        <ele>214.58941650391</ele>
        <time>2011-05-07T07:49:46Z</time>
      </trkpt>
      <trkpt lat="45.05458" lon="5.28681">
        <ele>215.50952148438</ele>
        <time>2011-05-07T07:49:51Z</time>
      </trkpt>
      <trkpt lat="45.05427" lon="5.28742">
        <ele>217.27124023438</ele>
        <time>2011-05-07T07:49:58Z</time>
      </trkpt>
      <trkpt lat="45.05399" lon="5.28807">
        <ele>217.65185546875</ele>
        <time>2011-05-07T07:50:05Z</time>
      </trkpt>
      <trkpt lat="45.05361" lon="5.28896">
        <ele>217.99768066406</ele>
        <time>2011-05-07T07:50:14Z</time>
      </trkpt>
      <trkpt lat="45.05318" lon="5.28997">
        <ele>218.06484985352</ele>
        <time>2011-05-07T07:50:24Z</time>
      </trkpt>
      <trkpt lat="45.05273" lon="5.29102">
        <ele>219.18371582031</ele>
        <time>2011-05-07T07:50:35Z</time>
      </trkpt>
      <trkpt lat="45.05228" lon="5.29197">
        <ele>222.58093261719</ele>
        <time>2011-05-07T07:50:45Z</time>
      </trkpt>
      <trkpt lat="45.05199" lon="5.29236">
        <ele>224.2141418457</ele>
        <time>2011-05-07T07:50:50Z</time>
      </trkpt>
      <trkpt lat="45.05143" lon="5.29281">
        <ele>226.54873657227</ele>
        <time>2011-05-07T07:50:58Z</time>
      </trkpt>
      <trkpt lat="45.05056" lon="5.29345">
        <ele>228.59533691406</ele>
        <time>2011-05-07T07:51:10Z</time>
      </trkpt>
      <trkpt lat="45.04991" lon="5.29389">
        <ele>229.30276489258</ele>
        <time>2011-05-07T07:51:19Z</time>
      </trkpt>
      <trkpt lat="45.04941" lon="5.29426">
        <ele>230.00988769531</ele>
        <time>2011-05-07T07:51:26Z</time>
      </trkpt>
      <trkpt lat="45.04902" lon="5.29458">
        <ele>232.66163635254</ele>
        <time>2011-05-07T07:51:32Z</time>
      </trkpt>
      <trkpt lat="45.04883" lon="5.2948">
        <ele>233.05899047852</ele>
        <time>2011-05-07T07:51:35Z</time>
      </trkpt>
      <trkpt lat="45.0484" lon="5.29515">
        <ele>235.19380187988</ele>
        <time>2011-05-07T07:51:41Z</time>
      </trkpt>
      <trkpt lat="45.04833" lon="5.29521">
        <ele>235.80891418457</ele>
        <time>2011-05-07T07:51:42Z</time>
      </trkpt>
      <trkpt lat="45.04803" lon="5.29532">
        <ele>241.10113525391</ele>
        <time>2011-05-07T07:51:46Z</time>
      </trkpt>
      <trkpt lat="45.04755" lon="5.29565">
        <ele>244.02873229981</ele>
        <time>2011-05-07T07:51:53Z</time>
      </trkpt>
      <trkpt lat="45.04695" lon="5.29608">
        <ele>244.29577636719</ele>
        <time>2011-05-07T07:52:02Z</time>
      </trkpt>
      <trkpt lat="45.04646" lon="5.29643">
        <ele>242.26049804688</ele>
        <time>2011-05-07T07:52:09Z</time>
      </trkpt>
      <trkpt lat="45.04583" lon="5.2969">
        <ele>240.73724365234</ele>
        <time>2011-05-07T07:52:17Z</time>
      </trkpt>
      <trkpt lat="45.04528" lon="5.29726">
        <ele>238.37913513184</ele>
        <time>2011-05-07T07:52:24Z</time>
      </trkpt>
      <trkpt lat="45.0447" lon="5.29741">
        <ele>239.07629394531</ele>
        <time>2011-05-07T07:52:30Z</time>
      </trkpt>
      <trkpt lat="45.044" lon="5.29749">
        <ele>229.8893737793</ele>
        <time>2011-05-07T07:52:37Z</time>
      </trkpt>
      <trkpt lat="45.04353" lon="5.29741">
        <ele>230.17364501953</ele>
        <time>2011-05-07T07:52:42Z</time>
      </trkpt>
      <trkpt lat="45.04282" lon="5.29727">
        <ele>237.06602478027</ele>
        <time>2011-05-07T07:52:50Z</time>
      </trkpt>
      <trkpt lat="45.04223" lon="5.29714">
        <ele>240.63304138184</ele>
        <time>2011-05-07T07:52:57Z</time>
      </trkpt>
      <trkpt lat="45.04171" lon="5.29706">
        <ele>241.88543701172</ele>
        <time>2011-05-07T07:53:04Z</time>
      </trkpt>
      <trkpt lat="45.04112" lon="5.29703">
        <ele>240.45791625977</ele>
        <time>2011-05-07T07:53:12Z</time>
      </trkpt>
      <trkpt lat="45.04057" lon="5.29705">
        <ele>242.37557983398</ele>
        <time>2011-05-07T07:53:19Z</time>
      </trkpt>
      <trkpt lat="45.04007" lon="5.2971">
        <ele>242.44358825684</ele>
        <time>2011-05-07T07:53:26Z</time>
      </trkpt>
      <trkpt lat="45.03943" lon="5.29717">
        <ele>243.17599487305</ele>
        <time>2011-05-07T07:53:35Z</time>
      </trkpt>
      <trkpt lat="45.03893" lon="5.29722">
        <ele>243.74739074707</ele>
        <time>2011-05-07T07:53:41Z</time>
      </trkpt>
      <trkpt lat="45.03812" lon="5.29728">
        <ele>243.46145629883</ele>
        <time>2011-05-07T07:53:50Z</time>
      </trkpt>
      <trkpt lat="45.03764" lon="5.29734">
        <ele>241.05680847168</ele>
        <time>2011-05-07T07:53:56Z</time>
      </trkpt>
      <trkpt lat="45.03735" lon="5.29733">
        <ele>238.18896484375</ele>
        <time>2011-05-07T07:54:00Z</time>
      </trkpt>
      <trkpt lat="45.03706" lon="5.29721">
        <ele>237.06230163574</ele>
        <time>2011-05-07T07:54:04Z</time>
      </trkpt>
      <trkpt lat="45.03692" lon="5.29711">
        <ele>237.98887634277</ele>
        <time>2011-05-07T07:54:06Z</time>
      </trkpt>
      <trkpt lat="45.03653" lon="5.29668">
        <ele>242.67932128906</ele>
        <time>2011-05-07T07:54:12Z</time>
      </trkpt>
      <trkpt lat="45.03597" lon="5.29603">
        <ele>244.77445983887</ele>
        <time>2011-05-07T07:54:20Z</time>
      </trkpt>
      <trkpt lat="45.03543" lon="5.29536">
        <ele>243.16212463379</ele>
        <time>2011-05-07T07:54:28Z</time>
      </trkpt>
      <trkpt lat="45.03519" lon="5.29491">
        <ele>244.33180236816</ele>
        <time>2011-05-07T07:54:32Z</time>
      </trkpt>
      <trkpt lat="45.03477" lon="5.294">
        <ele>245.36189270019</ele>
        <time>2011-05-07T07:54:39Z</time>
      </trkpt>
      <trkpt lat="45.03469" lon="5.29387">
        <ele>244.83782958984</ele>
        <time>2011-05-07T07:54:40Z</time>
      </trkpt>
      <trkpt lat="45.03453" lon="5.29364">
        <ele>245.52207946777</ele>
        <time>2011-05-07T07:54:42Z</time>
      </trkpt>
      <trkpt lat="45.03415" lon="5.29329">
        <ele>244.38932800293</ele>
        <time>2011-05-07T07:54:46Z</time>
      </trkpt>
      <trkpt lat="45.03387" lon="5.29306">
        <ele>244.82267761231</ele>
        <time>2011-05-07T07:54:49Z</time>
      </trkpt>
      <trkpt lat="45.03328" lon="5.29256">
        <ele>241.56782531738</ele>
        <time>2011-05-07T07:54:56Z</time>
      </trkpt>
      <trkpt lat="45.03288" lon="5.29223">
        <ele>236.24626159668</ele>
        <time>2011-05-07T07:55:01Z</time>
      </trkpt>
      <trkpt lat="45.03231" lon="5.29179">
        <ele>232.15574645996</ele>
        <time>2011-05-07T07:55:08Z</time>
      </trkpt>
      <trkpt lat="45.03161" lon="5.29121">
        <ele>230.93011474609</ele>
        <time>2011-05-07T07:55:16Z</time>
      </trkpt>
      <trkpt lat="45.03106" lon="5.2907">
        <ele>233.3087310791</ele>
        <time>2011-05-07T07:55:23Z</time>
      </trkpt>
      <trkpt lat="45.03053" lon="5.29015">
        <ele>236.17001342773</ele>
        <time>2011-05-07T07:55:30Z</time>
      </trkpt>
      <trkpt lat="45.03011" lon="5.28976">
        <ele>236.46156311035</ele>
        <time>2011-05-07T07:55:35Z</time>
      </trkpt>
      <trkpt lat="45.02987" lon="5.28953">
        <ele>237.43222045898</ele>
        <time>2011-05-07T07:55:38Z</time>
      </trkpt>
      <trkpt lat="45.02939" lon="5.28932">
        <ele>237.14669799805</ele>
        <time>2011-05-07T07:55:43Z</time>
      </trkpt>
      <trkpt lat="45.02918" lon="5.28932">
        <ele>236.65057373047</ele>
        <time>2011-05-07T07:55:45Z</time>
      </trkpt>
      <trkpt lat="45.02908" lon="5.28934">
        <ele>233.88328552246</ele>
        <time>2011-05-07T07:55:46Z</time>
      </trkpt>
      <trkpt lat="45.02865" lon="5.28945">
        <ele>220.79801940918</ele>
        <time>2011-05-07T07:55:50Z</time>
      </trkpt>
      <trkpt lat="45.02819" lon="5.28939">
        <ele>220</ele>
        <time>2011-05-07T07:55:54Z</time>
      </trkpt>
      <trkpt lat="45.02808" lon="5.28934">
        <ele>220</ele>
        <time>2011-05-07T07:55:55Z</time>
      </trkpt>
      <trkpt lat="45.02756" lon="5.28898">
        <ele>220</ele>
        <time>2011-05-07T07:56:00Z</time>
      </trkpt>
      <trkpt lat="45.02728" lon="5.28873">
        <ele>222.77157592773</ele>
        <time>2011-05-07T07:56:03Z</time>
      </trkpt>
      <trkpt lat="45.02677" lon="5.28827">
        <ele>232.7043762207</ele>
        <time>2011-05-07T07:56:09Z</time>
      </trkpt>
      <trkpt lat="45.02637" lon="5.28794">
        <ele>239.56231689453</ele>
        <time>2011-05-07T07:56:14Z</time>
      </trkpt>
      <trkpt lat="45.02615" lon="5.28782">
        <ele>239.69964599609</ele>
        <time>2011-05-07T07:56:17Z</time>
      </trkpt>
      <trkpt lat="45.026" lon="5.28774">
        <ele>240.6064453125</ele>
        <time>2011-05-07T07:56:19Z</time>
      </trkpt>
      <trkpt lat="45.02574" lon="5.28777">
        <ele>239.76403808594</ele>
        <time>2011-05-07T07:56:23Z</time>
      </trkpt>
      <trkpt lat="45.02555" lon="5.28777">
        <ele>239.08062744141</ele>
        <time>2011-05-07T07:56:26Z</time>
      </trkpt>
      <trkpt lat="45.02525" lon="5.28757">
        <ele>241.93133544922</ele>
        <time>2011-05-07T07:56:31Z</time>
      </trkpt>
      <trkpt lat="45.02515" lon="5.2874">
        <ele>243.6081237793</ele>
        <time>2011-05-07T07:56:33Z</time>
      </trkpt>
      <trkpt lat="45.02486" lon="5.28683">
        <ele>251.88684082031</ele>
        <time>2011-05-07T07:56:39Z</time>
      </trkpt>
      <trkpt lat="45.02457" lon="5.2866">
        <ele>255.90344238281</ele>
        <time>2011-05-07T07:56:43Z</time>
      </trkpt>
      <trkpt lat="45.02425" lon="5.28658">
        <ele>256.24676513672</ele>
        <time>2011-05-07T07:56:47Z</time>
      </trkpt>
      <trkpt lat="45.02398" lon="5.28672">
        <ele>252.05316162109</ele>
        <time>2011-05-07T07:56:51Z</time>
      </trkpt>
      <trkpt lat="45.02359" lon="5.2871">
        <ele>243.91369628906</ele>
        <time>2011-05-07T07:56:58Z</time>
      </trkpt>
      <trkpt lat="45.02328" lon="5.28756">
        <ele>241.58096313477</ele>
        <time>2011-05-07T07:57:05Z</time>
      </trkpt>
      <trkpt lat="45.0231" lon="5.28792">
        <ele>238.15161132812</ele>
        <time>2011-05-07T07:57:10Z</time>
      </trkpt>
      <trkpt lat="45.02292" lon="5.28801">
        <ele>237.49069213867</ele>
        <time>2011-05-07T07:57:14Z</time>
      </trkpt>
      <trkpt lat="45.02266" lon="5.28804">
        <ele>238.08279418945</ele>
        <time>2011-05-07T07:57:19Z</time>
      </trkpt>
      <trkpt lat="45.02248" lon="5.28803">
        <ele>239.32075500488</ele>
        <time>2011-05-07T07:57:22Z</time>
      </trkpt>
      <trkpt lat="45.02208" lon="5.288">
        <ele>239.45608520508</ele>
        <time>2011-05-07T07:57:29Z</time>
      </trkpt>
      <trkpt lat="45.02164" lon="5.28801">
        <ele>239.28776550293</ele>
        <time>2011-05-07T07:57:36Z</time>
      </trkpt>
      <trkpt lat="45.02152" lon="5.28803">
        <ele>239.15185546875</ele>
        <time>2011-05-07T07:57:38Z</time>
      </trkpt>
      <trkpt lat="45.02122" lon="5.28813">
        <ele>238.72412109375</ele>
        <time>2011-05-07T07:57:43Z</time>
      </trkpt>
      <trkpt lat="45.02104" lon="5.28819">
        <ele>238.50094604492</ele>
        <time>2011-05-07T07:57:46Z</time>
      </trkpt>
      <trkpt lat="45.02074" lon="5.28811">
        <ele>238.79278564453</ele>
        <time>2011-05-07T07:57:51Z</time>
      </trkpt>
      <trkpt lat="45.02045" lon="5.2879">
        <ele>239.55323791504</ele>
        <time>2011-05-07T07:57:56Z</time>
      </trkpt>
      <trkpt lat="45.02003" lon="5.28752">
        <ele>240</ele>
        <time>2011-05-07T07:58:04Z</time>
      </trkpt>
      <trkpt lat="45.01998" lon="5.28746">
        <ele>240</ele>
        <time>2011-05-07T07:58:05Z</time>
      </trkpt>
      <trkpt lat="45.01973" lon="5.28736">
        <ele>240</ele>
        <time>2011-05-07T07:58:09Z</time>
      </trkpt>
      <trkpt lat="45.01966" lon="5.28737">
        <ele>240</ele>
        <time>2011-05-07T07:58:10Z</time>
      </trkpt>
      <trkpt lat="45.01921" lon="5.28748">
        <ele>240</ele>
        <time>2011-05-07T07:58:17Z</time>
      </trkpt>
      <trkpt lat="45.01874" lon="5.28762">
        <ele>240</ele>
        <time>2011-05-07T07:58:25Z</time>
      </trkpt>
      <trkpt lat="45.01831" lon="5.28782">
        <ele>239.85879516602</ele>
        <time>2011-05-07T07:58:33Z</time>
      </trkpt>
      <trkpt lat="45.01815" lon="5.28787">
        <ele>239.68197631836</ele>
        <time>2011-05-07T07:58:37Z</time>
      </trkpt>
      <trkpt lat="45.01812" lon="5.28784">
        <ele>239.77983093262</ele>
        <time>2011-05-07T07:58:41Z</time>
      </trkpt>
      <trkpt lat="45.01808" lon="5.28777">
        <ele>240</ele>
        <time>2011-05-07T07:58:56Z</time>
      </trkpt>
      <trkpt lat="45.01812" lon="5.2877">
        <ele>240</ele>
        <time>2011-05-07T07:59:00Z</time>
      </trkpt>
      <trkpt lat="45.01812" lon="5.2877">
        <ele>240</ele>
        <time>2011-05-07T07:59:01Z</time>
      </trkpt>
      <trkpt lat="45.01815" lon="5.28769">
        <ele>240</ele>
        <time>2011-05-07T07:59:06Z</time>
      </trkpt>
      <trkpt lat="45.01814" lon="5.28769">
        <ele>240</ele>
        <time>2011-05-07T07:59:57Z</time>
      </trkpt>
      <trkpt lat="45.01813" lon="5.2877">
        <ele>240</ele>
        <time>2011-05-07T07:59:58Z</time>
      </trkpt>
      <trkpt lat="45.01812" lon="5.28769">
        <ele>240</ele>
        <time>2011-05-07T08:00:02Z</time>
      </trkpt>
      <trkpt lat="45.0181" lon="5.28743">
        <ele>240</ele>
        <time>2011-05-07T08:00:54Z</time>
      </trkpt>
      <trkpt lat="45.0181" lon="5.28737">
        <ele>240</ele>
        <time>2011-05-07T08:00:55Z</time>
      </trkpt>
      <trkpt lat="45.0181" lon="5.28701">
        <ele>240</ele>
        <time>2011-05-07T08:01:01Z</time>
      </trkpt>
      <trkpt lat="45.01809" lon="5.28687">
        <ele>240</ele>
        <time>2011-05-07T08:01:03Z</time>
      </trkpt>
      <trkpt lat="45.01807" lon="5.28638">
        <ele>240</ele>
        <time>2011-05-07T08:01:11Z</time>
      </trkpt>
      <trkpt lat="45.01805" lon="5.28633">
        <ele>240</ele>
        <time>2011-05-07T08:01:12Z</time>
      </trkpt>
      <trkpt lat="45.01793" lon="5.28625">
        <ele>240</ele>
        <time>2011-05-07T08:01:16Z</time>
      </trkpt>
      <trkpt lat="45.01789" lon="5.28624">
        <ele>240</ele>
        <time>2011-05-07T08:01:17Z</time>
      </trkpt>
      <trkpt lat="45.01754" lon="5.28615">
        <ele>240</ele>
        <time>2011-05-07T08:01:24Z</time>
      </trkpt>
      <trkpt lat="45.01698" lon="5.28599">
        <ele>240</ele>
        <time>2011-05-07T08:01:34Z</time>
      </trkpt>
      <trkpt lat="45.01635" lon="5.28582">
        <ele>240</ele>
        <time>2011-05-07T08:01:45Z</time>
      </trkpt>
      <trkpt lat="45.0163" lon="5.2858">
        <ele>240</ele>
        <time>2011-05-07T08:01:46Z</time>
      </trkpt>
      <trkpt lat="45.0162" lon="5.28563">
        <ele>240</ele>
        <time>2011-05-07T08:01:49Z</time>
      </trkpt>
      <trkpt lat="45.0162" lon="5.28547">
        <ele>240.09757995606</ele>
        <time>2011-05-07T08:01:51Z</time>
      </trkpt>
      <trkpt lat="45.01623" lon="5.28516">
        <ele>241.68423461914</ele>
        <time>2011-05-07T08:01:55Z</time>
      </trkpt>
      <trkpt lat="45.01619" lon="5.28494">
        <ele>243.70585632324</ele>
        <time>2011-05-07T08:01:59Z</time>
      </trkpt>
      <trkpt lat="45.01611" lon="5.28489">
        <ele>243.7907409668</ele>
        <time>2011-05-07T08:02:01Z</time>
      </trkpt>
      <trkpt lat="45.0157" lon="5.28479">
        <ele>245.01452636719</ele>
        <time>2011-05-07T08:02:09Z</time>
      </trkpt>
      <trkpt lat="45.01539" lon="5.28471">
        <ele>246.18424987793</ele>
        <time>2011-05-07T08:02:15Z</time>
      </trkpt>
      <trkpt lat="45.01519" lon="5.28465">
        <ele>246.74557495117</ele>
        <time>2011-05-07T08:02:19Z</time>
      </trkpt>
      <trkpt lat="45.01501" lon="5.28452">
        <ele>248.19268798828</ele>
        <time>2011-05-07T08:02:23Z</time>
      </trkpt>
      <trkpt lat="45.01498" lon="5.28433">
        <ele>249.80075073242</ele>
        <time>2011-05-07T08:02:26Z</time>
      </trkpt>
      <trkpt lat="45.01498" lon="5.28421">
        <ele>250.70368957519</ele>
        <time>2011-05-07T08:02:28Z</time>
      </trkpt>
      <trkpt lat="45.01502" lon="5.28377">
        <ele>254.25219726562</ele>
        <time>2011-05-07T08:02:36Z</time>
      </trkpt>
      <trkpt lat="45.01502" lon="5.28365">
        <ele>255.56024169922</ele>
        <time>2011-05-07T08:02:39Z</time>
      </trkpt>
      <trkpt lat="45.01503" lon="5.28351">
        <ele>256.75738525391</ele>
        <time>2011-05-07T08:02:43Z</time>
      </trkpt>
      <trkpt lat="45.01499" lon="5.28337">
        <ele>257.75646972656</ele>
        <time>2011-05-07T08:02:47Z</time>
      </trkpt>
      <trkpt lat="45.01484" lon="5.28323">
        <ele>258.74523925781</ele>
        <time>2011-05-07T08:02:52Z</time>
      </trkpt>
      <trkpt lat="45.01453" lon="5.28299">
        <ele>259.17819213867</ele>
        <time>2011-05-07T08:03:00Z</time>
      </trkpt>
      <trkpt lat="45.01417" lon="5.2828">
        <ele>257.96212768555</ele>
        <time>2011-05-07T08:03:07Z</time>
      </trkpt>
      <trkpt lat="45.01411" lon="5.28278">
        <ele>257.81857299805</ele>
        <time>2011-05-07T08:03:08Z</time>
      </trkpt>
      <trkpt lat="45.01381" lon="5.28281">
        <ele>256.240234375</ele>
        <time>2011-05-07T08:03:13Z</time>
      </trkpt>
      <trkpt lat="45.0134" lon="5.28298">
        <ele>252.72521972656</ele>
        <time>2011-05-07T08:03:19Z</time>
      </trkpt>
      <trkpt lat="45.01303" lon="5.28308">
        <ele>248.83226013184</ele>
        <time>2011-05-07T08:03:24Z</time>
      </trkpt>
      <trkpt lat="45.01288" lon="5.28309">
        <ele>248.19351196289</ele>
        <time>2011-05-07T08:03:26Z</time>
      </trkpt>
      <trkpt lat="45.01266" lon="5.28305">
        <ele>247.15504455566</ele>
        <time>2011-05-07T08:03:29Z</time>
      </trkpt>
      <trkpt lat="45.01258" lon="5.28303">
        <ele>246.75384521484</ele>
        <time>2011-05-07T08:03:30Z</time>
      </trkpt>
      <trkpt lat="45.01236" lon="5.28292">
        <ele>247.76640319824</ele>
        <time>2011-05-07T08:03:33Z</time>
      </trkpt>
      <trkpt lat="45.01217" lon="5.28288">
        <ele>248.80230712891</ele>
        <time>2011-05-07T08:03:35Z</time>
      </trkpt>
      <trkpt lat="45.012" lon="5.28295">
        <ele>249.16622924805</ele>
        <time>2011-05-07T08:03:37Z</time>
      </trkpt>
      <trkpt lat="45.01178" lon="5.28295">
        <ele>250.18492126465</ele>
        <time>2011-05-07T08:03:40Z</time>
      </trkpt>
      <trkpt lat="45.01165" lon="5.28291">
        <ele>251.06253051758</ele>
        <time>2011-05-07T08:03:42Z</time>
      </trkpt>
      <trkpt lat="45.0113" lon="5.28285">
        <ele>252.00932312012</ele>
        <time>2011-05-07T08:03:47Z</time>
      </trkpt>
      <trkpt lat="45.01086" lon="5.28298">
        <ele>248.73944091797</ele>
        <time>2011-05-07T08:03:53Z</time>
      </trkpt>
      <trkpt lat="45.0105" lon="5.28313">
        <ele>244.65155029297</ele>
        <time>2011-05-07T08:03:58Z</time>
      </trkpt>
      <trkpt lat="45.01021" lon="5.28313">
        <ele>243.09275817871</ele>
        <time>2011-05-07T08:04:02Z</time>
      </trkpt>
      <trkpt lat="45.01014" lon="5.2831">
        <ele>242.96601867676</ele>
        <time>2011-05-07T08:04:03Z</time>
      </trkpt>
      <trkpt lat="45.00976" lon="5.28271">
        <ele>245.14926147461</ele>
        <time>2011-05-07T08:04:10Z</time>
      </trkpt>
      <trkpt lat="45.00944" lon="5.28229">
        <ele>249.31970214844</ele>
        <time>2011-05-07T08:04:17Z</time>
      </trkpt>
      <trkpt lat="45.00901" lon="5.28194">
        <ele>254.09747314453</ele>
        <time>2011-05-07T08:04:25Z</time>
      </trkpt>
      <trkpt lat="45.00858" lon="5.28182">
        <ele>254.78247070312</ele>
        <time>2011-05-07T08:04:32Z</time>
      </trkpt>
      <trkpt lat="45.00845" lon="5.28181">
        <ele>255.20367431641</ele>
        <time>2011-05-07T08:04:34Z</time>
      </trkpt>
      <trkpt lat="45.00812" lon="5.28166">
        <ele>258.03369140625</ele>
        <time>2011-05-07T08:04:39Z</time>
      </trkpt>
      <trkpt lat="45.00755" lon="5.2813">
        <ele>259.98989868164</ele>
        <time>2011-05-07T08:04:48Z</time>
      </trkpt>
      <trkpt lat="45.00717" lon="5.2811">
        <ele>259.91165161133</ele>
        <time>2011-05-07T08:04:54Z</time>
      </trkpt>
      <trkpt lat="45.00687" lon="5.28102">
        <ele>259.34286499023</ele>
        <time>2011-05-07T08:04:59Z</time>
      </trkpt>
      <trkpt lat="45.00662" lon="5.28101">
        <ele>259.20550537109</ele>
        <time>2011-05-07T08:05:03Z</time>
      </trkpt>
      <trkpt lat="45.00624" lon="5.28085">
        <ele>258.94024658203</ele>
        <time>2011-05-07T08:05:09Z</time>
      </trkpt>
      <trkpt lat="45.00619" lon="5.28082">
        <ele>259.06555175781</ele>
        <time>2011-05-07T08:05:10Z</time>
      </trkpt>
      <trkpt lat="45.00583" lon="5.28066">
        <ele>259.62344360352</ele>
        <time>2011-05-07T08:05:16Z</time>
      </trkpt>
      <trkpt lat="45.0056" lon="5.28065">
        <ele>259.64920043945</ele>
        <time>2011-05-07T08:05:20Z</time>
      </trkpt>
      <trkpt lat="45.00534" lon="5.28068">
        <ele>259.90182495117</ele>
        <time>2011-05-07T08:05:25Z</time>
      </trkpt>
      <trkpt lat="45.00529" lon="5.28069">
        <ele>259.97769165039</ele>
        <time>2011-05-07T08:05:26Z</time>
      </trkpt>
      <trkpt lat="45.00513" lon="5.28057">
        <ele>260</ele>
        <time>2011-05-07T08:05:30Z</time>
      </trkpt>
      <trkpt lat="45.00508" lon="5.28045">
        <ele>260</ele>
        <time>2011-05-07T08:05:32Z</time>
      </trkpt>
      <trkpt lat="45.00496" lon="5.28021">
        <ele>260.48101806641</ele>
        <time>2011-05-07T08:05:36Z</time>
      </trkpt>
      <trkpt lat="45.00463" lon="5.27986">
        <ele>263.48089599609</ele>
        <time>2011-05-07T08:05:44Z</time>
      </trkpt>
      <trkpt lat="45.00426" lon="5.27953">
        <ele>267.07949829102</ele>
        <time>2011-05-07T08:05:52Z</time>
      </trkpt>
      <trkpt lat="45.00379" lon="5.27911">
        <ele>272.51382446289</ele>
        <time>2011-05-07T08:06:02Z</time>
      </trkpt>
      <trkpt lat="45.00322" lon="5.27861">
        <ele>276.63470458984</ele>
        <time>2011-05-07T08:06:14Z</time>
      </trkpt>
      <trkpt lat="45.00284" lon="5.27826">
        <ele>279.07327270508</ele>
        <time>2011-05-07T08:06:22Z</time>
      </trkpt>
      <trkpt lat="45.00233" lon="5.2778">
        <ele>280.94033813477</ele>
        <time>2011-05-07T08:06:33Z</time>
      </trkpt>
      <trkpt lat="45.00192" lon="5.27743">
        <ele>282.35321044922</ele>
        <time>2011-05-07T08:06:42Z</time>
      </trkpt>
      <trkpt lat="45.00133" lon="5.27686">
        <ele>282.48095703125</ele>
        <time>2011-05-07T08:06:55Z</time>
      </trkpt>
      <trkpt lat="45.00092" lon="5.27649">
        <ele>279.05307006836</ele>
        <time>2011-05-07T08:07:04Z</time>
      </trkpt>
      <trkpt lat="45.00046" lon="5.27608">
        <ele>274.43930053711</ele>
        <time>2011-05-07T08:07:14Z</time>
      </trkpt>
      <trkpt lat="45" lon="5.27567">
        <ele>272.33752441406</ele>
        <time>2011-05-07T08:07:24Z</time>
      </trkpt>
      <trkpt lat="44.99965" lon="5.27533">
        <ele>273.71560668945</ele>
        <time>2011-05-07T08:07:32Z</time>
      </trkpt>
      <trkpt lat="44.99932" lon="5.27492">
        <ele>278.76947021484</ele>
        <time>2011-05-07T08:07:40Z</time>
      </trkpt>
      <trkpt lat="44.999" lon="5.27449">
        <ele>287.94650268555</ele>
        <time>2011-05-07T08:07:48Z</time>
      </trkpt>
      <trkpt lat="44.99875" lon="5.27422">
        <ele>292.97152709961</ele>
        <time>2011-05-07T08:07:54Z</time>
      </trkpt>
      <trkpt lat="44.99863" lon="5.27418">
        <ele>293.82983398438</ele>
        <time>2011-05-07T08:07:56Z</time>
      </trkpt>
      <trkpt lat="44.9981" lon="5.27402">
        <ele>297.21527099609</ele>
        <time>2011-05-07T08:08:06Z</time>
      </trkpt>
      <trkpt lat="44.99795" lon="5.27396">
        <ele>299.14889526367</ele>
        <time>2011-05-07T08:08:09Z</time>
      </trkpt>
      <trkpt lat="44.99786" lon="5.27395">
        <ele>300.15484619141</ele>
        <time>2011-05-07T08:08:11Z</time>
      </trkpt>
      <trkpt lat="44.99768" lon="5.27398">
        <ele>299.92596435547</ele>
        <time>2011-05-07T08:08:15Z</time>
      </trkpt>
      <trkpt lat="44.99745" lon="5.27411">
        <ele>297.55401611328</ele>
        <time>2011-05-07T08:08:21Z</time>
      </trkpt>
      <trkpt lat="44.99716" lon="5.27412">
        <ele>299.05236816406</ele>
        <time>2011-05-07T08:08:28Z</time>
      </trkpt>
      <trkpt lat="44.99681" lon="5.27405">
        <ele>300.51489257812</ele>
        <time>2011-05-07T08:08:36Z</time>
      </trkpt>
      <trkpt lat="44.99668" lon="5.27401">
        <ele>301.40069580078</ele>
        <time>2011-05-07T08:08:39Z</time>
      </trkpt>
      <trkpt lat="44.99654" lon="5.27398">
        <ele>301.71307373047</ele>
        <time>2011-05-07T08:08:42Z</time>
      </trkpt>
      <trkpt lat="44.99635" lon="5.27391">
        <ele>302.67068481445</ele>
        <time>2011-05-07T08:08:46Z</time>
      </trkpt>
      <trkpt lat="44.99621" lon="5.27384">
        <ele>303.44879150391</ele>
        <time>2011-05-07T08:08:49Z</time>
      </trkpt>
      <trkpt lat="44.99607" lon="5.27378">
        <ele>303.52947998047</ele>
        <time>2011-05-07T08:08:52Z</time>
      </trkpt>
      <trkpt lat="44.9958" lon="5.27363">
        <ele>302.84924316406</ele>
        <time>2011-05-07T08:08:58Z</time>
      </trkpt>
      <trkpt lat="44.99545" lon="5.27331">
        <ele>307.87149047852</ele>
        <time>2011-05-07T08:09:07Z</time>
      </trkpt>
      <trkpt lat="44.99517" lon="5.27305">
        <ele>315.56921386719</ele>
        <time>2011-05-07T08:09:14Z</time>
      </trkpt>
      <trkpt lat="44.99487" lon="5.27283">
        <ele>319.84088134766</ele>
        <time>2011-05-07T08:09:21Z</time>
      </trkpt>
      <trkpt lat="44.99458" lon="5.27261">
        <ele>320.29614257812</ele>
        <time>2011-05-07T08:09:28Z</time>
      </trkpt>
      <trkpt lat="44.99426" lon="5.27234">
        <ele>319.95776367188</ele>
        <time>2011-05-07T08:09:36Z</time>
      </trkpt>
      <trkpt lat="44.99401" lon="5.27203">
        <ele>320.86773681641</ele>
        <time>2011-05-07T08:09:43Z</time>
      </trkpt>
      <trkpt lat="44.99372" lon="5.2716">
        <ele>324.53915405273</ele>
        <time>2011-05-07T08:09:52Z</time>
      </trkpt>
      <trkpt lat="44.99347" lon="5.27122">
        <ele>326.79013061523</ele>
        <time>2011-05-07T08:10:00Z</time>
      </trkpt>
      <trkpt lat="44.9931" lon="5.27084">
        <ele>329.48013305664</ele>
        <time>2011-05-07T08:10:10Z</time>
      </trkpt>
      <trkpt lat="44.99294" lon="5.27064">
        <ele>332.19961547852</ele>
        <time>2011-05-07T08:10:15Z</time>
      </trkpt>
      <trkpt lat="44.99285" lon="5.27052">
        <ele>332.66821289062</ele>
        <time>2011-05-07T08:10:18Z</time>
      </trkpt>
      <trkpt lat="44.99253" lon="5.27015">
        <ele>333.89114379883</ele>
        <time>2011-05-07T08:10:27Z</time>
      </trkpt>
      <trkpt lat="44.99243" lon="5.26993">
        <ele>335.99877929688</ele>
        <time>2011-05-07T08:10:31Z</time>
      </trkpt>
      <trkpt lat="44.99228" lon="5.26941">
        <ele>342.72613525391</ele>
        <time>2011-05-07T08:10:39Z</time>
      </trkpt>
      <trkpt lat="44.99203" lon="5.26888">
        <ele>349.42672729492</ele>
        <time>2011-05-07T08:10:48Z</time>
      </trkpt>
      <trkpt lat="44.99177" lon="5.26855">
        <ele>351.59140014648</ele>
        <time>2011-05-07T08:10:55Z</time>
      </trkpt>
      <trkpt lat="44.99137" lon="5.2681">
        <ele>355.39010620117</ele>
        <time>2011-05-07T08:11:05Z</time>
      </trkpt>
      <trkpt lat="44.99103" lon="5.26772">
        <ele>356.74792480469</ele>
        <time>2011-05-07T08:11:13Z</time>
      </trkpt>
      <trkpt lat="44.99059" lon="5.26723">
        <ele>355.4411315918</ele>
        <time>2011-05-07T08:11:23Z</time>
      </trkpt>
      <trkpt lat="44.99007" lon="5.26663">
        <ele>353.08172607422</ele>
        <time>2011-05-07T08:11:35Z</time>
      </trkpt>
      <trkpt lat="44.98985" lon="5.26638">
        <ele>350.91296386719</ele>
        <time>2011-05-07T08:11:40Z</time>
      </trkpt>
      <trkpt lat="44.98972" lon="5.26612">
        <ele>349.9430847168</ele>
        <time>2011-05-07T08:11:44Z</time>
      </trkpt>
      <trkpt lat="44.98968" lon="5.26597">
        <ele>349.70370483398</ele>
        <time>2011-05-07T08:11:46Z</time>
      </trkpt>
      <trkpt lat="44.98959" lon="5.26539">
        <ele>352.29327392578</ele>
        <time>2011-05-07T08:11:54Z</time>
      </trkpt>
      <trkpt lat="44.98948" lon="5.265">
        <ele>352.86804199219</ele>
        <time>2011-05-07T08:12:00Z</time>
      </trkpt>
      <trkpt lat="44.98945" lon="5.26494">
        <ele>352.89492797852</ele>
        <time>2011-05-07T08:12:01Z</time>
      </trkpt>
      <trkpt lat="44.98936" lon="5.26462">
        <ele>352.43215942383</ele>
        <time>2011-05-07T08:12:06Z</time>
      </trkpt>
      <trkpt lat="44.98926" lon="5.26413">
        <ele>352.17761230469</ele>
        <time>2011-05-07T08:12:13Z</time>
      </trkpt>
      <trkpt lat="44.98925" lon="5.26406">
        <ele>351.87399291992</ele>
        <time>2011-05-07T08:12:14Z</time>
      </trkpt>
      <trkpt lat="44.9892" lon="5.26363">
        <ele>351.99841308594</ele>
        <time>2011-05-07T08:12:20Z</time>
      </trkpt>
      <trkpt lat="44.9892" lon="5.26349">
        <ele>352.384765625</ele>
        <time>2011-05-07T08:12:22Z</time>
      </trkpt>
      <trkpt lat="44.98929" lon="5.2631">
        <ele>355.46395874023</ele>
        <time>2011-05-07T08:12:28Z</time>
      </trkpt>
      <trkpt lat="44.98945" lon="5.26274">
        <ele>359.08682250977</ele>
        <time>2011-05-07T08:12:34Z</time>
      </trkpt>
      <trkpt lat="44.9897" lon="5.26233">
        <ele>361.94351196289</ele>
        <time>2011-05-07T08:12:42Z</time>
      </trkpt>
      <trkpt lat="44.98991" lon="5.26195">
        <ele>362.04425048828</ele>
        <time>2011-05-07T08:12:49Z</time>
      </trkpt>
      <trkpt lat="44.99006" lon="5.26168">
        <ele>365.73080444336</ele>
        <time>2011-05-07T08:12:54Z</time>
      </trkpt>
      <trkpt lat="44.99035" lon="5.26133">
        <ele>371.35198974609</ele>
        <time>2011-05-07T08:13:02Z</time>
      </trkpt>
      <trkpt lat="44.99074" lon="5.26096">
        <ele>377.56634521484</ele>
        <time>2011-05-07T08:13:12Z</time>
      </trkpt>
      <trkpt lat="44.99101" lon="5.26083">
        <ele>379.65203857422</ele>
        <time>2011-05-07T08:13:18Z</time>
      </trkpt>
      <trkpt lat="44.99146" lon="5.26076">
        <ele>380</ele>
        <time>2011-05-07T08:13:27Z</time>
      </trkpt>
      <trkpt lat="44.99194" lon="5.2607">
        <ele>380</ele>
        <time>2011-05-07T08:13:37Z</time>
      </trkpt>
      <trkpt lat="44.99238" lon="5.26058">
        <ele>380</ele>
        <time>2011-05-07T08:13:46Z</time>
      </trkpt>
      <trkpt lat="44.99268" lon="5.26033">
        <ele>380</ele>
        <time>2011-05-07T08:13:53Z</time>
      </trkpt>
      <trkpt lat="44.99306" lon="5.25999">
        <ele>386.23211669922</ele>
        <time>2011-05-07T08:14:02Z</time>
      </trkpt>
      <trkpt lat="44.99342" lon="5.25972">
        <ele>392.92337036133</ele>
        <time>2011-05-07T08:14:10Z</time>
      </trkpt>
      <trkpt lat="44.99379" lon="5.25958">
        <ele>398.32263183594</ele>
        <time>2011-05-07T08:14:18Z</time>
      </trkpt>
      <trkpt lat="44.99406" lon="5.25943">
        <ele>400</ele>
        <time>2011-05-07T08:14:24Z</time>
      </trkpt>
      <trkpt lat="44.99441" lon="5.25926">
        <ele>400</ele>
        <time>2011-05-07T08:14:32Z</time>
      </trkpt>
      <trkpt lat="44.99469" lon="5.25921">
        <ele>400</ele>
        <time>2011-05-07T08:14:38Z</time>
      </trkpt>
      <trkpt lat="44.9951" lon="5.25911">
        <ele>400</ele>
        <time>2011-05-07T08:14:47Z</time>
      </trkpt>
      <trkpt lat="44.99555" lon="5.259">
        <ele>400</ele>
        <time>2011-05-07T08:14:57Z</time>
      </trkpt>
      <trkpt lat="44.99564" lon="5.25896">
        <ele>400</ele>
        <time>2011-05-07T08:14:59Z</time>
      </trkpt>
      <trkpt lat="44.9958" lon="5.25883">
        <ele>400.69583129883</ele>
        <time>2011-05-07T08:15:03Z</time>
      </trkpt>
      <trkpt lat="44.99592" lon="5.25862">
        <ele>402.88055419922</ele>
        <time>2011-05-07T08:15:07Z</time>
      </trkpt>
      <trkpt lat="44.99609" lon="5.25814">
        <ele>408.8239440918</ele>
        <time>2011-05-07T08:15:15Z</time>
      </trkpt>
      <trkpt lat="44.99611" lon="5.25808">
        <ele>409.68911743164</ele>
        <time>2011-05-07T08:15:16Z</time>
      </trkpt>
      <trkpt lat="44.99607" lon="5.25783">
        <ele>413.97158813477</ele>
        <time>2011-05-07T08:15:20Z</time>
      </trkpt>
      <trkpt lat="44.99598" lon="5.25784">
        <ele>413.95443725586</ele>
        <time>2011-05-07T08:15:22Z</time>
      </trkpt>
      <trkpt lat="44.99589" lon="5.258">
        <ele>411.05334472656</ele>
        <time>2011-05-07T08:15:25Z</time>
      </trkpt>
      <trkpt lat="44.99583" lon="5.2582">
        <ele>407.98944091797</ele>
        <time>2011-05-07T08:15:28Z</time>
      </trkpt>
      <trkpt lat="44.99563" lon="5.25851">
        <ele>404.82525634766</ele>
        <time>2011-05-07T08:15:34Z</time>
      </trkpt>
      <trkpt lat="44.99536" lon="5.25861">
        <ele>404.03506469727</ele>
        <time>2011-05-07T08:15:40Z</time>
      </trkpt>
      <trkpt lat="44.99532" lon="5.2586">
        <ele>404.10717773438</ele>
        <time>2011-05-07T08:15:41Z</time>
      </trkpt>
      <trkpt lat="44.99496" lon="5.25845">
        <ele>405.76025390625</ele>
        <time>2011-05-07T08:15:50Z</time>
      </trkpt>
      <trkpt lat="44.99492" lon="5.25843">
        <ele>405.98684692383</ele>
        <time>2011-05-07T08:15:51Z</time>
      </trkpt>
      <trkpt lat="44.99471" lon="5.25821">
        <ele>409.17260742188</ele>
        <time>2011-05-07T08:15:57Z</time>
      </trkpt>
      <trkpt lat="44.99464" lon="5.25805">
        <ele>411.83679199219</ele>
        <time>2011-05-07T08:16:00Z</time>
      </trkpt>
      <trkpt lat="44.99449" lon="5.25753">
        <ele>418.84509277344</ele>
        <time>2011-05-07T08:16:09Z</time>
      </trkpt>
      <trkpt lat="44.99446" lon="5.25748">
        <ele>419.60791015625</ele>
        <time>2011-05-07T08:16:10Z</time>
      </trkpt>
      <trkpt lat="44.99434" lon="5.2573">
        <ele>423.40454101562</ele>
        <time>2011-05-07T08:16:14Z</time>
      </trkpt>
      <trkpt lat="44.99399" lon="5.25708">
        <ele>427.85089111328</ele>
        <time>2011-05-07T08:16:22Z</time>
      </trkpt>
      <trkpt lat="44.9936" lon="5.2569">
        <ele>430.734375</ele>
        <time>2011-05-07T08:16:31Z</time>
      </trkpt>
      <trkpt lat="44.99319" lon="5.25675">
        <ele>433.74255371094</ele>
        <time>2011-05-07T08:16:40Z</time>
      </trkpt>
      <trkpt lat="44.99279" lon="5.25672">
        <ele>436.19998168945</ele>
        <time>2011-05-07T08:16:49Z</time>
      </trkpt>
      <trkpt lat="44.99235" lon="5.25672">
        <ele>438.71060180664</ele>
        <time>2011-05-07T08:16:59Z</time>
      </trkpt>
      <trkpt lat="44.99199" lon="5.25665">
        <ele>441.87744140625</ele>
        <time>2011-05-07T08:17:07Z</time>
      </trkpt>
      <trkpt lat="44.99152" lon="5.25649">
        <ele>442.57550048828</ele>
        <time>2011-05-07T08:17:18Z</time>
      </trkpt>
      <trkpt lat="44.99122" lon="5.25649">
        <ele>441.40579223633</ele>
        <time>2011-05-07T08:17:25Z</time>
      </trkpt>
      <trkpt lat="44.99105" lon="5.25653">
        <ele>439.46835327148</ele>
        <time>2011-05-07T08:17:29Z</time>
      </trkpt>
      <trkpt lat="44.9908" lon="5.25648">
        <ele>438.19454956055</ele>
        <time>2011-05-07T08:17:35Z</time>
      </trkpt>
      <trkpt lat="44.99071" lon="5.25636">
        <ele>440.0498046875</ele>
        <time>2011-05-07T08:17:38Z</time>
      </trkpt>
      <trkpt lat="44.9906" lon="5.25603">
        <ele>445.13247680664</ele>
        <time>2011-05-07T08:17:44Z</time>
      </trkpt>
      <trkpt lat="44.99043" lon="5.25558">
        <ele>451.66534423828</ele>
        <time>2011-05-07T08:17:52Z</time>
      </trkpt>
      <trkpt lat="44.99019" lon="5.25516">
        <ele>459.04357910156</ele>
        <time>2011-05-07T08:18:00Z</time>
      </trkpt>
      <trkpt lat="44.98988" lon="5.25478">
        <ele>460.47406005859</ele>
        <time>2011-05-07T08:18:09Z</time>
      </trkpt>
      <trkpt lat="44.98961" lon="5.25453">
        <ele>459.82592773438</ele>
        <time>2011-05-07T08:18:16Z</time>
      </trkpt>
      <trkpt lat="44.98957" lon="5.25449">
        <ele>459.73321533203</ele>
        <time>2011-05-07T08:18:17Z</time>
      </trkpt>
      <trkpt lat="44.98938" lon="5.25433">
        <ele>458.85232543945</ele>
        <time>2011-05-07T08:18:22Z</time>
      </trkpt>
      <trkpt lat="44.989" lon="5.25409">
        <ele>458.51901245117</ele>
        <time>2011-05-07T08:18:31Z</time>
      </trkpt>
      <trkpt lat="44.98862" lon="5.25386">
        <ele>459.50424194336</ele>
        <time>2011-05-07T08:18:40Z</time>
      </trkpt>
      <trkpt lat="44.98826" lon="5.25371">
        <ele>462.61798095703</ele>
        <time>2011-05-07T08:18:48Z</time>
      </trkpt>
      <trkpt lat="44.98822" lon="5.2537">
        <ele>463.13012695312</ele>
        <time>2011-05-07T08:18:49Z</time>
      </trkpt>
      <trkpt lat="44.98774" lon="5.25353">
        <ele>469.14743041992</ele>
        <time>2011-05-07T08:19:00Z</time>
      </trkpt>
      <trkpt lat="44.98735" lon="5.25346">
        <ele>472.44177246094</ele>
        <time>2011-05-07T08:19:09Z</time>
      </trkpt>
      <trkpt lat="44.98718" lon="5.25343">
        <ele>472.74655151367</ele>
        <time>2011-05-07T08:19:13Z</time>
      </trkpt>
      <trkpt lat="44.98697" lon="5.25342">
        <ele>469.95086669922</ele>
        <time>2011-05-07T08:19:18Z</time>
      </trkpt>
      <trkpt lat="44.98666" lon="5.25353">
        <ele>467.10220336914</ele>
        <time>2011-05-07T08:19:25Z</time>
      </trkpt>
      <trkpt lat="44.98629" lon="5.25372">
        <ele>461.77679443359</ele>
        <time>2011-05-07T08:19:33Z</time>
      </trkpt>
      <trkpt lat="44.98606" lon="5.25382">
        <ele>461.57861328125</ele>
        <time>2011-05-07T08:19:38Z</time>
      </trkpt>
      <trkpt lat="44.98584" lon="5.2538">
        <ele>460.70657348633</ele>
        <time>2011-05-07T08:19:43Z</time>
      </trkpt>
      <trkpt lat="44.98577" lon="5.25364">
        <ele>460.04681396484</ele>
        <time>2011-05-07T08:19:46Z</time>
      </trkpt>
      <trkpt lat="44.98581" lon="5.25345">
        <ele>460</ele>
        <time>2011-05-07T08:19:49Z</time>
      </trkpt>
      <trkpt lat="44.98584" lon="5.25339">
        <ele>460.00201416016</ele>
        <time>2011-05-07T08:19:50Z</time>
      </trkpt>
      <trkpt lat="44.98614" lon="5.25294">
        <ele>460.32312011719</ele>
        <time>2011-05-07T08:19:59Z</time>
      </trkpt>
      <trkpt lat="44.98639" lon="5.25259">
        <ele>465.36343383789</ele>
        <time>2011-05-07T08:20:06Z</time>
      </trkpt>
      <trkpt lat="44.98658" lon="5.2523">
        <ele>471.80035400391</ele>
        <time>2011-05-07T08:20:12Z</time>
      </trkpt>
      <trkpt lat="44.98665" lon="5.2522">
        <ele>473.74417114258</ele>
        <time>2011-05-07T08:20:14Z</time>
      </trkpt>
      <trkpt lat="44.98682" lon="5.25181">
        <ele>477.39791870117</ele>
        <time>2011-05-07T08:20:21Z</time>
      </trkpt>
      <trkpt lat="44.98704" lon="5.25117">
        <ele>480.67156982422</ele>
        <time>2011-05-07T08:20:32Z</time>
      </trkpt>
      <trkpt lat="44.98705" lon="5.25111">
        <ele>481.2138671875</ele>
        <time>2011-05-07T08:20:33Z</time>
      </trkpt>
      <trkpt lat="44.98708" lon="5.25086">
        <ele>485.00415039062</ele>
        <time>2011-05-07T08:20:37Z</time>
      </trkpt>
      <trkpt lat="44.987" lon="5.25044">
        <ele>489.30505371094</ele>
        <time>2011-05-07T08:20:44Z</time>
      </trkpt>
      <trkpt lat="44.98692" lon="5.2502">
        <ele>491.84222412109</ele>
        <time>2011-05-07T08:20:48Z</time>
      </trkpt>
      <trkpt lat="44.98674" lon="5.24992">
        <ele>495.4248046875</ele>
        <time>2011-05-07T08:20:54Z</time>
      </trkpt>
      <trkpt lat="44.98653" lon="5.24984">
        <ele>496.90106201172</ele>
        <time>2011-05-07T08:20:59Z</time>
      </trkpt>
      <trkpt lat="44.98626" lon="5.24989">
        <ele>496.69216918945</ele>
        <time>2011-05-07T08:21:05Z</time>
      </trkpt>
      <trkpt lat="44.98601" lon="5.25003">
        <ele>495.66525268555</ele>
        <time>2011-05-07T08:21:11Z</time>
      </trkpt>
      <trkpt lat="44.98566" lon="5.25009">
        <ele>497.57995605469</ele>
        <time>2011-05-07T08:21:19Z</time>
      </trkpt>
      <trkpt lat="44.98528" lon="5.2501">
        <ele>502.43627929688</ele>
        <time>2011-05-07T08:21:27Z</time>
      </trkpt>
      <trkpt lat="44.98484" lon="5.25008">
        <ele>505.51586914062</ele>
        <time>2011-05-07T08:21:37Z</time>
      </trkpt>
      <trkpt lat="44.98449" lon="5.25006">
        <ele>509.81866455078</ele>
        <time>2011-05-07T08:21:45Z</time>
      </trkpt>
      <trkpt lat="44.98409" lon="5.25006">
        <ele>512.53607177734</ele>
        <time>2011-05-07T08:21:54Z</time>
      </trkpt>
      <trkpt lat="44.98386" lon="5.2501">
        <ele>512.697265625</ele>
        <time>2011-05-07T08:21:59Z</time>
      </trkpt>
      <trkpt lat="44.98378" lon="5.25014">
        <ele>512.80712890625</ele>
        <time>2011-05-07T08:22:01Z</time>
      </trkpt>
      <trkpt lat="44.98369" lon="5.25017">
        <ele>513.01312255859</ele>
        <time>2011-05-07T08:22:03Z</time>
      </trkpt>
      <trkpt lat="44.9836" lon="5.25021">
        <ele>513.02685546875</ele>
        <time>2011-05-07T08:22:05Z</time>
      </trkpt>
      <trkpt lat="44.98324" lon="5.25029">
        <ele>513.67602539062</ele>
        <time>2011-05-07T08:22:13Z</time>
      </trkpt>
      <trkpt lat="44.98282" lon="5.2503">
        <ele>515.107421875</ele>
        <time>2011-05-07T08:22:22Z</time>
      </trkpt>
      <trkpt lat="44.98264" lon="5.25031">
        <ele>516.35705566406</ele>
        <time>2011-05-07T08:22:26Z</time>
      </trkpt>
      <trkpt lat="44.98222" lon="5.2502">
        <ele>519.86279296875</ele>
        <time>2011-05-07T08:22:36Z</time>
      </trkpt>
      <trkpt lat="44.98185" lon="5.25006">
        <ele>521.29962158203</ele>
        <time>2011-05-07T08:22:45Z</time>
      </trkpt>
      <trkpt lat="44.98148" lon="5.24998">
        <ele>521.16156005859</ele>
        <time>2011-05-07T08:22:54Z</time>
      </trkpt>
      <trkpt lat="44.98108" lon="5.24989">
        <ele>521.79022216797</ele>
        <time>2011-05-07T08:23:03Z</time>
      </trkpt>
      <trkpt lat="44.98069" lon="5.24981">
        <ele>522.54870605469</ele>
        <time>2011-05-07T08:23:12Z</time>
      </trkpt>
      <trkpt lat="44.9804" lon="5.24979">
        <ele>523.03497314453</ele>
        <time>2011-05-07T08:23:19Z</time>
      </trkpt>
      <trkpt lat="44.98035" lon="5.24979">
        <ele>523.05554199219</ele>
        <time>2011-05-07T08:23:20Z</time>
      </trkpt>
      <trkpt lat="44.97998" lon="5.24985">
        <ele>524.2607421875</ele>
        <time>2011-05-07T08:23:29Z</time>
      </trkpt>
      <trkpt lat="44.97957" lon="5.24997">
        <ele>523.94482421875</ele>
        <time>2011-05-07T08:23:39Z</time>
      </trkpt>
      <trkpt lat="44.97923" lon="5.25006">
        <ele>523.560546875</ele>
        <time>2011-05-07T08:23:47Z</time>
      </trkpt>
      <trkpt lat="44.97878" lon="5.25017">
        <ele>521.14093017578</ele>
        <time>2011-05-07T08:23:58Z</time>
      </trkpt>
      <trkpt lat="44.97862" lon="5.25017">
        <ele>521.18725585938</ele>
        <time>2011-05-07T08:24:02Z</time>
      </trkpt>
      <trkpt lat="44.97855" lon="5.25">
        <ele>522.73522949219</ele>
        <time>2011-05-07T08:24:06Z</time>
      </trkpt>
      <trkpt lat="44.97861" lon="5.24982">
        <ele>525.62689208984</ele>
        <time>2011-05-07T08:24:10Z</time>
      </trkpt>
      <trkpt lat="44.97863" lon="5.24978">
        <ele>526.29339599609</ele>
        <time>2011-05-07T08:24:11Z</time>
      </trkpt>
      <trkpt lat="44.97871" lon="5.24965">
        <ele>528.22351074219</ele>
        <time>2011-05-07T08:24:14Z</time>
      </trkpt>
      <trkpt lat="44.97891" lon="5.24941">
        <ele>532.36004638672</ele>
        <time>2011-05-07T08:24:20Z</time>
      </trkpt>
      <trkpt lat="44.97918" lon="5.24925">
        <ele>534.05432128906</ele>
        <time>2011-05-07T08:24:27Z</time>
      </trkpt>
      <trkpt lat="44.97946" lon="5.24918">
        <ele>534.85064697266</ele>
        <time>2011-05-07T08:24:34Z</time>
      </trkpt>
      <trkpt lat="44.97953" lon="5.24913">
        <ele>535.20837402344</ele>
        <time>2011-05-07T08:24:36Z</time>
      </trkpt>
      <trkpt lat="44.97976" lon="5.24887">
        <ele>537.85296630859</ele>
        <time>2011-05-07T08:24:43Z</time>
      </trkpt>
      <trkpt lat="44.97995" lon="5.24861">
        <ele>539.21697998047</ele>
        <time>2011-05-07T08:24:49Z</time>
      </trkpt>
      <trkpt lat="44.98012" lon="5.24842">
        <ele>541.75952148438</ele>
        <time>2011-05-07T08:24:54Z</time>
      </trkpt>
      <trkpt lat="44.98045" lon="5.24805">
        <ele>548.62963867188</ele>
        <time>2011-05-07T08:25:04Z</time>
      </trkpt>
      <trkpt lat="44.98071" lon="5.24776">
        <ele>556.96826171875</ele>
        <time>2011-05-07T08:25:12Z</time>
      </trkpt>
      <trkpt lat="44.98098" lon="5.24745">
        <ele>564.05529785156</ele>
        <time>2011-05-07T08:25:20Z</time>
      </trkpt>
      <trkpt lat="44.98109" lon="5.24728">
        <ele>566.24572753906</ele>
        <time>2011-05-07T08:25:24Z</time>
      </trkpt>
      <trkpt lat="44.98116" lon="5.24697">
        <ele>571.02423095703</ele>
        <time>2011-05-07T08:25:30Z</time>
      </trkpt>
      <trkpt lat="44.98107" lon="5.24685">
        <ele>572.25140380859</ele>
        <time>2011-05-07T08:25:33Z</time>
      </trkpt>
      <trkpt lat="44.98099" lon="5.24688">
        <ele>571.66448974609</ele>
        <time>2011-05-07T08:25:35Z</time>
      </trkpt>
      <trkpt lat="44.98088" lon="5.24698">
        <ele>569.61474609375</ele>
        <time>2011-05-07T08:25:38Z</time>
      </trkpt>
      <trkpt lat="44.9805" lon="5.24724">
        <ele>564.17742919922</ele>
        <time>2011-05-07T08:25:47Z</time>
      </trkpt>
      <trkpt lat="44.98009" lon="5.24742">
        <ele>558.35198974609</ele>
        <time>2011-05-07T08:25:56Z</time>
      </trkpt>
      <trkpt lat="44.9798" lon="5.24751">
        <ele>556.90557861328</ele>
        <time>2011-05-07T08:26:03Z</time>
      </trkpt>
      <trkpt lat="44.97955" lon="5.24751">
        <ele>558.18511962891</ele>
        <time>2011-05-07T08:26:09Z</time>
      </trkpt>
      <trkpt lat="44.97924" lon="5.24737">
        <ele>560.41680908203</ele>
        <time>2011-05-07T08:26:17Z</time>
      </trkpt>
      <trkpt lat="44.97903" lon="5.24712">
        <ele>564.98291015625</ele>
        <time>2011-05-07T08:26:24Z</time>
      </trkpt>
      <trkpt lat="44.97893" lon="5.24683">
        <ele>571.72784423828</ele>
        <time>2011-05-07T08:26:30Z</time>
      </trkpt>
      <trkpt lat="44.97891" lon="5.24639">
        <ele>578.65600585938</ele>
        <time>2011-05-07T08:26:38Z</time>
      </trkpt>
      <trkpt lat="44.97886" lon="5.24619">
        <ele>584.87866210938</ele>
        <time>2011-05-07T08:26:42Z</time>
      </trkpt>
      <trkpt lat="44.97872" lon="5.24608">
        <ele>588.87878417969</ele>
        <time>2011-05-07T08:26:46Z</time>
      </trkpt>
      <trkpt lat="44.97849" lon="5.2461">
        <ele>589.69866943359</ele>
        <time>2011-05-07T08:26:52Z</time>
      </trkpt>
      <trkpt lat="44.97826" lon="5.24612">
        <ele>589.81817626953</ele>
        <time>2011-05-07T08:26:58Z</time>
      </trkpt>
      <trkpt lat="44.97802" lon="5.24596">
        <ele>593.58178710938</ele>
        <time>2011-05-07T08:27:05Z</time>
      </trkpt>
      <trkpt lat="44.97776" lon="5.24563">
        <ele>600.06927490234</ele>
        <time>2011-05-07T08:27:14Z</time>
      </trkpt>
      <trkpt lat="44.97751" lon="5.24525">
        <ele>607.27697753906</ele>
        <time>2011-05-07T08:27:24Z</time>
      </trkpt>
      <trkpt lat="44.97739" lon="5.24504">
        <ele>608.74096679688</ele>
        <time>2011-05-07T08:27:29Z</time>
      </trkpt>
      <trkpt lat="44.97716" lon="5.24467">
        <ele>612.87719726562</ele>
        <time>2011-05-07T08:27:38Z</time>
      </trkpt>
      <trkpt lat="44.97695" lon="5.24444">
        <ele>613.14874267578</ele>
        <time>2011-05-07T08:27:45Z</time>
      </trkpt>
      <trkpt lat="44.97668" lon="5.24435">
        <ele>613.50280761719</ele>
        <time>2011-05-07T08:27:52Z</time>
      </trkpt>
      <trkpt lat="44.97637" lon="5.24427">
        <ele>612.39086914062</ele>
        <time>2011-05-07T08:28:00Z</time>
      </trkpt>
      <trkpt lat="44.97594" lon="5.24409">
        <ele>611.80657958984</ele>
        <time>2011-05-07T08:28:11Z</time>
      </trkpt>
      <trkpt lat="44.97576" lon="5.24388">
        <ele>613.79968261719</ele>
        <time>2011-05-07T08:28:17Z</time>
      </trkpt>
      <trkpt lat="44.97557" lon="5.24352">
        <ele>616.02874755859</ele>
        <time>2011-05-07T08:28:25Z</time>
      </trkpt>
      <trkpt lat="44.97552" lon="5.24344">
        <ele>616.88244628906</ele>
        <time>2011-05-07T08:28:27Z</time>
      </trkpt>
      <trkpt lat="44.97527" lon="5.24327">
        <ele>618.42565917969</ele>
        <time>2011-05-07T08:28:34Z</time>
      </trkpt>
      <trkpt lat="44.97508" lon="5.24332">
        <ele>618.08923339844</ele>
        <time>2011-05-07T08:28:39Z</time>
      </trkpt>
      <trkpt lat="44.97493" lon="5.24351">
        <ele>616.58380126953</ele>
        <time>2011-05-07T08:28:44Z</time>
      </trkpt>
      <trkpt lat="44.97487" lon="5.24372">
        <ele>614.91033935547</ele>
        <time>2011-05-07T08:28:48Z</time>
      </trkpt>
      <trkpt lat="44.97494" lon="5.24401">
        <ele>613.06823730469</ele>
        <time>2011-05-07T08:28:53Z</time>
      </trkpt>
      <trkpt lat="44.97502" lon="5.2442">
        <ele>611.55987548828</ele>
        <time>2011-05-07T08:28:57Z</time>
      </trkpt>
      <trkpt lat="44.97498" lon="5.24433">
        <ele>610.22192382812</ele>
        <time>2011-05-07T08:29:00Z</time>
      </trkpt>
      <trkpt lat="44.97487" lon="5.24429">
        <ele>610.45776367188</ele>
        <time>2011-05-07T08:29:03Z</time>
      </trkpt>
      <trkpt lat="44.97484" lon="5.24425">
        <ele>610.7119140625</ele>
        <time>2011-05-07T08:29:04Z</time>
      </trkpt>
      <trkpt lat="44.97461" lon="5.24401">
        <ele>611.87634277344</ele>
        <time>2011-05-07T08:29:11Z</time>
      </trkpt>
      <trkpt lat="44.97458" lon="5.24398">
        <ele>611.97766113281</ele>
        <time>2011-05-07T08:29:12Z</time>
      </trkpt>
      <trkpt lat="44.97447" lon="5.24386">
        <ele>612.41101074219</ele>
        <time>2011-05-07T08:29:15Z</time>
      </trkpt>
      <trkpt lat="44.97437" lon="5.24361">
        <ele>613.48260498047</ele>
        <time>2011-05-07T08:29:20Z</time>
      </trkpt>
      <trkpt lat="44.97429" lon="5.24329">
        <ele>616.71136474609</ele>
        <time>2011-05-07T08:29:26Z</time>
      </trkpt>
      <trkpt lat="44.97405" lon="5.2428">
        <ele>620.40216064453</ele>
        <time>2011-05-07T08:29:36Z</time>
      </trkpt>
      <trkpt lat="44.97376" lon="5.2423">
        <ele>623.92974853516</ele>
        <time>2011-05-07T08:29:47Z</time>
      </trkpt>
      <trkpt lat="44.97345" lon="5.24177">
        <ele>628.18939208984</ele>
        <time>2011-05-07T08:29:59Z</time>
      </trkpt>
      <trkpt lat="44.97325" lon="5.24149">
        <ele>627.48596191406</ele>
        <time>2011-05-07T08:30:06Z</time>
      </trkpt>
      <trkpt lat="44.97297" lon="5.24116">
        <ele>623.45294189453</ele>
        <time>2011-05-07T08:30:15Z</time>
      </trkpt>
      <trkpt lat="44.97273" lon="5.24083">
        <ele>618.1767578125</ele>
        <time>2011-05-07T08:30:23Z</time>
      </trkpt>
      <trkpt lat="44.9726" lon="5.24059">
        <ele>621.23443603516</ele>
        <time>2011-05-07T08:30:28Z</time>
      </trkpt>
      <trkpt lat="44.9724" lon="5.24013">
        <ele>622.15191650391</ele>
        <time>2011-05-07T08:30:37Z</time>
      </trkpt>
      <trkpt lat="44.97238" lon="5.24008">
        <ele>623.29925537109</ele>
        <time>2011-05-07T08:30:38Z</time>
      </trkpt>
      <trkpt lat="44.97231" lon="5.23963">
        <ele>633.82879638672</ele>
        <time>2011-05-07T08:30:46Z</time>
      </trkpt>
      <trkpt lat="44.97229" lon="5.23935">
        <ele>639.94573974609</ele>
        <time>2011-05-07T08:30:51Z</time>
      </trkpt>
      <trkpt lat="44.97224" lon="5.23893">
        <ele>648.72918701172</ele>
        <time>2011-05-07T08:30:58Z</time>
      </trkpt>
      <trkpt lat="44.9722" lon="5.23857">
        <ele>657.85821533203</ele>
        <time>2011-05-07T08:31:04Z</time>
      </trkpt>
      <trkpt lat="44.97218" lon="5.23845">
        <ele>656.22338867188</ele>
        <time>2011-05-07T08:31:06Z</time>
      </trkpt>
      <trkpt lat="44.97207" lon="5.23804">
        <ele>652.3369140625</ele>
        <time>2011-05-07T08:31:13Z</time>
      </trkpt>
      <trkpt lat="44.97197" lon="5.23774">
        <ele>651.06640625</ele>
        <time>2011-05-07T08:31:18Z</time>
      </trkpt>
      <trkpt lat="44.97192" lon="5.23741">
        <ele>648.00872802734</ele>
        <time>2011-05-07T08:31:23Z</time>
      </trkpt>
      <trkpt lat="44.97192" lon="5.23696">
        <ele>651.00268554688</ele>
        <time>2011-05-07T08:31:29Z</time>
      </trkpt>
      <trkpt lat="44.97189" lon="5.23641">
        <ele>656.78881835938</ele>
        <time>2011-05-07T08:31:36Z</time>
      </trkpt>
      <trkpt lat="44.97182" lon="5.23598">
        <ele>660.61108398438</ele>
        <time>2011-05-07T08:31:42Z</time>
      </trkpt>
      <trkpt lat="44.97177" lon="5.23572">
        <ele>663.65515136719</ele>
        <time>2011-05-07T08:31:46Z</time>
      </trkpt>
      <trkpt lat="44.97174" lon="5.2356">
        <ele>664.57586669922</ele>
        <time>2011-05-07T08:31:48Z</time>
      </trkpt>
      <trkpt lat="44.97162" lon="5.23506">
        <ele>665.89495849609</ele>
        <time>2011-05-07T08:31:57Z</time>
      </trkpt>
      <trkpt lat="44.97152" lon="5.23455">
        <ele>666.34155273438</ele>
        <time>2011-05-07T08:32:05Z</time>
      </trkpt>
      <trkpt lat="44.9714" lon="5.23411">
        <ele>667.93524169922</ele>
        <time>2011-05-07T08:32:12Z</time>
      </trkpt>
      <trkpt lat="44.97121" lon="5.23349">
        <ele>670.65637207031</ele>
        <time>2011-05-07T08:32:22Z</time>
      </trkpt>
      <trkpt lat="44.97107" lon="5.23305">
        <ele>672.36859130859</ele>
        <time>2011-05-07T08:32:29Z</time>
      </trkpt>
      <trkpt lat="44.97102" lon="5.23293">
        <ele>671.27880859375</ele>
        <time>2011-05-07T08:32:31Z</time>
      </trkpt>
      <trkpt lat="44.97084" lon="5.23236">
        <ele>670.38531494141</ele>
        <time>2011-05-07T08:32:40Z</time>
      </trkpt>
      <trkpt lat="44.97072" lon="5.23205">
        <ele>667.73028564453</ele>
        <time>2011-05-07T08:32:45Z</time>
      </trkpt>
      <trkpt lat="44.97061" lon="5.23169">
        <ele>666.44549560547</ele>
        <time>2011-05-07T08:32:51Z</time>
      </trkpt>
      <trkpt lat="44.97055" lon="5.23118">
        <ele>671.52447509766</ele>
        <time>2011-05-07T08:32:59Z</time>
      </trkpt>
      <trkpt lat="44.97054" lon="5.23112">
        <ele>672.17596435547</ele>
        <time>2011-05-07T08:33:00Z</time>
      </trkpt>
      <trkpt lat="44.97048" lon="5.23076">
        <ele>677.40277099609</ele>
        <time>2011-05-07T08:33:06Z</time>
      </trkpt>
      <trkpt lat="44.97041" lon="5.23031">
        <ele>682.13348388672</ele>
        <time>2011-05-07T08:33:13Z</time>
      </trkpt>
      <trkpt lat="44.97023" lon="5.22986">
        <ele>682.83380126953</ele>
        <time>2011-05-07T08:33:21Z</time>
      </trkpt>
      <trkpt lat="44.97011" lon="5.2296">
        <ele>679.56140136719</ele>
        <time>2011-05-07T08:33:26Z</time>
      </trkpt>
      <trkpt lat="44.96992" lon="5.22921">
        <ele>676.01568603516</ele>
        <time>2011-05-07T08:33:34Z</time>
      </trkpt>
      <trkpt lat="44.96979" lon="5.22878">
        <ele>673.60614013672</ele>
        <time>2011-05-07T08:33:42Z</time>
      </trkpt>
      <trkpt lat="44.9697" lon="5.22838">
        <ele>671.74035644531</ele>
        <time>2011-05-07T08:33:49Z</time>
      </trkpt>
      <trkpt lat="44.96964" lon="5.2278">
        <ele>675.59552001953</ele>
        <time>2011-05-07T08:33:58Z</time>
      </trkpt>
      <trkpt lat="44.96962" lon="5.22741">
        <ele>677.14562988281</ele>
        <time>2011-05-07T08:34:04Z</time>
      </trkpt>
      <trkpt lat="44.96961" lon="5.22716">
        <ele>679.54760742188</ele>
        <time>2011-05-07T08:34:08Z</time>
      </trkpt>
      <trkpt lat="44.96961" lon="5.22673">
        <ele>683.54046630859</ele>
        <time>2011-05-07T08:34:15Z</time>
      </trkpt>
      <trkpt lat="44.96964" lon="5.22656">
        <ele>686.29504394531</ele>
        <time>2011-05-07T08:34:18Z</time>
      </trkpt>
      <trkpt lat="44.96969" lon="5.22634">
        <ele>691.18658447266</ele>
        <time>2011-05-07T08:34:22Z</time>
      </trkpt>
      <trkpt lat="44.96968" lon="5.22599">
        <ele>694.98590087891</ele>
        <time>2011-05-07T08:34:28Z</time>
      </trkpt>
      <trkpt lat="44.96966" lon="5.22594">
        <ele>694.89526367188</ele>
        <time>2011-05-07T08:34:29Z</time>
      </trkpt>
      <trkpt lat="44.96951" lon="5.2257">
        <ele>693.53625488281</ele>
        <time>2011-05-07T08:34:34Z</time>
      </trkpt>
      <trkpt lat="44.96941" lon="5.22548">
        <ele>694.88500976562</ele>
        <time>2011-05-07T08:34:38Z</time>
      </trkpt>
      <trkpt lat="44.96932" lon="5.22505">
        <ele>702.77423095703</ele>
        <time>2011-05-07T08:34:45Z</time>
      </trkpt>
      <trkpt lat="44.96922" lon="5.2247">
        <ele>712.3662109375</ele>
        <time>2011-05-07T08:34:51Z</time>
      </trkpt>
      <trkpt lat="44.96917" lon="5.22459">
        <ele>715.31195068359</ele>
        <time>2011-05-07T08:34:53Z</time>
      </trkpt>
      <trkpt lat="44.96902" lon="5.22414">
        <ele>725.01397705078</ele>
        <time>2011-05-07T08:35:01Z</time>
      </trkpt>
      <trkpt lat="44.96885" lon="5.22386">
        <ele>729.57855224609</ele>
        <time>2011-05-07T08:35:07Z</time>
      </trkpt>
      <trkpt lat="44.96861" lon="5.22369">
        <ele>721.4091796875</ele>
        <time>2011-05-07T08:35:13Z</time>
      </trkpt>
      <trkpt lat="44.96818" lon="5.22354">
        <ele>721.7314453125</ele>
        <time>2011-05-07T08:35:23Z</time>
      </trkpt>
      <trkpt lat="44.96809" lon="5.22353">
        <ele>721.94256591797</ele>
        <time>2011-05-07T08:35:25Z</time>
      </trkpt>
      <trkpt lat="44.96779" lon="5.22356">
        <ele>715.30297851562</ele>
        <time>2011-05-07T08:35:32Z</time>
      </trkpt>
      <trkpt lat="44.96743" lon="5.22366">
        <ele>711.82788085938</ele>
        <time>2011-05-07T08:35:40Z</time>
      </trkpt>
      <trkpt lat="44.96722" lon="5.22372">
        <ele>710.49267578125</ele>
        <time>2011-05-07T08:35:45Z</time>
      </trkpt>
      <trkpt lat="44.96697" lon="5.22368">
        <ele>706.50988769531</ele>
        <time>2011-05-07T08:35:51Z</time>
      </trkpt>
      <trkpt lat="44.96687" lon="5.2236">
        <ele>707.42010498047</ele>
        <time>2011-05-07T08:35:54Z</time>
      </trkpt>
      <trkpt lat="44.96679" lon="5.22354">
        <ele>708.80700683594</ele>
        <time>2011-05-07T08:35:56Z</time>
      </trkpt>
      <trkpt lat="44.96665" lon="5.22325">
        <ele>716.48071289062</ele>
        <time>2011-05-07T08:36:03Z</time>
      </trkpt>
      <trkpt lat="44.96663" lon="5.22292">
        <ele>724.97778320312</ele>
        <time>2011-05-07T08:36:09Z</time>
      </trkpt>
      <trkpt lat="44.96658" lon="5.22265">
        <ele>730.42449951172</ele>
        <time>2011-05-07T08:36:14Z</time>
      </trkpt>
      <trkpt lat="44.9664" lon="5.2223">
        <ele>734.43023681641</ele>
        <time>2011-05-07T08:36:21Z</time>
      </trkpt>
      <trkpt lat="44.96632" lon="5.22222">
        <ele>732.44323730469</ele>
        <time>2011-05-07T08:36:23Z</time>
      </trkpt>
      <trkpt lat="44.96606" lon="5.22183">
        <ele>732.85632324219</ele>
        <time>2011-05-07T08:36:31Z</time>
      </trkpt>
      <trkpt lat="44.96598" lon="5.22166">
        <ele>732.84338378906</ele>
        <time>2011-05-07T08:36:34Z</time>
      </trkpt>
      <trkpt lat="44.96572" lon="5.22142">
        <ele>725.94323730469</ele>
        <time>2011-05-07T08:36:40Z</time>
      </trkpt>
      <trkpt lat="44.96548" lon="5.22113">
        <ele>728.91680908203</ele>
        <time>2011-05-07T08:36:45Z</time>
      </trkpt>
      <trkpt lat="44.96531" lon="5.22095">
        <ele>729.53967285156</ele>
        <time>2011-05-07T08:36:48Z</time>
      </trkpt>
      <trkpt lat="44.96502" lon="5.22046">
        <ele>740.47784423828</ele>
        <time>2011-05-07T08:36:55Z</time>
      </trkpt>
      <trkpt lat="44.96466" lon="5.22003">
        <ele>743.46258544922</ele>
        <time>2011-05-07T08:37:02Z</time>
      </trkpt>
      <trkpt lat="44.96442" lon="5.21981">
        <ele>747.29528808594</ele>
        <time>2011-05-07T08:37:06Z</time>
      </trkpt>
      <trkpt lat="44.96411" lon="5.21962">
        <ele>748.42059326172</ele>
        <time>2011-05-07T08:37:11Z</time>
      </trkpt>
      <trkpt lat="44.96383" lon="5.21942">
        <ele>745.76513671875</ele>
        <time>2011-05-07T08:37:16Z</time>
      </trkpt>
      <trkpt lat="44.96362" lon="5.21929">
        <ele>746.67150878906</ele>
        <time>2011-05-07T08:37:20Z</time>
      </trkpt>
      <trkpt lat="44.96335" lon="5.21916">
        <ele>746.52734375</ele>
        <time>2011-05-07T08:37:26Z</time>
      </trkpt>
      <trkpt lat="44.96312" lon="5.21908">
        <ele>745.25018310547</ele>
        <time>2011-05-07T08:37:29Z</time>
      </trkpt>
      <trkpt lat="44.96275" lon="5.21884">
        <ele>742.83251953125</ele>
        <time>2011-05-07T08:37:35Z</time>
      </trkpt>
      <trkpt lat="44.96249" lon="5.21853">
        <ele>744.49560546875</ele>
        <time>2011-05-07T08:37:41Z</time>
      </trkpt>
      <trkpt lat="44.9622" lon="5.21818">
        <ele>743.88543701172</ele>
        <time>2011-05-07T08:37:47Z</time>
      </trkpt>
      <trkpt lat="44.96193" lon="5.21788">
        <ele>747.15484619141</ele>
        <time>2011-05-07T08:37:52Z</time>
      </trkpt>
      <trkpt lat="44.96188" lon="5.21782">
        <ele>748.21771240234</ele>
        <time>2011-05-07T08:37:53Z</time>
      </trkpt>
      <trkpt lat="44.96146" lon="5.21745">
        <ele>749.99487304688</ele>
        <time>2011-05-07T08:38:00Z</time>
      </trkpt>
      <trkpt lat="44.96103" lon="5.21716">
        <ele>749.63983154297</ele>
        <time>2011-05-07T08:38:07Z</time>
      </trkpt>
      <trkpt lat="44.96082" lon="5.21685">
        <ele>754.89208984375</ele>
        <time>2011-05-07T08:38:12Z</time>
      </trkpt>
      <trkpt lat="44.96078" lon="5.21678">
        <ele>756.00445556641</ele>
        <time>2011-05-07T08:38:13Z</time>
      </trkpt>
      <trkpt lat="44.96061" lon="5.21653">
        <ele>760.97882080078</ele>
        <time>2011-05-07T08:38:17Z</time>
      </trkpt>
      <trkpt lat="44.9603" lon="5.21628">
        <ele>768.01257324219</ele>
        <time>2011-05-07T08:38:23Z</time>
      </trkpt>
      <trkpt lat="44.95993" lon="5.21618">
        <ele>766.90051269531</ele>
        <time>2011-05-07T08:38:30Z</time>
      </trkpt>
      <trkpt lat="44.95951" lon="5.21608">
        <ele>768.86309814453</ele>
        <time>2011-05-07T08:38:38Z</time>
      </trkpt>
      <trkpt lat="44.95919" lon="5.21601">
        <ele>766.80627441406</ele>
        <time>2011-05-07T08:38:44Z</time>
      </trkpt>
      <trkpt lat="44.9589" lon="5.21589">
        <ele>768.15679931641</ele>
        <time>2011-05-07T08:38:50Z</time>
      </trkpt>
      <trkpt lat="44.95881" lon="5.21584">
        <ele>769.01550292969</ele>
        <time>2011-05-07T08:38:52Z</time>
      </trkpt>
      <trkpt lat="44.95864" lon="5.21573">
        <ele>771.95269775391</ele>
        <time>2011-05-07T08:38:56Z</time>
      </trkpt>
      <trkpt lat="44.95818" lon="5.21564">
        <ele>772.82995605469</ele>
        <time>2011-05-07T08:39:04Z</time>
      </trkpt>
      <trkpt lat="44.95794" lon="5.21569">
        <ele>767.31329345703</ele>
        <time>2011-05-07T08:39:08Z</time>
      </trkpt>
      <trkpt lat="44.95756" lon="5.21588">
        <ele>753.94873046875</ele>
        <time>2011-05-07T08:39:15Z</time>
      </trkpt>
      <trkpt lat="44.95739" lon="5.21596">
        <ele>748.11944580078</ele>
        <time>2011-05-07T08:39:18Z</time>
      </trkpt>
      <trkpt lat="44.9571" lon="5.21596">
        <ele>743.35833740234</ele>
        <time>2011-05-07T08:39:24Z</time>
      </trkpt>
      <trkpt lat="44.95684" lon="5.21591">
        <ele>741.7646484375</ele>
        <time>2011-05-07T08:39:30Z</time>
      </trkpt>
      <trkpt lat="44.95662" lon="5.2158">
        <ele>740.56665039062</ele>
        <time>2011-05-07T08:39:34Z</time>
      </trkpt>
      <trkpt lat="44.95655" lon="5.2157">
        <ele>741.40557861328</ele>
        <time>2011-05-07T08:39:36Z</time>
      </trkpt>
      <trkpt lat="44.95642" lon="5.21533">
        <ele>743.12890625</ele>
        <time>2011-05-07T08:39:42Z</time>
      </trkpt>
      <trkpt lat="44.95627" lon="5.21504">
        <ele>757.58911132812</ele>
        <time>2011-05-07T08:39:47Z</time>
      </trkpt>
      <trkpt lat="44.95609" lon="5.21481">
        <ele>770.392578125</ele>
        <time>2011-05-07T08:39:51Z</time>
      </trkpt>
      <trkpt lat="44.95578" lon="5.21443">
        <ele>785.22698974609</ele>
        <time>2011-05-07T08:39:58Z</time>
      </trkpt>
      <trkpt lat="44.95553" lon="5.21422">
        <ele>795.03491210938</ele>
        <time>2011-05-07T08:40:03Z</time>
      </trkpt>
      <trkpt lat="44.9552" lon="5.2141">
        <ele>794.91802978516</ele>
        <time>2011-05-07T08:40:10Z</time>
      </trkpt>
      <trkpt lat="44.95506" lon="5.21408">
        <ele>792.36541748047</ele>
        <time>2011-05-07T08:40:13Z</time>
      </trkpt>
      <trkpt lat="44.95471" lon="5.2141">
        <ele>779.40686035156</ele>
        <time>2011-05-07T08:40:20Z</time>
      </trkpt>
      <trkpt lat="44.95441" lon="5.21402">
        <ele>772.77691650391</ele>
        <time>2011-05-07T08:40:27Z</time>
      </trkpt>
      <trkpt lat="44.9542" lon="5.21388">
        <ele>770.06018066406</ele>
        <time>2011-05-07T08:40:32Z</time>
      </trkpt>
      <trkpt lat="44.95413" lon="5.21383">
        <ele>771.90014648438</ele>
        <time>2011-05-07T08:40:34Z</time>
      </trkpt>
      <trkpt lat="44.95382" lon="5.21366">
        <ele>777.28607177734</ele>
        <time>2011-05-07T08:40:41Z</time>
      </trkpt>
      <trkpt lat="44.95372" lon="5.21362">
        <ele>777.53265380859</ele>
        <time>2011-05-07T08:40:43Z</time>
      </trkpt>
      <trkpt lat="44.95345" lon="5.21349">
        <ele>775.25561523438</ele>
        <time>2011-05-07T08:40:49Z</time>
      </trkpt>
      <trkpt lat="44.95333" lon="5.21344">
        <ele>774.8974609375</ele>
        <time>2011-05-07T08:40:52Z</time>
      </trkpt>
      <trkpt lat="44.95316" lon="5.21333">
        <ele>778.01293945312</ele>
        <time>2011-05-07T08:40:56Z</time>
      </trkpt>
      <trkpt lat="44.95288" lon="5.21312">
        <ele>778.43493652344</ele>
        <time>2011-05-07T08:41:03Z</time>
      </trkpt>
      <trkpt lat="44.95264" lon="5.21311">
        <ele>770.69067382812</ele>
        <time>2011-05-07T08:41:08Z</time>
      </trkpt>
      <trkpt lat="44.95232" lon="5.21301">
        <ele>765.60943603516</ele>
        <time>2011-05-07T08:41:15Z</time>
      </trkpt>
      <trkpt lat="44.95221" lon="5.2129">
        <ele>770.05737304688</ele>
        <time>2011-05-07T08:41:18Z</time>
      </trkpt>
      <trkpt lat="44.95207" lon="5.21279">
        <ele>771.52581787109</ele>
        <time>2011-05-07T08:41:21Z</time>
      </trkpt>
      <trkpt lat="44.95183" lon="5.21257">
        <ele>773.44415283203</ele>
        <time>2011-05-07T08:41:27Z</time>
      </trkpt>
      <trkpt lat="44.9516" lon="5.21243">
        <ele>774.34588623047</ele>
        <time>2011-05-07T08:41:32Z</time>
      </trkpt>
      <trkpt lat="44.95122" lon="5.21212">
        <ele>779.72149658203</ele>
        <time>2011-05-07T08:41:40Z</time>
      </trkpt>
      <trkpt lat="44.95093" lon="5.21193">
        <ele>783.07891845703</ele>
        <time>2011-05-07T08:41:46Z</time>
      </trkpt>
      <trkpt lat="44.95068" lon="5.21182">
        <ele>777.83197021484</ele>
        <time>2011-05-07T08:41:51Z</time>
      </trkpt>
      <trkpt lat="44.95044" lon="5.21178">
        <ele>770.66326904297</ele>
        <time>2011-05-07T08:41:57Z</time>
      </trkpt>
      <trkpt lat="44.95035" lon="5.2118">
        <ele>768.52648925781</ele>
        <time>2011-05-07T08:41:59Z</time>
      </trkpt>
      <trkpt lat="44.95016" lon="5.21169">
        <ele>768.15808105469</ele>
        <time>2011-05-07T08:42:04Z</time>
      </trkpt>
      <trkpt lat="44.95009" lon="5.21162">
        <ele>769.70971679688</ele>
        <time>2011-05-07T08:42:06Z</time>
      </trkpt>
      <trkpt lat="44.94994" lon="5.21147">
        <ele>773.53436279297</ele>
        <time>2011-05-07T08:42:10Z</time>
      </trkpt>
      <trkpt lat="44.94967" lon="5.2113">
        <ele>775.45562744141</ele>
        <time>2011-05-07T08:42:17Z</time>
      </trkpt>
      <trkpt lat="44.94948" lon="5.21115">
        <ele>775.81597900391</ele>
        <time>2011-05-07T08:42:22Z</time>
      </trkpt>
      <trkpt lat="44.94922" lon="5.21068">
        <ele>785.75738525391</ele>
        <time>2011-05-07T08:42:32Z</time>
      </trkpt>
      <trkpt lat="44.94909" lon="5.21049">
        <ele>788.61096191406</ele>
        <time>2011-05-07T08:42:37Z</time>
      </trkpt>
      <trkpt lat="44.94896" lon="5.21031">
        <ele>789.92932128906</ele>
        <time>2011-05-07T08:42:42Z</time>
      </trkpt>
      <trkpt lat="44.94883" lon="5.21014">
        <ele>792.06378173828</ele>
        <time>2011-05-07T08:42:46Z</time>
      </trkpt>
      <trkpt lat="44.9486" lon="5.20988">
        <ele>794.48303222656</ele>
        <time>2011-05-07T08:42:53Z</time>
      </trkpt>
      <trkpt lat="44.94839" lon="5.20977">
        <ele>794.59631347656</ele>
        <time>2011-05-07T08:42:59Z</time>
      </trkpt>
      <trkpt lat="44.9482" lon="5.20976">
        <ele>791.80798339844</ele>
        <time>2011-05-07T08:43:04Z</time>
      </trkpt>
      <trkpt lat="44.94796" lon="5.20971">
        <ele>789.89642333984</ele>
        <time>2011-05-07T08:43:11Z</time>
      </trkpt>
      <trkpt lat="44.94779" lon="5.20961">
        <ele>792.73968505859</ele>
        <time>2011-05-07T08:43:16Z</time>
      </trkpt>
      <trkpt lat="44.94762" lon="5.20939">
        <ele>800.13482666016</ele>
        <time>2011-05-07T08:43:22Z</time>
      </trkpt>
      <trkpt lat="44.94749" lon="5.20917">
        <ele>810.86096191406</ele>
        <time>2011-05-07T08:43:27Z</time>
      </trkpt>
      <trkpt lat="44.94727" lon="5.20907">
        <ele>809.55151367188</ele>
        <time>2011-05-07T08:43:32Z</time>
      </trkpt>
      <trkpt lat="44.94719" lon="5.20909">
        <ele>807.6142578125</ele>
        <time>2011-05-07T08:43:34Z</time>
      </trkpt>
      <trkpt lat="44.9471" lon="5.20914">
        <ele>805.96630859375</ele>
        <time>2011-05-07T08:43:36Z</time>
      </trkpt>
      <trkpt lat="44.9468" lon="5.20916">
        <ele>802.78686523438</ele>
        <time>2011-05-07T08:43:42Z</time>
      </trkpt>
      <trkpt lat="44.94662" lon="5.20914">
        <ele>800.65362548828</ele>
        <time>2011-05-07T08:43:46Z</time>
      </trkpt>
      <trkpt lat="44.94654" lon="5.20914">
        <ele>800.07733154297</ele>
        <time>2011-05-07T08:43:48Z</time>
      </trkpt>
      <trkpt lat="44.94629" lon="5.20908">
        <ele>800.21453857422</ele>
        <time>2011-05-07T08:43:54Z</time>
      </trkpt>
      <trkpt lat="44.94592" lon="5.20894">
        <ele>798.93334960938</ele>
        <time>2011-05-07T08:44:02Z</time>
      </trkpt>
      <trkpt lat="44.94555" lon="5.20876">
        <ele>796.16833496094</ele>
        <time>2011-05-07T08:44:10Z</time>
      </trkpt>
      <trkpt lat="44.94529" lon="5.20863">
        <ele>797.48590087891</ele>
        <time>2011-05-07T08:44:16Z</time>
      </trkpt>
      <trkpt lat="44.94501" lon="5.20849">
        <ele>795.98669433594</ele>
        <time>2011-05-07T08:44:22Z</time>
      </trkpt>
      <trkpt lat="44.9447" lon="5.20824">
        <ele>798.67425537109</ele>
        <time>2011-05-07T08:44:29Z</time>
      </trkpt>
      <trkpt lat="44.94443" lon="5.20794">
        <ele>805.34234619141</ele>
        <time>2011-05-07T08:44:36Z</time>
      </trkpt>
      <trkpt lat="44.94418" lon="5.20774">
        <ele>806.48760986328</ele>
        <time>2011-05-07T08:44:42Z</time>
      </trkpt>
      <trkpt lat="44.9438" lon="5.20757">
        <ele>805.53149414062</ele>
        <time>2011-05-07T08:44:50Z</time>
      </trkpt>
      <trkpt lat="44.94336" lon="5.20738">
        <ele>810.27392578125</ele>
        <time>2011-05-07T08:44:59Z</time>
      </trkpt>
      <trkpt lat="44.94318" lon="5.2073">
        <ele>812.91546630859</ele>
        <time>2011-05-07T08:45:03Z</time>
      </trkpt>
      <trkpt lat="44.94289" lon="5.20702">
        <ele>819.35186767578</ele>
        <time>2011-05-07T08:45:10Z</time>
      </trkpt>
      <trkpt lat="44.94263" lon="5.20672">
        <ele>826.87475585938</ele>
        <time>2011-05-07T08:45:16Z</time>
      </trkpt>
      <trkpt lat="44.94229" lon="5.20626">
        <ele>837.81866455078</ele>
        <time>2011-05-07T08:45:25Z</time>
      </trkpt>
      <trkpt lat="44.94203" lon="5.20592">
        <ele>845.23754882812</ele>
        <time>2011-05-07T08:45:32Z</time>
      </trkpt>
      <trkpt lat="44.94176" lon="5.2057">
        <ele>845.40045166016</ele>
        <time>2011-05-07T08:45:38Z</time>
      </trkpt>
      <trkpt lat="44.94142" lon="5.20556">
        <ele>838.599609375</ele>
        <time>2011-05-07T08:45:45Z</time>
      </trkpt>
      <trkpt lat="44.94115" lon="5.20535">
        <ele>837.50030517578</ele>
        <time>2011-05-07T08:45:51Z</time>
      </trkpt>
      <trkpt lat="44.94106" lon="5.20528">
        <ele>836.89978027344</ele>
        <time>2011-05-07T08:45:53Z</time>
      </trkpt>
      <trkpt lat="44.94065" lon="5.20515">
        <ele>826.60784912109</ele>
        <time>2011-05-07T08:46:01Z</time>
      </trkpt>
      <trkpt lat="44.94045" lon="5.20511">
        <ele>819.95367431641</ele>
        <time>2011-05-07T08:46:05Z</time>
      </trkpt>
      <trkpt lat="44.94024" lon="5.20494">
        <ele>817.4697265625</ele>
        <time>2011-05-07T08:46:10Z</time>
      </trkpt>
      <trkpt lat="44.9402" lon="5.20489">
        <ele>818.24749755859</ele>
        <time>2011-05-07T08:46:11Z</time>
      </trkpt>
      <trkpt lat="44.94003" lon="5.20469">
        <ele>819.42846679688</ele>
        <time>2011-05-07T08:46:15Z</time>
      </trkpt>
      <trkpt lat="44.93994" lon="5.2046">
        <ele>824.08843994141</ele>
        <time>2011-05-07T08:46:17Z</time>
      </trkpt>
      <trkpt lat="44.93964" lon="5.20438">
        <ele>828.94616699219</ele>
        <time>2011-05-07T08:46:23Z</time>
      </trkpt>
      <trkpt lat="44.93951" lon="5.20429">
        <ele>830.51843261719</ele>
        <time>2011-05-07T08:46:26Z</time>
      </trkpt>
      <trkpt lat="44.93942" lon="5.20421">
        <ele>832.30853271484</ele>
        <time>2011-05-07T08:46:28Z</time>
      </trkpt>
      <trkpt lat="44.93916" lon="5.20406">
        <ele>835.86242675781</ele>
        <time>2011-05-07T08:46:33Z</time>
      </trkpt>
      <trkpt lat="44.93911" lon="5.20404">
        <ele>836.10363769531</ele>
        <time>2011-05-07T08:46:34Z</time>
      </trkpt>
      <trkpt lat="44.93894" lon="5.20393">
        <ele>835.37322998047</ele>
        <time>2011-05-07T08:46:38Z</time>
      </trkpt>
      <trkpt lat="44.93879" lon="5.20373">
        <ele>844.24719238281</ele>
        <time>2011-05-07T08:46:42Z</time>
      </trkpt>
      <trkpt lat="44.93871" lon="5.20354">
        <ele>853.93927001953</ele>
        <time>2011-05-07T08:46:45Z</time>
      </trkpt>
      <trkpt lat="44.9385" lon="5.20333">
        <ele>857.96258544922</ele>
        <time>2011-05-07T08:46:50Z</time>
      </trkpt>
      <trkpt lat="44.93816" lon="5.20309">
        <ele>867.13684082031</ele>
        <time>2011-05-07T08:46:57Z</time>
      </trkpt>
      <trkpt lat="44.93771" lon="5.20286">
        <ele>861.62841796875</ele>
        <time>2011-05-07T08:47:05Z</time>
      </trkpt>
      <trkpt lat="44.93765" lon="5.20282">
        <ele>860.40740966797</ele>
        <time>2011-05-07T08:47:06Z</time>
      </trkpt>
      <trkpt lat="44.93727" lon="5.20262">
        <ele>857.08471679688</ele>
        <time>2011-05-07T08:47:12Z</time>
      </trkpt>
      <trkpt lat="44.9368" lon="5.20231">
        <ele>871.08782958984</ele>
        <time>2011-05-07T08:47:19Z</time>
      </trkpt>
      <trkpt lat="44.93629" lon="5.20198">
        <ele>880.49066162109</ele>
        <time>2011-05-07T08:47:27Z</time>
      </trkpt>
      <trkpt lat="44.93611" lon="5.20187">
        <ele>883.83117675781</ele>
        <time>2011-05-07T08:47:30Z</time>
      </trkpt>
      <trkpt lat="44.93565" lon="5.20156">
        <ele>893.36285400391</ele>
        <time>2011-05-07T08:47:38Z</time>
      </trkpt>
      <trkpt lat="44.93526" lon="5.2013">
        <ele>898.96527099609</ele>
        <time>2011-05-07T08:47:45Z</time>
      </trkpt>
      <trkpt lat="44.9348" lon="5.20111">
        <ele>896.72106933594</ele>
        <time>2011-05-07T08:47:53Z</time>
      </trkpt>
      <trkpt lat="44.93475" lon="5.20109">
        <ele>895.97497558594</ele>
        <time>2011-05-07T08:47:54Z</time>
      </trkpt>
      <trkpt lat="44.93436" lon="5.20091">
        <ele>898.60504150391</ele>
        <time>2011-05-07T08:48:02Z</time>
      </trkpt>
      <trkpt lat="44.93426" lon="5.20085">
        <ele>900.59979248047</ele>
        <time>2011-05-07T08:48:04Z</time>
      </trkpt>
      <trkpt lat="44.9338" lon="5.2006">
        <ele>894.99194335938</ele>
        <time>2011-05-07T08:48:13Z</time>
      </trkpt>
      <trkpt lat="44.93335" lon="5.20036">
        <ele>901.18035888672</ele>
        <time>2011-05-07T08:48:22Z</time>
      </trkpt>
      <trkpt lat="44.93308" lon="5.20019">
        <ele>900.20581054688</ele>
        <time>2011-05-07T08:48:28Z</time>
      </trkpt>
      <trkpt lat="44.93271" lon="5.20014">
        <ele>891.78607177734</ele>
        <time>2011-05-07T08:48:35Z</time>
      </trkpt>
      <trkpt lat="44.93249" lon="5.20013">
        <ele>887.15447998047</ele>
        <time>2011-05-07T08:48:39Z</time>
      </trkpt>
      <trkpt lat="44.93237" lon="5.20013">
        <ele>884.28076171875</ele>
        <time>2011-05-07T08:48:41Z</time>
      </trkpt>
      <trkpt lat="44.93219" lon="5.20011">
        <ele>881.13659667969</ele>
        <time>2011-05-07T08:48:44Z</time>
      </trkpt>
      <trkpt lat="44.93197" lon="5.20001">
        <ele>880.09118652344</ele>
        <time>2011-05-07T08:48:48Z</time>
      </trkpt>
      <trkpt lat="44.93184" lon="5.19991">
        <ele>882.18255615234</ele>
        <time>2011-05-07T08:48:51Z</time>
      </trkpt>
      <trkpt lat="44.9316" lon="5.19978">
        <ele>885.24285888672</ele>
        <time>2011-05-07T08:48:56Z</time>
      </trkpt>
      <trkpt lat="44.93145" lon="5.19975">
        <ele>883.69104003906</ele>
        <time>2011-05-07T08:48:59Z</time>
      </trkpt>
      <trkpt lat="44.93132" lon="5.19973">
        <ele>882.76812744141</ele>
        <time>2011-05-07T08:49:02Z</time>
      </trkpt>
      <trkpt lat="44.93103" lon="5.19959">
        <ele>887.77966308594</ele>
        <time>2011-05-07T08:49:08Z</time>
      </trkpt>
      <trkpt lat="44.93072" lon="5.19938">
        <ele>894.87585449219</ele>
        <time>2011-05-07T08:49:14Z</time>
      </trkpt>
      <trkpt lat="44.93036" lon="5.19914">
        <ele>897.74426269531</ele>
        <time>2011-05-07T08:49:21Z</time>
      </trkpt>
      <trkpt lat="44.92999" lon="5.19899">
        <ele>899.98614501953</ele>
        <time>2011-05-07T08:49:28Z</time>
      </trkpt>
      <trkpt lat="44.92971" lon="5.19896">
        <ele>896.60925292969</ele>
        <time>2011-05-07T08:49:33Z</time>
      </trkpt>
      <trkpt lat="44.92954" lon="5.19898">
        <ele>893.234375</ele>
        <time>2011-05-07T08:49:36Z</time>
      </trkpt>
      <trkpt lat="44.92937" lon="5.199">
        <ele>889.94525146484</ele>
        <time>2011-05-07T08:49:39Z</time>
      </trkpt>
      <trkpt lat="44.9291" lon="5.19899">
        <ele>886.70568847656</ele>
        <time>2011-05-07T08:49:44Z</time>
      </trkpt>
      <trkpt lat="44.92868" lon="5.19885">
        <ele>886.18225097656</ele>
        <time>2011-05-07T08:49:52Z</time>
      </trkpt>
      <trkpt lat="44.92836" lon="5.19875">
        <ele>886.52105712891</ele>
        <time>2011-05-07T08:49:58Z</time>
      </trkpt>
      <trkpt lat="44.9283" lon="5.19874">
        <ele>886.18109130859</ele>
        <time>2011-05-07T08:49:59Z</time>
      </trkpt>
      <trkpt lat="44.92808" lon="5.19861">
        <ele>887.46447753906</ele>
        <time>2011-05-07T08:50:03Z</time>
      </trkpt>
      <trkpt lat="44.92797" lon="5.1985">
        <ele>890.98217773438</ele>
        <time>2011-05-07T08:50:05Z</time>
      </trkpt>
      <trkpt lat="44.92773" lon="5.19839">
        <ele>893.42810058594</ele>
        <time>2011-05-07T08:50:09Z</time>
      </trkpt>
      <trkpt lat="44.92736" lon="5.19833">
        <ele>895.73291015625</ele>
        <time>2011-05-07T08:50:15Z</time>
      </trkpt>
      <trkpt lat="44.92712" lon="5.19844">
        <ele>888.60528564453</ele>
        <time>2011-05-07T08:50:19Z</time>
      </trkpt>
      <trkpt lat="44.92694" lon="5.19849">
        <ele>885.22583007812</ele>
        <time>2011-05-07T08:50:22Z</time>
      </trkpt>
      <trkpt lat="44.92661" lon="5.19838">
        <ele>889.34185791016</ele>
        <time>2011-05-07T08:50:27Z</time>
      </trkpt>
      <trkpt lat="44.92633" lon="5.19829">
        <ele>892.02581787109</ele>
        <time>2011-05-07T08:50:31Z</time>
      </trkpt>
      <trkpt lat="44.92598" lon="5.1983">
        <ele>889.60974121094</ele>
        <time>2011-05-07T08:50:36Z</time>
      </trkpt>
      <trkpt lat="44.92559" lon="5.19829">
        <ele>889.83636474609</ele>
        <time>2011-05-07T08:50:41Z</time>
      </trkpt>
      <trkpt lat="44.92512" lon="5.19832">
        <ele>889.76397705078</ele>
        <time>2011-05-07T08:50:46Z</time>
      </trkpt>
      <trkpt lat="44.92487" lon="5.19831">
        <ele>890.30163574219</ele>
        <time>2011-05-07T08:50:49Z</time>
      </trkpt>
      <trkpt lat="44.92445" lon="5.19822">
        <ele>892.71014404297</ele>
        <time>2011-05-07T08:50:54Z</time>
      </trkpt>
      <trkpt lat="44.92414" lon="5.19811">
        <ele>895.94903564453</ele>
        <time>2011-05-07T08:50:58Z</time>
      </trkpt>
      <trkpt lat="44.92381" lon="5.19808">
        <ele>895.19372558594</ele>
        <time>2011-05-07T08:51:02Z</time>
      </trkpt>
      <trkpt lat="44.92351" lon="5.19813">
        <ele>889.81231689453</ele>
        <time>2011-05-07T08:51:06Z</time>
      </trkpt>
      <trkpt lat="44.9231" lon="5.19809">
        <ele>886.65936279297</ele>
        <time>2011-05-07T08:51:12Z</time>
      </trkpt>
      <trkpt lat="44.92291" lon="5.19801">
        <ele>886.56494140625</ele>
        <time>2011-05-07T08:51:15Z</time>
      </trkpt>
      <trkpt lat="44.92253" lon="5.19773">
        <ele>890.50494384766</ele>
        <time>2011-05-07T08:51:22Z</time>
      </trkpt>
      <trkpt lat="44.92222" lon="5.19759">
        <ele>890.64312744141</ele>
        <time>2011-05-07T08:51:27Z</time>
      </trkpt>
      <trkpt lat="44.92216" lon="5.19756">
        <ele>890.88000488281</ele>
        <time>2011-05-07T08:51:28Z</time>
      </trkpt>
      <trkpt lat="44.92205" lon="5.19748">
        <ele>891.92181396484</ele>
        <time>2011-05-07T08:51:30Z</time>
      </trkpt>
      <trkpt lat="44.92187" lon="5.19738">
        <ele>891.74652099609</ele>
        <time>2011-05-07T08:51:33Z</time>
      </trkpt>
      <trkpt lat="44.92176" lon="5.1973">
        <ele>891.87329101562</ele>
        <time>2011-05-07T08:51:35Z</time>
      </trkpt>
      <trkpt lat="44.92141" lon="5.19695">
        <ele>897.91357421875</ele>
        <time>2011-05-07T08:51:42Z</time>
      </trkpt>
      <trkpt lat="44.92115" lon="5.19673">
        <ele>902.48529052734</ele>
        <time>2011-05-07T08:51:47Z</time>
      </trkpt>
      <trkpt lat="44.92089" lon="5.19652">
        <ele>903.08435058594</ele>
        <time>2011-05-07T08:51:52Z</time>
      </trkpt>
      <trkpt lat="44.92067" lon="5.1964">
        <ele>901.73577880859</ele>
        <time>2011-05-07T08:51:56Z</time>
      </trkpt>
      <trkpt lat="44.92029" lon="5.19614">
        <ele>904.28686523438</ele>
        <time>2011-05-07T08:52:03Z</time>
      </trkpt>
      <trkpt lat="44.91995" lon="5.1959">
        <ele>905.87866210938</ele>
        <time>2011-05-07T08:52:09Z</time>
      </trkpt>
      <trkpt lat="44.9196" lon="5.19579">
        <ele>902.32672119141</ele>
        <time>2011-05-07T08:52:15Z</time>
      </trkpt>
      <trkpt lat="44.91953" lon="5.19578">
        <ele>902.42974853516</ele>
        <time>2011-05-07T08:52:16Z</time>
      </trkpt>
      <trkpt lat="44.91911" lon="5.19561">
        <ele>902.64099121094</ele>
        <time>2011-05-07T08:52:23Z</time>
      </trkpt>
      <trkpt lat="44.91888" lon="5.19545">
        <ele>904.45971679688</ele>
        <time>2011-05-07T08:52:27Z</time>
      </trkpt>
      <trkpt lat="44.91854" lon="5.19521">
        <ele>907.93853759766</ele>
        <time>2011-05-07T08:52:33Z</time>
      </trkpt>
      <trkpt lat="44.91832" lon="5.19507">
        <ele>907.41387939453</ele>
        <time>2011-05-07T08:52:37Z</time>
      </trkpt>
      <trkpt lat="44.91784" lon="5.19478">
        <ele>917.07147216797</ele>
        <time>2011-05-07T08:52:46Z</time>
      </trkpt>
      <trkpt lat="44.91739" lon="5.19457">
        <ele>918.57019042969</ele>
        <time>2011-05-07T08:52:54Z</time>
      </trkpt>
      <trkpt lat="44.91705" lon="5.19442">
        <ele>919.14056396484</ele>
        <time>2011-05-07T08:53:00Z</time>
      </trkpt>
      <trkpt lat="44.91655" lon="5.19422">
        <ele>920.42736816406</ele>
        <time>2011-05-07T08:53:09Z</time>
      </trkpt>
      <trkpt lat="44.91612" lon="5.19406">
        <ele>924.03881835938</ele>
        <time>2011-05-07T08:53:17Z</time>
      </trkpt>
      <trkpt lat="44.91562" lon="5.19391">
        <ele>924.29479980469</ele>
        <time>2011-05-07T08:53:26Z</time>
      </trkpt>
      <trkpt lat="44.91523" lon="5.19379">
        <ele>926.80499267578</ele>
        <time>2011-05-07T08:53:33Z</time>
      </trkpt>
      <trkpt lat="44.91493" lon="5.19362">
        <ele>929.59057617188</ele>
        <time>2011-05-07T08:53:39Z</time>
      </trkpt>
      <trkpt lat="44.91448" lon="5.19334">
        <ele>936.09936523438</ele>
        <time>2011-05-07T08:53:48Z</time>
      </trkpt>
      <trkpt lat="44.91392" lon="5.19302">
        <ele>938.78588867188</ele>
        <time>2011-05-07T08:53:59Z</time>
      </trkpt>
      <trkpt lat="44.91353" lon="5.19278">
        <ele>943.72509765625</ele>
        <time>2011-05-07T08:54:07Z</time>
      </trkpt>
      <trkpt lat="44.91338" lon="5.19269">
        <ele>944.41857910156</ele>
        <time>2011-05-07T08:54:10Z</time>
      </trkpt>
      <trkpt lat="44.91327" lon="5.19265">
        <ele>944.51129150391</ele>
        <time>2011-05-07T08:54:12Z</time>
      </trkpt>
      <trkpt lat="44.91281" lon="5.19261">
        <ele>942.53479003906</ele>
        <time>2011-05-07T08:54:20Z</time>
      </trkpt>
      <trkpt lat="44.9122" lon="5.1926">
        <ele>937.40307617188</ele>
        <time>2011-05-07T08:54:30Z</time>
      </trkpt>
      <trkpt lat="44.91214" lon="5.19261">
        <ele>936.82629394531</ele>
        <time>2011-05-07T08:54:31Z</time>
      </trkpt>
      <trkpt lat="44.91195" lon="5.19261">
        <ele>935.49420166016</ele>
        <time>2011-05-07T08:54:34Z</time>
      </trkpt>
      <trkpt lat="44.91147" lon="5.19254">
        <ele>934.60223388672</ele>
        <time>2011-05-07T08:54:41Z</time>
      </trkpt>
      <trkpt lat="44.91096" lon="5.19241">
        <ele>935.95147705078</ele>
        <time>2011-05-07T08:54:48Z</time>
      </trkpt>
      <trkpt lat="44.91072" lon="5.19236">
        <ele>937.27655029297</ele>
        <time>2011-05-07T08:54:52Z</time>
      </trkpt>
      <trkpt lat="44.91054" lon="5.19248">
        <ele>937.35375976562</ele>
        <time>2011-05-07T08:54:56Z</time>
      </trkpt>
      <trkpt lat="44.91048" lon="5.19261">
        <ele>935.85266113281</ele>
        <time>2011-05-07T08:54:59Z</time>
      </trkpt>
      <trkpt lat="44.91048" lon="5.19264">
        <ele>935.32489013672</ele>
        <time>2011-05-07T08:55:02Z</time>
      </trkpt>
      <trkpt lat="44.91054" lon="5.19256">
        <ele>936.16754150391</ele>
        <time>2011-05-07T08:57:26Z</time>
      </trkpt>
      <trkpt lat="44.91055" lon="5.19252">
        <ele>936.78076171875</ele>
        <time>2011-05-07T08:57:28Z</time>
      </trkpt>
      <trkpt lat="44.9105" lon="5.19243">
        <ele>938.13482666016</ele>
        <time>2011-05-07T08:57:34Z</time>
      </trkpt>
      <trkpt lat="44.91042" lon="5.19238">
        <ele>939.27294921875</ele>
        <time>2011-05-07T08:57:38Z</time>
      </trkpt>
      <trkpt lat="44.91032" lon="5.19224">
        <ele>941.48736572266</ele>
        <time>2011-05-07T08:57:43Z</time>
      </trkpt>
      <trkpt lat="44.91029" lon="5.19222">
        <ele>941.87707519531</ele>
        <time>2011-05-07T08:57:44Z</time>
      </trkpt>
      <trkpt lat="44.91005" lon="5.19213">
        <ele>943.70989990234</ele>
        <time>2011-05-07T08:57:51Z</time>
      </trkpt>
      <trkpt lat="44.90975" lon="5.19208">
        <ele>946.41467285156</ele>
        <time>2011-05-07T08:57:59Z</time>
      </trkpt>
      <trkpt lat="44.90956" lon="5.19209">
        <ele>946.90771484375</ele>
        <time>2011-05-07T08:58:04Z</time>
      </trkpt>
      <trkpt lat="44.90937" lon="5.19216">
        <ele>946.10052490234</ele>
        <time>2011-05-07T08:58:09Z</time>
      </trkpt>
      <trkpt lat="44.90918" lon="5.19222">
        <ele>945.03619384766</ele>
        <time>2011-05-07T08:58:14Z</time>
      </trkpt>
      <trkpt lat="44.90895" lon="5.19227">
        <ele>945.11065673828</ele>
        <time>2011-05-07T08:58:20Z</time>
      </trkpt>
      <trkpt lat="44.90872" lon="5.19231">
        <ele>945.94018554688</ele>
        <time>2011-05-07T08:58:26Z</time>
      </trkpt>
      <trkpt lat="44.90842" lon="5.19237">
        <ele>945.900390625</ele>
        <time>2011-05-07T08:58:34Z</time>
      </trkpt>
      <trkpt lat="44.9082" lon="5.19241">
        <ele>946.1787109375</ele>
        <time>2011-05-07T08:58:40Z</time>
      </trkpt>
      <trkpt lat="44.90782" lon="5.1925">
        <ele>945.95629882812</ele>
        <time>2011-05-07T08:58:50Z</time>
      </trkpt>
      <trkpt lat="44.90741" lon="5.19259">
        <ele>947.85571289062</ele>
        <time>2011-05-07T08:59:00Z</time>
      </trkpt>
      <trkpt lat="44.90706" lon="5.19267">
        <ele>948.048828125</ele>
        <time>2011-05-07T08:59:08Z</time>
      </trkpt>
      <trkpt lat="44.90702" lon="5.19269">
        <ele>947.82775878906</ele>
        <time>2011-05-07T08:59:09Z</time>
      </trkpt>
      <trkpt lat="44.90656" lon="5.19282">
        <ele>946.81390380859</ele>
        <time>2011-05-07T08:59:18Z</time>
      </trkpt>
      <trkpt lat="44.90611" lon="5.19298">
        <ele>945.75524902344</ele>
        <time>2011-05-07T08:59:27Z</time>
      </trkpt>
      <trkpt lat="44.90571" lon="5.19311">
        <ele>946.07507324219</ele>
        <time>2011-05-07T08:59:35Z</time>
      </trkpt>
      <trkpt lat="44.90535" lon="5.19324">
        <ele>946.15808105469</ele>
        <time>2011-05-07T08:59:42Z</time>
      </trkpt>
      <trkpt lat="44.90467" lon="5.19346">
        <ele>942.36724853516</ele>
        <time>2011-05-07T08:59:55Z</time>
      </trkpt>
      <trkpt lat="44.9042" lon="5.19355">
        <ele>940.23522949219</ele>
        <time>2011-05-07T09:00:04Z</time>
      </trkpt>
      <trkpt lat="44.90376" lon="5.19361">
        <ele>938.95831298828</ele>
        <time>2011-05-07T09:00:12Z</time>
      </trkpt>
      <trkpt lat="44.90337" lon="5.19362">
        <ele>938.85534667969</ele>
        <time>2011-05-07T09:00:19Z</time>
      </trkpt>
      <trkpt lat="44.90289" lon="5.19358">
        <ele>939.80926513672</ele>
        <time>2011-05-07T09:00:27Z</time>
      </trkpt>
      <trkpt lat="44.90251" lon="5.19359">
        <ele>939.60327148438</ele>
        <time>2011-05-07T09:00:33Z</time>
      </trkpt>
      <trkpt lat="44.902" lon="5.19373">
        <ele>936.50500488281</ele>
        <time>2011-05-07T09:00:42Z</time>
      </trkpt>
      <trkpt lat="44.9015" lon="5.19388">
        <ele>934.09936523438</ele>
        <time>2011-05-07T09:00:51Z</time>
      </trkpt>
      <trkpt lat="44.90112" lon="5.19391">
        <ele>931.57922363281</ele>
        <time>2011-05-07T09:00:58Z</time>
      </trkpt>
      <trkpt lat="44.90076" lon="5.19385">
        <ele>932.0361328125</ele>
        <time>2011-05-07T09:01:05Z</time>
      </trkpt>
      <trkpt lat="44.90017" lon="5.19371">
        <ele>930.37670898438</ele>
        <time>2011-05-07T09:01:16Z</time>
      </trkpt>
      <trkpt lat="44.89974" lon="5.19359">
        <ele>929.64227294922</ele>
        <time>2011-05-07T09:01:24Z</time>
      </trkpt>
      <trkpt lat="44.89925" lon="5.19344">
        <ele>929.50738525391</ele>
        <time>2011-05-07T09:01:33Z</time>
      </trkpt>
      <trkpt lat="44.89867" lon="5.19319">
        <ele>929.38977050781</ele>
        <time>2011-05-07T09:01:44Z</time>
      </trkpt>
      <trkpt lat="44.89811" lon="5.19292">
        <ele>927.13098144531</ele>
        <time>2011-05-07T09:01:55Z</time>
      </trkpt>
      <trkpt lat="44.89754" lon="5.19262">
        <ele>926.80029296875</ele>
        <time>2011-05-07T09:02:06Z</time>
      </trkpt>
      <trkpt lat="44.89706" lon="5.19235">
        <ele>923.8583984375</ele>
        <time>2011-05-07T09:02:15Z</time>
      </trkpt>
      <trkpt lat="44.8967" lon="5.19213">
        <ele>923.96295166016</ele>
        <time>2011-05-07T09:02:22Z</time>
      </trkpt>
      <trkpt lat="44.89632" lon="5.19187">
        <ele>923.05108642578</ele>
        <time>2011-05-07T09:02:30Z</time>
      </trkpt>
      <trkpt lat="44.89584" lon="5.19155">
        <ele>921.37670898438</ele>
        <time>2011-05-07T09:02:40Z</time>
      </trkpt>
      <trkpt lat="44.89535" lon="5.19124">
        <ele>921.24670410156</ele>
        <time>2011-05-07T09:02:50Z</time>
      </trkpt>
      <trkpt lat="44.89525" lon="5.19117">
        <ele>921.42333984375</ele>
        <time>2011-05-07T09:02:52Z</time>
      </trkpt>
      <trkpt lat="44.89474" lon="5.19088">
        <ele>920</ele>
        <time>2011-05-07T09:03:02Z</time>
      </trkpt>
      <trkpt lat="44.89463" lon="5.19082">
        <ele>920</ele>
        <time>2011-05-07T09:03:04Z</time>
      </trkpt>
      <trkpt lat="44.89417" lon="5.19056">
        <ele>920</ele>
        <time>2011-05-07T09:03:13Z</time>
      </trkpt>
      <trkpt lat="44.89377" lon="5.19035">
        <ele>920</ele>
        <time>2011-05-07T09:03:21Z</time>
      </trkpt>
      <trkpt lat="44.89326" lon="5.19006">
        <ele>920</ele>
        <time>2011-05-07T09:03:31Z</time>
      </trkpt>
      <trkpt lat="44.8928" lon="5.18976">
        <ele>920.06634521484</ele>
        <time>2011-05-07T09:03:40Z</time>
      </trkpt>
      <trkpt lat="44.89232" lon="5.18943">
        <ele>921.44610595703</ele>
        <time>2011-05-07T09:03:49Z</time>
      </trkpt>
      <trkpt lat="44.89175" lon="5.18895">
        <ele>925.48199462891</ele>
        <time>2011-05-07T09:04:00Z</time>
      </trkpt>
      <trkpt lat="44.89132" lon="5.18854">
        <ele>929.50665283203</ele>
        <time>2011-05-07T09:04:09Z</time>
      </trkpt>
      <trkpt lat="44.891" lon="5.18825">
        <ele>931.306640625</ele>
        <time>2011-05-07T09:04:16Z</time>
      </trkpt>
      <trkpt lat="44.8907" lon="5.18797">
        <ele>932.29711914062</ele>
        <time>2011-05-07T09:04:23Z</time>
      </trkpt>
      <trkpt lat="44.89032" lon="5.18762">
        <ele>933.94000244141</ele>
        <time>2011-05-07T09:04:32Z</time>
      </trkpt>
      <trkpt lat="44.88985" lon="5.18719">
        <ele>936.52404785156</ele>
        <time>2011-05-07T09:04:42Z</time>
      </trkpt>
      <trkpt lat="44.88942" lon="5.18678">
        <ele>938.67138671875</ele>
        <time>2011-05-07T09:04:51Z</time>
      </trkpt>
      <trkpt lat="44.88894" lon="5.18635">
        <ele>940</ele>
        <time>2011-05-07T09:05:01Z</time>
      </trkpt>
      <trkpt lat="44.8884" lon="5.18592">
        <ele>940</ele>
        <time>2011-05-07T09:05:11Z</time>
      </trkpt>
      <trkpt lat="44.88806" lon="5.18565">
        <ele>940</ele>
        <time>2011-05-07T09:05:18Z</time>
      </trkpt>
      <trkpt lat="44.88778" lon="5.18542">
        <ele>940</ele>
        <time>2011-05-07T09:05:24Z</time>
      </trkpt>
      <trkpt lat="44.8874" lon="5.18509">
        <ele>940</ele>
        <time>2011-05-07T09:05:32Z</time>
      </trkpt>
      <trkpt lat="44.88725" lon="5.18496">
        <ele>940</ele>
        <time>2011-05-07T09:05:35Z</time>
      </trkpt>
      <trkpt lat="44.88717" lon="5.18485">
        <ele>940</ele>
        <time>2011-05-07T09:05:37Z</time>
      </trkpt>
      <trkpt lat="44.88714" lon="5.18462">
        <ele>940</ele>
        <time>2011-05-07T09:05:40Z</time>
      </trkpt>
      <trkpt lat="44.88718" lon="5.18446">
        <ele>940</ele>
        <time>2011-05-07T09:05:42Z</time>
      </trkpt>
      <trkpt lat="44.88737" lon="5.18386">
        <ele>940</ele>
        <time>2011-05-07T09:05:50Z</time>
      </trkpt>
      <trkpt lat="44.8874" lon="5.18344">
        <ele>940</ele>
        <time>2011-05-07T09:05:56Z</time>
      </trkpt>
      <trkpt lat="44.88729" lon="5.18306">
        <ele>940</ele>
        <time>2011-05-07T09:06:01Z</time>
      </trkpt>
      <trkpt lat="44.88725" lon="5.18302">
        <ele>940</ele>
        <time>2011-05-07T09:06:02Z</time>
      </trkpt>
      <trkpt lat="44.887" lon="5.18284">
        <ele>940</ele>
        <time>2011-05-07T09:06:07Z</time>
      </trkpt>
      <trkpt lat="44.88696" lon="5.18279">
        <ele>940</ele>
        <time>2011-05-07T09:06:08Z</time>
      </trkpt>
      <trkpt lat="44.88685" lon="5.1826">
        <ele>940</ele>
        <time>2011-05-07T09:06:11Z</time>
      </trkpt>
      <trkpt lat="44.88667" lon="5.1821">
        <ele>940</ele>
        <time>2011-05-07T09:06:17Z</time>
      </trkpt>
      <trkpt lat="44.88655" lon="5.18184">
        <ele>940</ele>
        <time>2011-05-07T09:06:20Z</time>
      </trkpt>
      <trkpt lat="44.88651" lon="5.18175">
        <ele>940</ele>
        <time>2011-05-07T09:06:21Z</time>
      </trkpt>
      <trkpt lat="44.88627" lon="5.1814">
        <ele>940.80261230469</ele>
        <time>2011-05-07T09:06:26Z</time>
      </trkpt>
      <trkpt lat="44.88589" lon="5.18105">
        <ele>950.35321044922</ele>
        <time>2011-05-07T09:06:34Z</time>
      </trkpt>
      <trkpt lat="44.88559" lon="5.18085">
        <ele>958.29852294922</ele>
        <time>2011-05-07T09:06:40Z</time>
      </trkpt>
      <trkpt lat="44.8853" lon="5.18072">
        <ele>961.13641357422</ele>
        <time>2011-05-07T09:06:46Z</time>
      </trkpt>
      <trkpt lat="44.88488" lon="5.18059">
        <ele>964.99267578125</ele>
        <time>2011-05-07T09:06:55Z</time>
      </trkpt>
      <trkpt lat="44.88464" lon="5.18056">
        <ele>965.94812011719</ele>
        <time>2011-05-07T09:07:00Z</time>
      </trkpt>
      <trkpt lat="44.88431" lon="5.18053">
        <ele>966.48864746094</ele>
        <time>2011-05-07T09:07:07Z</time>
      </trkpt>
      <trkpt lat="44.88395" lon="5.18052">
        <ele>968.38000488281</ele>
        <time>2011-05-07T09:07:15Z</time>
      </trkpt>
      <trkpt lat="44.88349" lon="5.1805">
        <ele>969.19934082031</ele>
        <time>2011-05-07T09:07:25Z</time>
      </trkpt>
      <trkpt lat="44.8834" lon="5.18051">
        <ele>969.04486083984</ele>
        <time>2011-05-07T09:07:27Z</time>
      </trkpt>
      <trkpt lat="44.883" lon="5.18044">
        <ele>971.88928222656</ele>
        <time>2011-05-07T09:07:36Z</time>
      </trkpt>
      <trkpt lat="44.88273" lon="5.18039">
        <ele>973.19903564453</ele>
        <time>2011-05-07T09:07:42Z</time>
      </trkpt>
      <trkpt lat="44.8826" lon="5.18034">
        <ele>974.43670654297</ele>
        <time>2011-05-07T09:07:45Z</time>
      </trkpt>
      <trkpt lat="44.8821" lon="5.18014">
        <ele>978.11694335938</ele>
        <time>2011-05-07T09:07:56Z</time>
      </trkpt>
      <trkpt lat="44.88163" lon="5.18015">
        <ele>977.38018798828</ele>
        <time>2011-05-07T09:08:06Z</time>
      </trkpt>
      <trkpt lat="44.88118" lon="5.18018">
        <ele>976.66796875</ele>
        <time>2011-05-07T09:08:16Z</time>
      </trkpt>
      <trkpt lat="44.88105" lon="5.18018">
        <ele>975.35272216797</ele>
        <time>2011-05-07T09:08:19Z</time>
      </trkpt>
      <trkpt lat="44.88083" lon="5.18016">
        <ele>972.05749511719</ele>
        <time>2011-05-07T09:08:24Z</time>
      </trkpt>
      <trkpt lat="44.88068" lon="5.18004">
        <ele>968.90191650391</ele>
        <time>2011-05-07T09:08:28Z</time>
      </trkpt>
      <trkpt lat="44.88071" lon="5.17984">
        <ele>970.34674072266</ele>
        <time>2011-05-07T09:08:31Z</time>
      </trkpt>
      <trkpt lat="44.88084" lon="5.17969">
        <ele>974.45892333984</ele>
        <time>2011-05-07T09:08:34Z</time>
      </trkpt>
      <trkpt lat="44.88116" lon="5.17948">
        <ele>980.57037353516</ele>
        <time>2011-05-07T09:08:40Z</time>
      </trkpt>
      <trkpt lat="44.88144" lon="5.1791">
        <ele>983.17065429688</ele>
        <time>2011-05-07T09:08:46Z</time>
      </trkpt>
      <trkpt lat="44.88164" lon="5.17872">
        <ele>994.05676269531</ele>
        <time>2011-05-07T09:08:51Z</time>
      </trkpt>
      <trkpt lat="44.8817" lon="5.17817">
        <ele>1000.4274291992</ele>
        <time>2011-05-07T09:08:57Z</time>
      </trkpt>
      <trkpt lat="44.88168" lon="5.17769">
        <ele>1003.1553344727</ele>
        <time>2011-05-07T09:09:02Z</time>
      </trkpt>
      <trkpt lat="44.88153" lon="5.1773">
        <ele>1002.8908081055</ele>
        <time>2011-05-07T09:09:07Z</time>
      </trkpt>
      <trkpt lat="44.88144" lon="5.17721">
        <ele>1000.723815918</ele>
        <time>2011-05-07T09:09:09Z</time>
      </trkpt>
      <trkpt lat="44.88099" lon="5.17695">
        <ele>991.99499511719</ele>
        <time>2011-05-07T09:09:18Z</time>
      </trkpt>
      <trkpt lat="44.88079" lon="5.17683">
        <ele>987.92254638672</ele>
        <time>2011-05-07T09:09:22Z</time>
      </trkpt>
      <trkpt lat="44.8805" lon="5.1766">
        <ele>988.32421875</ele>
        <time>2011-05-07T09:09:28Z</time>
      </trkpt>
      <trkpt lat="44.88018" lon="5.17624">
        <ele>989.53875732422</ele>
        <time>2011-05-07T09:09:35Z</time>
      </trkpt>
      <trkpt lat="44.87991" lon="5.17573">
        <ele>991.75231933594</ele>
        <time>2011-05-07T09:09:42Z</time>
      </trkpt>
      <trkpt lat="44.87986" lon="5.17565">
        <ele>991.68194580078</ele>
        <time>2011-05-07T09:09:43Z</time>
      </trkpt>
      <trkpt lat="44.87958" lon="5.17537">
        <ele>991.82971191406</ele>
        <time>2011-05-07T09:09:48Z</time>
      </trkpt>
      <trkpt lat="44.87934" lon="5.17522">
        <ele>991.68572998047</ele>
        <time>2011-05-07T09:09:52Z</time>
      </trkpt>
      <trkpt lat="44.87892" lon="5.17511">
        <ele>989.96813964844</ele>
        <time>2011-05-07T09:09:59Z</time>
      </trkpt>
      <trkpt lat="44.87848" lon="5.17502">
        <ele>987.85302734375</ele>
        <time>2011-05-07T09:10:07Z</time>
      </trkpt>
      <trkpt lat="44.87802" lon="5.17492">
        <ele>984.60174560547</ele>
        <time>2011-05-07T09:10:15Z</time>
      </trkpt>
      <trkpt lat="44.87759" lon="5.17474">
        <ele>983.80126953125</ele>
        <time>2011-05-07T09:10:23Z</time>
      </trkpt>
      <trkpt lat="44.87724" lon="5.17449">
        <ele>987.49597167969</ele>
        <time>2011-05-07T09:10:30Z</time>
      </trkpt>
      <trkpt lat="44.87709" lon="5.17437">
        <ele>988.55108642578</ele>
        <time>2011-05-07T09:10:33Z</time>
      </trkpt>
      <trkpt lat="44.87685" lon="5.17429">
        <ele>989.09698486328</ele>
        <time>2011-05-07T09:10:37Z</time>
      </trkpt>
      <trkpt lat="44.87654" lon="5.17429">
        <ele>989.32891845703</ele>
        <time>2011-05-07T09:10:42Z</time>
      </trkpt>
      <trkpt lat="44.87605" lon="5.17421">
        <ele>992.75299072266</ele>
        <time>2011-05-07T09:10:50Z</time>
      </trkpt>
      <trkpt lat="44.87561" lon="5.17412">
        <ele>994.77221679688</ele>
        <time>2011-05-07T09:10:57Z</time>
      </trkpt>
      <trkpt lat="44.87514" lon="5.17408">
        <ele>995.61340332031</ele>
        <time>2011-05-07T09:11:05Z</time>
      </trkpt>
      <trkpt lat="44.8747" lon="5.17408">
        <ele>995.46734619141</ele>
        <time>2011-05-07T09:11:12Z</time>
      </trkpt>
      <trkpt lat="44.87426" lon="5.1741">
        <ele>993.97485351562</ele>
        <time>2011-05-07T09:11:19Z</time>
      </trkpt>
      <trkpt lat="44.87367" lon="5.17405">
        <ele>994.62030029297</ele>
        <time>2011-05-07T09:11:29Z</time>
      </trkpt>
      <trkpt lat="44.87317" lon="5.17403">
        <ele>994.92242431641</ele>
        <time>2011-05-07T09:11:37Z</time>
      </trkpt>
      <trkpt lat="44.87252" lon="5.17405">
        <ele>996.1884765625</ele>
        <time>2011-05-07T09:11:47Z</time>
      </trkpt>
      <trkpt lat="44.87209" lon="5.17409">
        <ele>996.50799560547</ele>
        <time>2011-05-07T09:11:54Z</time>
      </trkpt>
      <trkpt lat="44.8717" lon="5.17414">
        <ele>996.38433837891</ele>
        <time>2011-05-07T09:12:01Z</time>
      </trkpt>
      <trkpt lat="44.87165" lon="5.17415">
        <ele>996.4375</ele>
        <time>2011-05-07T09:12:02Z</time>
      </trkpt>
      <trkpt lat="44.87118" lon="5.17422">
        <ele>997.42309570312</ele>
        <time>2011-05-07T09:12:10Z</time>
      </trkpt>
      <trkpt lat="44.87069" lon="5.17427">
        <ele>997.77648925781</ele>
        <time>2011-05-07T09:12:18Z</time>
      </trkpt>
      <trkpt lat="44.87011" lon="5.17424">
        <ele>998.47985839844</ele>
        <time>2011-05-07T09:12:28Z</time>
      </trkpt>
      <trkpt lat="44.86987" lon="5.17425">
        <ele>997.37548828125</ele>
        <time>2011-05-07T09:12:32Z</time>
      </trkpt>
      <trkpt lat="44.86926" lon="5.17418">
        <ele>994.39514160156</ele>
        <time>2011-05-07T09:12:42Z</time>
      </trkpt>
      <trkpt lat="44.8688" lon="5.17407">
        <ele>992.47247314453</ele>
        <time>2011-05-07T09:12:49Z</time>
      </trkpt>
      <trkpt lat="44.86873" lon="5.17405">
        <ele>993.00848388672</ele>
        <time>2011-05-07T09:12:50Z</time>
      </trkpt>
      <trkpt lat="44.86823" lon="5.17383">
        <ele>994.99438476562</ele>
        <time>2011-05-07T09:12:58Z</time>
      </trkpt>
      <trkpt lat="44.86817" lon="5.1738">
        <ele>994.94622802734</ele>
        <time>2011-05-07T09:12:59Z</time>
      </trkpt>
      <trkpt lat="44.86786" lon="5.17361">
        <ele>995.93731689453</ele>
        <time>2011-05-07T09:13:04Z</time>
      </trkpt>
      <trkpt lat="44.86749" lon="5.17358">
        <ele>994.68896484375</ele>
        <time>2011-05-07T09:13:09Z</time>
      </trkpt>
      <trkpt lat="44.86708" lon="5.17362">
        <ele>993.84130859375</ele>
        <time>2011-05-07T09:13:15Z</time>
      </trkpt>
      <trkpt lat="44.86663" lon="5.17365">
        <ele>993.29632568359</ele>
        <time>2011-05-07T09:13:22Z</time>
      </trkpt>
      <trkpt lat="44.86625" lon="5.17367">
        <ele>992.35571289062</ele>
        <time>2011-05-07T09:13:28Z</time>
      </trkpt>
      <trkpt lat="44.86577" lon="5.17362">
        <ele>991.61645507812</ele>
        <time>2011-05-07T09:13:35Z</time>
      </trkpt>
      <trkpt lat="44.86554" lon="5.1736">
        <ele>991.16204833984</ele>
        <time>2011-05-07T09:13:38Z</time>
      </trkpt>
      <trkpt lat="44.86506" lon="5.17355">
        <ele>990.8369140625</ele>
        <time>2011-05-07T09:13:44Z</time>
      </trkpt>
      <trkpt lat="44.86449" lon="5.17346">
        <ele>990.02752685547</ele>
        <time>2011-05-07T09:13:51Z</time>
      </trkpt>
      <trkpt lat="44.86412" lon="5.17346">
        <ele>988.42456054688</ele>
        <time>2011-05-07T09:13:56Z</time>
      </trkpt>
      <trkpt lat="44.86351" lon="5.17335">
        <ele>990.13549804688</ele>
        <time>2011-05-07T09:14:04Z</time>
      </trkpt>
      <trkpt lat="44.86298" lon="5.17325">
        <ele>993.84436035156</ele>
        <time>2011-05-07T09:14:11Z</time>
      </trkpt>
      <trkpt lat="44.8626" lon="5.17318">
        <ele>997.58642578125</ele>
        <time>2011-05-07T09:14:17Z</time>
      </trkpt>
      <trkpt lat="44.8621" lon="5.17316">
        <ele>999.22619628906</ele>
        <time>2011-05-07T09:14:24Z</time>
      </trkpt>
      <trkpt lat="44.86158" lon="5.17318">
        <ele>999.24096679688</ele>
        <time>2011-05-07T09:14:30Z</time>
      </trkpt>
      <trkpt lat="44.86095" lon="5.17321">
        <ele>996.2880859375</ele>
        <time>2011-05-07T09:14:37Z</time>
      </trkpt>
      <trkpt lat="44.86087" lon="5.17323">
        <ele>995.87951660156</ele>
        <time>2011-05-07T09:14:38Z</time>
      </trkpt>
      <trkpt lat="44.8605" lon="5.17335">
        <ele>992.21484375</ele>
        <time>2011-05-07T09:14:42Z</time>
      </trkpt>
      <trkpt lat="44.86031" lon="5.17341">
        <ele>989.42883300781</ele>
        <time>2011-05-07T09:14:44Z</time>
      </trkpt>
      <trkpt lat="44.86021" lon="5.17345">
        <ele>987.88848876953</ele>
        <time>2011-05-07T09:14:45Z</time>
      </trkpt>
      <trkpt lat="44.86002" lon="5.17354">
        <ele>984.24719238281</ele>
        <time>2011-05-07T09:14:47Z</time>
      </trkpt>
      <trkpt lat="44.85964" lon="5.1738">
        <ele>980.64007568359</ele>
        <time>2011-05-07T09:14:51Z</time>
      </trkpt>
      <trkpt lat="44.85913" lon="5.17395">
        <ele>980</ele>
        <time>2011-05-07T09:14:56Z</time>
      </trkpt>
      <trkpt lat="44.85854" lon="5.17406">
        <ele>980</ele>
        <time>2011-05-07T09:15:02Z</time>
      </trkpt>
      <trkpt lat="44.85835" lon="5.17412">
        <ele>980</ele>
        <time>2011-05-07T09:15:04Z</time>
      </trkpt>
      <trkpt lat="44.85797" lon="5.17435">
        <ele>979.6962890625</ele>
        <time>2011-05-07T09:15:08Z</time>
      </trkpt>
      <trkpt lat="44.8578" lon="5.17461">
        <ele>979.07830810547</ele>
        <time>2011-05-07T09:15:11Z</time>
      </trkpt>
      <trkpt lat="44.85781" lon="5.17493">
        <ele>979.13323974609</ele>
        <time>2011-05-07T09:15:14Z</time>
      </trkpt>
      <trkpt lat="44.85786" lon="5.17511">
        <ele>979.31176757812</ele>
        <time>2011-05-07T09:15:16Z</time>
      </trkpt>
      <trkpt lat="44.85792" lon="5.17529">
        <ele>979.51776123047</ele>
        <time>2011-05-07T09:15:18Z</time>
      </trkpt>
      <trkpt lat="44.85807" lon="5.1756">
        <ele>980</ele>
        <time>2011-05-07T09:15:22Z</time>
      </trkpt>
      <trkpt lat="44.85816" lon="5.17591">
        <ele>980</ele>
        <time>2011-05-07T09:15:26Z</time>
      </trkpt>
      <trkpt lat="44.85814" lon="5.17606">
        <ele>980</ele>
        <time>2011-05-07T09:15:28Z</time>
      </trkpt>
      <trkpt lat="44.85812" lon="5.17613">
        <ele>980</ele>
        <time>2011-05-07T09:15:29Z</time>
      </trkpt>
      <trkpt lat="44.85801" lon="5.17626">
        <ele>979.84735107422</ele>
        <time>2011-05-07T09:15:32Z</time>
      </trkpt>
      <trkpt lat="44.85783" lon="5.1763">
        <ele>979.20190429688</ele>
        <time>2011-05-07T09:15:36Z</time>
      </trkpt>
      <trkpt lat="44.85778" lon="5.17629">
        <ele>979.02337646484</ele>
        <time>2011-05-07T09:15:37Z</time>
      </trkpt>
      <trkpt lat="44.85769" lon="5.17627">
        <ele>978.38757324219</ele>
        <time>2011-05-07T09:15:39Z</time>
      </trkpt>
      <trkpt lat="44.85728" lon="5.17604">
        <ele>975.12982177734</ele>
        <time>2011-05-07T09:15:48Z</time>
      </trkpt>
      <trkpt lat="44.85696" lon="5.17587">
        <ele>972.26306152344</ele>
        <time>2011-05-07T09:15:54Z</time>
      </trkpt>
      <trkpt lat="44.85657" lon="5.17572">
        <ele>979.271484375</ele>
        <time>2011-05-07T09:16:01Z</time>
      </trkpt>
      <trkpt lat="44.85607" lon="5.17559">
        <ele>986.80261230469</ele>
        <time>2011-05-07T09:16:10Z</time>
      </trkpt>
      <trkpt lat="44.85558" lon="5.17549">
        <ele>991.81195068359</ele>
        <time>2011-05-07T09:16:19Z</time>
      </trkpt>
      <trkpt lat="44.85513" lon="5.17549">
        <ele>995.16351318359</ele>
        <time>2011-05-07T09:16:27Z</time>
      </trkpt>
      <trkpt lat="44.85475" lon="5.17548">
        <ele>995.73742675781</ele>
        <time>2011-05-07T09:16:34Z</time>
      </trkpt>
      <trkpt lat="44.85421" lon="5.17547">
        <ele>995.02789306641</ele>
        <time>2011-05-07T09:16:44Z</time>
      </trkpt>
      <trkpt lat="44.85385" lon="5.17553">
        <ele>993.77874755859</ele>
        <time>2011-05-07T09:16:51Z</time>
      </trkpt>
      <trkpt lat="44.85349" lon="5.17564">
        <ele>987.13250732422</ele>
        <time>2011-05-07T09:16:58Z</time>
      </trkpt>
      <trkpt lat="44.85334" lon="5.17566">
        <ele>981.05572509766</ele>
        <time>2011-05-07T09:17:01Z</time>
      </trkpt>
      <trkpt lat="44.85298" lon="5.17558">
        <ele>979.01977539062</ele>
        <time>2011-05-07T09:17:08Z</time>
      </trkpt>
      <trkpt lat="44.85262" lon="5.17535">
        <ele>977.67376708984</ele>
        <time>2011-05-07T09:17:15Z</time>
      </trkpt>
      <trkpt lat="44.85225" lon="5.17505">
        <ele>976.22717285156</ele>
        <time>2011-05-07T09:17:22Z</time>
      </trkpt>
      <trkpt lat="44.85194" lon="5.17463">
        <ele>973.40679931641</ele>
        <time>2011-05-07T09:17:29Z</time>
      </trkpt>
      <trkpt lat="44.85178" lon="5.17435">
        <ele>972.10626220703</ele>
        <time>2011-05-07T09:17:33Z</time>
      </trkpt>
      <trkpt lat="44.85175" lon="5.17428">
        <ele>971.94091796875</ele>
        <time>2011-05-07T09:17:34Z</time>
      </trkpt>
      <trkpt lat="44.85152" lon="5.17387">
        <ele>969.376953125</ele>
        <time>2011-05-07T09:17:39Z</time>
      </trkpt>
      <trkpt lat="44.85145" lon="5.17345">
        <ele>966.62005615234</ele>
        <time>2011-05-07T09:17:43Z</time>
      </trkpt>
      <trkpt lat="44.85154" lon="5.17313">
        <ele>963.27551269531</ele>
        <time>2011-05-07T09:17:46Z</time>
      </trkpt>
      <trkpt lat="44.85158" lon="5.17303">
        <ele>962.10791015625</ele>
        <time>2011-05-07T09:17:47Z</time>
      </trkpt>
      <trkpt lat="44.85167" lon="5.17282">
        <ele>960.26501464844</ele>
        <time>2011-05-07T09:17:49Z</time>
      </trkpt>
      <trkpt lat="44.85189" lon="5.17243">
        <ele>951.51953125</ele>
        <time>2011-05-07T09:17:53Z</time>
      </trkpt>
      <trkpt lat="44.85192" lon="5.17211">
        <ele>945.81701660156</ele>
        <time>2011-05-07T09:17:56Z</time>
      </trkpt>
      <trkpt lat="44.85176" lon="5.17202">
        <ele>945.03289794922</ele>
        <time>2011-05-07T09:17:58Z</time>
      </trkpt>
      <trkpt lat="44.8516" lon="5.17211">
        <ele>947.93078613281</ele>
        <time>2011-05-07T09:18:00Z</time>
      </trkpt>
      <trkpt lat="44.85123" lon="5.17242">
        <ele>955.65069580078</ele>
        <time>2011-05-07T09:18:05Z</time>
      </trkpt>
      <trkpt lat="44.85074" lon="5.17277">
        <ele>957.65490722656</ele>
        <time>2011-05-07T09:18:11Z</time>
      </trkpt>
      <trkpt lat="44.85057" lon="5.17287">
        <ele>954.26916503906</ele>
        <time>2011-05-07T09:18:13Z</time>
      </trkpt>
      <trkpt lat="44.85028" lon="5.17292">
        <ele>951.14636230469</ele>
        <time>2011-05-07T09:18:16Z</time>
      </trkpt>
      <trkpt lat="44.84965" lon="5.17288">
        <ele>947.92358398438</ele>
        <time>2011-05-07T09:18:23Z</time>
      </trkpt>
      <trkpt lat="44.84947" lon="5.17285">
        <ele>945.82592773438</ele>
        <time>2011-05-07T09:18:25Z</time>
      </trkpt>
      <trkpt lat="44.84887" lon="5.17277">
        <ele>942.85192871094</ele>
        <time>2011-05-07T09:18:32Z</time>
      </trkpt>
      <trkpt lat="44.84862" lon="5.17275">
        <ele>940.33184814453</ele>
        <time>2011-05-07T09:18:35Z</time>
      </trkpt>
      <trkpt lat="44.84826" lon="5.17273">
        <ele>943.84692382812</ele>
        <time>2011-05-07T09:18:39Z</time>
      </trkpt>
      <trkpt lat="44.84803" lon="5.17252">
        <ele>942.54235839844</ele>
        <time>2011-05-07T09:18:42Z</time>
      </trkpt>
      <trkpt lat="44.848" lon="5.17225">
        <ele>940.63250732422</ele>
        <time>2011-05-07T09:18:44Z</time>
      </trkpt>
      <trkpt lat="44.84804" lon="5.17186">
        <ele>925.60821533203</ele>
        <time>2011-05-07T09:18:47Z</time>
      </trkpt>
      <trkpt lat="44.84804" lon="5.17173">
        <ele>920.94555664062</ele>
        <time>2011-05-07T09:18:48Z</time>
      </trkpt>
      <trkpt lat="44.848" lon="5.17095">
        <ele>909.10858154297</ele>
        <time>2011-05-07T09:18:54Z</time>
      </trkpt>
      <trkpt lat="44.84783" lon="5.17047">
        <ele>904.94500732422</ele>
        <time>2011-05-07T09:18:58Z</time>
      </trkpt>
      <trkpt lat="44.84756" lon="5.1703">
        <ele>905.86175537109</ele>
        <time>2011-05-07T09:19:01Z</time>
      </trkpt>
      <trkpt lat="44.84716" lon="5.17029">
        <ele>913.28558349609</ele>
        <time>2011-05-07T09:19:05Z</time>
      </trkpt>
      <trkpt lat="44.84696" lon="5.17033">
        <ele>920.57543945312</ele>
        <time>2011-05-07T09:19:07Z</time>
      </trkpt>
      <trkpt lat="44.84647" lon="5.17048">
        <ele>930.38940429688</ele>
        <time>2011-05-07T09:19:12Z</time>
      </trkpt>
      <trkpt lat="44.84599" lon="5.17071">
        <ele>940.66375732422</ele>
        <time>2011-05-07T09:19:17Z</time>
      </trkpt>
      <trkpt lat="44.84531" lon="5.17109">
        <ele>945.73217773438</ele>
        <time>2011-05-07T09:19:24Z</time>
      </trkpt>
      <trkpt lat="44.84489" lon="5.17114">
        <ele>946.22314453125</ele>
        <time>2011-05-07T09:19:28Z</time>
      </trkpt>
      <trkpt lat="44.84478" lon="5.17111">
        <ele>946</ele>
        <time>2011-05-07T09:19:29Z</time>
      </trkpt>
      <trkpt lat="44.84402" lon="5.17082">
        <ele>937.25018310547</ele>
        <time>2011-05-07T09:19:36Z</time>
      </trkpt>
      <trkpt lat="44.84351" lon="5.17048">
        <ele>926.84765625</ele>
        <time>2011-05-07T09:19:41Z</time>
      </trkpt>
      <trkpt lat="44.84321" lon="5.17028">
        <ele>921.12078857422</ele>
        <time>2011-05-07T09:19:44Z</time>
      </trkpt>
      <trkpt lat="44.84311" lon="5.17022">
        <ele>920.32141113281</ele>
        <time>2011-05-07T09:19:45Z</time>
      </trkpt>
      <trkpt lat="44.8425" lon="5.16998">
        <ele>917.93133544922</ele>
        <time>2011-05-07T09:19:51Z</time>
      </trkpt>
      <trkpt lat="44.84203" lon="5.16967">
        <ele>914.93811035156</ele>
        <time>2011-05-07T09:19:56Z</time>
      </trkpt>
      <trkpt lat="44.84194" lon="5.16961">
        <ele>914.12268066406</ele>
        <time>2011-05-07T09:19:57Z</time>
      </trkpt>
      <trkpt lat="44.84157" lon="5.16938">
        <ele>909.77777099609</ele>
        <time>2011-05-07T09:20:01Z</time>
      </trkpt>
      <trkpt lat="44.84078" lon="5.16916">
        <ele>910.27752685547</ele>
        <time>2011-05-07T09:20:09Z</time>
      </trkpt>
      <trkpt lat="44.8405" lon="5.16903">
        <ele>909.56286621094</ele>
        <time>2011-05-07T09:20:12Z</time>
      </trkpt>
      <trkpt lat="44.83993" lon="5.16868">
        <ele>905.39300537109</ele>
        <time>2011-05-07T09:20:18Z</time>
      </trkpt>
      <trkpt lat="44.83952" lon="5.16856">
        <ele>903.80883789062</ele>
        <time>2011-05-07T09:20:22Z</time>
      </trkpt>
      <trkpt lat="44.8391" lon="5.16855">
        <ele>903.89654541016</ele>
        <time>2011-05-07T09:20:26Z</time>
      </trkpt>
      <trkpt lat="44.83878" lon="5.16848">
        <ele>904.23107910156</ele>
        <time>2011-05-07T09:20:29Z</time>
      </trkpt>
      <trkpt lat="44.83868" lon="5.16844">
        <ele>903.87646484375</ele>
        <time>2011-05-07T09:20:30Z</time>
      </trkpt>
      <trkpt lat="44.83788" lon="5.16816">
        <ele>894.63714599609</ele>
        <time>2011-05-07T09:20:38Z</time>
      </trkpt>
      <trkpt lat="44.83768" lon="5.16811">
        <ele>892.99322509766</ele>
        <time>2011-05-07T09:20:40Z</time>
      </trkpt>
      <trkpt lat="44.83719" lon="5.16809">
        <ele>890.26025390625</ele>
        <time>2011-05-07T09:20:45Z</time>
      </trkpt>
      <trkpt lat="44.83709" lon="5.1681">
        <ele>889.95642089844</ele>
        <time>2011-05-07T09:20:46Z</time>
      </trkpt>
      <trkpt lat="44.83646" lon="5.16796">
        <ele>886.64013671875</ele>
        <time>2011-05-07T09:20:52Z</time>
      </trkpt>
      <trkpt lat="44.83636" lon="5.16792">
        <ele>886.09411621094</ele>
        <time>2011-05-07T09:20:53Z</time>
      </trkpt>
      <trkpt lat="44.83565" lon="5.16769">
        <ele>883.33056640625</ele>
        <time>2011-05-07T09:21:00Z</time>
      </trkpt>
      <trkpt lat="44.83523" lon="5.16764">
        <ele>885.13153076172</ele>
        <time>2011-05-07T09:21:04Z</time>
      </trkpt>
      <trkpt lat="44.83483" lon="5.16747">
        <ele>881.50201416016</ele>
        <time>2011-05-07T09:21:08Z</time>
      </trkpt>
      <trkpt lat="44.83474" lon="5.1674">
        <ele>880.15277099609</ele>
        <time>2011-05-07T09:21:09Z</time>
      </trkpt>
      <trkpt lat="44.83426" lon="5.16706">
        <ele>875.07354736328</ele>
        <time>2011-05-07T09:21:14Z</time>
      </trkpt>
      <trkpt lat="44.83355" lon="5.16671">
        <ele>868.78289794922</ele>
        <time>2011-05-07T09:21:21Z</time>
      </trkpt>
      <trkpt lat="44.83279" lon="5.16647">
        <ele>858.60723876953</ele>
        <time>2011-05-07T09:21:28Z</time>
      </trkpt>
      <trkpt lat="44.83191" lon="5.16619">
        <ele>852.99743652344</ele>
        <time>2011-05-07T09:21:36Z</time>
      </trkpt>
      <trkpt lat="44.83113" lon="5.16596">
        <ele>848.47033691406</ele>
        <time>2011-05-07T09:21:43Z</time>
      </trkpt>
      <trkpt lat="44.83101" lon="5.16594">
        <ele>847.81115722656</ele>
        <time>2011-05-07T09:21:44Z</time>
      </trkpt>
      <trkpt lat="44.83043" lon="5.16588">
        <ele>845.07489013672</ele>
        <time>2011-05-07T09:21:49Z</time>
      </trkpt>
      <trkpt lat="44.82977" lon="5.16598">
        <ele>842.05828857422</ele>
        <time>2011-05-07T09:21:55Z</time>
      </trkpt>
      <trkpt lat="44.82943" lon="5.16603">
        <ele>839.75207519531</ele>
        <time>2011-05-07T09:21:58Z</time>
      </trkpt>
      <trkpt lat="44.82865" lon="5.16609">
        <ele>833.90997314453</ele>
        <time>2011-05-07T09:22:05Z</time>
      </trkpt>
      <trkpt lat="44.82798" lon="5.16596">
        <ele>827.69781494141</ele>
        <time>2011-05-07T09:22:11Z</time>
      </trkpt>
      <trkpt lat="44.82729" lon="5.16572">
        <ele>820.79840087891</ele>
        <time>2011-05-07T09:22:17Z</time>
      </trkpt>
      <trkpt lat="44.82706" lon="5.16564">
        <ele>817.01000976562</ele>
        <time>2011-05-07T09:22:19Z</time>
      </trkpt>
      <trkpt lat="44.82647" lon="5.16547">
        <ele>809.67486572266</ele>
        <time>2011-05-07T09:22:24Z</time>
      </trkpt>
      <trkpt lat="44.82569" lon="5.16546">
        <ele>803.57495117188</ele>
        <time>2011-05-07T09:22:30Z</time>
      </trkpt>
      <trkpt lat="44.82555" lon="5.16546">
        <ele>802.60577392578</ele>
        <time>2011-05-07T09:22:31Z</time>
      </trkpt>
      <trkpt lat="44.82517" lon="5.16534">
        <ele>797.70965576172</ele>
        <time>2011-05-07T09:22:34Z</time>
      </trkpt>
      <trkpt lat="44.82505" lon="5.16525">
        <ele>796.11389160156</ele>
        <time>2011-05-07T09:22:35Z</time>
      </trkpt>
      <trkpt lat="44.82472" lon="5.16495">
        <ele>790.61907958984</ele>
        <time>2011-05-07T09:22:38Z</time>
      </trkpt>
      <trkpt lat="44.82424" lon="5.16469">
        <ele>786.05999755859</ele>
        <time>2011-05-07T09:22:42Z</time>
      </trkpt>
      <trkpt lat="44.82399" lon="5.16465">
        <ele>784.18615722656</ele>
        <time>2011-05-07T09:22:44Z</time>
      </trkpt>
      <trkpt lat="44.82354" lon="5.16434">
        <ele>776.615234375</ele>
        <time>2011-05-07T09:22:48Z</time>
      </trkpt>
      <trkpt lat="44.82344" lon="5.16423">
        <ele>775.07885742188</ele>
        <time>2011-05-07T09:22:49Z</time>
      </trkpt>
      <trkpt lat="44.82289" lon="5.16375">
        <ele>769.17004394531</ele>
        <time>2011-05-07T09:22:54Z</time>
      </trkpt>
      <trkpt lat="44.82251" lon="5.16361">
        <ele>767.00592041016</ele>
        <time>2011-05-07T09:22:57Z</time>
      </trkpt>
      <trkpt lat="44.82162" lon="5.16362">
        <ele>767.13714599609</ele>
        <time>2011-05-07T09:23:04Z</time>
      </trkpt>
      <trkpt lat="44.8209" lon="5.16349">
        <ele>765.37103271484</ele>
        <time>2011-05-07T09:23:10Z</time>
      </trkpt>
      <trkpt lat="44.8203" lon="5.16346">
        <ele>763.87713623047</ele>
        <time>2011-05-07T09:23:15Z</time>
      </trkpt>
      <trkpt lat="44.81973" lon="5.16327">
        <ele>761.55084228516</ele>
        <time>2011-05-07T09:23:20Z</time>
      </trkpt>
      <trkpt lat="44.81918" lon="5.16326">
        <ele>760.22839355469</ele>
        <time>2011-05-07T09:23:25Z</time>
      </trkpt>
      <trkpt lat="44.81874" lon="5.16332">
        <ele>759.83642578125</ele>
        <time>2011-05-07T09:23:29Z</time>
      </trkpt>
      <trkpt lat="44.81851" lon="5.1633">
        <ele>759.5068359375</ele>
        <time>2011-05-07T09:23:31Z</time>
      </trkpt>
      <trkpt lat="44.81831" lon="5.16319">
        <ele>757.86907958984</ele>
        <time>2011-05-07T09:23:33Z</time>
      </trkpt>
      <trkpt lat="44.81788" lon="5.16315">
        <ele>755.56939697266</ele>
        <time>2011-05-07T09:23:37Z</time>
      </trkpt>
      <trkpt lat="44.8169" lon="5.16343">
        <ele>754.33178710938</ele>
        <time>2011-05-07T09:23:46Z</time>
      </trkpt>
      <trkpt lat="44.81667" lon="5.16348">
        <ele>752.65637207031</ele>
        <time>2011-05-07T09:23:48Z</time>
      </trkpt>
      <trkpt lat="44.81612" lon="5.16346">
        <ele>745.41845703125</ele>
        <time>2011-05-07T09:23:53Z</time>
      </trkpt>
      <trkpt lat="44.8157" lon="5.16353">
        <ele>741.2802734375</ele>
        <time>2011-05-07T09:23:57Z</time>
      </trkpt>
      <trkpt lat="44.81559" lon="5.16359">
        <ele>741.10858154297</ele>
        <time>2011-05-07T09:23:58Z</time>
      </trkpt>
      <trkpt lat="44.81495" lon="5.16406">
        <ele>741.29669189453</ele>
        <time>2011-05-07T09:24:05Z</time>
      </trkpt>
      <trkpt lat="44.81487" lon="5.16413">
        <ele>741.12878417969</ele>
        <time>2011-05-07T09:24:06Z</time>
      </trkpt>
      <trkpt lat="44.8145" lon="5.16462">
        <ele>743.58319091797</ele>
        <time>2011-05-07T09:24:11Z</time>
      </trkpt>
      <trkpt lat="44.81442" lon="5.16472">
        <ele>743.71478271484</ele>
        <time>2011-05-07T09:24:12Z</time>
      </trkpt>
      <trkpt lat="44.81406" lon="5.16504">
        <ele>743.615234375</ele>
        <time>2011-05-07T09:24:16Z</time>
      </trkpt>
      <trkpt lat="44.81395" lon="5.16509">
        <ele>743.33538818359</ele>
        <time>2011-05-07T09:24:17Z</time>
      </trkpt>
      <trkpt lat="44.81356" lon="5.16521">
        <ele>740.0888671875</ele>
        <time>2011-05-07T09:24:21Z</time>
      </trkpt>
      <trkpt lat="44.81319" lon="5.16529">
        <ele>732.34649658203</ele>
        <time>2011-05-07T09:24:25Z</time>
      </trkpt>
      <trkpt lat="44.81267" lon="5.16545">
        <ele>723.04077148438</ele>
        <time>2011-05-07T09:24:31Z</time>
      </trkpt>
      <trkpt lat="44.81241" lon="5.16579">
        <ele>720.49932861328</ele>
        <time>2011-05-07T09:24:35Z</time>
      </trkpt>
      <trkpt lat="44.81237" lon="5.16591">
        <ele>720.58215332031</ele>
        <time>2011-05-07T09:24:36Z</time>
      </trkpt>
      <trkpt lat="44.81227" lon="5.16629">
        <ele>721.31829833984</ele>
        <time>2011-05-07T09:24:39Z</time>
      </trkpt>
      <trkpt lat="44.81224" lon="5.16695">
        <ele>723.29418945312</ele>
        <time>2011-05-07T09:24:44Z</time>
      </trkpt>
      <trkpt lat="44.81227" lon="5.16757">
        <ele>726.07415771484</ele>
        <time>2011-05-07T09:24:49Z</time>
      </trkpt>
      <trkpt lat="44.81234" lon="5.16817">
        <ele>730.53833007812</ele>
        <time>2011-05-07T09:24:53Z</time>
      </trkpt>
      <trkpt lat="44.81231" lon="5.16899">
        <ele>730.56677246094</ele>
        <time>2011-05-07T09:24:58Z</time>
      </trkpt>
      <trkpt lat="44.81228" lon="5.16916">
        <ele>730.08612060547</ele>
        <time>2011-05-07T09:24:59Z</time>
      </trkpt>
      <trkpt lat="44.81221" lon="5.16957">
        <ele>727.85375976562</ele>
        <time>2011-05-07T09:25:02Z</time>
      </trkpt>
      <trkpt lat="44.81214" lon="5.1701">
        <ele>723.02191162109</ele>
        <time>2011-05-07T09:25:07Z</time>
      </trkpt>
      <trkpt lat="44.81223" lon="5.17048">
        <ele>721.83465576172</ele>
        <time>2011-05-07T09:25:12Z</time>
      </trkpt>
      <trkpt lat="44.81229" lon="5.1709">
        <ele>719.33770751953</ele>
        <time>2011-05-07T09:25:18Z</time>
      </trkpt>
      <trkpt lat="44.81231" lon="5.17108">
        <ele>717.90808105469</ele>
        <time>2011-05-07T09:25:22Z</time>
      </trkpt>
      <trkpt lat="44.81233" lon="5.17129">
        <ele>716.26977539062</ele>
        <time>2011-05-07T09:25:28Z</time>
      </trkpt>
      <trkpt lat="44.81234" lon="5.17155">
        <ele>714.1025390625</ele>
        <time>2011-05-07T09:25:35Z</time>
      </trkpt>
      <trkpt lat="44.81234" lon="5.17187">
        <ele>710.27087402344</ele>
        <time>2011-05-07T09:25:43Z</time>
      </trkpt>
      <trkpt lat="44.81235" lon="5.17196">
        <ele>709.19586181641</ele>
        <time>2011-05-07T09:25:45Z</time>
      </trkpt>
      <trkpt lat="44.81237" lon="5.17213">
        <ele>707.18157958984</ele>
        <time>2011-05-07T09:25:49Z</time>
      </trkpt>
      <trkpt lat="44.81245" lon="5.17235">
        <ele>705.34747314453</ele>
        <time>2011-05-07T09:25:54Z</time>
      </trkpt>
      <trkpt lat="44.8126" lon="5.17244">
        <ele>705.45013427734</ele>
        <time>2011-05-07T09:25:59Z</time>
      </trkpt>
      <trkpt lat="44.81283" lon="5.17241">
        <ele>708.36828613281</ele>
        <time>2011-05-07T09:26:06Z</time>
      </trkpt>
      <trkpt lat="44.81303" lon="5.1723">
        <ele>714.29406738281</ele>
        <time>2011-05-07T09:26:13Z</time>
      </trkpt>
      <trkpt lat="44.81321" lon="5.17219">
        <ele>719.99725341797</ele>
        <time>2011-05-07T09:26:19Z</time>
      </trkpt>
      <trkpt lat="44.81345" lon="5.17213">
        <ele>728.32196044922</ele>
        <time>2011-05-07T09:26:26Z</time>
      </trkpt>
      <trkpt lat="44.81352" lon="5.17212">
        <ele>730.98956298828</ele>
        <time>2011-05-07T09:26:28Z</time>
      </trkpt>
      <trkpt lat="44.81369" lon="5.17216">
        <ele>736.12567138672</ele>
        <time>2011-05-07T09:26:32Z</time>
      </trkpt>
      <trkpt lat="44.81389" lon="5.17235">
        <ele>740.30474853516</ele>
        <time>2011-05-07T09:26:37Z</time>
      </trkpt>
      <trkpt lat="44.81395" lon="5.17247">
        <ele>739.88586425781</ele>
        <time>2011-05-07T09:26:39Z</time>
      </trkpt>
      <trkpt lat="44.81415" lon="5.1729">
        <ele>734.92431640625</ele>
        <time>2011-05-07T09:26:46Z</time>
      </trkpt>
      <trkpt lat="44.81423" lon="5.17315">
        <ele>731.30725097656</ele>
        <time>2011-05-07T09:26:50Z</time>
      </trkpt>
      <trkpt lat="44.81425" lon="5.17361">
        <ele>718.31652832031</ele>
        <time>2011-05-07T09:26:57Z</time>
      </trkpt>
      <trkpt lat="44.81425" lon="5.17368">
        <ele>717.16882324219</ele>
        <time>2011-05-07T09:26:58Z</time>
      </trkpt>
      <trkpt lat="44.8143" lon="5.17396">
        <ele>712.84216308594</ele>
        <time>2011-05-07T09:27:02Z</time>
      </trkpt>
      <trkpt lat="44.81448" lon="5.17428">
        <ele>708.62255859375</ele>
        <time>2011-05-07T09:27:08Z</time>
      </trkpt>
      <trkpt lat="44.81452" lon="5.17432">
        <ele>708.50152587891</ele>
        <time>2011-05-07T09:27:09Z</time>
      </trkpt>
      <trkpt lat="44.81481" lon="5.17447">
        <ele>709.68743896484</ele>
        <time>2011-05-07T09:27:15Z</time>
      </trkpt>
      <trkpt lat="44.81491" lon="5.17447">
        <ele>711.64129638672</ele>
        <time>2011-05-07T09:27:17Z</time>
      </trkpt>
      <trkpt lat="44.81535" lon="5.17438">
        <ele>724.18505859375</ele>
        <time>2011-05-07T09:27:25Z</time>
      </trkpt>
      <trkpt lat="44.81579" lon="5.17426">
        <ele>739.47503662109</ele>
        <time>2011-05-07T09:27:33Z</time>
      </trkpt>
      <trkpt lat="44.81609" lon="5.17429">
        <ele>746.50134277344</ele>
        <time>2011-05-07T09:27:38Z</time>
      </trkpt>
      <trkpt lat="44.81628" lon="5.17448">
        <ele>747.12750244141</ele>
        <time>2011-05-07T09:27:42Z</time>
      </trkpt>
      <trkpt lat="44.81635" lon="5.17462">
        <ele>744.81005859375</ele>
        <time>2011-05-07T09:27:44Z</time>
      </trkpt>
      <trkpt lat="44.81654" lon="5.17539">
        <ele>727.82666015625</ele>
        <time>2011-05-07T09:27:54Z</time>
      </trkpt>
      <trkpt lat="44.81661" lon="5.17562">
        <ele>722.97021484375</ele>
        <time>2011-05-07T09:27:57Z</time>
      </trkpt>
      <trkpt lat="44.8168" lon="5.17592">
        <ele>723.28900146484</ele>
        <time>2011-05-07T09:28:02Z</time>
      </trkpt>
      <trkpt lat="44.8169" lon="5.17598">
        <ele>725.12310791016</ele>
        <time>2011-05-07T09:28:04Z</time>
      </trkpt>
      <trkpt lat="44.81712" lon="5.1761">
        <ele>732.36663818359</ele>
        <time>2011-05-07T09:28:08Z</time>
      </trkpt>
      <trkpt lat="44.8173" lon="5.17631">
        <ele>738.1318359375</ele>
        <time>2011-05-07T09:28:12Z</time>
      </trkpt>
      <trkpt lat="44.8175" lon="5.17684">
        <ele>741.30383300781</ele>
        <time>2011-05-07T09:28:20Z</time>
      </trkpt>
      <trkpt lat="44.81754" lon="5.17707">
        <ele>739.15301513672</ele>
        <time>2011-05-07T09:28:23Z</time>
      </trkpt>
      <trkpt lat="44.81753" lon="5.17741">
        <ele>732.98498535156</ele>
        <time>2011-05-07T09:28:27Z</time>
      </trkpt>
      <trkpt lat="44.81761" lon="5.17781">
        <ele>728.75805664062</ele>
        <time>2011-05-07T09:28:32Z</time>
      </trkpt>
      <trkpt lat="44.8177" lon="5.17794">
        <ele>731.24279785156</ele>
        <time>2011-05-07T09:28:34Z</time>
      </trkpt>
      <trkpt lat="44.81792" lon="5.17822">
        <ele>736.19689941406</ele>
        <time>2011-05-07T09:28:39Z</time>
      </trkpt>
      <trkpt lat="44.81799" lon="5.17835">
        <ele>737.46716308594</ele>
        <time>2011-05-07T09:28:41Z</time>
      </trkpt>
      <trkpt lat="44.81805" lon="5.17867">
        <ele>737.55426025391</ele>
        <time>2011-05-07T09:28:45Z</time>
      </trkpt>
      <trkpt lat="44.81802" lon="5.17883">
        <ele>734.89733886719</ele>
        <time>2011-05-07T09:28:47Z</time>
      </trkpt>
      <trkpt lat="44.81788" lon="5.17939">
        <ele>724.43463134766</ele>
        <time>2011-05-07T09:28:54Z</time>
      </trkpt>
      <trkpt lat="44.8179" lon="5.1798">
        <ele>723.88427734375</ele>
        <time>2011-05-07T09:28:59Z</time>
      </trkpt>
      <trkpt lat="44.81799" lon="5.18002">
        <ele>725.96185302734</ele>
        <time>2011-05-07T09:29:02Z</time>
      </trkpt>
      <trkpt lat="44.81835" lon="5.18059">
        <ele>727.28747558594</ele>
        <time>2011-05-07T09:29:10Z</time>
      </trkpt>
      <trkpt lat="44.81865" lon="5.18105">
        <ele>731.88488769531</ele>
        <time>2011-05-07T09:29:16Z</time>
      </trkpt>
      <trkpt lat="44.81877" lon="5.18145">
        <ele>731.34533691406</ele>
        <time>2011-05-07T09:29:20Z</time>
      </trkpt>
      <trkpt lat="44.81897" lon="5.18204">
        <ele>728.85296630859</ele>
        <time>2011-05-07T09:29:26Z</time>
      </trkpt>
      <trkpt lat="44.81904" lon="5.18224">
        <ele>728.55474853516</ele>
        <time>2011-05-07T09:29:28Z</time>
      </trkpt>
      <trkpt lat="44.81928" lon="5.18268">
        <ele>728.68878173828</ele>
        <time>2011-05-07T09:29:33Z</time>
      </trkpt>
      <trkpt lat="44.81942" lon="5.18279">
        <ele>728.69396972656</ele>
        <time>2011-05-07T09:29:35Z</time>
      </trkpt>
      <trkpt lat="44.81964" lon="5.18292">
        <ele>729.06262207031</ele>
        <time>2011-05-07T09:29:38Z</time>
      </trkpt>
      <trkpt lat="44.8198" lon="5.18298">
        <ele>729.87280273438</ele>
        <time>2011-05-07T09:29:40Z</time>
      </trkpt>
      <trkpt lat="44.82017" lon="5.18327">
        <ele>729.74926757812</ele>
        <time>2011-05-07T09:29:45Z</time>
      </trkpt>
      <trkpt lat="44.82023" lon="5.18336">
        <ele>729.23107910156</ele>
        <time>2011-05-07T09:29:46Z</time>
      </trkpt>
      <trkpt lat="44.82056" lon="5.18374">
        <ele>728.21252441406</ele>
        <time>2011-05-07T09:29:51Z</time>
      </trkpt>
      <trkpt lat="44.82072" lon="5.18402">
        <ele>726.99554443359</ele>
        <time>2011-05-07T09:29:54Z</time>
      </trkpt>
      <trkpt lat="44.82087" lon="5.18444">
        <ele>722.45727539062</ele>
        <time>2011-05-07T09:29:58Z</time>
      </trkpt>
      <trkpt lat="44.82115" lon="5.18488">
        <ele>718.85437011719</ele>
        <time>2011-05-07T09:30:03Z</time>
      </trkpt>
      <trkpt lat="44.82151" lon="5.1851">
        <ele>717.75189208984</ele>
        <time>2011-05-07T09:30:07Z</time>
      </trkpt>
      <trkpt lat="44.82172" lon="5.18517">
        <ele>716.18060302734</ele>
        <time>2011-05-07T09:30:09Z</time>
      </trkpt>
      <trkpt lat="44.82231" lon="5.18521">
        <ele>716.27423095703</ele>
        <time>2011-05-07T09:30:14Z</time>
      </trkpt>
      <trkpt lat="44.82293" lon="5.18535">
        <ele>712.60430908203</ele>
        <time>2011-05-07T09:30:19Z</time>
      </trkpt>
      <trkpt lat="44.82315" lon="5.18548">
        <ele>710.49475097656</ele>
        <time>2011-05-07T09:30:21Z</time>
      </trkpt>
      <trkpt lat="44.82344" lon="5.18572">
        <ele>705.22741699219</ele>
        <time>2011-05-07T09:30:24Z</time>
      </trkpt>
      <trkpt lat="44.82378" lon="5.18577">
        <ele>700.73541259766</ele>
        <time>2011-05-07T09:30:27Z</time>
      </trkpt>
      <trkpt lat="44.824" lon="5.18585">
        <ele>695.82250976562</ele>
        <time>2011-05-07T09:30:29Z</time>
      </trkpt>
      <trkpt lat="44.82453" lon="5.18623">
        <ele>681.69934082031</ele>
        <time>2011-05-07T09:30:34Z</time>
      </trkpt>
      <trkpt lat="44.82486" lon="5.18639">
        <ele>677.50366210938</ele>
        <time>2011-05-07T09:30:37Z</time>
      </trkpt>
      <trkpt lat="44.82511" lon="5.18637">
        <ele>675.66357421875</ele>
        <time>2011-05-07T09:30:39Z</time>
      </trkpt>
      <trkpt lat="44.8259" lon="5.18637">
        <ele>667.53521728516</ele>
        <time>2011-05-07T09:30:45Z</time>
      </trkpt>
      <trkpt lat="44.82616" lon="5.18637">
        <ele>664.93212890625</ele>
        <time>2011-05-07T09:30:47Z</time>
      </trkpt>
      <trkpt lat="44.82647" lon="5.18609">
        <ele>667.90795898438</ele>
        <time>2011-05-07T09:30:50Z</time>
      </trkpt>
      <trkpt lat="44.82656" lon="5.18577">
        <ele>676.37915039062</ele>
        <time>2011-05-07T09:30:52Z</time>
      </trkpt>
      <trkpt lat="44.82679" lon="5.18555">
        <ele>685.51672363281</ele>
        <time>2011-05-07T09:30:56Z</time>
      </trkpt>
      <trkpt lat="44.82693" lon="5.18572">
        <ele>681.65148925781</ele>
        <time>2011-05-07T09:30:58Z</time>
      </trkpt>
      <trkpt lat="44.82708" lon="5.18587">
        <ele>677.8310546875</ele>
        <time>2011-05-07T09:31:00Z</time>
      </trkpt>
      <trkpt lat="44.82727" lon="5.18599">
        <ele>676.00225830078</ele>
        <time>2011-05-07T09:31:02Z</time>
      </trkpt>
      <trkpt lat="44.82755" lon="5.18626">
        <ele>669.97735595703</ele>
        <time>2011-05-07T09:31:05Z</time>
      </trkpt>
      <trkpt lat="44.82792" lon="5.18657">
        <ele>656.90441894531</ele>
        <time>2011-05-07T09:31:09Z</time>
      </trkpt>
      <trkpt lat="44.82814" lon="5.18648">
        <ele>662.06097412109</ele>
        <time>2011-05-07T09:31:11Z</time>
      </trkpt>
      <trkpt lat="44.82847" lon="5.18636">
        <ele>669.00158691406</ele>
        <time>2011-05-07T09:31:14Z</time>
      </trkpt>
      <trkpt lat="44.82859" lon="5.18637">
        <ele>668.64624023438</ele>
        <time>2011-05-07T09:31:15Z</time>
      </trkpt>
      <trkpt lat="44.82961" lon="5.18645">
        <ele>674.37017822266</ele>
        <time>2011-05-07T09:31:23Z</time>
      </trkpt>
      <trkpt lat="44.83038" lon="5.18658">
        <ele>699.88836669922</ele>
        <time>2011-05-07T09:31:29Z</time>
      </trkpt>
      <trkpt lat="44.83089" lon="5.18682">
        <ele>692.49096679688</ele>
        <time>2011-05-07T09:31:33Z</time>
      </trkpt>
      <trkpt lat="44.83124" lon="5.18712">
        <ele>684.2529296875</ele>
        <time>2011-05-07T09:31:36Z</time>
      </trkpt>
      <trkpt lat="44.83162" lon="5.18734">
        <ele>675.06585693359</ele>
        <time>2011-05-07T09:31:39Z</time>
      </trkpt>
      <trkpt lat="44.83191" lon="5.18745">
        <ele>670.2041015625</ele>
        <time>2011-05-07T09:31:41Z</time>
      </trkpt>
      <trkpt lat="44.83248" lon="5.18764">
        <ele>657.17108154297</ele>
        <time>2011-05-07T09:31:46Z</time>
      </trkpt>
      <trkpt lat="44.83252" lon="5.18771">
        <ele>655.21520996094</ele>
        <time>2011-05-07T09:31:48Z</time>
      </trkpt>
      <trkpt lat="44.83244" lon="5.1878">
        <ele>653.73693847656</ele>
        <time>2011-05-07T09:31:50Z</time>
      </trkpt>
      <trkpt lat="44.83237" lon="5.1878">
        <ele>654.220703125</ele>
        <time>2011-05-07T09:31:51Z</time>
      </trkpt>
      <trkpt lat="44.83216" lon="5.18776">
        <ele>657.45281982422</ele>
        <time>2011-05-07T09:31:54Z</time>
      </trkpt>
      <trkpt lat="44.83186" lon="5.18789">
        <ele>655.23211669922</ele>
        <time>2011-05-07T09:31:58Z</time>
      </trkpt>
      <trkpt lat="44.83186" lon="5.18815">
        <ele>645.25457763672</ele>
        <time>2011-05-07T09:32:00Z</time>
      </trkpt>
      <trkpt lat="44.83198" lon="5.18851">
        <ele>629.74182128906</ele>
        <time>2011-05-07T09:32:03Z</time>
      </trkpt>
      <trkpt lat="44.83205" lon="5.18893">
        <ele>609.18048095703</ele>
        <time>2011-05-07T09:32:06Z</time>
      </trkpt>
      <trkpt lat="44.8322" lon="5.18921">
        <ele>599.49432373047</ele>
        <time>2011-05-07T09:32:09Z</time>
      </trkpt>
      <trkpt lat="44.83238" lon="5.18912">
        <ele>601.42932128906</ele>
        <time>2011-05-07T09:32:11Z</time>
      </trkpt>
      <trkpt lat="44.83251" lon="5.1889">
        <ele>609.68933105469</ele>
        <time>2011-05-07T09:32:13Z</time>
      </trkpt>
      <trkpt lat="44.83254" lon="5.18864">
        <ele>622.33154296875</ele>
        <time>2011-05-07T09:32:15Z</time>
      </trkpt>
      <trkpt lat="44.83261" lon="5.1883">
        <ele>635.98077392578</ele>
        <time>2011-05-07T09:32:18Z</time>
      </trkpt>
      <trkpt lat="44.83278" lon="5.18837">
        <ele>632.71136474609</ele>
        <time>2011-05-07T09:32:20Z</time>
      </trkpt>
      <trkpt lat="44.83281" lon="5.18847">
        <ele>628.67926025391</ele>
        <time>2011-05-07T09:32:21Z</time>
      </trkpt>
      <trkpt lat="44.83296" lon="5.18876">
        <ele>616.97271728516</ele>
        <time>2011-05-07T09:32:24Z</time>
      </trkpt>
      <trkpt lat="44.83303" lon="5.18882">
        <ele>614.40625</ele>
        <time>2011-05-07T09:32:25Z</time>
      </trkpt>
      <trkpt lat="44.8331" lon="5.18888">
        <ele>610.18811035156</ele>
        <time>2011-05-07T09:32:26Z</time>
      </trkpt>
      <trkpt lat="44.83314" lon="5.18915">
        <ele>602.01208496094</ele>
        <time>2011-05-07T09:32:29Z</time>
      </trkpt>
      <trkpt lat="44.83308" lon="5.18923">
        <ele>601.46624755859</ele>
        <time>2011-05-07T09:32:30Z</time>
      </trkpt>
      <trkpt lat="44.83293" lon="5.18957">
        <ele>592.72375488281</ele>
        <time>2011-05-07T09:32:34Z</time>
      </trkpt>
      <trkpt lat="44.83297" lon="5.18963">
        <ele>591.57360839844</ele>
        <time>2011-05-07T09:32:35Z</time>
      </trkpt>
      <trkpt lat="44.83313" lon="5.18943">
        <ele>594.28338623047</ele>
        <time>2011-05-07T09:32:38Z</time>
      </trkpt>
      <trkpt lat="44.83324" lon="5.18925">
        <ele>596.88781738281</ele>
        <time>2011-05-07T09:32:40Z</time>
      </trkpt>
      <trkpt lat="44.83345" lon="5.189">
        <ele>596.34100341797</ele>
        <time>2011-05-07T09:32:43Z</time>
      </trkpt>
      <trkpt lat="44.83367" lon="5.1885">
        <ele>601.8271484375</ele>
        <time>2011-05-07T09:32:47Z</time>
      </trkpt>
      <trkpt lat="44.83387" lon="5.18828">
        <ele>600.14837646484</ele>
        <time>2011-05-07T09:32:49Z</time>
      </trkpt>
      <trkpt lat="44.83439" lon="5.18785">
        <ele>599.74340820312</ele>
        <time>2011-05-07T09:32:54Z</time>
      </trkpt>
      <trkpt lat="44.83466" lon="5.18744">
        <ele>601.78344726562</ele>
        <time>2011-05-07T09:32:58Z</time>
      </trkpt>
      <trkpt lat="44.83486" lon="5.18747">
        <ele>600.26055908203</ele>
        <time>2011-05-07T09:33:00Z</time>
      </trkpt>
      <trkpt lat="44.83508" lon="5.18745">
        <ele>600</ele>
        <time>2011-05-07T09:33:02Z</time>
      </trkpt>
      <trkpt lat="44.83517" lon="5.18739">
        <ele>600</ele>
        <time>2011-05-07T09:33:03Z</time>
      </trkpt>
      <trkpt lat="44.83535" lon="5.18722">
        <ele>600</ele>
        <time>2011-05-07T09:33:05Z</time>
      </trkpt>
      <trkpt lat="44.83583" lon="5.18712">
        <ele>606.9775390625</ele>
        <time>2011-05-07T09:33:09Z</time>
      </trkpt>
      <trkpt lat="44.83627" lon="5.18708">
        <ele>621.29205322266</ele>
        <time>2011-05-07T09:33:13Z</time>
      </trkpt>
      <trkpt lat="44.83667" lon="5.18707">
        <ele>641.53363037109</ele>
        <time>2011-05-07T09:33:16Z</time>
      </trkpt>
      <trkpt lat="44.8372" lon="5.18684">
        <ele>666.19976806641</ele>
        <time>2011-05-07T09:33:20Z</time>
      </trkpt>
      <trkpt lat="44.83746" lon="5.1866">
        <ele>682.54217529297</ele>
        <time>2011-05-07T09:33:23Z</time>
      </trkpt>
      <trkpt lat="44.83761" lon="5.18653">
        <ele>692.20526123047</ele>
        <time>2011-05-07T09:33:25Z</time>
      </trkpt>
      <trkpt lat="44.83781" lon="5.18653">
        <ele>701.96423339844</ele>
        <time>2011-05-07T09:33:28Z</time>
      </trkpt>
      <trkpt lat="44.83796" lon="5.18666">
        <ele>706.63250732422</ele>
        <time>2011-05-07T09:33:31Z</time>
      </trkpt>
      <trkpt lat="44.83799" lon="5.18671">
        <ele>706.51965332031</ele>
        <time>2011-05-07T09:33:32Z</time>
      </trkpt>
      <trkpt lat="44.83809" lon="5.18699">
        <ele>698.70318603516</ele>
        <time>2011-05-07T09:33:38Z</time>
      </trkpt>
      <trkpt lat="44.83816" lon="5.18725">
        <ele>686.52563476562</ele>
        <time>2011-05-07T09:33:45Z</time>
      </trkpt>
      <trkpt lat="44.83819" lon="5.18746">
        <ele>673.82342529297</ele>
        <time>2011-05-07T09:33:51Z</time>
      </trkpt>
      <trkpt lat="44.83823" lon="5.18772">
        <ele>662.16125488281</ele>
        <time>2011-05-07T09:33:57Z</time>
      </trkpt>
      <trkpt lat="44.83828" lon="5.18798">
        <ele>645.64978027344</ele>
        <time>2011-05-07T09:34:02Z</time>
      </trkpt>
      <trkpt lat="44.83837" lon="5.18839">
        <ele>636.25238037109</ele>
        <time>2011-05-07T09:34:10Z</time>
      </trkpt>
      <trkpt lat="44.83845" lon="5.18866">
        <ele>631.40112304688</ele>
        <time>2011-05-07T09:34:16Z</time>
      </trkpt>
      <trkpt lat="44.83857" lon="5.18884">
        <ele>628.7431640625</ele>
        <time>2011-05-07T09:34:21Z</time>
      </trkpt>
      <trkpt lat="44.83868" lon="5.18894">
        <ele>628.48065185547</ele>
        <time>2011-05-07T09:34:25Z</time>
      </trkpt>
      <trkpt lat="44.83885" lon="5.18899">
        <ele>630.76165771484</ele>
        <time>2011-05-07T09:34:30Z</time>
      </trkpt>
      <trkpt lat="44.83904" lon="5.189">
        <ele>633.50494384766</ele>
        <time>2011-05-07T09:34:36Z</time>
      </trkpt>
      <trkpt lat="44.83918" lon="5.18901">
        <ele>635.53247070312</ele>
        <time>2011-05-07T09:34:41Z</time>
      </trkpt>
      <trkpt lat="44.83933" lon="5.1891">
        <ele>636.93151855469</ele>
        <time>2011-05-07T09:34:46Z</time>
      </trkpt>
      <trkpt lat="44.83947" lon="5.18919">
        <ele>638.17535400391</ele>
        <time>2011-05-07T09:34:51Z</time>
      </trkpt>
      <trkpt lat="44.8395" lon="5.18921">
        <ele>638.35046386719</ele>
        <time>2011-05-07T09:34:52Z</time>
      </trkpt>
      <trkpt lat="44.8397" lon="5.18931">
        <ele>639.42504882812</ele>
        <time>2011-05-07T09:34:58Z</time>
      </trkpt>
      <trkpt lat="44.83996" lon="5.18941">
        <ele>639.88360595703</ele>
        <time>2011-05-07T09:35:05Z</time>
      </trkpt>
      <trkpt lat="44.8401" lon="5.18944">
        <ele>639.99908447266</ele>
        <time>2011-05-07T09:35:09Z</time>
      </trkpt>
      <trkpt lat="44.84035" lon="5.18948">
        <ele>640</ele>
        <time>2011-05-07T09:35:15Z</time>
      </trkpt>
      <trkpt lat="44.84061" lon="5.18961">
        <ele>640</ele>
        <time>2011-05-07T09:35:22Z</time>
      </trkpt>
      <trkpt lat="44.84078" lon="5.18944">
        <ele>640</ele>
        <time>2011-05-07T09:35:27Z</time>
      </trkpt>
      <trkpt lat="44.84087" lon="5.18937">
        <ele>640.32946777344</ele>
        <time>2011-05-07T09:35:29Z</time>
      </trkpt>
      <trkpt lat="44.84122" lon="5.18916">
        <ele>652.14312744141</ele>
        <time>2011-05-07T09:35:34Z</time>
      </trkpt>
      <trkpt lat="44.84152" lon="5.18908">
        <ele>656.50421142578</ele>
        <time>2011-05-07T09:35:39Z</time>
      </trkpt>
      <trkpt lat="44.84174" lon="5.18909">
        <ele>655.84826660156</ele>
        <time>2011-05-07T09:35:44Z</time>
      </trkpt>
      <trkpt lat="44.8419" lon="5.1892">
        <ele>652.73992919922</ele>
        <time>2011-05-07T09:35:48Z</time>
      </trkpt>
      <trkpt lat="44.84197" lon="5.18928">
        <ele>651.21514892578</ele>
        <time>2011-05-07T09:35:50Z</time>
      </trkpt>
      <trkpt lat="44.84214" lon="5.18951">
        <ele>650.83349609375</ele>
        <time>2011-05-07T09:35:55Z</time>
      </trkpt>
      <trkpt lat="44.84226" lon="5.18975">
        <ele>652.60180664062</ele>
        <time>2011-05-07T09:36:01Z</time>
      </trkpt>
      <trkpt lat="44.8423" lon="5.18996">
        <ele>653.7890625</ele>
        <time>2011-05-07T09:36:05Z</time>
      </trkpt>
      <trkpt lat="44.84227" lon="5.1902">
        <ele>654.19317626953</ele>
        <time>2011-05-07T09:36:09Z</time>
      </trkpt>
      <trkpt lat="44.84222" lon="5.19046">
        <ele>653.97930908203</ele>
        <time>2011-05-07T09:36:14Z</time>
      </trkpt>
      <trkpt lat="44.84223" lon="5.19085">
        <ele>655.06860351562</ele>
        <time>2011-05-07T09:36:17Z</time>
      </trkpt>
      <trkpt lat="44.84241" lon="5.19114">
        <ele>656.36297607422</ele>
        <time>2011-05-07T09:36:21Z</time>
      </trkpt>
      <trkpt lat="44.84263" lon="5.19148">
        <ele>658.5927734375</ele>
        <time>2011-05-07T09:36:26Z</time>
      </trkpt>
      <trkpt lat="44.84277" lon="5.19167">
        <ele>659.96875</ele>
        <time>2011-05-07T09:36:29Z</time>
      </trkpt>
      <trkpt lat="44.84287" lon="5.19189">
        <ele>660.81726074219</ele>
        <time>2011-05-07T09:36:32Z</time>
      </trkpt>
      <trkpt lat="44.84304" lon="5.19221">
        <ele>660.05590820312</ele>
        <time>2011-05-07T09:36:37Z</time>
      </trkpt>
      <trkpt lat="44.84311" lon="5.19223">
        <ele>661.80242919922</ele>
        <time>2011-05-07T09:36:39Z</time>
      </trkpt>
      <trkpt lat="44.84329" lon="5.19236">
        <ele>665.03411865234</ele>
        <time>2011-05-07T09:36:45Z</time>
      </trkpt>
      <trkpt lat="44.84338" lon="5.19256">
        <ele>664.35693359375</ele>
        <time>2011-05-07T09:36:50Z</time>
      </trkpt>
      <trkpt lat="44.84345" lon="5.1928">
        <ele>661.53302001953</ele>
        <time>2011-05-07T09:36:55Z</time>
      </trkpt>
      <trkpt lat="44.84356" lon="5.19293">
        <ele>661.44317626953</ele>
        <time>2011-05-07T09:36:59Z</time>
      </trkpt>
      <trkpt lat="44.84361" lon="5.19298">
        <ele>661.14141845703</ele>
        <time>2011-05-07T09:37:01Z</time>
      </trkpt>
      <trkpt lat="44.84378" lon="5.19316">
        <ele>660</ele>
        <time>2011-05-07T09:37:08Z</time>
      </trkpt>
      <trkpt lat="44.84392" lon="5.19333">
        <ele>660</ele>
        <time>2011-05-07T09:37:13Z</time>
      </trkpt>
      <trkpt lat="44.84405" lon="5.19338">
        <ele>660</ele>
        <time>2011-05-07T09:37:16Z</time>
      </trkpt>
      <trkpt lat="44.84432" lon="5.19348">
        <ele>660</ele>
        <time>2011-05-07T09:37:20Z</time>
      </trkpt>
      <trkpt lat="44.8444" lon="5.19351">
        <ele>660</ele>
        <time>2011-05-07T09:37:21Z</time>
      </trkpt>
      <trkpt lat="44.84455" lon="5.19367">
        <ele>660</ele>
        <time>2011-05-07T09:37:26Z</time>
      </trkpt>
      <trkpt lat="44.84463" lon="5.19373">
        <ele>660</ele>
        <time>2011-05-07T09:37:28Z</time>
      </trkpt>
      <trkpt lat="44.84473" lon="5.19377">
        <ele>660</ele>
        <time>2011-05-07T09:37:30Z</time>
      </trkpt>
      <trkpt lat="44.84496" lon="5.19397">
        <ele>660</ele>
        <time>2011-05-07T09:37:36Z</time>
      </trkpt>
      <trkpt lat="44.84526" lon="5.1942">
        <ele>660</ele>
        <time>2011-05-07T09:37:42Z</time>
      </trkpt>
      <trkpt lat="44.8455" lon="5.19441">
        <ele>660</ele>
        <time>2011-05-07T09:37:47Z</time>
      </trkpt>
      <trkpt lat="44.84569" lon="5.19464">
        <ele>667.07806396484</ele>
        <time>2011-05-07T09:37:52Z</time>
      </trkpt>
      <trkpt lat="44.84578" lon="5.19487">
        <ele>673.56048583984</ele>
        <time>2011-05-07T09:37:56Z</time>
      </trkpt>
      <trkpt lat="44.84583" lon="5.19515">
        <ele>679.03747558594</ele>
        <time>2011-05-07T09:38:01Z</time>
      </trkpt>
      <trkpt lat="44.84588" lon="5.1954">
        <ele>681.31536865234</ele>
        <time>2011-05-07T09:38:06Z</time>
      </trkpt>
      <trkpt lat="44.84597" lon="5.19551">
        <ele>683.40899658203</ele>
        <time>2011-05-07T09:38:10Z</time>
      </trkpt>
      <trkpt lat="44.84605" lon="5.19574">
        <ele>687.52801513672</ele>
        <time>2011-05-07T09:38:16Z</time>
      </trkpt>
      <trkpt lat="44.84608" lon="5.19589">
        <ele>690.16424560547</ele>
        <time>2011-05-07T09:38:19Z</time>
      </trkpt>
      <trkpt lat="44.8461" lon="5.19624">
        <ele>694.68872070312</ele>
        <time>2011-05-07T09:38:24Z</time>
      </trkpt>
      <trkpt lat="44.84611" lon="5.19638">
        <ele>696.83325195312</ele>
        <time>2011-05-07T09:38:26Z</time>
      </trkpt>
      <trkpt lat="44.84615" lon="5.19657">
        <ele>699.99859619141</ele>
        <time>2011-05-07T09:38:29Z</time>
      </trkpt>
      <trkpt lat="44.84613" lon="5.19726">
        <ele>714.17553710938</ele>
        <time>2011-05-07T09:38:38Z</time>
      </trkpt>
      <trkpt lat="44.84612" lon="5.19742">
        <ele>716.2705078125</ele>
        <time>2011-05-07T09:38:40Z</time>
      </trkpt>
      <trkpt lat="44.8461" lon="5.19766">
        <ele>720.27014160156</ele>
        <time>2011-05-07T09:38:44Z</time>
      </trkpt>
      <trkpt lat="44.84614" lon="5.19798">
        <ele>726.93670654297</ele>
        <time>2011-05-07T09:38:49Z</time>
      </trkpt>
      <trkpt lat="44.84621" lon="5.19828">
        <ele>729.64178466797</ele>
        <time>2011-05-07T09:38:53Z</time>
      </trkpt>
      <trkpt lat="44.84632" lon="5.19853">
        <ele>740.06439208984</ele>
        <time>2011-05-07T09:38:56Z</time>
      </trkpt>
      <trkpt lat="44.84651" lon="5.19907">
        <ele>759.95526123047</ele>
        <time>2011-05-07T09:39:03Z</time>
      </trkpt>
      <trkpt lat="44.84664" lon="5.19921">
        <ele>766.61053466797</ele>
        <time>2011-05-07T09:39:07Z</time>
      </trkpt>
      <trkpt lat="44.84665" lon="5.19938">
        <ele>769.26257324219</ele>
        <time>2011-05-07T09:39:11Z</time>
      </trkpt>
      <trkpt lat="44.84671" lon="5.19977">
        <ele>776.92498779297</ele>
        <time>2011-05-07T09:39:17Z</time>
      </trkpt>
      <trkpt lat="44.84679" lon="5.20003">
        <ele>783.91101074219</ele>
        <time>2011-05-07T09:39:23Z</time>
      </trkpt>
      <trkpt lat="44.84689" lon="5.2004">
        <ele>792.73553466797</ele>
        <time>2011-05-07T09:39:31Z</time>
      </trkpt>
      <trkpt lat="44.84694" lon="5.20099">
        <ele>799.48333740234</ele>
        <time>2011-05-07T09:39:38Z</time>
      </trkpt>
      <trkpt lat="44.84695" lon="5.20136">
        <ele>800.65008544922</ele>
        <time>2011-05-07T09:39:42Z</time>
      </trkpt>
      <trkpt lat="44.84711" lon="5.20193">
        <ele>792.07849121094</ele>
        <time>2011-05-07T09:39:51Z</time>
      </trkpt>
      <trkpt lat="44.8473" lon="5.20249">
        <ele>764.87451171875</ele>
        <time>2011-05-07T09:40:00Z</time>
      </trkpt>
      <trkpt lat="44.84742" lon="5.20308">
        <ele>725.30487060547</ele>
        <time>2011-05-07T09:40:08Z</time>
      </trkpt>
      <trkpt lat="44.84747" lon="5.20324">
        <ele>715.10412597656</ele>
        <time>2011-05-07T09:40:10Z</time>
      </trkpt>
      <trkpt lat="44.84762" lon="5.2035">
        <ele>703.74328613281</ele>
        <time>2011-05-07T09:40:14Z</time>
      </trkpt>
      <trkpt lat="44.84786" lon="5.20394">
        <ele>688.43432617188</ele>
        <time>2011-05-07T09:40:21Z</time>
      </trkpt>
      <trkpt lat="44.84801" lon="5.20446">
        <ele>674.40618896484</ele>
        <time>2011-05-07T09:40:28Z</time>
      </trkpt>
      <trkpt lat="44.84818" lon="5.2049">
        <ele>677.16937255859</ele>
        <time>2011-05-07T09:40:34Z</time>
      </trkpt>
      <trkpt lat="44.84828" lon="5.20536">
        <ele>686.19183349609</ele>
        <time>2011-05-07T09:40:40Z</time>
      </trkpt>
      <trkpt lat="44.84827" lon="5.20565">
        <ele>686.05999755859</ele>
        <time>2011-05-07T09:40:44Z</time>
      </trkpt>
      <trkpt lat="44.84824" lon="5.20585">
        <ele>680.77844238281</ele>
        <time>2011-05-07T09:40:47Z</time>
      </trkpt>
      <trkpt lat="44.84826" lon="5.20612">
        <ele>673.61328125</ele>
        <time>2011-05-07T09:40:51Z</time>
      </trkpt>
      <trkpt lat="44.8484" lon="5.20638">
        <ele>674.50244140625</ele>
        <time>2011-05-07T09:40:56Z</time>
      </trkpt>
      <trkpt lat="44.84855" lon="5.20648">
        <ele>676.80712890625</ele>
        <time>2011-05-07T09:41:00Z</time>
      </trkpt>
      <trkpt lat="44.84883" lon="5.20666">
        <ele>682.02410888672</ele>
        <time>2011-05-07T09:41:08Z</time>
      </trkpt>
      <trkpt lat="44.84905" lon="5.20679">
        <ele>686.70837402344</ele>
        <time>2011-05-07T09:41:14Z</time>
      </trkpt>
      <trkpt lat="44.84922" lon="5.20692">
        <ele>688.4521484375</ele>
        <time>2011-05-07T09:41:19Z</time>
      </trkpt>
      <trkpt lat="44.84934" lon="5.20715">
        <ele>685.89031982422</ele>
        <time>2011-05-07T09:41:24Z</time>
      </trkpt>
      <trkpt lat="44.84938" lon="5.20743">
        <ele>677.53076171875</ele>
        <time>2011-05-07T09:41:29Z</time>
      </trkpt>
      <trkpt lat="44.84945" lon="5.20763">
        <ele>673.78106689453</ele>
        <time>2011-05-07T09:41:33Z</time>
      </trkpt>
      <trkpt lat="44.84966" lon="5.2078">
        <ele>685.43914794922</ele>
        <time>2011-05-07T09:41:39Z</time>
      </trkpt>
      <trkpt lat="44.84993" lon="5.20788">
        <ele>694.25317382812</ele>
        <time>2011-05-07T09:41:46Z</time>
      </trkpt>
      <trkpt lat="44.8501" lon="5.20803">
        <ele>704.96441650391</ele>
        <time>2011-05-07T09:41:51Z</time>
      </trkpt>
      <trkpt lat="44.85021" lon="5.20825">
        <ele>712.39025878906</ele>
        <time>2011-05-07T09:41:56Z</time>
      </trkpt>
      <trkpt lat="44.85023" lon="5.20859">
        <ele>708.52716064453</ele>
        <time>2011-05-07T09:42:02Z</time>
      </trkpt>
      <trkpt lat="44.8502" lon="5.20875">
        <ele>702.8984375</ele>
        <time>2011-05-07T09:42:05Z</time>
      </trkpt>
      <trkpt lat="44.85014" lon="5.20912">
        <ele>693.81878662109</ele>
        <time>2011-05-07T09:42:12Z</time>
      </trkpt>
      <trkpt lat="44.85016" lon="5.20955">
        <ele>692.90478515625</ele>
        <time>2011-05-07T09:42:20Z</time>
      </trkpt>
      <trkpt lat="44.85025" lon="5.20984">
        <ele>698.34118652344</ele>
        <time>2011-05-07T09:42:26Z</time>
      </trkpt>
      <trkpt lat="44.85036" lon="5.21008">
        <ele>708.80554199219</ele>
        <time>2011-05-07T09:42:31Z</time>
      </trkpt>
      <trkpt lat="44.85056" lon="5.2104">
        <ele>725.30841064453</ele>
        <time>2011-05-07T09:42:38Z</time>
      </trkpt>
      <trkpt lat="44.85063" lon="5.21062">
        <ele>728.25048828125</ele>
        <time>2011-05-07T09:42:42Z</time>
      </trkpt>
      <trkpt lat="44.85066" lon="5.21087">
        <ele>727.52490234375</ele>
        <time>2011-05-07T09:42:46Z</time>
      </trkpt>
      <trkpt lat="44.85062" lon="5.21139">
        <ele>719.46240234375</ele>
        <time>2011-05-07T09:42:54Z</time>
      </trkpt>
      <trkpt lat="44.85059" lon="5.21151">
        <ele>715.17846679688</ele>
        <time>2011-05-07T09:42:56Z</time>
      </trkpt>
      <trkpt lat="44.85036" lon="5.21202">
        <ele>694.94396972656</ele>
        <time>2011-05-07T09:43:05Z</time>
      </trkpt>
      <trkpt lat="44.85012" lon="5.21266">
        <ele>676.13854980469</ele>
        <time>2011-05-07T09:43:15Z</time>
      </trkpt>
      <trkpt lat="44.85001" lon="5.21298">
        <ele>668.12359619141</ele>
        <time>2011-05-07T09:43:20Z</time>
      </trkpt>
      <trkpt lat="44.84999" lon="5.21341">
        <ele>668.17572021484</ele>
        <time>2011-05-07T09:43:26Z</time>
      </trkpt>
      <trkpt lat="44.85" lon="5.21349">
        <ele>668.66851806641</ele>
        <time>2011-05-07T09:43:27Z</time>
      </trkpt>
      <trkpt lat="44.85015" lon="5.21385">
        <ele>675.13800048828</ele>
        <time>2011-05-07T09:43:33Z</time>
      </trkpt>
      <trkpt lat="44.85038" lon="5.21422">
        <ele>680.34143066406</ele>
        <time>2011-05-07T09:43:41Z</time>
      </trkpt>
      <trkpt lat="44.85065" lon="5.21443">
        <ele>682.18603515625</ele>
        <time>2011-05-07T09:43:48Z</time>
      </trkpt>
      <trkpt lat="44.85091" lon="5.21459">
        <ele>684.32110595703</ele>
        <time>2011-05-07T09:43:55Z</time>
      </trkpt>
      <trkpt lat="44.85105" lon="5.2147">
        <ele>686.06860351562</ele>
        <time>2011-05-07T09:43:59Z</time>
      </trkpt>
      <trkpt lat="44.85132" lon="5.215">
        <ele>686.31390380859</ele>
        <time>2011-05-07T09:44:07Z</time>
      </trkpt>
      <trkpt lat="44.85159" lon="5.21532">
        <ele>684.71649169922</ele>
        <time>2011-05-07T09:44:14Z</time>
      </trkpt>
      <trkpt lat="44.85185" lon="5.21567">
        <ele>683.90905761719</ele>
        <time>2011-05-07T09:44:21Z</time>
      </trkpt>
      <trkpt lat="44.85202" lon="5.21599">
        <ele>681.57763671875</ele>
        <time>2011-05-07T09:44:27Z</time>
      </trkpt>
      <trkpt lat="44.8521" lon="5.21633">
        <ele>680.22241210938</ele>
        <time>2011-05-07T09:44:32Z</time>
      </trkpt>
      <trkpt lat="44.85219" lon="5.21659">
        <ele>680</ele>
        <time>2011-05-07T09:44:36Z</time>
      </trkpt>
      <trkpt lat="44.8525" lon="5.21711">
        <ele>680</ele>
        <time>2011-05-07T09:44:45Z</time>
      </trkpt>
      <trkpt lat="44.85276" lon="5.21752">
        <ele>680</ele>
        <time>2011-05-07T09:44:52Z</time>
      </trkpt>
      <trkpt lat="44.85299" lon="5.21781">
        <ele>680</ele>
        <time>2011-05-07T09:44:58Z</time>
      </trkpt>
      <trkpt lat="44.85323" lon="5.21795">
        <ele>680</ele>
        <time>2011-05-07T09:45:03Z</time>
      </trkpt>
      <trkpt lat="44.85355" lon="5.21806">
        <ele>680</ele>
        <time>2011-05-07T09:45:09Z</time>
      </trkpt>
      <trkpt lat="44.85395" lon="5.21821">
        <ele>680</ele>
        <time>2011-05-07T09:45:17Z</time>
      </trkpt>
      <trkpt lat="44.8543" lon="5.21843">
        <ele>680</ele>
        <time>2011-05-07T09:45:25Z</time>
      </trkpt>
      <trkpt lat="44.85475" lon="5.21868">
        <ele>686.60632324219</ele>
        <time>2011-05-07T09:45:35Z</time>
      </trkpt>
      <trkpt lat="44.85509" lon="5.2188">
        <ele>687.94818115234</ele>
        <time>2011-05-07T09:45:43Z</time>
      </trkpt>
      <trkpt lat="44.85541" lon="5.21879">
        <ele>690.99450683594</ele>
        <time>2011-05-07T09:45:50Z</time>
      </trkpt>
      <trkpt lat="44.85577" lon="5.21875">
        <ele>699.04870605469</ele>
        <time>2011-05-07T09:45:58Z</time>
      </trkpt>
      <trkpt lat="44.85614" lon="5.21886">
        <ele>702.4365234375</ele>
        <time>2011-05-07T09:46:07Z</time>
      </trkpt>
      <trkpt lat="44.85652" lon="5.219">
        <ele>703.75708007812</ele>
        <time>2011-05-07T09:46:16Z</time>
      </trkpt>
      <trkpt lat="44.85685" lon="5.21912">
        <ele>706.18359375</ele>
        <time>2011-05-07T09:46:24Z</time>
      </trkpt>
      <trkpt lat="44.85728" lon="5.21925">
        <ele>706.77032470703</ele>
        <time>2011-05-07T09:46:34Z</time>
      </trkpt>
      <trkpt lat="44.85768" lon="5.21926">
        <ele>707.81127929688</ele>
        <time>2011-05-07T09:46:43Z</time>
      </trkpt>
      <trkpt lat="44.85796" lon="5.21926">
        <ele>707.4306640625</ele>
        <time>2011-05-07T09:46:50Z</time>
      </trkpt>
      <trkpt lat="44.85821" lon="5.21925">
        <ele>707.11322021484</ele>
        <time>2011-05-07T09:46:57Z</time>
      </trkpt>
      <trkpt lat="44.85844" lon="5.21926">
        <ele>707.32098388672</ele>
        <time>2011-05-07T09:47:03Z</time>
      </trkpt>
      <trkpt lat="44.85876" lon="5.21925">
        <ele>709.06042480469</ele>
        <time>2011-05-07T09:47:11Z</time>
      </trkpt>
      <trkpt lat="44.85902" lon="5.21925">
        <ele>710.96893310547</ele>
        <time>2011-05-07T09:47:17Z</time>
      </trkpt>
      <trkpt lat="44.85938" lon="5.2193">
        <ele>711.36798095703</ele>
        <time>2011-05-07T09:47:26Z</time>
      </trkpt>
      <trkpt lat="44.85972" lon="5.21936">
        <ele>712.40740966797</ele>
        <time>2011-05-07T09:47:34Z</time>
      </trkpt>
      <trkpt lat="44.86019" lon="5.21947">
        <ele>714.13232421875</ele>
        <time>2011-05-07T09:47:45Z</time>
      </trkpt>
      <trkpt lat="44.86052" lon="5.21954">
        <ele>715.75280761719</ele>
        <time>2011-05-07T09:47:53Z</time>
      </trkpt>
      <trkpt lat="44.86088" lon="5.21964">
        <ele>717.19732666016</ele>
        <time>2011-05-07T09:48:02Z</time>
      </trkpt>
      <trkpt lat="44.86126" lon="5.21976">
        <ele>718.52301025391</ele>
        <time>2011-05-07T09:48:11Z</time>
      </trkpt>
      <trkpt lat="44.86162" lon="5.21986">
        <ele>717.54901123047</ele>
        <time>2011-05-07T09:48:20Z</time>
      </trkpt>
      <trkpt lat="44.86199" lon="5.21994">
        <ele>717.72497558594</ele>
        <time>2011-05-07T09:48:29Z</time>
      </trkpt>
      <trkpt lat="44.86226" lon="5.21992">
        <ele>718.41265869141</ele>
        <time>2011-05-07T09:48:36Z</time>
      </trkpt>
      <trkpt lat="44.8625" lon="5.21988">
        <ele>719.453125</ele>
        <time>2011-05-07T09:48:43Z</time>
      </trkpt>
      <trkpt lat="44.86271" lon="5.21983">
        <ele>719.90228271484</ele>
        <time>2011-05-07T09:48:49Z</time>
      </trkpt>
      <trkpt lat="44.86293" lon="5.21979">
        <ele>720</ele>
        <time>2011-05-07T09:48:55Z</time>
      </trkpt>
      <trkpt lat="44.86319" lon="5.21974">
        <ele>720</ele>
        <time>2011-05-07T09:49:02Z</time>
      </trkpt>
      <trkpt lat="44.8635" lon="5.2197">
        <ele>720</ele>
        <time>2011-05-07T09:49:10Z</time>
      </trkpt>
      <trkpt lat="44.86354" lon="5.21969">
        <ele>720</ele>
        <time>2011-05-07T09:49:11Z</time>
      </trkpt>
      <trkpt lat="44.86383" lon="5.21972">
        <ele>720</ele>
        <time>2011-05-07T09:49:18Z</time>
      </trkpt>
      <trkpt lat="44.86414" lon="5.21974">
        <ele>720</ele>
        <time>2011-05-07T09:49:25Z</time>
      </trkpt>
      <trkpt lat="44.86451" lon="5.21971">
        <ele>720</ele>
        <time>2011-05-07T09:49:33Z</time>
      </trkpt>
      <trkpt lat="44.86503" lon="5.2196">
        <ele>721.40704345703</ele>
        <time>2011-05-07T09:49:44Z</time>
      </trkpt>
      <trkpt lat="44.86512" lon="5.2196">
        <ele>721.90490722656</ele>
        <time>2011-05-07T09:49:46Z</time>
      </trkpt>
      <trkpt lat="44.86544" lon="5.21968">
        <ele>722.60980224609</ele>
        <time>2011-05-07T09:49:53Z</time>
      </trkpt>
      <trkpt lat="44.86562" lon="5.21972">
        <ele>723.56945800781</ele>
        <time>2011-05-07T09:49:57Z</time>
      </trkpt>
      <trkpt lat="44.8659" lon="5.21971">
        <ele>725.78497314453</ele>
        <time>2011-05-07T09:50:02Z</time>
      </trkpt>
      <trkpt lat="44.86622" lon="5.21981">
        <ele>726.11608886719</ele>
        <time>2011-05-07T09:50:07Z</time>
      </trkpt>
      <trkpt lat="44.86634" lon="5.21991">
        <ele>725.27301025391</ele>
        <time>2011-05-07T09:50:09Z</time>
      </trkpt>
      <trkpt lat="44.86674" lon="5.22024">
        <ele>727.32354736328</ele>
        <time>2011-05-07T09:50:15Z</time>
      </trkpt>
      <trkpt lat="44.86687" lon="5.22038">
        <ele>727.80120849609</ele>
        <time>2011-05-07T09:50:17Z</time>
      </trkpt>
      <trkpt lat="44.86716" lon="5.22074">
        <ele>726.50390625</ele>
        <time>2011-05-07T09:50:22Z</time>
      </trkpt>
      <trkpt lat="44.86749" lon="5.2211">
        <ele>726.01116943359</ele>
        <time>2011-05-07T09:50:28Z</time>
      </trkpt>
      <trkpt lat="44.86773" lon="5.22132">
        <ele>730.8603515625</ele>
        <time>2011-05-07T09:50:32Z</time>
      </trkpt>
      <trkpt lat="44.86805" lon="5.22149">
        <ele>734.97985839844</ele>
        <time>2011-05-07T09:50:37Z</time>
      </trkpt>
      <trkpt lat="44.86842" lon="5.22157">
        <ele>738.64892578125</ele>
        <time>2011-05-07T09:50:43Z</time>
      </trkpt>
      <trkpt lat="44.86884" lon="5.22159">
        <ele>740</ele>
        <time>2011-05-07T09:50:49Z</time>
      </trkpt>
      <trkpt lat="44.86914" lon="5.2216">
        <ele>740</ele>
        <time>2011-05-07T09:50:55Z</time>
      </trkpt>
      <trkpt lat="44.86933" lon="5.22161">
        <ele>740</ele>
        <time>2011-05-07T09:51:00Z</time>
      </trkpt>
      <trkpt lat="44.86956" lon="5.22163">
        <ele>740</ele>
        <time>2011-05-07T09:51:06Z</time>
      </trkpt>
      <trkpt lat="44.86974" lon="5.2217">
        <ele>740</ele>
        <time>2011-05-07T09:51:11Z</time>
      </trkpt>
      <trkpt lat="44.86993" lon="5.22176">
        <ele>740</ele>
        <time>2011-05-07T09:51:17Z</time>
      </trkpt>
      <trkpt lat="44.87009" lon="5.2218">
        <ele>740.35107421875</ele>
        <time>2011-05-07T09:51:22Z</time>
      </trkpt>
      <trkpt lat="44.87018" lon="5.22181">
        <ele>740.64398193359</ele>
        <time>2011-05-07T09:51:24Z</time>
      </trkpt>
      <trkpt lat="44.87037" lon="5.22187">
        <ele>741.35229492188</ele>
        <time>2011-05-07T09:51:29Z</time>
      </trkpt>
      <trkpt lat="44.87041" lon="5.22187">
        <ele>741.62902832031</ele>
        <time>2011-05-07T09:51:30Z</time>
      </trkpt>
      <trkpt lat="44.87056" lon="5.22191">
        <ele>742.45489501953</ele>
        <time>2011-05-07T09:51:35Z</time>
      </trkpt>
      <trkpt lat="44.87054" lon="5.22183">
        <ele>743.05419921875</ele>
        <time>2011-05-07T09:51:38Z</time>
      </trkpt>
      <trkpt lat="44.87044" lon="5.22186">
        <ele>741.91674804688</ele>
        <time>2011-05-07T09:51:42Z</time>
      </trkpt>
      <trkpt lat="44.8704" lon="5.22187">
        <ele>741.56970214844</ele>
        <time>2011-05-07T09:51:46Z</time>
      </trkpt>
      <trkpt lat="44.87038" lon="5.22177">
        <ele>742.244140625</ele>
        <time>2011-05-07T09:52:20Z</time>
      </trkpt>
      <trkpt lat="44.8704" lon="5.22177">
        <ele>742.41455078125</ele>
        <time>2011-05-07T09:52:23Z</time>
      </trkpt>
      <trkpt lat="44.87035" lon="5.22187">
        <ele>741.19537353516</ele>
        <time>2011-05-07T09:58:49Z</time>
      </trkpt>
      <trkpt lat="44.87029" lon="5.22186">
        <ele>740.70349121094</ele>
        <time>2011-05-07T09:58:52Z</time>
      </trkpt>
      <trkpt lat="44.87006" lon="5.22179">
        <ele>740.2236328125</ele>
        <time>2011-05-07T09:59:00Z</time>
      </trkpt>
      <trkpt lat="44.86988" lon="5.22175">
        <ele>740</ele>
        <time>2011-05-07T09:59:06Z</time>
      </trkpt>
      <trkpt lat="44.8696" lon="5.22163">
        <ele>740</ele>
        <time>2011-05-07T09:59:12Z</time>
      </trkpt>
      <trkpt lat="44.86926" lon="5.22157">
        <ele>740</ele>
        <time>2011-05-07T09:59:17Z</time>
      </trkpt>
      <trkpt lat="44.86902" lon="5.22155">
        <ele>740</ele>
        <time>2011-05-07T09:59:20Z</time>
      </trkpt>
      <trkpt lat="44.86857" lon="5.22151">
        <ele>739.69262695312</ele>
        <time>2011-05-07T09:59:25Z</time>
      </trkpt>
      <trkpt lat="44.8683" lon="5.22148">
        <ele>737.65502929688</ele>
        <time>2011-05-07T09:59:28Z</time>
      </trkpt>
      <trkpt lat="44.86822" lon="5.22147">
        <ele>736.74865722656</ele>
        <time>2011-05-07T09:59:29Z</time>
      </trkpt>
      <trkpt lat="44.86805" lon="5.22145">
        <ele>734.94085693359</ele>
        <time>2011-05-07T09:59:31Z</time>
      </trkpt>
      <trkpt lat="44.86766" lon="5.22125">
        <ele>729.26385498047</ele>
        <time>2011-05-07T09:59:37Z</time>
      </trkpt>
      <trkpt lat="44.86741" lon="5.22101">
        <ele>726.06262207031</ele>
        <time>2011-05-07T09:59:42Z</time>
      </trkpt>
      <trkpt lat="44.8671" lon="5.22068">
        <ele>726.83526611328</ele>
        <time>2011-05-07T09:59:49Z</time>
      </trkpt>
      <trkpt lat="44.86685" lon="5.22035">
        <ele>727.82470703125</ele>
        <time>2011-05-07T09:59:55Z</time>
      </trkpt>
      <trkpt lat="44.86654" lon="5.22004">
        <ele>725.75708007812</ele>
        <time>2011-05-07T10:00:02Z</time>
      </trkpt>
      <trkpt lat="44.86622" lon="5.21978">
        <ele>726.87658691406</ele>
        <time>2011-05-07T10:00:10Z</time>
      </trkpt>
      <trkpt lat="44.86614" lon="5.21972">
        <ele>727.38519287109</ele>
        <time>2011-05-07T10:00:12Z</time>
      </trkpt>
      <trkpt lat="44.86588" lon="5.21965">
        <ele>726.69134521484</ele>
        <time>2011-05-07T10:00:18Z</time>
      </trkpt>
      <trkpt lat="44.8657" lon="5.21966">
        <ele>725.20977783203</ele>
        <time>2011-05-07T10:00:22Z</time>
      </trkpt>
      <trkpt lat="44.86557" lon="5.21966">
        <ele>724.50610351562</ele>
        <time>2011-05-07T10:00:25Z</time>
      </trkpt>
      <trkpt lat="44.8652" lon="5.21957">
        <ele>722.80725097656</ele>
        <time>2011-05-07T10:00:33Z</time>
      </trkpt>
      <trkpt lat="44.86515" lon="5.21956">
        <ele>722.69018554688</ele>
        <time>2011-05-07T10:00:34Z</time>
      </trkpt>
      <trkpt lat="44.86477" lon="5.21959">
        <ele>720.25402832031</ele>
        <time>2011-05-07T10:00:40Z</time>
      </trkpt>
      <trkpt lat="44.8644" lon="5.21967">
        <ele>720</ele>
        <time>2011-05-07T10:00:46Z</time>
      </trkpt>
      <trkpt lat="44.86433" lon="5.21968">
        <ele>720</ele>
        <time>2011-05-07T10:00:47Z</time>
      </trkpt>
      <trkpt lat="44.86414" lon="5.2197">
        <ele>720</ele>
        <time>2011-05-07T10:00:50Z</time>
      </trkpt>
      <trkpt lat="44.86389" lon="5.21968">
        <ele>720</ele>
        <time>2011-05-07T10:00:54Z</time>
      </trkpt>
      <trkpt lat="44.86348" lon="5.21965">
        <ele>720</ele>
        <time>2011-05-07T10:01:01Z</time>
      </trkpt>
      <trkpt lat="44.8633" lon="5.21967">
        <ele>720</ele>
        <time>2011-05-07T10:01:04Z</time>
      </trkpt>
      <trkpt lat="44.86325" lon="5.21967">
        <ele>720</ele>
        <time>2011-05-07T10:01:05Z</time>
      </trkpt>
      <trkpt lat="44.86319" lon="5.21968">
        <ele>720</ele>
        <time>2011-05-07T10:01:06Z</time>
      </trkpt>
      <trkpt lat="44.86278" lon="5.21976">
        <ele>719.99993896484</ele>
        <time>2011-05-07T10:01:12Z</time>
      </trkpt>
      <trkpt lat="44.86229" lon="5.21986">
        <ele>718.73193359375</ele>
        <time>2011-05-07T10:01:18Z</time>
      </trkpt>
      <trkpt lat="44.86201" lon="5.2199">
        <ele>718.15826416016</ele>
        <time>2011-05-07T10:01:21Z</time>
      </trkpt>
      <trkpt lat="44.86173" lon="5.21985">
        <ele>717.83221435547</ele>
        <time>2011-05-07T10:01:24Z</time>
      </trkpt>
      <trkpt lat="44.86104" lon="5.21963">
        <ele>718.20098876953</ele>
        <time>2011-05-07T10:01:31Z</time>
      </trkpt>
      <trkpt lat="44.86074" lon="5.21954">
        <ele>717.34582519531</ele>
        <time>2011-05-07T10:01:34Z</time>
      </trkpt>
      <trkpt lat="44.86064" lon="5.21951">
        <ele>716.90295410156</ele>
        <time>2011-05-07T10:01:35Z</time>
      </trkpt>
      <trkpt lat="44.85981" lon="5.21932">
        <ele>714.16815185547</ele>
        <time>2011-05-07T10:01:43Z</time>
      </trkpt>
      <trkpt lat="44.85925" lon="5.21922">
        <ele>713.32336425781</ele>
        <time>2011-05-07T10:01:49Z</time>
      </trkpt>
      <trkpt lat="44.85872" lon="5.21918">
        <ele>710.49383544922</ele>
        <time>2011-05-07T10:01:55Z</time>
      </trkpt>
      <trkpt lat="44.85844" lon="5.21918">
        <ele>709.02362060547</ele>
        <time>2011-05-07T10:01:58Z</time>
      </trkpt>
      <trkpt lat="44.85778" lon="5.21919">
        <ele>709.38714599609</ele>
        <time>2011-05-07T10:02:05Z</time>
      </trkpt>
      <trkpt lat="44.85717" lon="5.21917">
        <ele>707.67041015625</ele>
        <time>2011-05-07T10:02:11Z</time>
      </trkpt>
      <trkpt lat="44.8566" lon="5.21898">
        <ele>704.56042480469</ele>
        <time>2011-05-07T10:02:17Z</time>
      </trkpt>
      <trkpt lat="44.85625" lon="5.21885">
        <ele>703.3154296875</ele>
        <time>2011-05-07T10:02:21Z</time>
      </trkpt>
      <trkpt lat="44.85582" lon="5.2187">
        <ele>701.05718994141</ele>
        <time>2011-05-07T10:02:26Z</time>
      </trkpt>
      <trkpt lat="44.85527" lon="5.21872">
        <ele>689.59613037109</ele>
        <time>2011-05-07T10:02:32Z</time>
      </trkpt>
      <trkpt lat="44.8548" lon="5.21865">
        <ele>687.06842041016</ele>
        <time>2011-05-07T10:02:37Z</time>
      </trkpt>
      <trkpt lat="44.85453" lon="5.21851">
        <ele>682.48645019531</ele>
        <time>2011-05-07T10:02:40Z</time>
      </trkpt>
      <trkpt lat="44.85392" lon="5.21815">
        <ele>680</ele>
        <time>2011-05-07T10:02:47Z</time>
      </trkpt>
      <trkpt lat="44.85329" lon="5.2179">
        <ele>680</ele>
        <time>2011-05-07T10:02:54Z</time>
      </trkpt>
      <trkpt lat="44.85312" lon="5.21783">
        <ele>680</ele>
        <time>2011-05-07T10:02:56Z</time>
      </trkpt>
      <trkpt lat="44.85281" lon="5.21758">
        <ele>680</ele>
        <time>2011-05-07T10:03:00Z</time>
      </trkpt>
      <trkpt lat="44.85275" lon="5.2175">
        <ele>680</ele>
        <time>2011-05-07T10:03:01Z</time>
      </trkpt>
      <trkpt lat="44.85239" lon="5.21693">
        <ele>680</ele>
        <time>2011-05-07T10:03:08Z</time>
      </trkpt>
      <trkpt lat="44.85214" lon="5.2165">
        <ele>680</ele>
        <time>2011-05-07T10:03:14Z</time>
      </trkpt>
      <trkpt lat="44.85204" lon="5.21609">
        <ele>680.85949707031</ele>
        <time>2011-05-07T10:03:19Z</time>
      </trkpt>
      <trkpt lat="44.85193" lon="5.21578">
        <ele>682.78686523438</ele>
        <time>2011-05-07T10:03:23Z</time>
      </trkpt>
      <trkpt lat="44.85161" lon="5.21533">
        <ele>684.8349609375</ele>
        <time>2011-05-07T10:03:30Z</time>
      </trkpt>
      <trkpt lat="44.85135" lon="5.215">
        <ele>686.55078125</ele>
        <time>2011-05-07T10:03:36Z</time>
      </trkpt>
      <trkpt lat="44.85104" lon="5.21465">
        <ele>686.18536376953</ele>
        <time>2011-05-07T10:03:43Z</time>
      </trkpt>
      <trkpt lat="44.85069" lon="5.2144">
        <ele>682.92248535156</ele>
        <time>2011-05-07T10:03:49Z</time>
      </trkpt>
      <trkpt lat="44.85043" lon="5.21424">
        <ele>681.00750732422</ele>
        <time>2011-05-07T10:03:53Z</time>
      </trkpt>
      <trkpt lat="44.85017" lon="5.21386">
        <ele>676.00994873047</ele>
        <time>2011-05-07T10:03:58Z</time>
      </trkpt>
      <trkpt lat="44.85008" lon="5.21368">
        <ele>672.70953369141</ele>
        <time>2011-05-07T10:04:00Z</time>
      </trkpt>
      <trkpt lat="44.84998" lon="5.21326">
        <ele>667.47265625</ele>
        <time>2011-05-07T10:04:04Z</time>
      </trkpt>
      <trkpt lat="44.85003" lon="5.21285">
        <ele>669.26623535156</ele>
        <time>2011-05-07T10:04:08Z</time>
      </trkpt>
      <trkpt lat="44.85006" lon="5.21276">
        <ele>671.57470703125</ele>
        <time>2011-05-07T10:04:09Z</time>
      </trkpt>
      <trkpt lat="44.8502" lon="5.21242">
        <ele>682.90710449219</ele>
        <time>2011-05-07T10:04:13Z</time>
      </trkpt>
      <trkpt lat="44.8504" lon="5.21186">
        <ele>698.31176757812</ele>
        <time>2011-05-07T10:04:20Z</time>
      </trkpt>
      <trkpt lat="44.8505" lon="5.21167">
        <ele>706.44091796875</ele>
        <time>2011-05-07T10:04:23Z</time>
      </trkpt>
      <trkpt lat="44.85059" lon="5.21146">
        <ele>715.95184326172</ele>
        <time>2011-05-07T10:04:26Z</time>
      </trkpt>
      <trkpt lat="44.85065" lon="5.21096">
        <ele>725.53271484375</ele>
        <time>2011-05-07T10:04:32Z</time>
      </trkpt>
      <trkpt lat="44.85063" lon="5.2106">
        <ele>728.26507568359</ele>
        <time>2011-05-07T10:04:36Z</time>
      </trkpt>
      <trkpt lat="44.8505" lon="5.21026">
        <ele>721.16088867188</ele>
        <time>2011-05-07T10:04:40Z</time>
      </trkpt>
      <trkpt lat="44.85021" lon="5.20968">
        <ele>695.61505126953</ele>
        <time>2011-05-07T10:04:47Z</time>
      </trkpt>
      <trkpt lat="44.85014" lon="5.20918">
        <ele>693.26422119141</ele>
        <time>2011-05-07T10:04:52Z</time>
      </trkpt>
      <trkpt lat="44.85013" lon="5.20907">
        <ele>693.94763183594</ele>
        <time>2011-05-07T10:04:53Z</time>
      </trkpt>
      <trkpt lat="44.8502" lon="5.20864">
        <ele>705.59521484375</ele>
        <time>2011-05-07T10:04:57Z</time>
      </trkpt>
      <trkpt lat="44.8502" lon="5.20817">
        <ele>712.9189453125</ele>
        <time>2011-05-07T10:05:01Z</time>
      </trkpt>
      <trkpt lat="44.85003" lon="5.20787">
        <ele>699.47149658203</ele>
        <time>2011-05-07T10:05:04Z</time>
      </trkpt>
      <trkpt lat="44.84985" lon="5.20776">
        <ele>693.96142578125</ele>
        <time>2011-05-07T10:05:06Z</time>
      </trkpt>
      <trkpt lat="44.84946" lon="5.20759">
        <ele>675.81695556641</ele>
        <time>2011-05-07T10:05:10Z</time>
      </trkpt>
      <trkpt lat="44.84936" lon="5.20734">
        <ele>680.16253662109</ele>
        <time>2011-05-07T10:05:12Z</time>
      </trkpt>
      <trkpt lat="44.84933" lon="5.2072">
        <ele>684.49468994141</ele>
        <time>2011-05-07T10:05:13Z</time>
      </trkpt>
      <trkpt lat="44.84918" lon="5.2068">
        <ele>692.24969482422</ele>
        <time>2011-05-07T10:05:16Z</time>
      </trkpt>
      <trkpt lat="44.849" lon="5.20667">
        <ele>688.98321533203</ele>
        <time>2011-05-07T10:05:18Z</time>
      </trkpt>
      <trkpt lat="44.84849" lon="5.20638">
        <ele>677.87384033203</ele>
        <time>2011-05-07T10:05:23Z</time>
      </trkpt>
      <trkpt lat="44.84823" lon="5.2061">
        <ele>672.75164794922</ele>
        <time>2011-05-07T10:05:26Z</time>
      </trkpt>
      <trkpt lat="44.84818" lon="5.2058">
        <ele>678.34454345703</ele>
        <time>2011-05-07T10:05:28Z</time>
      </trkpt>
      <trkpt lat="44.8482" lon="5.20565">
        <ele>681.89813232422</ele>
        <time>2011-05-07T10:05:29Z</time>
      </trkpt>
      <trkpt lat="44.84818" lon="5.20496">
        <ele>677.37359619141</ele>
        <time>2011-05-07T10:05:34Z</time>
      </trkpt>
      <trkpt lat="44.848" lon="5.20441">
        <ele>675.15777587891</ele>
        <time>2011-05-07T10:05:39Z</time>
      </trkpt>
      <trkpt lat="44.84785" lon="5.20389">
        <ele>690.02734375</ele>
        <time>2011-05-07T10:05:44Z</time>
      </trkpt>
      <trkpt lat="44.84773" lon="5.2036">
        <ele>699.75415039062</ele>
        <time>2011-05-07T10:05:47Z</time>
      </trkpt>
      <trkpt lat="44.84757" lon="5.20339">
        <ele>708.16180419922</ele>
        <time>2011-05-07T10:05:50Z</time>
      </trkpt>
      <trkpt lat="44.84739" lon="5.20298">
        <ele>729.22552490234</ele>
        <time>2011-05-07T10:05:54Z</time>
      </trkpt>
      <trkpt lat="44.84729" lon="5.20246">
        <ele>767.47998046875</ele>
        <time>2011-05-07T10:05:59Z</time>
      </trkpt>
      <trkpt lat="44.84714" lon="5.20205">
        <ele>788.58746337891</ele>
        <time>2011-05-07T10:06:03Z</time>
      </trkpt>
      <trkpt lat="44.84691" lon="5.20147">
        <ele>794.63500976562</ele>
        <time>2011-05-07T10:06:09Z</time>
      </trkpt>
      <trkpt lat="44.84682" lon="5.20099">
        <ele>792.79052734375</ele>
        <time>2011-05-07T10:06:13Z</time>
      </trkpt>
      <trkpt lat="44.84675" lon="5.20017">
        <ele>783.81829833984</ele>
        <time>2011-05-07T10:06:19Z</time>
      </trkpt>
      <trkpt lat="44.84664" lon="5.19957">
        <ele>771.91180419922</ele>
        <time>2011-05-07T10:06:23Z</time>
      </trkpt>
      <trkpt lat="44.84663" lon="5.19943">
        <ele>769.23321533203</ele>
        <time>2011-05-07T10:06:24Z</time>
      </trkpt>
      <trkpt lat="44.84659" lon="5.1992">
        <ele>764.91674804688</ele>
        <time>2011-05-07T10:06:26Z</time>
      </trkpt>
      <trkpt lat="44.8463" lon="5.19857">
        <ele>738.01507568359</ele>
        <time>2011-05-07T10:06:31Z</time>
      </trkpt>
      <trkpt lat="44.84617" lon="5.19833">
        <ele>725.23791503906</ele>
        <time>2011-05-07T10:06:34Z</time>
      </trkpt>
      <trkpt lat="44.84607" lon="5.19817">
        <ele>720.06494140625</ele>
        <time>2011-05-07T10:06:36Z</time>
      </trkpt>
      <trkpt lat="44.84594" lon="5.19752">
        <ele>708.80059814453</ele>
        <time>2011-05-07T10:06:40Z</time>
      </trkpt>
      <trkpt lat="44.84592" lon="5.1974">
        <ele>707.30578613281</ele>
        <time>2011-05-07T10:06:41Z</time>
      </trkpt>
      <trkpt lat="44.84585" lon="5.1965">
        <ele>696.66394042969</ele>
        <time>2011-05-07T10:06:49Z</time>
      </trkpt>
      <trkpt lat="44.84585" lon="5.19609">
        <ele>688.96978759766</ele>
        <time>2011-05-07T10:06:53Z</time>
      </trkpt>
      <trkpt lat="44.84584" lon="5.19543">
        <ele>681.16265869141</ele>
        <time>2011-05-07T10:06:59Z</time>
      </trkpt>
      <trkpt lat="44.84581" lon="5.19494">
        <ele>676.13922119141</ele>
        <time>2011-05-07T10:07:04Z</time>
      </trkpt>
      <trkpt lat="44.84583" lon="5.19487">
        <ele>676.11975097656</ele>
        <time>2011-05-07T10:07:05Z</time>
      </trkpt>
      <trkpt lat="44.84565" lon="5.19455">
        <ele>664.86322021484</ele>
        <time>2011-05-07T10:07:09Z</time>
      </trkpt>
      <trkpt lat="44.84555" lon="5.19438">
        <ele>660</ele>
        <time>2011-05-07T10:07:11Z</time>
      </trkpt>
      <trkpt lat="44.84531" lon="5.19408">
        <ele>660</ele>
        <time>2011-05-07T10:07:15Z</time>
      </trkpt>
      <trkpt lat="44.84491" lon="5.19385">
        <ele>660</ele>
        <time>2011-05-07T10:07:21Z</time>
      </trkpt>
      <trkpt lat="44.8445" lon="5.19361">
        <ele>660</ele>
        <time>2011-05-07T10:07:27Z</time>
      </trkpt>
      <trkpt lat="44.84409" lon="5.19337">
        <ele>660</ele>
        <time>2011-05-07T10:07:33Z</time>
      </trkpt>
      <trkpt lat="44.84394" lon="5.19327">
        <ele>660</ele>
        <time>2011-05-07T10:07:35Z</time>
      </trkpt>
      <trkpt lat="44.84381" lon="5.19314">
        <ele>660</ele>
        <time>2011-05-07T10:07:37Z</time>
      </trkpt>
      <trkpt lat="44.84348" lon="5.19294">
        <ele>660.85015869141</ele>
        <time>2011-05-07T10:07:41Z</time>
      </trkpt>
      <trkpt lat="44.84329" lon="5.19267">
        <ele>660.95349121094</ele>
        <time>2011-05-07T10:07:44Z</time>
      </trkpt>
      <trkpt lat="44.84324" lon="5.19233">
        <ele>664.37866210938</ele>
        <time>2011-05-07T10:07:47Z</time>
      </trkpt>
      <trkpt lat="44.84312" lon="5.19208">
        <ele>664.14208984375</ele>
        <time>2011-05-07T10:07:49Z</time>
      </trkpt>
      <trkpt lat="44.84277" lon="5.19156">
        <ele>659.89678955078</ele>
        <time>2011-05-07T10:07:54Z</time>
      </trkpt>
      <trkpt lat="44.84233" lon="5.19109">
        <ele>655.75524902344</ele>
        <time>2011-05-07T10:08:00Z</time>
      </trkpt>
      <trkpt lat="44.84232" lon="5.19074">
        <ele>655.49114990234</ele>
        <time>2011-05-07T10:08:02Z</time>
      </trkpt>
      <trkpt lat="44.84232" lon="5.19024">
        <ele>654.91760253906</ele>
        <time>2011-05-07T10:08:06Z</time>
      </trkpt>
      <trkpt lat="44.84228" lon="5.18966">
        <ele>652.79638671875</ele>
        <time>2011-05-07T10:08:10Z</time>
      </trkpt>
      <trkpt lat="44.84212" lon="5.18937">
        <ele>651.37109375</ele>
        <time>2011-05-07T10:08:14Z</time>
      </trkpt>
      <trkpt lat="44.84196" lon="5.18916">
        <ele>653.24432373047</ele>
        <time>2011-05-07T10:08:17Z</time>
      </trkpt>
      <trkpt lat="44.84185" lon="5.18902">
        <ele>656.24645996094</ele>
        <time>2011-05-07T10:08:19Z</time>
      </trkpt>
      <trkpt lat="44.84158" lon="5.18893">
        <ele>659.20788574219</ele>
        <time>2011-05-07T10:08:23Z</time>
      </trkpt>
      <trkpt lat="44.84133" lon="5.18906">
        <ele>656.13177490234</ele>
        <time>2011-05-07T10:08:26Z</time>
      </trkpt>
      <trkpt lat="44.84084" lon="5.18937">
        <ele>640.09619140625</ele>
        <time>2011-05-07T10:08:32Z</time>
      </trkpt>
      <trkpt lat="44.84072" lon="5.18946">
        <ele>640</ele>
        <time>2011-05-07T10:08:34Z</time>
      </trkpt>
      <trkpt lat="44.84032" lon="5.18973">
        <ele>640</ele>
        <time>2011-05-07T10:08:39Z</time>
      </trkpt>
      <trkpt lat="44.83991" lon="5.18986">
        <ele>640</ele>
        <time>2011-05-07T10:08:43Z</time>
      </trkpt>
      <trkpt lat="44.83969" lon="5.18951">
        <ele>639.88818359375</ele>
        <time>2011-05-07T10:08:47Z</time>
      </trkpt>
      <trkpt lat="44.83956" lon="5.18935">
        <ele>639.07141113281</ele>
        <time>2011-05-07T10:08:49Z</time>
      </trkpt>
      <trkpt lat="44.83916" lon="5.18901">
        <ele>635.31597900391</ele>
        <time>2011-05-07T10:08:54Z</time>
      </trkpt>
      <trkpt lat="44.83899" lon="5.18893">
        <ele>632.58654785156</ele>
        <time>2011-05-07T10:08:56Z</time>
      </trkpt>
      <trkpt lat="44.8386" lon="5.18881">
        <ele>629.75061035156</ele>
        <time>2011-05-07T10:09:00Z</time>
      </trkpt>
      <trkpt lat="44.83836" lon="5.18848">
        <ele>634.14093017578</ele>
        <time>2011-05-07T10:09:03Z</time>
      </trkpt>
      <trkpt lat="44.83812" lon="5.18834">
        <ele>633.73486328125</ele>
        <time>2011-05-07T10:09:06Z</time>
      </trkpt>
      <trkpt lat="44.8379" lon="5.18731">
        <ele>667.20513916016</ele>
        <time>2011-05-07T10:09:14Z</time>
      </trkpt>
      <trkpt lat="44.83786" lon="5.18708">
        <ele>677.97900390625</ele>
        <time>2011-05-07T10:09:16Z</time>
      </trkpt>
      <trkpt lat="44.83764" lon="5.18671">
        <ele>683.40875244141</ele>
        <time>2011-05-07T10:09:20Z</time>
      </trkpt>
      <trkpt lat="44.83747" lon="5.18669">
        <ele>678.66906738281</ele>
        <time>2011-05-07T10:09:22Z</time>
      </trkpt>
      <trkpt lat="44.83723" lon="5.1868">
        <ele>668.82824707031</ele>
        <time>2011-05-07T10:09:25Z</time>
      </trkpt>
      <trkpt lat="44.83693" lon="5.18704">
        <ele>648.75201416016</ele>
        <time>2011-05-07T10:09:29Z</time>
      </trkpt>
      <trkpt lat="44.83668" lon="5.18716">
        <ele>635.94946289062</ele>
        <time>2011-05-07T10:09:32Z</time>
      </trkpt>
      <trkpt lat="44.83637" lon="5.18717">
        <ele>619.70129394531</ele>
        <time>2011-05-07T10:09:37Z</time>
      </trkpt>
      <trkpt lat="44.83628" lon="5.18715">
        <ele>617.60858154297</ele>
        <time>2011-05-07T10:09:39Z</time>
      </trkpt>
      <trkpt lat="44.83606" lon="5.18718">
        <ele>608.72094726562</ele>
        <time>2011-05-07T10:09:45Z</time>
      </trkpt>
      <trkpt lat="44.83593" lon="5.18719">
        <ele>604.64184570312</ele>
        <time>2011-05-07T10:09:49Z</time>
      </trkpt>
      <trkpt lat="44.83578" lon="5.18721">
        <ele>600.68603515625</ele>
        <time>2011-05-07T10:09:53Z</time>
      </trkpt>
      <trkpt lat="44.83558" lon="5.18721">
        <ele>600.45629882812</ele>
        <time>2011-05-07T10:09:59Z</time>
      </trkpt>
      <trkpt lat="44.83542" lon="5.18721">
        <ele>600.49914550781</ele>
        <time>2011-05-07T10:10:04Z</time>
      </trkpt>
      <trkpt lat="44.83522" lon="5.18731">
        <ele>600</ele>
        <time>2011-05-07T10:10:11Z</time>
      </trkpt>
      <trkpt lat="44.83508" lon="5.18748">
        <ele>600</ele>
        <time>2011-05-07T10:10:16Z</time>
      </trkpt>
      <trkpt lat="44.8349" lon="5.18757">
        <ele>600</ele>
        <time>2011-05-07T10:10:22Z</time>
      </trkpt>
      <trkpt lat="44.83474" lon="5.18755">
        <ele>600</ele>
        <time>2011-05-07T10:10:27Z</time>
      </trkpt>
      <trkpt lat="44.83457" lon="5.18753">
        <ele>600</ele>
        <time>2011-05-07T10:10:32Z</time>
      </trkpt>
      <trkpt lat="44.83447" lon="5.18762">
        <ele>600</ele>
        <time>2011-05-07T10:10:37Z</time>
      </trkpt>
      <trkpt lat="44.83437" lon="5.18783">
        <ele>599.79833984375</ele>
        <time>2011-05-07T10:10:43Z</time>
      </trkpt>
      <trkpt lat="44.8342" lon="5.18801">
        <ele>599.17864990234</ele>
        <time>2011-05-07T10:10:50Z</time>
      </trkpt>
      <trkpt lat="44.83398" lon="5.18818">
        <ele>599.25299072266</ele>
        <time>2011-05-07T10:10:58Z</time>
      </trkpt>
      <trkpt lat="44.83387" lon="5.18826">
        <ele>600.23931884766</ele>
        <time>2011-05-07T10:11:02Z</time>
      </trkpt>
      <trkpt lat="44.83366" lon="5.18847">
        <ele>602.70275878906</ele>
        <time>2011-05-07T10:11:10Z</time>
      </trkpt>
      <trkpt lat="44.83356" lon="5.18871">
        <ele>598.69409179688</ele>
        <time>2011-05-07T10:11:16Z</time>
      </trkpt>
      <trkpt lat="44.83344" lon="5.18899">
        <ele>596.54339599609</ele>
        <time>2011-05-07T10:11:23Z</time>
      </trkpt>
      <trkpt lat="44.83323" lon="5.18924">
        <ele>597.21380615234</ele>
        <time>2011-05-07T10:11:31Z</time>
      </trkpt>
      <trkpt lat="44.83309" lon="5.18946">
        <ele>594.27038574219</ele>
        <time>2011-05-07T10:11:38Z</time>
      </trkpt>
      <trkpt lat="44.83302" lon="5.18957">
        <ele>592.74090576172</ele>
        <time>2011-05-07T10:11:42Z</time>
      </trkpt>
      <trkpt lat="44.83296" lon="5.18949">
        <ele>594.10559082031</ele>
        <time>2011-05-07T10:11:46Z</time>
      </trkpt>
      <trkpt lat="44.83297" lon="5.18945">
        <ele>594.92102050781</ele>
        <time>2011-05-07T10:11:47Z</time>
      </trkpt>
      <trkpt lat="44.83308" lon="5.18923">
        <ele>601.50482177734</ele>
        <time>2011-05-07T10:11:53Z</time>
      </trkpt>
      <trkpt lat="44.83321" lon="5.189">
        <ele>602.68188476562</ele>
        <time>2011-05-07T10:12:00Z</time>
      </trkpt>
      <trkpt lat="44.83316" lon="5.18884">
        <ele>608.60888671875</ele>
        <time>2011-05-07T10:12:04Z</time>
      </trkpt>
      <trkpt lat="44.833" lon="5.18871">
        <ele>618.83135986328</ele>
        <time>2011-05-07T10:12:10Z</time>
      </trkpt>
      <trkpt lat="44.83284" lon="5.18851">
        <ele>627.21350097656</ele>
        <time>2011-05-07T10:12:17Z</time>
      </trkpt>
      <trkpt lat="44.83269" lon="5.18826">
        <ele>636.29064941406</ele>
        <time>2011-05-07T10:12:24Z</time>
      </trkpt>
      <trkpt lat="44.83253" lon="5.18834">
        <ele>635.41925048828</ele>
        <time>2011-05-07T10:12:29Z</time>
      </trkpt>
      <trkpt lat="44.83249" lon="5.18853">
        <ele>627.341796875</ele>
        <time>2011-05-07T10:12:33Z</time>
      </trkpt>
      <trkpt lat="44.83246" lon="5.18888">
        <ele>610.16961669922</ele>
        <time>2011-05-07T10:12:40Z</time>
      </trkpt>
      <trkpt lat="44.83235" lon="5.18908">
        <ele>602.67889404297</ele>
        <time>2011-05-07T10:12:45Z</time>
      </trkpt>
      <trkpt lat="44.8322" lon="5.18911">
        <ele>601.87457275391</ele>
        <time>2011-05-07T10:12:49Z</time>
      </trkpt>
      <trkpt lat="44.8321" lon="5.18898">
        <ele>607.244140625</ele>
        <time>2011-05-07T10:12:53Z</time>
      </trkpt>
      <trkpt lat="44.83204" lon="5.18867">
        <ele>620.43518066406</ele>
        <time>2011-05-07T10:12:59Z</time>
      </trkpt>
      <trkpt lat="44.83197" lon="5.18833">
        <ele>639.44927978516</ele>
        <time>2011-05-07T10:13:06Z</time>
      </trkpt>
      <trkpt lat="44.83184" lon="5.18798">
        <ele>651.1328125</ele>
        <time>2011-05-07T10:13:14Z</time>
      </trkpt>
      <trkpt lat="44.8319" lon="5.18783">
        <ele>657.78643798828</ele>
        <time>2011-05-07T10:13:18Z</time>
      </trkpt>
      <trkpt lat="44.83202" lon="5.18777">
        <ele>659.03210449219</ele>
        <time>2011-05-07T10:13:22Z</time>
      </trkpt>
      <trkpt lat="44.8323" lon="5.18775">
        <ele>656.17572021484</ele>
        <time>2011-05-07T10:13:30Z</time>
      </trkpt>
      <trkpt lat="44.8325" lon="5.1877">
        <ele>655.68920898438</ele>
        <time>2011-05-07T10:13:36Z</time>
      </trkpt>
      <trkpt lat="44.8325" lon="5.18753">
        <ele>659.34600830078</ele>
        <time>2011-05-07T10:13:40Z</time>
      </trkpt>
      <trkpt lat="44.83236" lon="5.18751">
        <ele>661.76708984375</ele>
        <time>2011-05-07T10:13:43Z</time>
      </trkpt>
      <trkpt lat="44.83232" lon="5.1875">
        <ele>662.45007324219</ele>
        <time>2011-05-07T10:13:44Z</time>
      </trkpt>
      <trkpt lat="44.83216" lon="5.18748">
        <ele>665.72003173828</ele>
        <time>2011-05-07T10:13:48Z</time>
      </trkpt>
      <trkpt lat="44.83189" lon="5.18737">
        <ele>673.7060546875</ele>
        <time>2011-05-07T10:13:55Z</time>
      </trkpt>
      <trkpt lat="44.83168" lon="5.18728">
        <ele>677.64050292969</ele>
        <time>2011-05-07T10:14:01Z</time>
      </trkpt>
      <trkpt lat="44.83139" lon="5.18719">
        <ele>681.34838867188</ele>
        <time>2011-05-07T10:14:09Z</time>
      </trkpt>
      <trkpt lat="44.83118" lon="5.18702">
        <ele>688.8671875</ele>
        <time>2011-05-07T10:14:16Z</time>
      </trkpt>
      <trkpt lat="44.83097" lon="5.18683">
        <ele>693.32867431641</ele>
        <time>2011-05-07T10:14:23Z</time>
      </trkpt>
      <trkpt lat="44.83068" lon="5.18664">
        <ele>698.84350585938</ele>
        <time>2011-05-07T10:14:32Z</time>
      </trkpt>
      <trkpt lat="44.83046" lon="5.18654">
        <ele>705.25311279297</ele>
        <time>2011-05-07T10:14:39Z</time>
      </trkpt>
      <trkpt lat="44.8301" lon="5.18646">
        <ele>696.95538330078</ele>
        <time>2011-05-07T10:14:49Z</time>
      </trkpt>
      <trkpt lat="44.8298" lon="5.18642">
        <ele>683.85205078125</ele>
        <time>2011-05-07T10:14:58Z</time>
      </trkpt>
      <trkpt lat="44.82958" lon="5.18638">
        <ele>677.87481689453</ele>
        <time>2011-05-07T10:15:05Z</time>
      </trkpt>
      <trkpt lat="44.82935" lon="5.18634">
        <ele>672.99444580078</ele>
        <time>2011-05-07T10:15:12Z</time>
      </trkpt>
      <trkpt lat="44.82893" lon="5.18631">
        <ele>671.09356689453</ele>
        <time>2011-05-07T10:15:24Z</time>
      </trkpt>
      <trkpt lat="44.82858" lon="5.18634">
        <ele>669.71228027344</ele>
        <time>2011-05-07T10:15:34Z</time>
      </trkpt>
      <trkpt lat="44.8283" lon="5.18635">
        <ele>668.91955566406</ele>
        <time>2011-05-07T10:15:42Z</time>
      </trkpt>
      <trkpt lat="44.82811" lon="5.18641">
        <ele>665.32537841797</ele>
        <time>2011-05-07T10:15:48Z</time>
      </trkpt>
      <trkpt lat="44.82791" lon="5.18652">
        <ele>659.41583251953</ele>
        <time>2011-05-07T10:15:55Z</time>
      </trkpt>
      <trkpt lat="44.82774" lon="5.18642">
        <ele>664.05529785156</ele>
        <time>2011-05-07T10:16:01Z</time>
      </trkpt>
      <trkpt lat="44.82748" lon="5.18615">
        <ele>672.86419677734</ele>
        <time>2011-05-07T10:16:10Z</time>
      </trkpt>
      <trkpt lat="44.82729" lon="5.18594">
        <ele>677.90869140625</ele>
        <time>2011-05-07T10:16:17Z</time>
      </trkpt>
      <trkpt lat="44.82708" lon="5.18579">
        <ele>680.63995361328</ele>
        <time>2011-05-07T10:16:24Z</time>
      </trkpt>
      <trkpt lat="44.82685" lon="5.18558">
        <ele>685.25634765625</ele>
        <time>2011-05-07T10:16:32Z</time>
      </trkpt>
      <trkpt lat="44.82669" lon="5.18548">
        <ele>686.33740234375</ele>
        <time>2011-05-07T10:16:37Z</time>
      </trkpt>
      <trkpt lat="44.82659" lon="5.18557">
        <ele>682.40386962891</ele>
        <time>2011-05-07T10:16:41Z</time>
      </trkpt>
      <trkpt lat="44.8265" lon="5.18582">
        <ele>674.82922363281</ele>
        <time>2011-05-07T10:16:47Z</time>
      </trkpt>
      <trkpt lat="44.82638" lon="5.18615">
        <ele>666.54577636719</ele>
        <time>2011-05-07T10:16:55Z</time>
      </trkpt>
      <trkpt lat="44.82622" lon="5.18629">
        <ele>665.65997314453</ele>
        <time>2011-05-07T10:17:01Z</time>
      </trkpt>
      <trkpt lat="44.82602" lon="5.1863">
        <ele>667.11279296875</ele>
        <time>2011-05-07T10:17:08Z</time>
      </trkpt>
      <trkpt lat="44.82579" lon="5.18631">
        <ele>669.22961425781</ele>
        <time>2011-05-07T10:17:15Z</time>
      </trkpt>
      <trkpt lat="44.82557" lon="5.18629">
        <ele>671.31170654297</ele>
        <time>2011-05-07T10:17:22Z</time>
      </trkpt>
      <trkpt lat="44.82529" lon="5.18628">
        <ele>674.39074707031</ele>
        <time>2011-05-07T10:17:30Z</time>
      </trkpt>
      <trkpt lat="44.82506" lon="5.18632">
        <ele>676.93524169922</ele>
        <time>2011-05-07T10:17:37Z</time>
      </trkpt>
      <trkpt lat="44.82479" lon="5.18631">
        <ele>678.87725830078</ele>
        <time>2011-05-07T10:17:45Z</time>
      </trkpt>
      <trkpt lat="44.82454" lon="5.18618">
        <ele>682.28302001953</ele>
        <time>2011-05-07T10:17:53Z</time>
      </trkpt>
      <trkpt lat="44.82433" lon="5.18601">
        <ele>687.76794433594</ele>
        <time>2011-05-07T10:18:00Z</time>
      </trkpt>
      <trkpt lat="44.82412" lon="5.18585">
        <ele>694.15466308594</ele>
        <time>2011-05-07T10:18:07Z</time>
      </trkpt>
      <trkpt lat="44.82394" lon="5.18576">
        <ele>698.85729980469</ele>
        <time>2011-05-07T10:18:13Z</time>
      </trkpt>
      <trkpt lat="44.82373" lon="5.18569">
        <ele>703.07647705078</ele>
        <time>2011-05-07T10:18:20Z</time>
      </trkpt>
      <trkpt lat="44.82347" lon="5.18564">
        <ele>706.45654296875</ele>
        <time>2011-05-07T10:18:28Z</time>
      </trkpt>
      <trkpt lat="44.82329" lon="5.18555">
        <ele>709.19012451172</ele>
        <time>2011-05-07T10:18:34Z</time>
      </trkpt>
      <trkpt lat="44.82307" lon="5.18532">
        <ele>712.48089599609</ele>
        <time>2011-05-07T10:18:42Z</time>
      </trkpt>
      <trkpt lat="44.82288" lon="5.18524">
        <ele>714.48071289062</ele>
        <time>2011-05-07T10:18:48Z</time>
      </trkpt>
      <trkpt lat="44.8226" lon="5.18516">
        <ele>716.54052734375</ele>
        <time>2011-05-07T10:18:57Z</time>
      </trkpt>
      <trkpt lat="44.82239" lon="5.18512">
        <ele>718.01751708984</ele>
        <time>2011-05-07T10:19:03Z</time>
      </trkpt>
      <trkpt lat="44.82208" lon="5.18509">
        <ele>719.80249023438</ele>
        <time>2011-05-07T10:19:12Z</time>
      </trkpt>
      <trkpt lat="44.82187" lon="5.18509">
        <ele>719.26196289062</ele>
        <time>2011-05-07T10:19:18Z</time>
      </trkpt>
      <trkpt lat="44.82159" lon="5.18503">
        <ele>719.36511230469</ele>
        <time>2011-05-07T10:19:26Z</time>
      </trkpt>
      <trkpt lat="44.82141" lon="5.18496">
        <ele>720.61877441406</ele>
        <time>2011-05-07T10:19:32Z</time>
      </trkpt>
      <trkpt lat="44.82119" lon="5.18483">
        <ele>719.947265625</ele>
        <time>2011-05-07T10:19:39Z</time>
      </trkpt>
      <trkpt lat="44.82098" lon="5.18456">
        <ele>721.43072509766</ele>
        <time>2011-05-07T10:19:47Z</time>
      </trkpt>
      <trkpt lat="44.82095" lon="5.18453">
        <ele>721.84613037109</ele>
        <time>2011-05-07T10:19:48Z</time>
      </trkpt>
      <trkpt lat="44.82076" lon="5.1841">
        <ele>726.63507080078</ele>
        <time>2011-05-07T10:19:56Z</time>
      </trkpt>
      <trkpt lat="44.82064" lon="5.18378">
        <ele>728.75500488281</ele>
        <time>2011-05-07T10:20:01Z</time>
      </trkpt>
      <trkpt lat="44.82042" lon="5.18354">
        <ele>729.21044921875</ele>
        <time>2011-05-07T10:20:06Z</time>
      </trkpt>
      <trkpt lat="44.82037" lon="5.1835">
        <ele>729.16925048828</ele>
        <time>2011-05-07T10:20:07Z</time>
      </trkpt>
      <trkpt lat="44.82014" lon="5.18317">
        <ele>730.85473632812</ele>
        <time>2011-05-07T10:20:13Z</time>
      </trkpt>
      <trkpt lat="44.81985" lon="5.18292">
        <ele>731.41088867188</ele>
        <time>2011-05-07T10:20:19Z</time>
      </trkpt>
      <trkpt lat="44.81945" lon="5.18272">
        <ele>729.67932128906</ele>
        <time>2011-05-07T10:20:26Z</time>
      </trkpt>
      <trkpt lat="44.81919" lon="5.1825">
        <ele>729.22259521484</ele>
        <time>2011-05-07T10:20:31Z</time>
      </trkpt>
      <trkpt lat="44.81907" lon="5.1823">
        <ele>728.58911132812</ele>
        <time>2011-05-07T10:20:34Z</time>
      </trkpt>
      <trkpt lat="44.81901" lon="5.18214">
        <ele>728.81335449219</ele>
        <time>2011-05-07T10:20:36Z</time>
      </trkpt>
      <trkpt lat="44.81882" lon="5.18162">
        <ele>730.57598876953</ele>
        <time>2011-05-07T10:20:43Z</time>
      </trkpt>
      <trkpt lat="44.81872" lon="5.18122">
        <ele>732.15008544922</ele>
        <time>2011-05-07T10:20:48Z</time>
      </trkpt>
      <trkpt lat="44.81859" lon="5.18092">
        <ele>732.12310791016</ele>
        <time>2011-05-07T10:20:52Z</time>
      </trkpt>
      <trkpt lat="44.81824" lon="5.18038">
        <ele>726.92333984375</ele>
        <time>2011-05-07T10:21:00Z</time>
      </trkpt>
      <trkpt lat="44.81798" lon="5.17996">
        <ele>725.87786865234</ele>
        <time>2011-05-07T10:21:06Z</time>
      </trkpt>
      <trkpt lat="44.81793" lon="5.17987">
        <ele>724.69940185547</ele>
        <time>2011-05-07T10:21:07Z</time>
      </trkpt>
      <trkpt lat="44.81784" lon="5.17947">
        <ele>722.48059082031</ele>
        <time>2011-05-07T10:21:11Z</time>
      </trkpt>
      <trkpt lat="44.8179" lon="5.17904">
        <ele>726.91107177734</ele>
        <time>2011-05-07T10:21:15Z</time>
      </trkpt>
      <trkpt lat="44.81799" lon="5.17872">
        <ele>734.33264160156</ele>
        <time>2011-05-07T10:21:18Z</time>
      </trkpt>
      <trkpt lat="44.81794" lon="5.17828">
        <ele>736.27404785156</ele>
        <time>2011-05-07T10:21:22Z</time>
      </trkpt>
      <trkpt lat="44.81789" lon="5.17818">
        <ele>735.62738037109</ele>
        <time>2011-05-07T10:21:23Z</time>
      </trkpt>
      <trkpt lat="44.81765" lon="5.17785">
        <ele>730.32147216797</ele>
        <time>2011-05-07T10:21:27Z</time>
      </trkpt>
      <trkpt lat="44.8175" lon="5.17744">
        <ele>731.30865478516</ele>
        <time>2011-05-07T10:21:31Z</time>
      </trkpt>
      <trkpt lat="44.8175" lon="5.17732">
        <ele>733.94195556641</ele>
        <time>2011-05-07T10:21:32Z</time>
      </trkpt>
      <trkpt lat="44.81741" lon="5.17659">
        <ele>740.14099121094</ele>
        <time>2011-05-07T10:21:38Z</time>
      </trkpt>
      <trkpt lat="44.81733" lon="5.17635">
        <ele>739.02276611328</ele>
        <time>2011-05-07T10:21:40Z</time>
      </trkpt>
      <trkpt lat="44.81709" lon="5.17599">
        <ele>733.08996582031</ele>
        <time>2011-05-07T10:21:44Z</time>
      </trkpt>
      <trkpt lat="44.81675" lon="5.17579">
        <ele>723.9248046875</ele>
        <time>2011-05-07T10:21:48Z</time>
      </trkpt>
      <trkpt lat="44.81658" lon="5.17551">
        <ele>724.93927001953</ele>
        <time>2011-05-07T10:21:51Z</time>
      </trkpt>
      <trkpt lat="44.81651" lon="5.17528">
        <ele>730.50109863281</ele>
        <time>2011-05-07T10:21:53Z</time>
      </trkpt>
      <trkpt lat="44.81636" lon="5.17461">
        <ele>745.36108398438</ele>
        <time>2011-05-07T10:21:59Z</time>
      </trkpt>
      <trkpt lat="44.81617" lon="5.17427">
        <ele>748.67065429688</ele>
        <time>2011-05-07T10:22:03Z</time>
      </trkpt>
      <trkpt lat="44.81587" lon="5.17414">
        <ele>743.611328125</ele>
        <time>2011-05-07T10:22:07Z</time>
      </trkpt>
      <trkpt lat="44.81579" lon="5.17415">
        <ele>741.56329345703</ele>
        <time>2011-05-07T10:22:08Z</time>
      </trkpt>
      <trkpt lat="44.81525" lon="5.17429">
        <ele>723.76434326172</ele>
        <time>2011-05-07T10:22:15Z</time>
      </trkpt>
      <trkpt lat="44.81493" lon="5.17435">
        <ele>714.69128417969</ele>
        <time>2011-05-07T10:22:19Z</time>
      </trkpt>
      <trkpt lat="44.81454" lon="5.17425">
        <ele>710.02783203125</ele>
        <time>2011-05-07T10:22:24Z</time>
      </trkpt>
      <trkpt lat="44.81436" lon="5.17402">
        <ele>712.43804931641</ele>
        <time>2011-05-07T10:22:27Z</time>
      </trkpt>
      <trkpt lat="44.81425" lon="5.17371">
        <ele>716.63427734375</ele>
        <time>2011-05-07T10:22:30Z</time>
      </trkpt>
      <trkpt lat="44.81423" lon="5.17348">
        <ele>721.41040039062</ele>
        <time>2011-05-07T10:22:32Z</time>
      </trkpt>
      <trkpt lat="44.81422" lon="5.17324">
        <ele>728.29803466797</ele>
        <time>2011-05-07T10:22:34Z</time>
      </trkpt>
      <trkpt lat="44.81413" lon="5.17278">
        <ele>736.66497802734</ele>
        <time>2011-05-07T10:22:38Z</time>
      </trkpt>
      <trkpt lat="44.81394" lon="5.17238">
        <ele>740.91589355469</ele>
        <time>2011-05-07T10:22:42Z</time>
      </trkpt>
      <trkpt lat="44.81369" lon="5.17208">
        <ele>737.84228515625</ele>
        <time>2011-05-07T10:22:46Z</time>
      </trkpt>
      <trkpt lat="44.81344" lon="5.17203">
        <ele>729.95617675781</ele>
        <time>2011-05-07T10:22:49Z</time>
      </trkpt>
      <trkpt lat="44.81328" lon="5.17206">
        <ele>724.31280517578</ele>
        <time>2011-05-07T10:22:51Z</time>
      </trkpt>
      <trkpt lat="44.81305" lon="5.17216">
        <ele>717.12365722656</ele>
        <time>2011-05-07T10:22:54Z</time>
      </trkpt>
      <trkpt lat="44.81289" lon="5.17225">
        <ele>712.0693359375</ele>
        <time>2011-05-07T10:22:56Z</time>
      </trkpt>
      <trkpt lat="44.81257" lon="5.17231">
        <ele>706.72808837891</ele>
        <time>2011-05-07T10:23:00Z</time>
      </trkpt>
      <trkpt lat="44.81243" lon="5.1722">
        <ele>706.72320556641</ele>
        <time>2011-05-07T10:23:02Z</time>
      </trkpt>
      <trkpt lat="44.81234" lon="5.17188">
        <ele>710.07177734375</ele>
        <time>2011-05-07T10:23:05Z</time>
      </trkpt>
      <trkpt lat="44.81232" lon="5.17122">
        <ele>716.67248535156</ele>
        <time>2011-05-07T10:23:10Z</time>
      </trkpt>
      <trkpt lat="44.81221" lon="5.17034">
        <ele>723.16162109375</ele>
        <time>2011-05-07T10:23:16Z</time>
      </trkpt>
      <trkpt lat="44.81218" lon="5.17022">
        <ele>723.41418457031</ele>
        <time>2011-05-07T10:23:17Z</time>
      </trkpt>
      <trkpt lat="44.81195" lon="5.16983">
        <ele>721.41296386719</ele>
        <time>2011-05-07T10:23:21Z</time>
      </trkpt>
      <trkpt lat="44.81173" lon="5.16954">
        <ele>719.24664306641</ele>
        <time>2011-05-07T10:23:24Z</time>
      </trkpt>
      <trkpt lat="44.81156" lon="5.16934">
        <ele>716.72613525391</ele>
        <time>2011-05-07T10:23:26Z</time>
      </trkpt>
      <trkpt lat="44.81114" lon="5.16883">
        <ele>704.47601318359</ele>
        <time>2011-05-07T10:23:31Z</time>
      </trkpt>
      <trkpt lat="44.81061" lon="5.16819">
        <ele>694.29968261719</ele>
        <time>2011-05-07T10:23:37Z</time>
      </trkpt>
      <trkpt lat="44.81025" lon="5.16775">
        <ele>687.48992919922</ele>
        <time>2011-05-07T10:23:41Z</time>
      </trkpt>
      <trkpt lat="44.81007" lon="5.16753">
        <ele>684.12707519531</ele>
        <time>2011-05-07T10:23:43Z</time>
      </trkpt>
      <trkpt lat="44.80964" lon="5.16702">
        <ele>676.94006347656</ele>
        <time>2011-05-07T10:23:48Z</time>
      </trkpt>
      <trkpt lat="44.80915" lon="5.16641">
        <ele>669.93640136719</ele>
        <time>2011-05-07T10:23:54Z</time>
      </trkpt>
      <trkpt lat="44.80896" lon="5.16586">
        <ele>662.93334960938</ele>
        <time>2011-05-07T10:23:58Z</time>
      </trkpt>
      <trkpt lat="44.80891" lon="5.16556">
        <ele>660.27606201172</ele>
        <time>2011-05-07T10:24:00Z</time>
      </trkpt>
      <trkpt lat="44.80889" lon="5.16477">
        <ele>657.34851074219</ele>
        <time>2011-05-07T10:24:05Z</time>
      </trkpt>
      <trkpt lat="44.80898" lon="5.164">
        <ele>656.27502441406</ele>
        <time>2011-05-07T10:24:10Z</time>
      </trkpt>
      <trkpt lat="44.809" lon="5.16385">
        <ele>656.24157714844</ele>
        <time>2011-05-07T10:24:11Z</time>
      </trkpt>
      <trkpt lat="44.80904" lon="5.16354">
        <ele>657.64343261719</ele>
        <time>2011-05-07T10:24:13Z</time>
      </trkpt>
      <trkpt lat="44.80897" lon="5.16311">
        <ele>659.89678955078</ele>
        <time>2011-05-07T10:24:16Z</time>
      </trkpt>
      <trkpt lat="44.80878" lon="5.163">
        <ele>654.20910644531</ele>
        <time>2011-05-07T10:24:18Z</time>
      </trkpt>
      <trkpt lat="44.80848" lon="5.16291">
        <ele>648.71673583984</ele>
        <time>2011-05-07T10:24:21Z</time>
      </trkpt>
      <trkpt lat="44.80837" lon="5.16266">
        <ele>648.33911132812</ele>
        <time>2011-05-07T10:24:23Z</time>
      </trkpt>
      <trkpt lat="44.8083" lon="5.16222">
        <ele>648.33184814453</ele>
        <time>2011-05-07T10:24:26Z</time>
      </trkpt>
      <trkpt lat="44.80838" lon="5.16192">
        <ele>644.76098632812</ele>
        <time>2011-05-07T10:24:28Z</time>
      </trkpt>
      <trkpt lat="44.80842" lon="5.16055">
        <ele>633.98846435547</ele>
        <time>2011-05-07T10:24:36Z</time>
      </trkpt>
      <trkpt lat="44.80824" lon="5.15991">
        <ele>617.28002929688</ele>
        <time>2011-05-07T10:24:40Z</time>
      </trkpt>
      <trkpt lat="44.80773" lon="5.15918">
        <ele>599.33776855469</ele>
        <time>2011-05-07T10:24:46Z</time>
      </trkpt>
      <trkpt lat="44.80725" lon="5.15869">
        <ele>612.37182617188</ele>
        <time>2011-05-07T10:24:51Z</time>
      </trkpt>
      <trkpt lat="44.80641" lon="5.15799">
        <ele>622.9833984375</ele>
        <time>2011-05-07T10:24:59Z</time>
      </trkpt>
      <trkpt lat="44.80563" lon="5.1574">
        <ele>615.12719726562</ele>
        <time>2011-05-07T10:25:06Z</time>
      </trkpt>
      <trkpt lat="44.80508" lon="5.15694">
        <ele>611.33972167969</ele>
        <time>2011-05-07T10:25:11Z</time>
      </trkpt>
      <trkpt lat="44.80448" lon="5.15659">
        <ele>603.80786132812</ele>
        <time>2011-05-07T10:25:16Z</time>
      </trkpt>
      <trkpt lat="44.80361" lon="5.15616">
        <ele>595.74810791016</ele>
        <time>2011-05-07T10:25:23Z</time>
      </trkpt>
      <trkpt lat="44.80256" lon="5.15592">
        <ele>597.37121582031</ele>
        <time>2011-05-07T10:25:31Z</time>
      </trkpt>
      <trkpt lat="44.80164" lon="5.15568">
        <ele>598.02569580078</ele>
        <time>2011-05-07T10:25:38Z</time>
      </trkpt>
      <trkpt lat="44.80074" lon="5.15534">
        <ele>591.95764160156</ele>
        <time>2011-05-07T10:25:45Z</time>
      </trkpt>
      <trkpt lat="44.79975" lon="5.15479">
        <ele>575.31042480469</ele>
        <time>2011-05-07T10:25:53Z</time>
      </trkpt>
      <trkpt lat="44.79942" lon="5.1545">
        <ele>565.94940185547</ele>
        <time>2011-05-07T10:25:56Z</time>
      </trkpt>
      <trkpt lat="44.79879" lon="5.15385">
        <ele>546.09771728516</ele>
        <time>2011-05-07T10:26:02Z</time>
      </trkpt>
      <trkpt lat="44.79842" lon="5.1537">
        <ele>543.78656005859</ele>
        <time>2011-05-07T10:26:05Z</time>
      </trkpt>
      <trkpt lat="44.79817" lon="5.15377">
        <ele>549.64636230469</ele>
        <time>2011-05-07T10:26:07Z</time>
      </trkpt>
      <trkpt lat="44.79805" lon="5.15384">
        <ele>553.93786621094</ele>
        <time>2011-05-07T10:26:08Z</time>
      </trkpt>
      <trkpt lat="44.79782" lon="5.15402">
        <ele>561.06103515625</ele>
        <time>2011-05-07T10:26:10Z</time>
      </trkpt>
      <trkpt lat="44.79739" lon="5.15442">
        <ele>568.298828125</ele>
        <time>2011-05-07T10:26:14Z</time>
      </trkpt>
      <trkpt lat="44.79681" lon="5.15483">
        <ele>567.01953125</ele>
        <time>2011-05-07T10:26:19Z</time>
      </trkpt>
      <trkpt lat="44.7966" lon="5.15505">
        <ele>567.54010009766</ele>
        <time>2011-05-07T10:26:21Z</time>
      </trkpt>
      <trkpt lat="44.79637" lon="5.15548">
        <ele>571.16229248047</ele>
        <time>2011-05-07T10:26:24Z</time>
      </trkpt>
      <trkpt lat="44.79632" lon="5.15565">
        <ele>572.78704833984</ele>
        <time>2011-05-07T10:26:25Z</time>
      </trkpt>
      <trkpt lat="44.79625" lon="5.15599">
        <ele>576.55926513672</ele>
        <time>2011-05-07T10:26:27Z</time>
      </trkpt>
      <trkpt lat="44.79626" lon="5.1567">
        <ele>572.22979736328</ele>
        <time>2011-05-07T10:26:31Z</time>
      </trkpt>
      <trkpt lat="44.79639" lon="5.15695">
        <ele>569.76104736328</ele>
        <time>2011-05-07T10:26:33Z</time>
      </trkpt>
      <trkpt lat="44.79646" lon="5.15703">
        <ele>569.78234863281</ele>
        <time>2011-05-07T10:26:34Z</time>
      </trkpt>
      <trkpt lat="44.79652" lon="5.15714">
        <ele>569.82586669922</ele>
        <time>2011-05-07T10:26:36Z</time>
      </trkpt>
      <trkpt lat="44.79647" lon="5.1572">
        <ele>565.6689453125</ele>
        <time>2011-05-07T10:26:38Z</time>
      </trkpt>
      <trkpt lat="44.79636" lon="5.15704">
        <ele>566.03601074219</ele>
        <time>2011-05-07T10:26:41Z</time>
      </trkpt>
      <trkpt lat="44.79623" lon="5.15686">
        <ele>568.64642333984</ele>
        <time>2011-05-07T10:26:44Z</time>
      </trkpt>
      <trkpt lat="44.7961" lon="5.15649">
        <ele>570.88940429688</ele>
        <time>2011-05-07T10:26:48Z</time>
      </trkpt>
      <trkpt lat="44.796" lon="5.15565">
        <ele>565.84844970703</ele>
        <time>2011-05-07T10:26:55Z</time>
      </trkpt>
      <trkpt lat="44.79601" lon="5.15509">
        <ele>557.04107666016</ele>
        <time>2011-05-07T10:26:59Z</time>
      </trkpt>
      <trkpt lat="44.79602" lon="5.15495">
        <ele>555.21179199219</ele>
        <time>2011-05-07T10:27:00Z</time>
      </trkpt>
      <trkpt lat="44.79621" lon="5.15441">
        <ele>549.96612548828</ele>
        <time>2011-05-07T10:27:04Z</time>
      </trkpt>
      <trkpt lat="44.79662" lon="5.15364">
        <ele>540.37121582031</ele>
        <time>2011-05-07T10:27:10Z</time>
      </trkpt>
      <trkpt lat="44.79679" lon="5.15341">
        <ele>538.02661132812</ele>
        <time>2011-05-07T10:27:12Z</time>
      </trkpt>
      <trkpt lat="44.79709" lon="5.15288">
        <ele>527.43048095703</ele>
        <time>2011-05-07T10:27:16Z</time>
      </trkpt>
      <trkpt lat="44.79736" lon="5.15229">
        <ele>512.51416015625</ele>
        <time>2011-05-07T10:27:20Z</time>
      </trkpt>
      <trkpt lat="44.79774" lon="5.15186">
        <ele>501.61743164062</ele>
        <time>2011-05-07T10:27:24Z</time>
      </trkpt>
      <trkpt lat="44.7979" lon="5.15179">
        <ele>495.95529174805</ele>
        <time>2011-05-07T10:27:26Z</time>
      </trkpt>
      <trkpt lat="44.79791" lon="5.15165">
        <ele>488.72973632812</ele>
        <time>2011-05-07T10:27:28Z</time>
      </trkpt>
      <trkpt lat="44.79779" lon="5.15161">
        <ele>490.89071655273</ele>
        <time>2011-05-07T10:27:30Z</time>
      </trkpt>
      <trkpt lat="44.79773" lon="5.15163">
        <ele>493.56628417969</ele>
        <time>2011-05-07T10:27:31Z</time>
      </trkpt>
      <trkpt lat="44.79728" lon="5.15177">
        <ele>504.90551757812</ele>
        <time>2011-05-07T10:27:37Z</time>
      </trkpt>
      <trkpt lat="44.7971" lon="5.15184">
        <ele>507.76443481445</ele>
        <time>2011-05-07T10:27:39Z</time>
      </trkpt>
      <trkpt lat="44.79701" lon="5.15188">
        <ele>509.23651123047</ele>
        <time>2011-05-07T10:27:40Z</time>
      </trkpt>
      <trkpt lat="44.79656" lon="5.15213">
        <ele>514.33514404297</ele>
        <time>2011-05-07T10:27:45Z</time>
      </trkpt>
      <trkpt lat="44.79616" lon="5.15258">
        <ele>522.32800292969</ele>
        <time>2011-05-07T10:27:50Z</time>
      </trkpt>
      <trkpt lat="44.79565" lon="5.15317">
        <ele>526.45434570312</ele>
        <time>2011-05-07T10:27:56Z</time>
      </trkpt>
      <trkpt lat="44.79539" lon="5.15348">
        <ele>525.27648925781</ele>
        <time>2011-05-07T10:27:59Z</time>
      </trkpt>
      <trkpt lat="44.79496" lon="5.15372">
        <ele>521.513671875</ele>
        <time>2011-05-07T10:28:03Z</time>
      </trkpt>
      <trkpt lat="44.79415" lon="5.15392">
        <ele>511.93078613281</ele>
        <time>2011-05-07T10:28:10Z</time>
      </trkpt>
      <trkpt lat="44.79362" lon="5.15421">
        <ele>501.81213378906</ele>
        <time>2011-05-07T10:28:15Z</time>
      </trkpt>
      <trkpt lat="44.79334" lon="5.15436">
        <ele>496.62078857422</ele>
        <time>2011-05-07T10:28:18Z</time>
      </trkpt>
      <trkpt lat="44.79321" lon="5.15423">
        <ele>493.12066650391</ele>
        <time>2011-05-07T10:28:21Z</time>
      </trkpt>
      <trkpt lat="44.79327" lon="5.15405">
        <ele>492.5422668457</ele>
        <time>2011-05-07T10:28:23Z</time>
      </trkpt>
      <trkpt lat="44.79353" lon="5.15337">
        <ele>494.36822509766</ele>
        <time>2011-05-07T10:28:30Z</time>
      </trkpt>
      <trkpt lat="44.79357" lon="5.15326">
        <ele>495.06988525391</ele>
        <time>2011-05-07T10:28:31Z</time>
      </trkpt>
      <trkpt lat="44.79365" lon="5.15303">
        <ele>496.31045532227</ele>
        <time>2011-05-07T10:28:33Z</time>
      </trkpt>
      <trkpt lat="44.79392" lon="5.15248">
        <ele>496.36407470703</ele>
        <time>2011-05-07T10:28:38Z</time>
      </trkpt>
      <trkpt lat="44.79407" lon="5.15229">
        <ele>498.36288452148</ele>
        <time>2011-05-07T10:28:40Z</time>
      </trkpt>
      <trkpt lat="44.79417" lon="5.15189">
        <ele>497.86978149414</ele>
        <time>2011-05-07T10:28:43Z</time>
      </trkpt>
      <trkpt lat="44.79415" lon="5.15175">
        <ele>497.08255004883</ele>
        <time>2011-05-07T10:28:44Z</time>
      </trkpt>
      <trkpt lat="44.79396" lon="5.15153">
        <ele>493.49655151367</ele>
        <time>2011-05-07T10:28:48Z</time>
      </trkpt>
      <trkpt lat="44.79391" lon="5.15172">
        <ele>493.56866455078</ele>
        <time>2011-05-07T10:28:50Z</time>
      </trkpt>
      <trkpt lat="44.79382" lon="5.15198">
        <ele>493.59823608398</ele>
        <time>2011-05-07T10:28:53Z</time>
      </trkpt>
      <trkpt lat="44.79367" lon="5.15204">
        <ele>492.49951171875</ele>
        <time>2011-05-07T10:28:55Z</time>
      </trkpt>
      <trkpt lat="44.79359" lon="5.15204">
        <ele>491.11157226562</ele>
        <time>2011-05-07T10:28:56Z</time>
      </trkpt>
      <trkpt lat="44.79316" lon="5.15205">
        <ele>477.7366027832</ele>
        <time>2011-05-07T10:29:01Z</time>
      </trkpt>
      <trkpt lat="44.79278" lon="5.15207">
        <ele>473.48907470703</ele>
        <time>2011-05-07T10:29:05Z</time>
      </trkpt>
      <trkpt lat="44.79228" lon="5.1521">
        <ele>463.86749267578</ele>
        <time>2011-05-07T10:29:10Z</time>
      </trkpt>
      <trkpt lat="44.79169" lon="5.15239">
        <ele>454.75119018555</ele>
        <time>2011-05-07T10:29:16Z</time>
      </trkpt>
      <trkpt lat="44.7916" lon="5.15246">
        <ele>452.30935668945</ele>
        <time>2011-05-07T10:29:17Z</time>
      </trkpt>
      <trkpt lat="44.79134" lon="5.15287">
        <ele>446.10314941406</ele>
        <time>2011-05-07T10:29:21Z</time>
      </trkpt>
      <trkpt lat="44.79124" lon="5.15298">
        <ele>445.78057861328</ele>
        <time>2011-05-07T10:29:23Z</time>
      </trkpt>
      <trkpt lat="44.7911" lon="5.15287">
        <ele>444.9352722168</ele>
        <time>2011-05-07T10:29:25Z</time>
      </trkpt>
      <trkpt lat="44.79106" lon="5.15276">
        <ele>444.60089111328</ele>
        <time>2011-05-07T10:29:26Z</time>
      </trkpt>
      <trkpt lat="44.79076" lon="5.15231">
        <ele>442.63479614258</ele>
        <time>2011-05-07T10:29:31Z</time>
      </trkpt>
      <trkpt lat="44.79067" lon="5.15225">
        <ele>442.35372924805</ele>
        <time>2011-05-07T10:29:32Z</time>
      </trkpt>
      <trkpt lat="44.79031" lon="5.15199">
        <ele>440.87606811523</ele>
        <time>2011-05-07T10:29:36Z</time>
      </trkpt>
      <trkpt lat="44.78991" lon="5.15191">
        <ele>433.44647216797</ele>
        <time>2011-05-07T10:29:40Z</time>
      </trkpt>
      <trkpt lat="44.78959" lon="5.15187">
        <ele>429.87329101562</ele>
        <time>2011-05-07T10:29:43Z</time>
      </trkpt>
      <trkpt lat="44.78898" lon="5.15148">
        <ele>425.66394042969</ele>
        <time>2011-05-07T10:29:49Z</time>
      </trkpt>
      <trkpt lat="44.78869" lon="5.151">
        <ele>421.00793457031</ele>
        <time>2011-05-07T10:29:53Z</time>
      </trkpt>
      <trkpt lat="44.78867" lon="5.15067">
        <ele>420.53784179688</ele>
        <time>2011-05-07T10:29:55Z</time>
      </trkpt>
      <trkpt lat="44.78878" lon="5.15037">
        <ele>420.80172729492</ele>
        <time>2011-05-07T10:29:57Z</time>
      </trkpt>
      <trkpt lat="44.78902" lon="5.14999">
        <ele>420.47024536133</ele>
        <time>2011-05-07T10:30:00Z</time>
      </trkpt>
      <trkpt lat="44.78963" lon="5.14931">
        <ele>417.05340576172</ele>
        <time>2011-05-07T10:30:06Z</time>
      </trkpt>
      <trkpt lat="44.78983" lon="5.14908">
        <ele>416.15203857422</ele>
        <time>2011-05-07T10:30:08Z</time>
      </trkpt>
      <trkpt lat="44.79016" lon="5.14888">
        <ele>416.54019165039</ele>
        <time>2011-05-07T10:30:11Z</time>
      </trkpt>
      <trkpt lat="44.79038" lon="5.14886">
        <ele>417.67758178711</ele>
        <time>2011-05-07T10:30:14Z</time>
      </trkpt>
      <trkpt lat="44.79033" lon="5.14868">
        <ele>416.79916381836</ele>
        <time>2011-05-07T10:30:16Z</time>
      </trkpt>
      <trkpt lat="44.79018" lon="5.14865">
        <ele>415.47125244141</ele>
        <time>2011-05-07T10:30:18Z</time>
      </trkpt>
      <trkpt lat="44.78959" lon="5.14867">
        <ele>411.91467285156</ele>
        <time>2011-05-07T10:30:25Z</time>
      </trkpt>
      <trkpt lat="44.7894" lon="5.14868">
        <ele>411.30010986328</ele>
        <time>2011-05-07T10:30:27Z</time>
      </trkpt>
      <trkpt lat="44.78902" lon="5.14883">
        <ele>411.06323242188</ele>
        <time>2011-05-07T10:30:31Z</time>
      </trkpt>
      <trkpt lat="44.78885" lon="5.14897">
        <ele>411.78482055664</ele>
        <time>2011-05-07T10:30:33Z</time>
      </trkpt>
      <trkpt lat="44.78839" lon="5.14938">
        <ele>413.74206542969</ele>
        <time>2011-05-07T10:30:38Z</time>
      </trkpt>
      <trkpt lat="44.78831" lon="5.14947">
        <ele>414.21633911133</ele>
        <time>2011-05-07T10:30:39Z</time>
      </trkpt>
      <trkpt lat="44.78773" lon="5.14996">
        <ele>414.70892333984</ele>
        <time>2011-05-07T10:30:45Z</time>
      </trkpt>
      <trkpt lat="44.78759" lon="5.15007">
        <ele>412.69256591797</ele>
        <time>2011-05-07T10:30:47Z</time>
      </trkpt>
      <trkpt lat="44.78748" lon="5.14999">
        <ele>410.72192382812</ele>
        <time>2011-05-07T10:30:50Z</time>
      </trkpt>
      <trkpt lat="44.78754" lon="5.14984">
        <ele>410.0466003418</ele>
        <time>2011-05-07T10:30:52Z</time>
      </trkpt>
      <trkpt lat="44.78761" lon="5.14978">
        <ele>410.55297851562</ele>
        <time>2011-05-07T10:30:53Z</time>
      </trkpt>
      <trkpt lat="44.7878" lon="5.1496">
        <ele>411.91851806641</ele>
        <time>2011-05-07T10:30:56Z</time>
      </trkpt>
      <trkpt lat="44.78812" lon="5.14917">
        <ele>411.22894287109</ele>
        <time>2011-05-07T10:31:01Z</time>
      </trkpt>
      <trkpt lat="44.78818" lon="5.14907">
        <ele>410.01641845703</ele>
        <time>2011-05-07T10:31:02Z</time>
      </trkpt>
      <trkpt lat="44.78844" lon="5.14844">
        <ele>404.47204589844</ele>
        <time>2011-05-07T10:31:07Z</time>
      </trkpt>
      <trkpt lat="44.78854" lon="5.14817">
        <ele>401.94519042969</ele>
        <time>2011-05-07T10:31:09Z</time>
      </trkpt>
      <trkpt lat="44.78902" lon="5.14726">
        <ele>394.33905029297</ele>
        <time>2011-05-07T10:31:16Z</time>
      </trkpt>
      <trkpt lat="44.78909" lon="5.14712">
        <ele>392.95651245117</ele>
        <time>2011-05-07T10:31:17Z</time>
      </trkpt>
      <trkpt lat="44.78939" lon="5.14682">
        <ele>391.23678588867</ele>
        <time>2011-05-07T10:31:20Z</time>
      </trkpt>
      <trkpt lat="44.78951" lon="5.14677">
        <ele>391.58895874023</ele>
        <time>2011-05-07T10:31:21Z</time>
      </trkpt>
      <trkpt lat="44.78979" lon="5.14642">
        <ele>391.14044189453</ele>
        <time>2011-05-07T10:31:24Z</time>
      </trkpt>
      <trkpt lat="44.78984" lon="5.14626">
        <ele>390.58447265625</ele>
        <time>2011-05-07T10:31:25Z</time>
      </trkpt>
      <trkpt lat="44.79007" lon="5.14564">
        <ele>388.88754272461</ele>
        <time>2011-05-07T10:31:29Z</time>
      </trkpt>
      <trkpt lat="44.79007" lon="5.14514">
        <ele>384.68859863281</ele>
        <time>2011-05-07T10:31:32Z</time>
      </trkpt>
      <trkpt lat="44.78991" lon="5.1449">
        <ele>381.56658935547</ele>
        <time>2011-05-07T10:31:34Z</time>
      </trkpt>
      <trkpt lat="44.78971" lon="5.14482">
        <ele>380</ele>
        <time>2011-05-07T10:31:36Z</time>
      </trkpt>
      <trkpt lat="44.78962" lon="5.14483">
        <ele>380</ele>
        <time>2011-05-07T10:31:37Z</time>
      </trkpt>
      <trkpt lat="44.78924" lon="5.14477">
        <ele>380</ele>
        <time>2011-05-07T10:31:42Z</time>
      </trkpt>
      <trkpt lat="44.78918" lon="5.14474">
        <ele>380</ele>
        <time>2011-05-07T10:31:43Z</time>
      </trkpt>
      <trkpt lat="44.78887" lon="5.14455">
        <ele>379.97702026367</ele>
        <time>2011-05-07T10:31:50Z</time>
      </trkpt>
      <trkpt lat="44.7888" lon="5.14451">
        <ele>379.92202758789</ele>
        <time>2011-05-07T10:31:52Z</time>
      </trkpt>
      <trkpt lat="44.78859" lon="5.14441">
        <ele>380.31329345703</ele>
        <time>2011-05-07T10:31:58Z</time>
      </trkpt>
      <trkpt lat="44.78838" lon="5.14433">
        <ele>380.42315673828</ele>
        <time>2011-05-07T10:32:04Z</time>
      </trkpt>
      <trkpt lat="44.78817" lon="5.14425">
        <ele>381.13180541992</ele>
        <time>2011-05-07T10:32:10Z</time>
      </trkpt>
      <trkpt lat="44.78799" lon="5.14412">
        <ele>382.4736328125</ele>
        <time>2011-05-07T10:32:16Z</time>
      </trkpt>
      <trkpt lat="44.78779" lon="5.14396">
        <ele>384.56103515625</ele>
        <time>2011-05-07T10:32:23Z</time>
      </trkpt>
      <trkpt lat="44.78758" lon="5.14381">
        <ele>387.10461425781</ele>
        <time>2011-05-07T10:32:30Z</time>
      </trkpt>
      <trkpt lat="44.78732" lon="5.14372">
        <ele>388.41610717773</ele>
        <time>2011-05-07T10:32:37Z</time>
      </trkpt>
      <trkpt lat="44.78711" lon="5.14375">
        <ele>387.92858886719</ele>
        <time>2011-05-07T10:32:43Z</time>
      </trkpt>
      <trkpt lat="44.7869" lon="5.14384">
        <ele>387.25381469727</ele>
        <time>2011-05-07T10:32:49Z</time>
      </trkpt>
      <trkpt lat="44.78665" lon="5.14396">
        <ele>387.822265625</ele>
        <time>2011-05-07T10:32:56Z</time>
      </trkpt>
      <trkpt lat="44.78633" lon="5.14418">
        <ele>385.43029785156</ele>
        <time>2011-05-07T10:33:05Z</time>
      </trkpt>
      <trkpt lat="44.78617" lon="5.14432">
        <ele>384.06729125977</ele>
        <time>2011-05-07T10:33:10Z</time>
      </trkpt>
      <trkpt lat="44.78597" lon="5.14454">
        <ele>383.39196777344</ele>
        <time>2011-05-07T10:33:16Z</time>
      </trkpt>
      <trkpt lat="44.78571" lon="5.14479">
        <ele>382.45220947266</ele>
        <time>2011-05-07T10:33:24Z</time>
      </trkpt>
      <trkpt lat="44.78542" lon="5.14496">
        <ele>381.79458618164</ele>
        <time>2011-05-07T10:33:32Z</time>
      </trkpt>
      <trkpt lat="44.78516" lon="5.14497">
        <ele>383.68542480469</ele>
        <time>2011-05-07T10:33:39Z</time>
      </trkpt>
      <trkpt lat="44.78492" lon="5.14492">
        <ele>385.60052490234</ele>
        <time>2011-05-07T10:33:45Z</time>
      </trkpt>
      <trkpt lat="44.78454" lon="5.14483">
        <ele>389.53576660156</ele>
        <time>2011-05-07T10:33:53Z</time>
      </trkpt>
      <trkpt lat="44.78416" lon="5.14474">
        <ele>392.66094970703</ele>
        <time>2011-05-07T10:34:00Z</time>
      </trkpt>
      <trkpt lat="44.78363" lon="5.14461">
        <ele>392.38922119141</ele>
        <time>2011-05-07T10:34:09Z</time>
      </trkpt>
      <trkpt lat="44.78316" lon="5.1445">
        <ele>391.16619873047</ele>
        <time>2011-05-07T10:34:17Z</time>
      </trkpt>
      <trkpt lat="44.78299" lon="5.14445">
        <ele>390.73278808594</ele>
        <time>2011-05-07T10:34:20Z</time>
      </trkpt>
      <trkpt lat="44.78272" lon="5.14423">
        <ele>392.66394042969</ele>
        <time>2011-05-07T10:34:25Z</time>
      </trkpt>
      <trkpt lat="44.78268" lon="5.14416">
        <ele>393.3505859375</ele>
        <time>2011-05-07T10:34:26Z</time>
      </trkpt>
      <trkpt lat="44.78254" lon="5.14393">
        <ele>395.71951293945</ele>
        <time>2011-05-07T10:34:29Z</time>
      </trkpt>
      <trkpt lat="44.78228" lon="5.14369">
        <ele>396.01016235352</ele>
        <time>2011-05-07T10:34:33Z</time>
      </trkpt>
      <trkpt lat="44.78196" lon="5.14366">
        <ele>394.58065795898</ele>
        <time>2011-05-07T10:34:37Z</time>
      </trkpt>
      <trkpt lat="44.78154" lon="5.14371">
        <ele>387.38595581055</ele>
        <time>2011-05-07T10:34:42Z</time>
      </trkpt>
      <trkpt lat="44.78114" lon="5.14357">
        <ele>382.81881713867</ele>
        <time>2011-05-07T10:34:47Z</time>
      </trkpt>
      <trkpt lat="44.78085" lon="5.14333">
        <ele>380.37591552734</ele>
        <time>2011-05-07T10:34:51Z</time>
      </trkpt>
      <trkpt lat="44.78071" lon="5.1432">
        <ele>379.38885498047</ele>
        <time>2011-05-07T10:34:53Z</time>
      </trkpt>
      <trkpt lat="44.78056" lon="5.14307">
        <ele>378.00033569336</ele>
        <time>2011-05-07T10:34:55Z</time>
      </trkpt>
      <trkpt lat="44.78048" lon="5.14301">
        <ele>377.82009887695</ele>
        <time>2011-05-07T10:34:56Z</time>
      </trkpt>
      <trkpt lat="44.78041" lon="5.14294">
        <ele>377.74114990234</ele>
        <time>2011-05-07T10:34:57Z</time>
      </trkpt>
      <trkpt lat="44.78019" lon="5.14274">
        <ele>377.63128662109</ele>
        <time>2011-05-07T10:35:00Z</time>
      </trkpt>
      <trkpt lat="44.77985" lon="5.1424">
        <ele>377.62783813477</ele>
        <time>2011-05-07T10:35:05Z</time>
      </trkpt>
      <trkpt lat="44.77959" lon="5.14207">
        <ele>378.39825439453</ele>
        <time>2011-05-07T10:35:09Z</time>
      </trkpt>
      <trkpt lat="44.77917" lon="5.14157">
        <ele>379.67153930664</ele>
        <time>2011-05-07T10:35:15Z</time>
      </trkpt>
      <trkpt lat="44.77882" lon="5.14142">
        <ele>377.90103149414</ele>
        <time>2011-05-07T10:35:19Z</time>
      </trkpt>
      <trkpt lat="44.77844" lon="5.14148">
        <ele>373.15286254883</ele>
        <time>2011-05-07T10:35:23Z</time>
      </trkpt>
      <trkpt lat="44.77774" lon="5.1419">
        <ele>363.03579711914</ele>
        <time>2011-05-07T10:35:31Z</time>
      </trkpt>
      <trkpt lat="44.77716" lon="5.14222">
        <ele>358.99630737305</ele>
        <time>2011-05-07T10:35:38Z</time>
      </trkpt>
      <trkpt lat="44.77689" lon="5.14234">
        <ele>359.08084106445</ele>
        <time>2011-05-07T10:35:41Z</time>
      </trkpt>
      <trkpt lat="44.77652" lon="5.14231">
        <ele>359.33026123047</ele>
        <time>2011-05-07T10:35:45Z</time>
      </trkpt>
      <trkpt lat="44.77593" lon="5.14212">
        <ele>360</ele>
        <time>2011-05-07T10:35:51Z</time>
      </trkpt>
      <trkpt lat="44.77573" lon="5.14205">
        <ele>360</ele>
        <time>2011-05-07T10:35:53Z</time>
      </trkpt>
      <trkpt lat="44.77554" lon="5.14192">
        <ele>360</ele>
        <time>2011-05-07T10:35:55Z</time>
      </trkpt>
      <trkpt lat="44.7752" lon="5.1416">
        <ele>360</ele>
        <time>2011-05-07T10:35:59Z</time>
      </trkpt>
      <trkpt lat="44.7747" lon="5.14108">
        <ele>357.86724853516</ele>
        <time>2011-05-07T10:36:05Z</time>
      </trkpt>
      <trkpt lat="44.77448" lon="5.14078">
        <ele>356.59387207031</ele>
        <time>2011-05-07T10:36:08Z</time>
      </trkpt>
      <trkpt lat="44.77414" lon="5.14047">
        <ele>353.97225952148</ele>
        <time>2011-05-07T10:36:12Z</time>
      </trkpt>
      <trkpt lat="44.77354" lon="5.14013">
        <ele>350.55526733398</ele>
        <time>2011-05-07T10:36:18Z</time>
      </trkpt>
      <trkpt lat="44.77297" lon="5.13977">
        <ele>348.31802368164</ele>
        <time>2011-05-07T10:36:24Z</time>
      </trkpt>
      <trkpt lat="44.77267" lon="5.13965">
        <ele>345.63885498047</ele>
        <time>2011-05-07T10:36:27Z</time>
      </trkpt>
      <trkpt lat="44.77257" lon="5.13963">
        <ele>344.92282104492</ele>
        <time>2011-05-07T10:36:28Z</time>
      </trkpt>
      <trkpt lat="44.77216" lon="5.13951">
        <ele>341.28558349609</ele>
        <time>2011-05-07T10:36:32Z</time>
      </trkpt>
      <trkpt lat="44.77206" lon="5.13948">
        <ele>340.62075805664</ele>
        <time>2011-05-07T10:36:33Z</time>
      </trkpt>
      <trkpt lat="44.77179" lon="5.13931">
        <ele>339.38687133789</ele>
        <time>2011-05-07T10:36:36Z</time>
      </trkpt>
      <trkpt lat="44.77152" lon="5.13917">
        <ele>336.87438964844</ele>
        <time>2011-05-07T10:36:39Z</time>
      </trkpt>
      <trkpt lat="44.77125" lon="5.13905">
        <ele>332.85040283203</ele>
        <time>2011-05-07T10:36:42Z</time>
      </trkpt>
      <trkpt lat="44.77098" lon="5.13892">
        <ele>330.85983276367</ele>
        <time>2011-05-07T10:36:45Z</time>
      </trkpt>
      <trkpt lat="44.77068" lon="5.1386">
        <ele>331.3659362793</ele>
        <time>2011-05-07T10:36:49Z</time>
      </trkpt>
      <trkpt lat="44.77055" lon="5.13822">
        <ele>332.41461181641</ele>
        <time>2011-05-07T10:36:52Z</time>
      </trkpt>
      <trkpt lat="44.77058" lon="5.13792">
        <ele>334.13098144531</ele>
        <time>2011-05-07T10:36:54Z</time>
      </trkpt>
      <trkpt lat="44.77057" lon="5.13747">
        <ele>336.28042602539</ele>
        <time>2011-05-07T10:36:57Z</time>
      </trkpt>
      <trkpt lat="44.77036" lon="5.1371">
        <ele>340.57055664062</ele>
        <time>2011-05-07T10:37:00Z</time>
      </trkpt>
      <trkpt lat="44.77017" lon="5.13695">
        <ele>343.27911376953</ele>
        <time>2011-05-07T10:37:02Z</time>
      </trkpt>
      <trkpt lat="44.76949" lon="5.13663">
        <ele>350.66925048828</ele>
        <time>2011-05-07T10:37:09Z</time>
      </trkpt>
      <trkpt lat="44.76904" lon="5.13653">
        <ele>353.78546142578</ele>
        <time>2011-05-07T10:37:14Z</time>
      </trkpt>
      <trkpt lat="44.76851" lon="5.1365">
        <ele>352.09484863281</ele>
        <time>2011-05-07T10:37:20Z</time>
      </trkpt>
      <trkpt lat="44.76824" lon="5.13651">
        <ele>351.86651611328</ele>
        <time>2011-05-07T10:37:23Z</time>
      </trkpt>
      <trkpt lat="44.76807" lon="5.13654">
        <ele>351.24166870117</ele>
        <time>2011-05-07T10:37:25Z</time>
      </trkpt>
      <trkpt lat="44.76765" lon="5.13667">
        <ele>347.4211730957</ele>
        <time>2011-05-07T10:37:30Z</time>
      </trkpt>
      <trkpt lat="44.76698" lon="5.13699">
        <ele>340.86898803711</ele>
        <time>2011-05-07T10:37:38Z</time>
      </trkpt>
      <trkpt lat="44.76634" lon="5.1373">
        <ele>321.43988037109</ele>
        <time>2011-05-07T10:37:46Z</time>
      </trkpt>
      <trkpt lat="44.76586" lon="5.13752">
        <ele>322.6003112793</ele>
        <time>2011-05-07T10:37:52Z</time>
      </trkpt>
      <trkpt lat="44.76503" lon="5.13791">
        <ele>327.88446044922</ele>
        <time>2011-05-07T10:38:02Z</time>
      </trkpt>
      <trkpt lat="44.76437" lon="5.13815">
        <ele>326.05944824219</ele>
        <time>2011-05-07T10:38:10Z</time>
      </trkpt>
      <trkpt lat="44.76395" lon="5.13816">
        <ele>323.42626953125</ele>
        <time>2011-05-07T10:38:15Z</time>
      </trkpt>
      <trkpt lat="44.76303" lon="5.13809">
        <ele>319.2737121582</ele>
        <time>2011-05-07T10:38:26Z</time>
      </trkpt>
      <trkpt lat="44.76232" lon="5.13805">
        <ele>320.29388427734</ele>
        <time>2011-05-07T10:38:35Z</time>
      </trkpt>
      <trkpt lat="44.7618" lon="5.13803">
        <ele>317.33309936523</ele>
        <time>2011-05-07T10:38:42Z</time>
      </trkpt>
      <trkpt lat="44.76165" lon="5.13801">
        <ele>317.34991455078</ele>
        <time>2011-05-07T10:38:44Z</time>
      </trkpt>
      <trkpt lat="44.76136" lon="5.13786">
        <ele>319.43002319336</ele>
        <time>2011-05-07T10:38:48Z</time>
      </trkpt>
      <trkpt lat="44.76057" lon="5.1372">
        <ele>320.8603515625</ele>
        <time>2011-05-07T10:39:00Z</time>
      </trkpt>
      <trkpt lat="44.76019" lon="5.1368">
        <ele>319.88290405273</ele>
        <time>2011-05-07T10:39:06Z</time>
      </trkpt>
      <trkpt lat="44.75998" lon="5.1364">
        <ele>319.03015136719</ele>
        <time>2011-05-07T10:39:10Z</time>
      </trkpt>
      <trkpt lat="44.75971" lon="5.13557">
        <ele>313.81857299805</ele>
        <time>2011-05-07T10:39:17Z</time>
      </trkpt>
      <trkpt lat="44.75951" lon="5.13472">
        <ele>311.93536376953</ele>
        <time>2011-05-07T10:39:24Z</time>
      </trkpt>
      <trkpt lat="44.75947" lon="5.1346">
        <ele>312.21109008789</ele>
        <time>2011-05-07T10:39:25Z</time>
      </trkpt>
      <trkpt lat="44.75919" lon="5.13416">
        <ele>314.19384765625</ele>
        <time>2011-05-07T10:39:30Z</time>
      </trkpt>
      <trkpt lat="44.75895" lon="5.13405">
        <ele>313.73718261719</ele>
        <time>2011-05-07T10:39:33Z</time>
      </trkpt>
      <trkpt lat="44.75854" lon="5.13395">
        <ele>311.48110961914</ele>
        <time>2011-05-07T10:39:38Z</time>
      </trkpt>
      <trkpt lat="44.7581" lon="5.13387">
        <ele>306.33932495117</ele>
        <time>2011-05-07T10:39:44Z</time>
      </trkpt>
      <trkpt lat="44.75762" lon="5.1337">
        <ele>301.75787353516</ele>
        <time>2011-05-07T10:39:51Z</time>
      </trkpt>
      <trkpt lat="44.75748" lon="5.13363">
        <ele>300</ele>
        <time>2011-05-07T10:39:53Z</time>
      </trkpt>
      <trkpt lat="44.75707" lon="5.13321">
        <ele>300.80819702148</ele>
        <time>2011-05-07T10:40:00Z</time>
      </trkpt>
      <trkpt lat="44.75671" lon="5.13276">
        <ele>300.3483581543</ele>
        <time>2011-05-07T10:40:06Z</time>
      </trkpt>
      <trkpt lat="44.75619" lon="5.13212">
        <ele>300</ele>
        <time>2011-05-07T10:40:15Z</time>
      </trkpt>
      <trkpt lat="44.7557" lon="5.1315">
        <ele>300</ele>
        <time>2011-05-07T10:40:23Z</time>
      </trkpt>
      <trkpt lat="44.75535" lon="5.13105">
        <ele>299.25354003906</ele>
        <time>2011-05-07T10:40:29Z</time>
      </trkpt>
      <trkpt lat="44.75485" lon="5.13044">
        <ele>299.18957519531</ele>
        <time>2011-05-07T10:40:38Z</time>
      </trkpt>
      <trkpt lat="44.7543" lon="5.12986">
        <ele>299.22515869141</ele>
        <time>2011-05-07T10:40:48Z</time>
      </trkpt>
      <trkpt lat="44.75371" lon="5.1293">
        <ele>299.13037109375</ele>
        <time>2011-05-07T10:40:58Z</time>
      </trkpt>
      <trkpt lat="44.75307" lon="5.12871">
        <ele>299.32339477539</ele>
        <time>2011-05-07T10:41:09Z</time>
      </trkpt>
      <trkpt lat="44.75268" lon="5.12835">
        <ele>298.83990478516</ele>
        <time>2011-05-07T10:41:16Z</time>
      </trkpt>
      <trkpt lat="44.75218" lon="5.12789">
        <ele>298.6076965332</ele>
        <time>2011-05-07T10:41:25Z</time>
      </trkpt>
      <trkpt lat="44.75171" lon="5.12745">
        <ele>299.96682739258</ele>
        <time>2011-05-07T10:41:33Z</time>
      </trkpt>
      <trkpt lat="44.75119" lon="5.12696">
        <ele>296.97457885742</ele>
        <time>2011-05-07T10:41:42Z</time>
      </trkpt>
      <trkpt lat="44.75065" lon="5.12646">
        <ele>294.14978027344</ele>
        <time>2011-05-07T10:41:51Z</time>
      </trkpt>
      <trkpt lat="44.75014" lon="5.12606">
        <ele>292.85284423828</ele>
        <time>2011-05-07T10:41:59Z</time>
      </trkpt>
      <trkpt lat="44.7495" lon="5.1257">
        <ele>293.09448242188</ele>
        <time>2011-05-07T10:42:08Z</time>
      </trkpt>
      <trkpt lat="44.7489" lon="5.12537">
        <ele>295.01489257812</ele>
        <time>2011-05-07T10:42:16Z</time>
      </trkpt>
      <trkpt lat="44.74817" lon="5.12508">
        <ele>294.77777099609</ele>
        <time>2011-05-07T10:42:25Z</time>
      </trkpt>
      <trkpt lat="44.74739" lon="5.12487">
        <ele>293.89141845703</ele>
        <time>2011-05-07T10:42:34Z</time>
      </trkpt>
      <trkpt lat="44.74693" lon="5.12475">
        <ele>293.19662475586</ele>
        <time>2011-05-07T10:42:39Z</time>
      </trkpt>
      <trkpt lat="44.74625" lon="5.12452">
        <ele>294.94110107422</ele>
        <time>2011-05-07T10:42:46Z</time>
      </trkpt>
      <trkpt lat="44.74543" lon="5.12421">
        <ele>292.4352722168</ele>
        <time>2011-05-07T10:42:54Z</time>
      </trkpt>
      <trkpt lat="44.74472" lon="5.12398">
        <ele>293.28759765625</ele>
        <time>2011-05-07T10:43:01Z</time>
      </trkpt>
      <trkpt lat="44.74405" lon="5.12382">
        <ele>292.97814941406</ele>
        <time>2011-05-07T10:43:08Z</time>
      </trkpt>
      <trkpt lat="44.74352" lon="5.12368">
        <ele>291.6383972168</ele>
        <time>2011-05-07T10:43:14Z</time>
      </trkpt>
      <trkpt lat="44.7429" lon="5.12352">
        <ele>290.36682128906</ele>
        <time>2011-05-07T10:43:21Z</time>
      </trkpt>
      <trkpt lat="44.7424" lon="5.12328">
        <ele>291.47109985352</ele>
        <time>2011-05-07T10:43:27Z</time>
      </trkpt>
      <trkpt lat="44.74192" lon="5.123">
        <ele>294.42239379883</ele>
        <time>2011-05-07T10:43:33Z</time>
      </trkpt>
      <trkpt lat="44.7413" lon="5.12264">
        <ele>295.93194580078</ele>
        <time>2011-05-07T10:43:41Z</time>
      </trkpt>
      <trkpt lat="44.74072" lon="5.12225">
        <ele>297.48059082031</ele>
        <time>2011-05-07T10:43:49Z</time>
      </trkpt>
      <trkpt lat="44.74021" lon="5.12186">
        <ele>299.67935180664</ele>
        <time>2011-05-07T10:43:56Z</time>
      </trkpt>
      <trkpt lat="44.7394" lon="5.12124">
        <ele>297.5007019043</ele>
        <time>2011-05-07T10:44:07Z</time>
      </trkpt>
      <trkpt lat="44.73875" lon="5.12074">
        <ele>294.90478515625</ele>
        <time>2011-05-07T10:44:16Z</time>
      </trkpt>
      <trkpt lat="44.7383" lon="5.12041">
        <ele>293.87255859375</ele>
        <time>2011-05-07T10:44:22Z</time>
      </trkpt>
      <trkpt lat="44.73816" lon="5.12031">
        <ele>294.19528198242</ele>
        <time>2011-05-07T10:44:24Z</time>
      </trkpt>
      <trkpt lat="44.73757" lon="5.11997">
        <ele>290.27987670898</ele>
        <time>2011-05-07T10:44:32Z</time>
      </trkpt>
      <trkpt lat="44.73691" lon="5.11959">
        <ele>288.59368896484</ele>
        <time>2011-05-07T10:44:41Z</time>
      </trkpt>
      <trkpt lat="44.73614" lon="5.11914">
        <ele>286.42477416992</ele>
        <time>2011-05-07T10:44:51Z</time>
      </trkpt>
      <trkpt lat="44.73555" lon="5.1188">
        <ele>280.95336914062</ele>
        <time>2011-05-07T10:44:58Z</time>
      </trkpt>
      <trkpt lat="44.7353" lon="5.11867">
        <ele>279.81893920898</ele>
        <time>2011-05-07T10:45:01Z</time>
      </trkpt>
      <trkpt lat="44.7346" lon="5.11838">
        <ele>276.3310546875</ele>
        <time>2011-05-07T10:45:09Z</time>
      </trkpt>
      <trkpt lat="44.73406" lon="5.11804">
        <ele>276.08151245117</ele>
        <time>2011-05-07T10:45:15Z</time>
      </trkpt>
      <trkpt lat="44.73323" lon="5.11747">
        <ele>271.67999267578</ele>
        <time>2011-05-07T10:45:24Z</time>
      </trkpt>
      <trkpt lat="44.73288" lon="5.11713">
        <ele>267.42626953125</ele>
        <time>2011-05-07T10:45:28Z</time>
      </trkpt>
      <trkpt lat="44.73265" lon="5.11682">
        <ele>264.99038696289</ele>
        <time>2011-05-07T10:45:31Z</time>
      </trkpt>
      <trkpt lat="44.73192" lon="5.11583">
        <ele>260.01449584961</ele>
        <time>2011-05-07T10:45:41Z</time>
      </trkpt>
      <trkpt lat="44.73139" lon="5.11511">
        <ele>260.03463745117</ele>
        <time>2011-05-07T10:45:49Z</time>
      </trkpt>
      <trkpt lat="44.7309" lon="5.11442">
        <ele>260.15075683594</ele>
        <time>2011-05-07T10:45:57Z</time>
      </trkpt>
      <trkpt lat="44.73059" lon="5.11379">
        <ele>260.30935668945</ele>
        <time>2011-05-07T10:46:03Z</time>
      </trkpt>
      <trkpt lat="44.73" lon="5.11248">
        <ele>264.13430786133</ele>
        <time>2011-05-07T10:46:15Z</time>
      </trkpt>
      <trkpt lat="44.72967" lon="5.11172">
        <ele>265.96374511719</ele>
        <time>2011-05-07T10:46:22Z</time>
      </trkpt>
      <trkpt lat="44.72924" lon="5.11077">
        <ele>265.13497924805</ele>
        <time>2011-05-07T10:46:31Z</time>
      </trkpt>
      <trkpt lat="44.72892" lon="5.11004">
        <ele>265.05072021484</ele>
        <time>2011-05-07T10:46:38Z</time>
      </trkpt>
      <trkpt lat="44.72865" lon="5.10943">
        <ele>265.39636230469</ele>
        <time>2011-05-07T10:46:44Z</time>
      </trkpt>
      <trkpt lat="44.72829" lon="5.10863">
        <ele>267.92416381836</ele>
        <time>2011-05-07T10:46:52Z</time>
      </trkpt>
      <trkpt lat="44.72789" lon="5.10774">
        <ele>274.52719116211</ele>
        <time>2011-05-07T10:47:01Z</time>
      </trkpt>
      <trkpt lat="44.72739" lon="5.10661">
        <ele>272.63641357422</ele>
        <time>2011-05-07T10:47:12Z</time>
      </trkpt>
      <trkpt lat="44.72705" lon="5.10587">
        <ele>274.24472045898</ele>
        <time>2011-05-07T10:47:19Z</time>
      </trkpt>
      <trkpt lat="44.72684" lon="5.10532">
        <ele>272.45132446289</ele>
        <time>2011-05-07T10:47:24Z</time>
      </trkpt>
      <trkpt lat="44.72659" lon="5.10462">
        <ele>262.45074462891</ele>
        <time>2011-05-07T10:47:30Z</time>
      </trkpt>
      <trkpt lat="44.72619" lon="5.10383">
        <ele>261</ele>
        <time>2011-05-07T10:47:37Z</time>
      </trkpt>
      <trkpt lat="44.72583" lon="5.10337">
        <ele>260.13955688477</ele>
        <time>2011-05-07T10:47:42Z</time>
      </trkpt>
      <trkpt lat="44.72554" lon="5.10286">
        <ele>260</ele>
        <time>2011-05-07T10:47:47Z</time>
      </trkpt>
      <trkpt lat="44.72482" lon="5.10146">
        <ele>255.45317077637</ele>
        <time>2011-05-07T10:48:00Z</time>
      </trkpt>
      <trkpt lat="44.7243" lon="5.10052">
        <ele>240</ele>
        <time>2011-05-07T10:48:09Z</time>
      </trkpt>
      <trkpt lat="44.72393" lon="5.10005">
        <ele>240</ele>
        <time>2011-05-07T10:48:14Z</time>
      </trkpt>
      <trkpt lat="44.72335" lon="5.09934">
        <ele>240</ele>
        <time>2011-05-07T10:48:22Z</time>
      </trkpt>
      <trkpt lat="44.72266" lon="5.09846">
        <ele>240</ele>
        <time>2011-05-07T10:48:31Z</time>
      </trkpt>
      <trkpt lat="44.72196" lon="5.09758">
        <ele>240</ele>
        <time>2011-05-07T10:48:40Z</time>
      </trkpt>
      <trkpt lat="44.72121" lon="5.09654">
        <ele>240</ele>
        <time>2011-05-07T10:48:50Z</time>
      </trkpt>
      <trkpt lat="44.72099" lon="5.09602">
        <ele>240</ele>
        <time>2011-05-07T10:48:54Z</time>
      </trkpt>
      <trkpt lat="44.72095" lon="5.09587">
        <ele>240</ele>
        <time>2011-05-07T10:48:55Z</time>
      </trkpt>
      <trkpt lat="44.72085" lon="5.09544">
        <ele>240</ele>
        <time>2011-05-07T10:48:58Z</time>
      </trkpt>
      <trkpt lat="44.72058" lon="5.09486">
        <ele>240</ele>
        <time>2011-05-07T10:49:03Z</time>
      </trkpt>
      <trkpt lat="44.7205" lon="5.09477">
        <ele>240</ele>
        <time>2011-05-07T10:49:04Z</time>
      </trkpt>
      <trkpt lat="44.71959" lon="5.09383">
        <ele>240</ele>
        <time>2011-05-07T10:49:16Z</time>
      </trkpt>
      <trkpt lat="44.71889" lon="5.09312">
        <ele>240</ele>
        <time>2011-05-07T10:49:26Z</time>
      </trkpt>
      <trkpt lat="44.71823" lon="5.09244">
        <ele>240</ele>
        <time>2011-05-07T10:49:36Z</time>
      </trkpt>
      <trkpt lat="44.71778" lon="5.09194">
        <ele>240</ele>
        <time>2011-05-07T10:49:43Z</time>
      </trkpt>
      <trkpt lat="44.71735" lon="5.09149">
        <ele>238.94750976562</ele>
        <time>2011-05-07T10:49:49Z</time>
      </trkpt>
      <trkpt lat="44.71693" lon="5.09103">
        <ele>235.90841674805</ele>
        <time>2011-05-07T10:49:55Z</time>
      </trkpt>
      <trkpt lat="44.71645" lon="5.09052">
        <ele>236.51007080078</ele>
        <time>2011-05-07T10:50:02Z</time>
      </trkpt>
      <trkpt lat="44.71603" lon="5.09006">
        <ele>237.47785949707</ele>
        <time>2011-05-07T10:50:08Z</time>
      </trkpt>
      <trkpt lat="44.71552" lon="5.08953">
        <ele>238.55682373047</ele>
        <time>2011-05-07T10:50:15Z</time>
      </trkpt>
      <trkpt lat="44.71538" lon="5.08939">
        <ele>238.69931030273</ele>
        <time>2011-05-07T10:50:17Z</time>
      </trkpt>
      <trkpt lat="44.7149" lon="5.08886">
        <ele>239.61293029785</ele>
        <time>2011-05-07T10:50:24Z</time>
      </trkpt>
      <trkpt lat="44.71445" lon="5.08829">
        <ele>239.57666015625</ele>
        <time>2011-05-07T10:50:31Z</time>
      </trkpt>
      <trkpt lat="44.71404" lon="5.08764">
        <ele>240.67611694336</ele>
        <time>2011-05-07T10:50:38Z</time>
      </trkpt>
      <trkpt lat="44.71368" lon="5.08708">
        <ele>242.75357055664</ele>
        <time>2011-05-07T10:50:44Z</time>
      </trkpt>
      <trkpt lat="44.71328" lon="5.08642">
        <ele>240.73435974121</ele>
        <time>2011-05-07T10:50:51Z</time>
      </trkpt>
      <trkpt lat="44.71289" lon="5.0858">
        <ele>233.78170776367</ele>
        <time>2011-05-07T10:50:58Z</time>
      </trkpt>
      <trkpt lat="44.71257" lon="5.0853">
        <ele>221.62908935547</ele>
        <time>2011-05-07T10:51:04Z</time>
      </trkpt>
      <trkpt lat="44.71249" lon="5.08518">
        <ele>219.6153717041</ele>
        <time>2011-05-07T10:51:06Z</time>
      </trkpt>
      <trkpt lat="44.71246" lon="5.08513">
        <ele>219.21197509766</ele>
        <time>2011-05-07T10:51:07Z</time>
      </trkpt>
      <trkpt lat="44.71244" lon="5.08486">
        <ele>218.17237854004</ele>
        <time>2011-05-07T10:51:11Z</time>
      </trkpt>
      <trkpt lat="44.71244" lon="5.08453">
        <ele>218.50224304199</ele>
        <time>2011-05-07T10:51:15Z</time>
      </trkpt>
      <trkpt lat="44.71238" lon="5.08411">
        <ele>219.89749145508</ele>
        <time>2011-05-07T10:51:20Z</time>
      </trkpt>
      <trkpt lat="44.71225" lon="5.08351">
        <ele>221.62387084961</ele>
        <time>2011-05-07T10:51:27Z</time>
      </trkpt>
      <trkpt lat="44.71216" lon="5.0829">
        <ele>220.68630981445</ele>
        <time>2011-05-07T10:51:34Z</time>
      </trkpt>
      <trkpt lat="44.71224" lon="5.08221">
        <ele>220.28617858887</ele>
        <time>2011-05-07T10:51:41Z</time>
      </trkpt>
      <trkpt lat="44.71239" lon="5.08151">
        <ele>218.63069152832</ele>
        <time>2011-05-07T10:51:48Z</time>
      </trkpt>
      <trkpt lat="44.71246" lon="5.08132">
        <ele>219.41737365723</ele>
        <time>2011-05-07T10:51:50Z</time>
      </trkpt>
      <trkpt lat="44.71278" lon="5.08071">
        <ele>221.07656860352</ele>
        <time>2011-05-07T10:51:57Z</time>
      </trkpt>
      <trkpt lat="44.71329" lon="5.0799">
        <ele>220.82582092285</ele>
        <time>2011-05-07T10:52:07Z</time>
      </trkpt>
      <trkpt lat="44.71378" lon="5.07913">
        <ele>214.28302001953</ele>
        <time>2011-05-07T10:52:16Z</time>
      </trkpt>
      <trkpt lat="44.71427" lon="5.07834">
        <ele>203.05851745606</ele>
        <time>2011-05-07T10:52:25Z</time>
      </trkpt>
      <trkpt lat="44.71479" lon="5.07758">
        <ele>199.24523925781</ele>
        <time>2011-05-07T10:52:34Z</time>
      </trkpt>
      <trkpt lat="44.71512" lon="5.07724">
        <ele>200</ele>
        <time>2011-05-07T10:52:39Z</time>
      </trkpt>
      <trkpt lat="44.71532" lon="5.07688">
        <ele>201.83578491211</ele>
        <time>2011-05-07T10:52:43Z</time>
      </trkpt>
      <trkpt lat="44.71538" lon="5.0764">
        <ele>207.52799987793</ele>
        <time>2011-05-07T10:52:47Z</time>
      </trkpt>
      <trkpt lat="44.71536" lon="5.07521">
        <ele>207.52587890625</ele>
        <time>2011-05-07T10:52:56Z</time>
      </trkpt>
      <trkpt lat="44.71536" lon="5.07508">
        <ele>207.52587890625</ele>
        <time>2011-05-07T10:52:57Z</time>
      </trkpt>
      <trkpt lat="44.71534" lon="5.07382">
        <ele>205.94604492188</ele>
        <time>2011-05-07T10:53:06Z</time>
      </trkpt>
      <trkpt lat="44.71529" lon="5.07251">
        <ele>205.13275146484</ele>
        <time>2011-05-07T10:53:16Z</time>
      </trkpt>
      <trkpt lat="44.71516" lon="5.07122">
        <ele>204.79373168945</ele>
        <time>2011-05-07T10:53:26Z</time>
      </trkpt>
      <trkpt lat="44.71508" lon="5.07048">
        <ele>202.89874267578</ele>
        <time>2011-05-07T10:53:32Z</time>
      </trkpt>
      <trkpt lat="44.71499" lon="5.06973">
        <ele>199.03112792969</ele>
        <time>2011-05-07T10:53:38Z</time>
      </trkpt>
      <trkpt lat="44.71493" lon="5.06872">
        <ele>198.60505676269</ele>
        <time>2011-05-07T10:53:46Z</time>
      </trkpt>
      <trkpt lat="44.71496" lon="5.06785">
        <ele>199</ele>
        <time>2011-05-07T10:53:53Z</time>
      </trkpt>
      <trkpt lat="44.715" lon="5.06703">
        <ele>199</ele>
        <time>2011-05-07T10:54:00Z</time>
      </trkpt>
      <trkpt lat="44.71504" lon="5.0662">
        <ele>199.13787841797</ele>
        <time>2011-05-07T10:54:07Z</time>
      </trkpt>
      <trkpt lat="44.71507" lon="5.06558">
        <ele>199.23400878906</ele>
        <time>2011-05-07T10:54:12Z</time>
      </trkpt>
      <trkpt lat="44.71512" lon="5.06419">
        <ele>200</ele>
        <time>2011-05-07T10:54:23Z</time>
      </trkpt>
      <trkpt lat="44.71516" lon="5.06323">
        <ele>200</ele>
        <time>2011-05-07T10:54:31Z</time>
      </trkpt>
      <trkpt lat="44.71521" lon="5.06215">
        <ele>200.53898620606</ele>
        <time>2011-05-07T10:54:40Z</time>
      </trkpt>
      <trkpt lat="44.71526" lon="5.06128">
        <ele>200</ele>
        <time>2011-05-07T10:54:47Z</time>
      </trkpt>
      <trkpt lat="44.71529" lon="5.06101">
        <ele>200</ele>
        <time>2011-05-07T10:54:49Z</time>
      </trkpt>
      <trkpt lat="44.71548" lon="5.06063">
        <ele>200</ele>
        <time>2011-05-07T10:54:53Z</time>
      </trkpt>
      <trkpt lat="44.7156" lon="5.06034">
        <ele>200</ele>
        <time>2011-05-07T10:54:56Z</time>
      </trkpt>
      <trkpt lat="44.71587" lon="5.05961">
        <ele>200</ele>
        <time>2011-05-07T10:55:03Z</time>
      </trkpt>
      <trkpt lat="44.71596" lon="5.0594">
        <ele>200</ele>
        <time>2011-05-07T10:55:05Z</time>
      </trkpt>
      <trkpt lat="44.71626" lon="5.059">
        <ele>200</ele>
        <time>2011-05-07T10:55:10Z</time>
      </trkpt>
      <trkpt lat="44.71656" lon="5.05875">
        <ele>202.26441955566</ele>
        <time>2011-05-07T10:55:15Z</time>
      </trkpt>
      <trkpt lat="44.71671" lon="5.05847">
        <ele>204.94346618652</ele>
        <time>2011-05-07T10:55:19Z</time>
      </trkpt>
      <trkpt lat="44.71674" lon="5.0582">
        <ele>206.75941467285</ele>
        <time>2011-05-07T10:55:22Z</time>
      </trkpt>
      <trkpt lat="44.71679" lon="5.05797">
        <ele>208.91891479492</ele>
        <time>2011-05-07T10:55:25Z</time>
      </trkpt>
      <trkpt lat="44.71672" lon="5.05782">
        <ele>209.25193786621</ele>
        <time>2011-05-07T10:55:29Z</time>
      </trkpt>
      <trkpt lat="44.71653" lon="5.05777">
        <ele>208.05056762695</ele>
        <time>2011-05-07T10:55:33Z</time>
      </trkpt>
      <trkpt lat="44.71648" lon="5.05763">
        <ele>208.16558837891</ele>
        <time>2011-05-07T10:55:36Z</time>
      </trkpt>
      <trkpt lat="44.71647" lon="5.05761">
        <ele>208.19647216797</ele>
        <time>2011-05-07T10:55:38Z</time>
      </trkpt>
      <trkpt lat="44.71644" lon="5.05783">
        <ele>207.01507568359</ele>
        <time>2011-05-07T11:02:19Z</time>
      </trkpt>
      <trkpt lat="44.7166" lon="5.05799">
        <ele>206.99447631836</ele>
        <time>2011-05-07T11:02:25Z</time>
      </trkpt>
      <trkpt lat="44.71664" lon="5.0581">
        <ele>206.51039123535</ele>
        <time>2011-05-07T11:02:28Z</time>
      </trkpt>
      <trkpt lat="44.71667" lon="5.05822">
        <ele>205.84274291992</ele>
        <time>2011-05-07T11:02:31Z</time>
      </trkpt>
      <trkpt lat="44.71665" lon="5.05853">
        <ele>204.14685058594</ele>
        <time>2011-05-07T11:02:37Z</time>
      </trkpt>
      <trkpt lat="44.71663" lon="5.05859">
        <ele>203.84643554688</ele>
        <time>2011-05-07T11:02:38Z</time>
      </trkpt>
      <trkpt lat="44.71666" lon="5.05882">
        <ele>202.46697998047</ele>
        <time>2011-05-07T11:02:42Z</time>
      </trkpt>
      <trkpt lat="44.71673" lon="5.05888">
        <ele>202.74690246582</ele>
        <time>2011-05-07T11:02:44Z</time>
      </trkpt>
      <trkpt lat="44.71703" lon="5.05905">
        <ele>204.56768798828</ele>
        <time>2011-05-07T11:02:51Z</time>
      </trkpt>
      <trkpt lat="44.71738" lon="5.05923">
        <ele>205.12510681152</ele>
        <time>2011-05-07T11:02:59Z</time>
      </trkpt>
      <trkpt lat="44.71759" lon="5.05938">
        <ele>204.71600341797</ele>
        <time>2011-05-07T11:03:04Z</time>
      </trkpt>
      <trkpt lat="44.71768" lon="5.05944">
        <ele>204.03622436523</ele>
        <time>2011-05-07T11:03:06Z</time>
      </trkpt>
      <trkpt lat="44.71804" lon="5.05968">
        <ele>205.25260925293</ele>
        <time>2011-05-07T11:03:13Z</time>
      </trkpt>
      <trkpt lat="44.71839" lon="5.05991">
        <ele>207.00914001465</ele>
        <time>2011-05-07T11:03:19Z</time>
      </trkpt>
      <trkpt lat="44.71892" lon="5.06024">
        <ele>208.6290435791</ele>
        <time>2011-05-07T11:03:28Z</time>
      </trkpt>
      <trkpt lat="44.71947" lon="5.0606">
        <ele>210.42753601074</ele>
        <time>2011-05-07T11:03:37Z</time>
      </trkpt>
      <trkpt lat="44.71981" lon="5.06095">
        <ele>214.05136108398</ele>
        <time>2011-05-07T11:03:43Z</time>
      </trkpt>
      <trkpt lat="44.72022" lon="5.0615">
        <ele>217.10494995117</ele>
        <time>2011-05-07T11:03:51Z</time>
      </trkpt>
      <trkpt lat="44.72047" lon="5.06168">
        <ele>218.69354248047</ele>
        <time>2011-05-07T11:03:55Z</time>
      </trkpt>
      <trkpt lat="44.72103" lon="5.06191">
        <ele>220</ele>
        <time>2011-05-07T11:04:03Z</time>
      </trkpt>
      <trkpt lat="44.72147" lon="5.06223">
        <ele>220</ele>
        <time>2011-05-07T11:04:10Z</time>
      </trkpt>
      <trkpt lat="44.72186" lon="5.06249">
        <ele>220.02020263672</ele>
        <time>2011-05-07T11:04:16Z</time>
      </trkpt>
      <trkpt lat="44.72229" lon="5.06274">
        <ele>222.66259765625</ele>
        <time>2011-05-07T11:04:23Z</time>
      </trkpt>
      <trkpt lat="44.72282" lon="5.06304">
        <ele>224.46768188477</ele>
        <time>2011-05-07T11:04:32Z</time>
      </trkpt>
      <trkpt lat="44.72323" lon="5.06312">
        <ele>226.94001770019</ele>
        <time>2011-05-07T11:04:39Z</time>
      </trkpt>
      <trkpt lat="44.72363" lon="5.06305">
        <ele>230.20300292969</ele>
        <time>2011-05-07T11:04:46Z</time>
      </trkpt>
      <trkpt lat="44.72402" lon="5.06291">
        <ele>233.4782409668</ele>
        <time>2011-05-07T11:04:53Z</time>
      </trkpt>
      <trkpt lat="44.72451" lon="5.06281">
        <ele>236.01196289062</ele>
        <time>2011-05-07T11:05:01Z</time>
      </trkpt>
      <trkpt lat="44.72489" lon="5.06287">
        <ele>236.91146850586</ele>
        <time>2011-05-07T11:05:07Z</time>
      </trkpt>
      <trkpt lat="44.72546" lon="5.06309">
        <ele>237.50698852539</ele>
        <time>2011-05-07T11:05:16Z</time>
      </trkpt>
      <trkpt lat="44.72607" lon="5.06326">
        <ele>239.74455261231</ele>
        <time>2011-05-07T11:05:26Z</time>
      </trkpt>
      <trkpt lat="44.72643" lon="5.06336">
        <ele>243.3621673584</ele>
        <time>2011-05-07T11:05:31Z</time>
      </trkpt>
      <trkpt lat="44.72685" lon="5.0637">
        <ele>245.45401000977</ele>
        <time>2011-05-07T11:05:37Z</time>
      </trkpt>
      <trkpt lat="44.72724" lon="5.06409">
        <ele>248.78338623047</ele>
        <time>2011-05-07T11:05:43Z</time>
      </trkpt>
      <trkpt lat="44.72784" lon="5.0647">
        <ele>249.89726257324</ele>
        <time>2011-05-07T11:05:53Z</time>
      </trkpt>
      <trkpt lat="44.7284" lon="5.06525">
        <ele>251.03366088867</ele>
        <time>2011-05-07T11:06:03Z</time>
      </trkpt>
      <trkpt lat="44.72894" lon="5.06576">
        <ele>251.07278442383</ele>
        <time>2011-05-07T11:06:13Z</time>
      </trkpt>
      <trkpt lat="44.72942" lon="5.06624">
        <ele>248.49670410156</ele>
        <time>2011-05-07T11:06:22Z</time>
      </trkpt>
      <trkpt lat="44.72987" lon="5.06668">
        <ele>246.94659423828</ele>
        <time>2011-05-07T11:06:30Z</time>
      </trkpt>
      <trkpt lat="44.73031" lon="5.06703">
        <ele>252.4178314209</ele>
        <time>2011-05-07T11:06:37Z</time>
      </trkpt>
      <trkpt lat="44.73098" lon="5.06748">
        <ele>255.76728820801</ele>
        <time>2011-05-07T11:06:47Z</time>
      </trkpt>
      <trkpt lat="44.73154" lon="5.06787">
        <ele>251.16996765137</ele>
        <time>2011-05-07T11:06:56Z</time>
      </trkpt>
      <trkpt lat="44.7318" lon="5.06803">
        <ele>248.57518005371</ele>
        <time>2011-05-07T11:07:00Z</time>
      </trkpt>
      <trkpt lat="44.73222" lon="5.06812">
        <ele>251.29647827148</ele>
        <time>2011-05-07T11:07:06Z</time>
      </trkpt>
      <trkpt lat="44.73277" lon="5.06817">
        <ele>257.61706542969</ele>
        <time>2011-05-07T11:07:14Z</time>
      </trkpt>
      <trkpt lat="44.73321" lon="5.06823">
        <ele>263.73852539062</ele>
        <time>2011-05-07T11:07:21Z</time>
      </trkpt>
      <trkpt lat="44.73385" lon="5.06827">
        <ele>268.81930541992</ele>
        <time>2011-05-07T11:07:31Z</time>
      </trkpt>
      <trkpt lat="44.73454" lon="5.06821">
        <ele>273.91998291016</ele>
        <time>2011-05-07T11:07:41Z</time>
      </trkpt>
      <trkpt lat="44.73513" lon="5.06814">
        <ele>272.68786621094</ele>
        <time>2011-05-07T11:07:49Z</time>
      </trkpt>
      <trkpt lat="44.73584" lon="5.06803">
        <ele>265.47448730469</ele>
        <time>2011-05-07T11:07:59Z</time>
      </trkpt>
      <trkpt lat="44.73648" lon="5.0679">
        <ele>260</ele>
        <time>2011-05-07T11:08:08Z</time>
      </trkpt>
      <trkpt lat="44.73688" lon="5.06774">
        <ele>262.35498046875</ele>
        <time>2011-05-07T11:08:14Z</time>
      </trkpt>
      <trkpt lat="44.73753" lon="5.06737">
        <ele>272.41830444336</ele>
        <time>2011-05-07T11:08:25Z</time>
      </trkpt>
      <trkpt lat="44.73797" lon="5.06713">
        <ele>276.03823852539</ele>
        <time>2011-05-07T11:08:32Z</time>
      </trkpt>
      <trkpt lat="44.73845" lon="5.06686">
        <ele>275.18432617188</ele>
        <time>2011-05-07T11:08:40Z</time>
      </trkpt>
      <trkpt lat="44.73894" lon="5.0666">
        <ele>275.14126586914</ele>
        <time>2011-05-07T11:08:48Z</time>
      </trkpt>
      <trkpt lat="44.7392" lon="5.06651">
        <ele>276.35906982422</ele>
        <time>2011-05-07T11:08:52Z</time>
      </trkpt>
      <trkpt lat="44.73985" lon="5.06649">
        <ele>276.09033203125</ele>
        <time>2011-05-07T11:09:01Z</time>
      </trkpt>
      <trkpt lat="44.74049" lon="5.06648">
        <ele>275.10064697266</ele>
        <time>2011-05-07T11:09:10Z</time>
      </trkpt>
      <trkpt lat="44.74114" lon="5.06647">
        <ele>272.26544189453</ele>
        <time>2011-05-07T11:09:19Z</time>
      </trkpt>
      <trkpt lat="44.74182" lon="5.06647">
        <ele>271.22424316406</ele>
        <time>2011-05-07T11:09:28Z</time>
      </trkpt>
      <trkpt lat="44.7424" lon="5.06645">
        <ele>270.57443237305</ele>
        <time>2011-05-07T11:09:36Z</time>
      </trkpt>
      <trkpt lat="44.74319" lon="5.06644">
        <ele>272.64208984375</ele>
        <time>2011-05-07T11:09:47Z</time>
      </trkpt>
      <trkpt lat="44.74388" lon="5.06646">
        <ele>275.39251708984</ele>
        <time>2011-05-07T11:09:57Z</time>
      </trkpt>
      <trkpt lat="44.74454" lon="5.06664">
        <ele>276.04733276367</ele>
        <time>2011-05-07T11:10:07Z</time>
      </trkpt>
      <trkpt lat="44.74512" lon="5.06689">
        <ele>278.40606689453</ele>
        <time>2011-05-07T11:10:16Z</time>
      </trkpt>
      <trkpt lat="44.74562" lon="5.0672">
        <ele>278.87753295898</ele>
        <time>2011-05-07T11:10:24Z</time>
      </trkpt>
      <trkpt lat="44.74614" lon="5.06758">
        <ele>278.470703125</ele>
        <time>2011-05-07T11:10:32Z</time>
      </trkpt>
      <trkpt lat="44.74696" lon="5.06821">
        <ele>279.09442138672</ele>
        <time>2011-05-07T11:10:44Z</time>
      </trkpt>
      <trkpt lat="44.7478" lon="5.06885">
        <ele>282.6637878418</ele>
        <time>2011-05-07T11:10:56Z</time>
      </trkpt>
      <trkpt lat="44.74857" lon="5.06944">
        <ele>286.31640625</ele>
        <time>2011-05-07T11:11:07Z</time>
      </trkpt>
      <trkpt lat="44.74921" lon="5.06993">
        <ele>286.58169555664</ele>
        <time>2011-05-07T11:11:16Z</time>
      </trkpt>
      <trkpt lat="44.74972" lon="5.07023">
        <ele>280.91842651367</ele>
        <time>2011-05-07T11:11:23Z</time>
      </trkpt>
      <trkpt lat="44.7504" lon="5.07044">
        <ele>283.33514404297</ele>
        <time>2011-05-07T11:11:32Z</time>
      </trkpt>
      <trkpt lat="44.7509" lon="5.0706">
        <ele>289.63494873047</ele>
        <time>2011-05-07T11:11:39Z</time>
      </trkpt>
      <trkpt lat="44.75146" lon="5.07078">
        <ele>296.82214355469</ele>
        <time>2011-05-07T11:11:47Z</time>
      </trkpt>
      <trkpt lat="44.75191" lon="5.07101">
        <ele>296.48452758789</ele>
        <time>2011-05-07T11:11:54Z</time>
      </trkpt>
      <trkpt lat="44.75251" lon="5.07146">
        <ele>288.09494018555</ele>
        <time>2011-05-07T11:12:04Z</time>
      </trkpt>
      <trkpt lat="44.75294" lon="5.07178">
        <ele>288.88598632812</ele>
        <time>2011-05-07T11:12:11Z</time>
      </trkpt>
      <trkpt lat="44.75355" lon="5.07222">
        <ele>294.4055480957</ele>
        <time>2011-05-07T11:12:21Z</time>
      </trkpt>
      <trkpt lat="44.75417" lon="5.07268">
        <ele>295.06564331055</ele>
        <time>2011-05-07T11:12:31Z</time>
      </trkpt>
      <trkpt lat="44.7548" lon="5.07314">
        <ele>297.74206542969</ele>
        <time>2011-05-07T11:12:41Z</time>
      </trkpt>
      <trkpt lat="44.75543" lon="5.0736">
        <ele>300</ele>
        <time>2011-05-07T11:12:51Z</time>
      </trkpt>
      <trkpt lat="44.75602" lon="5.07402">
        <ele>300</ele>
        <time>2011-05-07T11:13:00Z</time>
      </trkpt>
      <trkpt lat="44.75655" lon="5.07441">
        <ele>302.33319091797</ele>
        <time>2011-05-07T11:13:08Z</time>
      </trkpt>
      <trkpt lat="44.75711" lon="5.07486">
        <ele>304.73284912109</ele>
        <time>2011-05-07T11:13:17Z</time>
      </trkpt>
      <trkpt lat="44.75768" lon="5.07524">
        <ele>309.525390625</ele>
        <time>2011-05-07T11:13:26Z</time>
      </trkpt>
      <trkpt lat="44.75814" lon="5.07545">
        <ele>310.22946166992</ele>
        <time>2011-05-07T11:13:33Z</time>
      </trkpt>
      <trkpt lat="44.75855" lon="5.07547">
        <ele>312.42599487305</ele>
        <time>2011-05-07T11:13:39Z</time>
      </trkpt>
      <trkpt lat="44.75892" lon="5.0754">
        <ele>315.2490234375</ele>
        <time>2011-05-07T11:13:45Z</time>
      </trkpt>
      <trkpt lat="44.75932" lon="5.07531">
        <ele>317.3805847168</ele>
        <time>2011-05-07T11:13:52Z</time>
      </trkpt>
      <trkpt lat="44.75955" lon="5.07527">
        <ele>318.3938293457</ele>
        <time>2011-05-07T11:13:56Z</time>
      </trkpt>
      <trkpt lat="44.75983" lon="5.07536">
        <ele>319.40344238281</ele>
        <time>2011-05-07T11:14:01Z</time>
      </trkpt>
      <trkpt lat="44.76011" lon="5.07567">
        <ele>320</ele>
        <time>2011-05-07T11:14:07Z</time>
      </trkpt>
      <trkpt lat="44.76014" lon="5.07574">
        <ele>320</ele>
        <time>2011-05-07T11:14:08Z</time>
      </trkpt>
      <trkpt lat="44.76029" lon="5.07615">
        <ele>320.46154785156</ele>
        <time>2011-05-07T11:14:14Z</time>
      </trkpt>
      <trkpt lat="44.76041" lon="5.07653">
        <ele>323.6882019043</ele>
        <time>2011-05-07T11:14:20Z</time>
      </trkpt>
      <trkpt lat="44.76045" lon="5.07664">
        <ele>323.66259765625</ele>
        <time>2011-05-07T11:14:22Z</time>
      </trkpt>
      <trkpt lat="44.76058" lon="5.07698">
        <ele>322.720703125</ele>
        <time>2011-05-07T11:14:28Z</time>
      </trkpt>
      <trkpt lat="44.7608" lon="5.07731">
        <ele>321.28729248047</ele>
        <time>2011-05-07T11:14:35Z</time>
      </trkpt>
      <trkpt lat="44.76117" lon="5.07759">
        <ele>322.61813354492</ele>
        <time>2011-05-07T11:14:44Z</time>
      </trkpt>
      <trkpt lat="44.76154" lon="5.07784">
        <ele>325.02096557617</ele>
        <time>2011-05-07T11:14:52Z</time>
      </trkpt>
      <trkpt lat="44.76192" lon="5.07807">
        <ele>330.3069152832</ele>
        <time>2011-05-07T11:15:00Z</time>
      </trkpt>
      <trkpt lat="44.76223" lon="5.07826">
        <ele>331.34558105469</ele>
        <time>2011-05-07T11:15:07Z</time>
      </trkpt>
      <trkpt lat="44.76251" lon="5.0785">
        <ele>331.30041503906</ele>
        <time>2011-05-07T11:15:14Z</time>
      </trkpt>
      <trkpt lat="44.7628" lon="5.07882">
        <ele>329.10906982422</ele>
        <time>2011-05-07T11:15:22Z</time>
      </trkpt>
      <trkpt lat="44.76283" lon="5.07886">
        <ele>328.75201416016</ele>
        <time>2011-05-07T11:15:23Z</time>
      </trkpt>
      <trkpt lat="44.76309" lon="5.07921">
        <ele>324.59600830078</ele>
        <time>2011-05-07T11:15:31Z</time>
      </trkpt>
      <trkpt lat="44.76316" lon="5.07928">
        <ele>323.95703125</ele>
        <time>2011-05-07T11:15:33Z</time>
      </trkpt>
      <trkpt lat="44.76335" lon="5.07937">
        <ele>323.23629760742</ele>
        <time>2011-05-07T11:15:37Z</time>
      </trkpt>
      <trkpt lat="44.76372" lon="5.07945">
        <ele>327.00720214844</ele>
        <time>2011-05-07T11:15:45Z</time>
      </trkpt>
      <trkpt lat="44.76402" lon="5.07949">
        <ele>328.37026977539</ele>
        <time>2011-05-07T11:15:52Z</time>
      </trkpt>
      <trkpt lat="44.76432" lon="5.07944">
        <ele>332.87896728516</ele>
        <time>2011-05-07T11:15:59Z</time>
      </trkpt>
      <trkpt lat="44.76465" lon="5.07932">
        <ele>338.70007324219</ele>
        <time>2011-05-07T11:16:07Z</time>
      </trkpt>
      <trkpt lat="44.76489" lon="5.07926">
        <ele>343.05627441406</ele>
        <time>2011-05-07T11:16:13Z</time>
      </trkpt>
      <trkpt lat="44.76514" lon="5.07923">
        <ele>345.48034667969</ele>
        <time>2011-05-07T11:16:19Z</time>
      </trkpt>
      <trkpt lat="44.76527" lon="5.07922">
        <ele>345.75671386719</ele>
        <time>2011-05-07T11:16:22Z</time>
      </trkpt>
      <trkpt lat="44.76543" lon="5.07916">
        <ele>347.23229980469</ele>
        <time>2011-05-07T11:16:26Z</time>
      </trkpt>
      <trkpt lat="44.76568" lon="5.07905">
        <ele>352.42834472656</ele>
        <time>2011-05-07T11:16:32Z</time>
      </trkpt>
      <trkpt lat="44.76599" lon="5.07895">
        <ele>357.98529052734</ele>
        <time>2011-05-07T11:16:39Z</time>
      </trkpt>
      <trkpt lat="44.76604" lon="5.07894">
        <ele>358.37905883789</ele>
        <time>2011-05-07T11:16:40Z</time>
      </trkpt>
      <trkpt lat="44.76648" lon="5.07898">
        <ele>359.31042480469</ele>
        <time>2011-05-07T11:16:48Z</time>
      </trkpt>
      <trkpt lat="44.7669" lon="5.07907">
        <ele>359.21325683594</ele>
        <time>2011-05-07T11:16:55Z</time>
      </trkpt>
      <trkpt lat="44.7675" lon="5.07922">
        <ele>357.10797119141</ele>
        <time>2011-05-07T11:17:04Z</time>
      </trkpt>
      <trkpt lat="44.7682" lon="5.0794">
        <ele>359.33511352539</ele>
        <time>2011-05-07T11:17:14Z</time>
      </trkpt>
      <trkpt lat="44.7688" lon="5.0796">
        <ele>356.00277709961</ele>
        <time>2011-05-07T11:17:23Z</time>
      </trkpt>
      <trkpt lat="44.76933" lon="5.07976">
        <ele>352.36663818359</ele>
        <time>2011-05-07T11:17:31Z</time>
      </trkpt>
      <trkpt lat="44.76982" lon="5.07987">
        <ele>346.14950561523</ele>
        <time>2011-05-07T11:17:38Z</time>
      </trkpt>
      <trkpt lat="44.77046" lon="5.08001">
        <ele>340</ele>
        <time>2011-05-07T11:17:47Z</time>
      </trkpt>
      <trkpt lat="44.77088" lon="5.08002">
        <ele>340</ele>
        <time>2011-05-07T11:17:53Z</time>
      </trkpt>
      <trkpt lat="44.77134" lon="5.08002">
        <ele>340</ele>
        <time>2011-05-07T11:17:59Z</time>
      </trkpt>
      <trkpt lat="44.77179" lon="5.07989">
        <ele>340</ele>
        <time>2011-05-07T11:18:05Z</time>
      </trkpt>
      <trkpt lat="44.77218" lon="5.07969">
        <ele>340.06271362305</ele>
        <time>2011-05-07T11:18:10Z</time>
      </trkpt>
      <trkpt lat="44.77263" lon="5.0792">
        <ele>343.55047607422</ele>
        <time>2011-05-07T11:18:17Z</time>
      </trkpt>
      <trkpt lat="44.77295" lon="5.07903">
        <ele>347.04217529297</ele>
        <time>2011-05-07T11:18:21Z</time>
      </trkpt>
      <trkpt lat="44.77311" lon="5.07904">
        <ele>348.33477783203</ele>
        <time>2011-05-07T11:18:23Z</time>
      </trkpt>
      <trkpt lat="44.77327" lon="5.07906">
        <ele>350.77236938477</ele>
        <time>2011-05-07T11:18:25Z</time>
      </trkpt>
      <trkpt lat="44.77365" lon="5.07923">
        <ele>355.40335083008</ele>
        <time>2011-05-07T11:18:30Z</time>
      </trkpt>
      <trkpt lat="44.77425" lon="5.07973">
        <ele>364.78030395508</ele>
        <time>2011-05-07T11:18:39Z</time>
      </trkpt>
      <trkpt lat="44.77469" lon="5.08011">
        <ele>377.84561157227</ele>
        <time>2011-05-07T11:18:46Z</time>
      </trkpt>
      <trkpt lat="44.77529" lon="5.08061">
        <ele>377.40341186523</ele>
        <time>2011-05-07T11:18:55Z</time>
      </trkpt>
      <trkpt lat="44.77576" lon="5.08096">
        <ele>378.40808105469</ele>
        <time>2011-05-07T11:19:02Z</time>
      </trkpt>
      <trkpt lat="44.7761" lon="5.08136">
        <ele>374.47787475586</ele>
        <time>2011-05-07T11:19:08Z</time>
      </trkpt>
      <trkpt lat="44.77636" lon="5.08173">
        <ele>366.00021362305</ele>
        <time>2011-05-07T11:19:13Z</time>
      </trkpt>
      <trkpt lat="44.77663" lon="5.08189">
        <ele>362.11685180664</ele>
        <time>2011-05-07T11:19:17Z</time>
      </trkpt>
      <trkpt lat="44.77678" lon="5.08193">
        <ele>362.14105224609</ele>
        <time>2011-05-07T11:19:19Z</time>
      </trkpt>
      <trkpt lat="44.77723" lon="5.08195">
        <ele>364.04248046875</ele>
        <time>2011-05-07T11:19:25Z</time>
      </trkpt>
      <trkpt lat="44.77753" lon="5.08203">
        <ele>365.89242553711</ele>
        <time>2011-05-07T11:19:29Z</time>
      </trkpt>
      <trkpt lat="44.77821" lon="5.08215">
        <ele>366.80059814453</ele>
        <time>2011-05-07T11:19:38Z</time>
      </trkpt>
      <trkpt lat="44.77864" lon="5.08211">
        <ele>371.00924682617</ele>
        <time>2011-05-07T11:19:44Z</time>
      </trkpt>
      <trkpt lat="44.77909" lon="5.08201">
        <ele>373.91790771484</ele>
        <time>2011-05-07T11:19:51Z</time>
      </trkpt>
      <trkpt lat="44.77946" lon="5.08195">
        <ele>376.98693847656</ele>
        <time>2011-05-07T11:19:57Z</time>
      </trkpt>
      <trkpt lat="44.77983" lon="5.08192">
        <ele>378.87738037109</ele>
        <time>2011-05-07T11:20:03Z</time>
      </trkpt>
      <trkpt lat="44.78027" lon="5.08197">
        <ele>379.75076293945</ele>
        <time>2011-05-07T11:20:10Z</time>
      </trkpt>
      <trkpt lat="44.78058" lon="5.08206">
        <ele>381.4755859375</ele>
        <time>2011-05-07T11:20:15Z</time>
      </trkpt>
      <trkpt lat="44.7809" lon="5.0823">
        <ele>382.01565551758</ele>
        <time>2011-05-07T11:20:21Z</time>
      </trkpt>
      <trkpt lat="44.78122" lon="5.08271">
        <ele>382.00201416016</ele>
        <time>2011-05-07T11:20:29Z</time>
      </trkpt>
      <trkpt lat="44.78156" lon="5.08301">
        <ele>384.17639160156</ele>
        <time>2011-05-07T11:20:36Z</time>
      </trkpt>
      <trkpt lat="44.78201" lon="5.08338">
        <ele>392.6220703125</ele>
        <time>2011-05-07T11:20:44Z</time>
      </trkpt>
      <trkpt lat="44.78219" lon="5.08367">
        <ele>398.8918762207</ele>
        <time>2011-05-07T11:20:48Z</time>
      </trkpt>
      <trkpt lat="44.78244" lon="5.0843">
        <ele>392.0500793457</ele>
        <time>2011-05-07T11:20:56Z</time>
      </trkpt>
      <trkpt lat="44.78252" lon="5.0845">
        <ele>389.16305541992</ele>
        <time>2011-05-07T11:20:59Z</time>
      </trkpt>
      <trkpt lat="44.78258" lon="5.08462">
        <ele>387.95495605469</ele>
        <time>2011-05-07T11:21:01Z</time>
      </trkpt>
      <trkpt lat="44.78265" lon="5.08472">
        <ele>387.44732666016</ele>
        <time>2011-05-07T11:21:03Z</time>
      </trkpt>
      <trkpt lat="44.78297" lon="5.08501">
        <ele>389.35470581055</ele>
        <time>2011-05-07T11:21:10Z</time>
      </trkpt>
      <trkpt lat="44.78313" lon="5.08512">
        <ele>390.45147705078</ele>
        <time>2011-05-07T11:21:13Z</time>
      </trkpt>
      <trkpt lat="44.78328" lon="5.08525">
        <ele>391.3610534668</ele>
        <time>2011-05-07T11:21:16Z</time>
      </trkpt>
      <trkpt lat="44.78347" lon="5.08558">
        <ele>390.15496826172</ele>
        <time>2011-05-07T11:21:21Z</time>
      </trkpt>
      <trkpt lat="44.78353" lon="5.08574">
        <ele>388.42462158203</ele>
        <time>2011-05-07T11:21:23Z</time>
      </trkpt>
      <trkpt lat="44.78371" lon="5.08601">
        <ele>389.16757202148</ele>
        <time>2011-05-07T11:21:27Z</time>
      </trkpt>
      <trkpt lat="44.78419" lon="5.0865">
        <ele>395.06240844727</ele>
        <time>2011-05-07T11:21:35Z</time>
      </trkpt>
      <trkpt lat="44.78426" lon="5.08657">
        <ele>395.09332275391</ele>
        <time>2011-05-07T11:21:36Z</time>
      </trkpt>
      <trkpt lat="44.78461" lon="5.08709">
        <ele>393.9130859375</ele>
        <time>2011-05-07T11:21:42Z</time>
      </trkpt>
      <trkpt lat="44.78492" lon="5.08751">
        <ele>396.63067626953</ele>
        <time>2011-05-07T11:21:47Z</time>
      </trkpt>
      <trkpt lat="44.78524" lon="5.08789">
        <ele>398.85089111328</ele>
        <time>2011-05-07T11:21:52Z</time>
      </trkpt>
      <trkpt lat="44.78557" lon="5.08812">
        <ele>400</ele>
        <time>2011-05-07T11:21:57Z</time>
      </trkpt>
      <trkpt lat="44.78601" lon="5.08835">
        <ele>400</ele>
        <time>2011-05-07T11:22:04Z</time>
      </trkpt>
      <trkpt lat="44.78646" lon="5.08847">
        <ele>400</ele>
        <time>2011-05-07T11:22:11Z</time>
      </trkpt>
      <trkpt lat="44.78682" lon="5.08863">
        <ele>400</ele>
        <time>2011-05-07T11:22:17Z</time>
      </trkpt>
      <trkpt lat="44.7873" lon="5.08889">
        <ele>400</ele>
        <time>2011-05-07T11:22:26Z</time>
      </trkpt>
      <trkpt lat="44.78767" lon="5.08902">
        <ele>400</ele>
        <time>2011-05-07T11:22:32Z</time>
      </trkpt>
      <trkpt lat="44.78798" lon="5.08912">
        <ele>400</ele>
        <time>2011-05-07T11:22:37Z</time>
      </trkpt>
      <trkpt lat="44.78824" lon="5.08932">
        <ele>400</ele>
        <time>2011-05-07T11:22:42Z</time>
      </trkpt>
      <trkpt lat="44.78853" lon="5.08938">
        <ele>400</ele>
        <time>2011-05-07T11:22:47Z</time>
      </trkpt>
      <trkpt lat="44.78894" lon="5.08942">
        <ele>400</ele>
        <time>2011-05-07T11:22:53Z</time>
      </trkpt>
      <trkpt lat="44.78939" lon="5.08962">
        <ele>400</ele>
        <time>2011-05-07T11:23:00Z</time>
      </trkpt>
      <trkpt lat="44.78985" lon="5.08988">
        <ele>400</ele>
        <time>2011-05-07T11:23:08Z</time>
      </trkpt>
      <trkpt lat="44.79046" lon="5.09028">
        <ele>400.01428222656</ele>
        <time>2011-05-07T11:23:19Z</time>
      </trkpt>
      <trkpt lat="44.79083" lon="5.09055">
        <ele>404.91659545898</ele>
        <time>2011-05-07T11:23:26Z</time>
      </trkpt>
      <trkpt lat="44.79127" lon="5.0908">
        <ele>414.88177490234</ele>
        <time>2011-05-07T11:23:34Z</time>
      </trkpt>
      <trkpt lat="44.79176" lon="5.09106">
        <ele>419.33416748047</ele>
        <time>2011-05-07T11:23:43Z</time>
      </trkpt>
      <trkpt lat="44.79211" lon="5.09127">
        <ele>420</ele>
        <time>2011-05-07T11:23:50Z</time>
      </trkpt>
      <trkpt lat="44.79245" lon="5.09146">
        <ele>420</ele>
        <time>2011-05-07T11:23:57Z</time>
      </trkpt>
      <trkpt lat="44.79287" lon="5.09161">
        <ele>420</ele>
        <time>2011-05-07T11:24:05Z</time>
      </trkpt>
      <trkpt lat="44.79327" lon="5.09167">
        <ele>420</ele>
        <time>2011-05-07T11:24:13Z</time>
      </trkpt>
      <trkpt lat="44.7937" lon="5.09183">
        <ele>420</ele>
        <time>2011-05-07T11:24:22Z</time>
      </trkpt>
      <trkpt lat="44.79404" lon="5.09194">
        <ele>420</ele>
        <time>2011-05-07T11:24:29Z</time>
      </trkpt>
      <trkpt lat="44.79439" lon="5.09216">
        <ele>420</ele>
        <time>2011-05-07T11:24:37Z</time>
      </trkpt>
      <trkpt lat="44.79465" lon="5.09231">
        <ele>420</ele>
        <time>2011-05-07T11:24:43Z</time>
      </trkpt>
      <trkpt lat="44.79502" lon="5.09251">
        <ele>421.62078857422</ele>
        <time>2011-05-07T11:24:51Z</time>
      </trkpt>
      <trkpt lat="44.79511" lon="5.09256">
        <ele>424.2265625</ele>
        <time>2011-05-07T11:24:53Z</time>
      </trkpt>
      <trkpt lat="44.79548" lon="5.0928">
        <ele>432.61877441406</ele>
        <time>2011-05-07T11:25:02Z</time>
      </trkpt>
      <trkpt lat="44.79582" lon="5.09311">
        <ele>438.03173828125</ele>
        <time>2011-05-07T11:25:12Z</time>
      </trkpt>
      <trkpt lat="44.7961" lon="5.09328">
        <ele>440.74731445312</ele>
        <time>2011-05-07T11:25:19Z</time>
      </trkpt>
      <trkpt lat="44.7964" lon="5.09346">
        <ele>446.7060546875</ele>
        <time>2011-05-07T11:25:26Z</time>
      </trkpt>
      <trkpt lat="44.79653" lon="5.0935">
        <ele>448.64022827148</ele>
        <time>2011-05-07T11:25:29Z</time>
      </trkpt>
      <trkpt lat="44.79687" lon="5.09355">
        <ele>452.74584960938</ele>
        <time>2011-05-07T11:25:37Z</time>
      </trkpt>
      <trkpt lat="44.79715" lon="5.09357">
        <ele>455.50988769531</ele>
        <time>2011-05-07T11:25:44Z</time>
      </trkpt>
      <trkpt lat="44.79734" lon="5.09368">
        <ele>456.6340637207</ele>
        <time>2011-05-07T11:25:50Z</time>
      </trkpt>
      <trkpt lat="44.79755" lon="5.09392">
        <ele>457.25415039062</ele>
        <time>2011-05-07T11:25:58Z</time>
      </trkpt>
      <trkpt lat="44.79776" lon="5.09414">
        <ele>457.12628173828</ele>
        <time>2011-05-07T11:26:05Z</time>
      </trkpt>
      <trkpt lat="44.79807" lon="5.09437">
        <ele>461.69833374023</ele>
        <time>2011-05-07T11:26:14Z</time>
      </trkpt>
      <trkpt lat="44.79839" lon="5.09457">
        <ele>468.95388793945</ele>
        <time>2011-05-07T11:26:23Z</time>
      </trkpt>
      <trkpt lat="44.79861" lon="5.09479">
        <ele>474.89700317383</ele>
        <time>2011-05-07T11:26:30Z</time>
      </trkpt>
      <trkpt lat="44.79874" lon="5.09504">
        <ele>476.46917724609</ele>
        <time>2011-05-07T11:26:36Z</time>
      </trkpt>
      <trkpt lat="44.79893" lon="5.09538">
        <ele>478.09567260742</ele>
        <time>2011-05-07T11:26:45Z</time>
      </trkpt>
      <trkpt lat="44.79908" lon="5.09564">
        <ele>478.31838989258</ele>
        <time>2011-05-07T11:26:52Z</time>
      </trkpt>
      <trkpt lat="44.79921" lon="5.09589">
        <ele>479.16827392578</ele>
        <time>2011-05-07T11:26:59Z</time>
      </trkpt>
      <trkpt lat="44.79935" lon="5.09614">
        <ele>479.70550537109</ele>
        <time>2011-05-07T11:27:06Z</time>
      </trkpt>
      <trkpt lat="44.79952" lon="5.09644">
        <ele>480</ele>
        <time>2011-05-07T11:27:15Z</time>
      </trkpt>
      <trkpt lat="44.79955" lon="5.09662">
        <ele>480</ele>
        <time>2011-05-07T11:27:20Z</time>
      </trkpt>
      <trkpt lat="44.7994" lon="5.09678">
        <ele>480</ele>
        <time>2011-05-07T11:27:27Z</time>
      </trkpt>
      <trkpt lat="44.79921" lon="5.09688">
        <ele>480</ele>
        <time>2011-05-07T11:27:33Z</time>
      </trkpt>
      <trkpt lat="44.79892" lon="5.09698">
        <ele>480</ele>
        <time>2011-05-07T11:27:41Z</time>
      </trkpt>
      <trkpt lat="44.79864" lon="5.09699">
        <ele>479.24114990234</ele>
        <time>2011-05-07T11:27:49Z</time>
      </trkpt>
      <trkpt lat="44.7984" lon="5.097">
        <ele>478.76495361328</ele>
        <time>2011-05-07T11:27:56Z</time>
      </trkpt>
      <trkpt lat="44.7981" lon="5.09702">
        <ele>481.0110168457</ele>
        <time>2011-05-07T11:28:04Z</time>
      </trkpt>
      <trkpt lat="44.79774" lon="5.09694">
        <ele>480.28604125977</ele>
        <time>2011-05-07T11:28:13Z</time>
      </trkpt>
      <trkpt lat="44.79754" lon="5.09693">
        <ele>481.49383544922</ele>
        <time>2011-05-07T11:28:18Z</time>
      </trkpt>
      <trkpt lat="44.79729" lon="5.09706">
        <ele>484.50039672852</ele>
        <time>2011-05-07T11:28:24Z</time>
      </trkpt>
      <trkpt lat="44.79692" lon="5.09715">
        <ele>486.33374023438</ele>
        <time>2011-05-07T11:28:32Z</time>
      </trkpt>
      <trkpt lat="44.79666" lon="5.09721">
        <ele>487.78912353516</ele>
        <time>2011-05-07T11:28:38Z</time>
      </trkpt>
      <trkpt lat="44.79658" lon="5.09722">
        <ele>487.37713623047</ele>
        <time>2011-05-07T11:28:40Z</time>
      </trkpt>
      <trkpt lat="44.79626" lon="5.09714">
        <ele>483.18859863281</ele>
        <time>2011-05-07T11:28:48Z</time>
      </trkpt>
      <trkpt lat="44.79614" lon="5.0971">
        <ele>481.61273193359</ele>
        <time>2011-05-07T11:28:51Z</time>
      </trkpt>
      <trkpt lat="44.79598" lon="5.09715">
        <ele>481.57495117188</ele>
        <time>2011-05-07T11:28:55Z</time>
      </trkpt>
      <trkpt lat="44.79581" lon="5.09728">
        <ele>482.7243347168</ele>
        <time>2011-05-07T11:28:59Z</time>
      </trkpt>
      <trkpt lat="44.79545" lon="5.09745">
        <ele>482.5173034668</ele>
        <time>2011-05-07T11:29:07Z</time>
      </trkpt>
      <trkpt lat="44.79514" lon="5.09756">
        <ele>483.25326538086</ele>
        <time>2011-05-07T11:29:14Z</time>
      </trkpt>
      <trkpt lat="44.79479" lon="5.09766">
        <ele>485.53979492188</ele>
        <time>2011-05-07T11:29:22Z</time>
      </trkpt>
      <trkpt lat="44.79454" lon="5.09775">
        <ele>487.50701904297</ele>
        <time>2011-05-07T11:29:28Z</time>
      </trkpt>
      <trkpt lat="44.79438" lon="5.0978">
        <ele>488.36486816406</ele>
        <time>2011-05-07T11:29:32Z</time>
      </trkpt>
      <trkpt lat="44.79419" lon="5.09775">
        <ele>487.3525390625</ele>
        <time>2011-05-07T11:29:37Z</time>
      </trkpt>
      <trkpt lat="44.79398" lon="5.09758">
        <ele>486.62692260742</ele>
        <time>2011-05-07T11:29:43Z</time>
      </trkpt>
      <trkpt lat="44.79377" lon="5.09749">
        <ele>486.71765136719</ele>
        <time>2011-05-07T11:29:48Z</time>
      </trkpt>
      <trkpt lat="44.79359" lon="5.09732">
        <ele>485.61129760742</ele>
        <time>2011-05-07T11:29:53Z</time>
      </trkpt>
      <trkpt lat="44.79356" lon="5.09722">
        <ele>484.47024536133</ele>
        <time>2011-05-07T11:29:55Z</time>
      </trkpt>
      <trkpt lat="44.79352" lon="5.09705">
        <ele>480.62847900391</ele>
        <time>2011-05-07T11:29:58Z</time>
      </trkpt>
      <trkpt lat="44.79336" lon="5.0968">
        <ele>475.98495483398</ele>
        <time>2011-05-07T11:30:04Z</time>
      </trkpt>
      <trkpt lat="44.79328" lon="5.09679">
        <ele>476.40460205078</ele>
        <time>2011-05-07T11:30:06Z</time>
      </trkpt>
      <trkpt lat="44.79321" lon="5.0968">
        <ele>477.36245727539</ele>
        <time>2011-05-07T11:30:08Z</time>
      </trkpt>
      <trkpt lat="44.7928" lon="5.09696">
        <ele>482.41351318359</ele>
        <time>2011-05-07T11:30:18Z</time>
      </trkpt>
      <trkpt lat="44.79253" lon="5.09703">
        <ele>486.0104675293</ele>
        <time>2011-05-07T11:30:25Z</time>
      </trkpt>
      <trkpt lat="44.79224" lon="5.09712">
        <ele>488.37109375</ele>
        <time>2011-05-07T11:30:33Z</time>
      </trkpt>
      <trkpt lat="44.79198" lon="5.09734">
        <ele>490.14450073242</ele>
        <time>2011-05-07T11:30:40Z</time>
      </trkpt>
      <trkpt lat="44.79178" lon="5.09754">
        <ele>491.02777099609</ele>
        <time>2011-05-07T11:30:46Z</time>
      </trkpt>
      <trkpt lat="44.79157" lon="5.09773">
        <ele>491.65570068359</ele>
        <time>2011-05-07T11:30:53Z</time>
      </trkpt>
      <trkpt lat="44.79144" lon="5.09795">
        <ele>493.25708007812</ele>
        <time>2011-05-07T11:30:59Z</time>
      </trkpt>
      <trkpt lat="44.79134" lon="5.09832">
        <ele>498.17034912109</ele>
        <time>2011-05-07T11:31:07Z</time>
      </trkpt>
      <trkpt lat="44.79137" lon="5.09855">
        <ele>501.85891723633</ele>
        <time>2011-05-07T11:31:12Z</time>
      </trkpt>
      <trkpt lat="44.7915" lon="5.09866">
        <ele>504.20135498047</ele>
        <time>2011-05-07T11:31:17Z</time>
      </trkpt>
      <trkpt lat="44.79165" lon="5.09862">
        <ele>504.97518920898</ele>
        <time>2011-05-07T11:31:23Z</time>
      </trkpt>
      <trkpt lat="44.79184" lon="5.09852">
        <ele>506.26760864258</ele>
        <time>2011-05-07T11:31:30Z</time>
      </trkpt>
      <trkpt lat="44.792" lon="5.09861">
        <ele>509.35412597656</ele>
        <time>2011-05-07T11:31:36Z</time>
      </trkpt>
      <trkpt lat="44.79218" lon="5.09892">
        <ele>513.30462646484</ele>
        <time>2011-05-07T11:31:45Z</time>
      </trkpt>
      <trkpt lat="44.79227" lon="5.0992">
        <ele>517.8857421875</ele>
        <time>2011-05-07T11:31:52Z</time>
      </trkpt>
      <trkpt lat="44.79222" lon="5.09938">
        <ele>519.3173828125</ele>
        <time>2011-05-07T11:31:57Z</time>
      </trkpt>
      <trkpt lat="44.79208" lon="5.0996">
        <ele>521.72106933594</ele>
        <time>2011-05-07T11:32:04Z</time>
      </trkpt>
      <trkpt lat="44.79193" lon="5.09983">
        <ele>524.23272705078</ele>
        <time>2011-05-07T11:32:11Z</time>
      </trkpt>
      <trkpt lat="44.79183" lon="5.10016">
        <ele>526.44708251953</ele>
        <time>2011-05-07T11:32:18Z</time>
      </trkpt>
      <trkpt lat="44.79179" lon="5.1005">
        <ele>531.18774414062</ele>
        <time>2011-05-07T11:32:24Z</time>
      </trkpt>
      <trkpt lat="44.7917" lon="5.10109">
        <ele>538.20855712891</ele>
        <time>2011-05-07T11:32:34Z</time>
      </trkpt>
      <trkpt lat="44.79165" lon="5.1015">
        <ele>542.8974609375</ele>
        <time>2011-05-07T11:32:42Z</time>
      </trkpt>
      <trkpt lat="44.79162" lon="5.10183">
        <ele>546.88635253906</ele>
        <time>2011-05-07T11:32:49Z</time>
      </trkpt>
      <trkpt lat="44.79165" lon="5.10214">
        <ele>551.07653808594</ele>
        <time>2011-05-07T11:32:57Z</time>
      </trkpt>
      <trkpt lat="44.79169" lon="5.10244">
        <ele>556.51458740234</ele>
        <time>2011-05-07T11:33:04Z</time>
      </trkpt>
      <trkpt lat="44.79166" lon="5.10274">
        <ele>560.24597167969</ele>
        <time>2011-05-07T11:33:10Z</time>
      </trkpt>
      <trkpt lat="44.79158" lon="5.10293">
        <ele>559.91870117188</ele>
        <time>2011-05-07T11:33:14Z</time>
      </trkpt>
      <trkpt lat="44.79138" lon="5.10331">
        <ele>559.48992919922</ele>
        <time>2011-05-07T11:33:22Z</time>
      </trkpt>
      <trkpt lat="44.79129" lon="5.10363">
        <ele>558.34942626953</ele>
        <time>2011-05-07T11:33:28Z</time>
      </trkpt>
      <trkpt lat="44.79123" lon="5.1041">
        <ele>560.87109375</ele>
        <time>2011-05-07T11:33:37Z</time>
      </trkpt>
      <trkpt lat="44.79119" lon="5.10464">
        <ele>562.10980224609</ele>
        <time>2011-05-07T11:33:47Z</time>
      </trkpt>
      <trkpt lat="44.79118" lon="5.10499">
        <ele>562.38580322266</ele>
        <time>2011-05-07T11:33:55Z</time>
      </trkpt>
      <trkpt lat="44.79116" lon="5.10514">
        <ele>562.55993652344</ele>
        <time>2011-05-07T11:33:59Z</time>
      </trkpt>
      <trkpt lat="44.79112" lon="5.10535">
        <ele>562.79864501953</ele>
        <time>2011-05-07T11:34:06Z</time>
      </trkpt>
      <trkpt lat="44.7911" lon="5.10547">
        <ele>563.25225830078</ele>
        <time>2011-05-07T11:34:11Z</time>
      </trkpt>
      <trkpt lat="44.79108" lon="5.10564">
        <ele>563.39068603516</ele>
        <time>2011-05-07T11:34:18Z</time>
      </trkpt>
      <trkpt lat="44.79112" lon="5.1058">
        <ele>564.28540039062</ele>
        <time>2011-05-07T11:34:25Z</time>
      </trkpt>
      <trkpt lat="44.7912" lon="5.10596">
        <ele>566.00079345703</ele>
        <time>2011-05-07T11:34:32Z</time>
      </trkpt>
      <trkpt lat="44.79131" lon="5.10607">
        <ele>568.85870361328</ele>
        <time>2011-05-07T11:34:38Z</time>
      </trkpt>
      <trkpt lat="44.79148" lon="5.10619">
        <ele>573.86163330078</ele>
        <time>2011-05-07T11:34:45Z</time>
      </trkpt>
      <trkpt lat="44.79165" lon="5.1063">
        <ele>579.80072021484</ele>
        <time>2011-05-07T11:34:52Z</time>
      </trkpt>
      <trkpt lat="44.79182" lon="5.10641">
        <ele>583.22607421875</ele>
        <time>2011-05-07T11:34:59Z</time>
      </trkpt>
      <trkpt lat="44.79202" lon="5.10654">
        <ele>586.02789306641</ele>
        <time>2011-05-07T11:35:08Z</time>
      </trkpt>
      <trkpt lat="44.79211" lon="5.10661">
        <ele>586.95727539062</ele>
        <time>2011-05-07T11:35:14Z</time>
      </trkpt>
      <trkpt lat="44.79229" lon="5.10673">
        <ele>590.58349609375</ele>
        <time>2011-05-07T11:35:23Z</time>
      </trkpt>
      <trkpt lat="44.79242" lon="5.10684">
        <ele>596.40173339844</ele>
        <time>2011-05-07T11:35:31Z</time>
      </trkpt>
      <trkpt lat="44.79254" lon="5.10694">
        <ele>602.13500976562</ele>
        <time>2011-05-07T11:35:39Z</time>
      </trkpt>
      <trkpt lat="44.79264" lon="5.10703">
        <ele>606.26013183594</ele>
        <time>2011-05-07T11:35:46Z</time>
      </trkpt>
      <trkpt lat="44.7928" lon="5.10713">
        <ele>612.08746337891</ele>
        <time>2011-05-07T11:35:55Z</time>
      </trkpt>
      <trkpt lat="44.79292" lon="5.10722">
        <ele>615.19262695312</ele>
        <time>2011-05-07T11:36:03Z</time>
      </trkpt>
      <trkpt lat="44.79304" lon="5.10731">
        <ele>617.3408203125</ele>
        <time>2011-05-07T11:36:11Z</time>
      </trkpt>
      <trkpt lat="44.79316" lon="5.10738">
        <ele>621.98510742188</ele>
        <time>2011-05-07T11:36:18Z</time>
      </trkpt>
      <trkpt lat="44.79329" lon="5.10749">
        <ele>626.67822265625</ele>
        <time>2011-05-07T11:36:27Z</time>
      </trkpt>
      <trkpt lat="44.79343" lon="5.10758">
        <ele>632.73791503906</ele>
        <time>2011-05-07T11:36:35Z</time>
      </trkpt>
      <trkpt lat="44.79353" lon="5.10766">
        <ele>636.40802001953</ele>
        <time>2011-05-07T11:36:41Z</time>
      </trkpt>
      <trkpt lat="44.79365" lon="5.10777">
        <ele>639.59362792969</ele>
        <time>2011-05-07T11:36:47Z</time>
      </trkpt>
      <trkpt lat="44.79376" lon="5.10791">
        <ele>637.54217529297</ele>
        <time>2011-05-07T11:36:52Z</time>
      </trkpt>
      <trkpt lat="44.794" lon="5.10823">
        <ele>632.63269042969</ele>
        <time>2011-05-07T11:37:02Z</time>
      </trkpt>
      <trkpt lat="44.79416" lon="5.10844">
        <ele>630.43292236328</ele>
        <time>2011-05-07T11:37:08Z</time>
      </trkpt>
      <trkpt lat="44.79436" lon="5.10865">
        <ele>626.93206787109</ele>
        <time>2011-05-07T11:37:15Z</time>
      </trkpt>
      <trkpt lat="44.79454" lon="5.10878">
        <ele>623.42724609375</ele>
        <time>2011-05-07T11:37:20Z</time>
      </trkpt>
      <trkpt lat="44.79469" lon="5.10882">
        <ele>623.78430175781</ele>
        <time>2011-05-07T11:37:24Z</time>
      </trkpt>
      <trkpt lat="44.7948" lon="5.10884">
        <ele>625.71929931641</ele>
        <time>2011-05-07T11:37:27Z</time>
      </trkpt>
      <trkpt lat="44.79516" lon="5.10904">
        <ele>626.52380371094</ele>
        <time>2011-05-07T11:37:36Z</time>
      </trkpt>
      <trkpt lat="44.79549" lon="5.10925">
        <ele>626.75012207031</ele>
        <time>2011-05-07T11:37:44Z</time>
      </trkpt>
      <trkpt lat="44.79582" lon="5.10937">
        <ele>629.75921630859</ele>
        <time>2011-05-07T11:37:52Z</time>
      </trkpt>
      <trkpt lat="44.79617" lon="5.1095">
        <ele>632.16320800781</ele>
        <time>2011-05-07T11:38:01Z</time>
      </trkpt>
      <trkpt lat="44.79642" lon="5.10958">
        <ele>629.76599121094</ele>
        <time>2011-05-07T11:38:08Z</time>
      </trkpt>
      <trkpt lat="44.79668" lon="5.10966">
        <ele>626.78363037109</ele>
        <time>2011-05-07T11:38:16Z</time>
      </trkpt>
      <trkpt lat="44.79691" lon="5.10972">
        <ele>624.83483886719</ele>
        <time>2011-05-07T11:38:23Z</time>
      </trkpt>
      <trkpt lat="44.79722" lon="5.10988">
        <ele>624.98028564453</ele>
        <time>2011-05-07T11:38:33Z</time>
      </trkpt>
      <trkpt lat="44.79753" lon="5.11">
        <ele>624.45861816406</ele>
        <time>2011-05-07T11:38:43Z</time>
      </trkpt>
      <trkpt lat="44.79782" lon="5.11008">
        <ele>626.77844238281</ele>
        <time>2011-05-07T11:38:52Z</time>
      </trkpt>
      <trkpt lat="44.79813" lon="5.11012">
        <ele>629.11645507812</ele>
        <time>2011-05-07T11:39:01Z</time>
      </trkpt>
      <trkpt lat="44.79841" lon="5.11013">
        <ele>630.99029541016</ele>
        <time>2011-05-07T11:39:09Z</time>
      </trkpt>
      <trkpt lat="44.79862" lon="5.11012">
        <ele>632.57073974609</ele>
        <time>2011-05-07T11:39:15Z</time>
      </trkpt>
      <trkpt lat="44.79878" lon="5.11012">
        <ele>634.67602539062</ele>
        <time>2011-05-07T11:39:20Z</time>
      </trkpt>
      <trkpt lat="44.79908" lon="5.11008">
        <ele>639.44006347656</ele>
        <time>2011-05-07T11:39:29Z</time>
      </trkpt>
      <trkpt lat="44.7993" lon="5.11007">
        <ele>642.18206787109</ele>
        <time>2011-05-07T11:39:36Z</time>
      </trkpt>
      <trkpt lat="44.79956" lon="5.11001">
        <ele>647.03344726562</ele>
        <time>2011-05-07T11:39:44Z</time>
      </trkpt>
      <trkpt lat="44.79976" lon="5.10989">
        <ele>652.609375</ele>
        <time>2011-05-07T11:39:51Z</time>
      </trkpt>
      <trkpt lat="44.79997" lon="5.10981">
        <ele>658.41088867188</ele>
        <time>2011-05-07T11:39:58Z</time>
      </trkpt>
      <trkpt lat="44.80022" lon="5.10975">
        <ele>661.84350585938</ele>
        <time>2011-05-07T11:40:06Z</time>
      </trkpt>
      <trkpt lat="44.80045" lon="5.10969">
        <ele>662.57904052734</ele>
        <time>2011-05-07T11:40:14Z</time>
      </trkpt>
      <trkpt lat="44.80066" lon="5.10965">
        <ele>661.28875732422</ele>
        <time>2011-05-07T11:40:21Z</time>
      </trkpt>
      <trkpt lat="44.80091" lon="5.1096">
        <ele>660.85388183594</ele>
        <time>2011-05-07T11:40:29Z</time>
      </trkpt>
      <trkpt lat="44.80116" lon="5.10955">
        <ele>663.65545654297</ele>
        <time>2011-05-07T11:40:36Z</time>
      </trkpt>
      <trkpt lat="44.80143" lon="5.10942">
        <ele>670.74938964844</ele>
        <time>2011-05-07T11:40:44Z</time>
      </trkpt>
      <trkpt lat="44.80165" lon="5.10931">
        <ele>677.99005126953</ele>
        <time>2011-05-07T11:40:51Z</time>
      </trkpt>
      <trkpt lat="44.80193" lon="5.10916">
        <ele>677.814453125</ele>
        <time>2011-05-07T11:41:00Z</time>
      </trkpt>
      <trkpt lat="44.80212" lon="5.10916">
        <ele>672.30822753906</ele>
        <time>2011-05-07T11:41:06Z</time>
      </trkpt>
      <trkpt lat="44.80236" lon="5.10912">
        <ele>669.939453125</ele>
        <time>2011-05-07T11:41:13Z</time>
      </trkpt>
      <trkpt lat="44.80254" lon="5.10907">
        <ele>670.63549804688</ele>
        <time>2011-05-07T11:41:19Z</time>
      </trkpt>
      <trkpt lat="44.80271" lon="5.10906">
        <ele>669.30169677734</ele>
        <time>2011-05-07T11:41:25Z</time>
      </trkpt>
      <trkpt lat="44.80289" lon="5.10905">
        <ele>667.83392333984</ele>
        <time>2011-05-07T11:41:31Z</time>
      </trkpt>
      <trkpt lat="44.80306" lon="5.10904">
        <ele>667.06219482422</ele>
        <time>2011-05-07T11:41:37Z</time>
      </trkpt>
      <trkpt lat="44.80323" lon="5.10903">
        <ele>664.54150390625</ele>
        <time>2011-05-07T11:41:44Z</time>
      </trkpt>
      <trkpt lat="44.80341" lon="5.10903">
        <ele>661.58154296875</ele>
        <time>2011-05-07T11:41:52Z</time>
      </trkpt>
      <trkpt lat="44.80361" lon="5.109">
        <ele>659.33154296875</ele>
        <time>2011-05-07T11:41:59Z</time>
      </trkpt>
      <trkpt lat="44.80385" lon="5.10896">
        <ele>658.65240478516</ele>
        <time>2011-05-07T11:42:08Z</time>
      </trkpt>
      <trkpt lat="44.80396" lon="5.10897">
        <ele>658.31652832031</ele>
        <time>2011-05-07T11:42:13Z</time>
      </trkpt>
      <trkpt lat="44.80413" lon="5.10898">
        <ele>658.12084960938</ele>
        <time>2011-05-07T11:42:20Z</time>
      </trkpt>
      <trkpt lat="44.80428" lon="5.10894">
        <ele>660.41882324219</ele>
        <time>2011-05-07T11:42:27Z</time>
      </trkpt>
      <trkpt lat="44.80447" lon="5.1089">
        <ele>663.97772216797</ele>
        <time>2011-05-07T11:42:35Z</time>
      </trkpt>
      <trkpt lat="44.80465" lon="5.10889">
        <ele>666.15270996094</ele>
        <time>2011-05-07T11:42:43Z</time>
      </trkpt>
      <trkpt lat="44.80478" lon="5.1089">
        <ele>667.41021728516</ele>
        <time>2011-05-07T11:42:49Z</time>
      </trkpt>
      <trkpt lat="44.80493" lon="5.10897">
        <ele>667.50921630859</ele>
        <time>2011-05-07T11:42:56Z</time>
      </trkpt>
      <trkpt lat="44.80507" lon="5.1091">
        <ele>666.28863525391</ele>
        <time>2011-05-07T11:43:03Z</time>
      </trkpt>
      <trkpt lat="44.80521" lon="5.10913">
        <ele>667.32257080078</ele>
        <time>2011-05-07T11:43:10Z</time>
      </trkpt>
      <trkpt lat="44.80534" lon="5.10917">
        <ele>667.58282470703</ele>
        <time>2011-05-07T11:43:16Z</time>
      </trkpt>
      <trkpt lat="44.80546" lon="5.1092">
        <ele>667.69610595703</ele>
        <time>2011-05-07T11:43:22Z</time>
      </trkpt>
      <trkpt lat="44.80558" lon="5.10928">
        <ele>666.35931396484</ele>
        <time>2011-05-07T11:43:29Z</time>
      </trkpt>
      <trkpt lat="44.80569" lon="5.10935">
        <ele>665.32592773438</ele>
        <time>2011-05-07T11:43:35Z</time>
      </trkpt>
      <trkpt lat="44.80584" lon="5.10946">
        <ele>663.46917724609</ele>
        <time>2011-05-07T11:43:43Z</time>
      </trkpt>
      <trkpt lat="44.80597" lon="5.10957">
        <ele>661.33709716797</ele>
        <time>2011-05-07T11:43:51Z</time>
      </trkpt>
      <trkpt lat="44.80607" lon="5.10965">
        <ele>659.78186035156</ele>
        <time>2011-05-07T11:43:57Z</time>
      </trkpt>
      <trkpt lat="44.80618" lon="5.10974">
        <ele>658.03814697266</ele>
        <time>2011-05-07T11:44:04Z</time>
      </trkpt>
      <trkpt lat="44.80626" lon="5.10984">
        <ele>657.36505126953</ele>
        <time>2011-05-07T11:44:10Z</time>
      </trkpt>
      <trkpt lat="44.80634" lon="5.10991">
        <ele>657.18725585938</ele>
        <time>2011-05-07T11:44:16Z</time>
      </trkpt>
      <trkpt lat="44.80642" lon="5.10999">
        <ele>657.28259277344</ele>
        <time>2011-05-07T11:44:22Z</time>
      </trkpt>
      <trkpt lat="44.80653" lon="5.11007">
        <ele>657.26153564453</ele>
        <time>2011-05-07T11:44:29Z</time>
      </trkpt>
      <trkpt lat="44.80661" lon="5.1101">
        <ele>657.71557617188</ele>
        <time>2011-05-07T11:44:33Z</time>
      </trkpt>
      <trkpt lat="44.80674" lon="5.11014">
        <ele>658.96179199219</ele>
        <time>2011-05-07T11:44:39Z</time>
      </trkpt>
      <trkpt lat="44.80698" lon="5.11015">
        <ele>662.90045166016</ele>
        <time>2011-05-07T11:44:47Z</time>
      </trkpt>
      <trkpt lat="44.80725" lon="5.11015">
        <ele>675.18969726562</ele>
        <time>2011-05-07T11:44:55Z</time>
      </trkpt>
      <trkpt lat="44.8075" lon="5.1101">
        <ele>677.59405517578</ele>
        <time>2011-05-07T11:45:02Z</time>
      </trkpt>
      <trkpt lat="44.80774" lon="5.11">
        <ele>678.87457275391</ele>
        <time>2011-05-07T11:45:09Z</time>
      </trkpt>
      <trkpt lat="44.80796" lon="5.10995">
        <ele>679.73565673828</ele>
        <time>2011-05-07T11:45:15Z</time>
      </trkpt>
      <trkpt lat="44.80825" lon="5.10994">
        <ele>683.478515625</ele>
        <time>2011-05-07T11:45:23Z</time>
      </trkpt>
      <trkpt lat="44.80843" lon="5.10995">
        <ele>686.23114013672</ele>
        <time>2011-05-07T11:45:28Z</time>
      </trkpt>
      <trkpt lat="44.80862" lon="5.10998">
        <ele>689.30932617188</ele>
        <time>2011-05-07T11:45:34Z</time>
      </trkpt>
      <trkpt lat="44.80888" lon="5.11001">
        <ele>691.79699707031</ele>
        <time>2011-05-07T11:45:42Z</time>
      </trkpt>
      <trkpt lat="44.80906" lon="5.11006">
        <ele>693.82708740234</ele>
        <time>2011-05-07T11:45:48Z</time>
      </trkpt>
      <trkpt lat="44.8093" lon="5.11016">
        <ele>695.93371582031</ele>
        <time>2011-05-07T11:45:56Z</time>
      </trkpt>
      <trkpt lat="44.8096" lon="5.11029">
        <ele>698.63043212891</ele>
        <time>2011-05-07T11:46:07Z</time>
      </trkpt>
      <trkpt lat="44.80982" lon="5.1104">
        <ele>701.84802246094</ele>
        <time>2011-05-07T11:46:15Z</time>
      </trkpt>
      <trkpt lat="44.80995" lon="5.11037">
        <ele>705.07348632812</ele>
        <time>2011-05-07T11:46:20Z</time>
      </trkpt>
      <trkpt lat="44.80997" lon="5.11024">
        <ele>706.76861572266</ele>
        <time>2011-05-07T11:46:24Z</time>
      </trkpt>
      <trkpt lat="44.80988" lon="5.11">
        <ele>707.80541992188</ele>
        <time>2011-05-07T11:46:31Z</time>
      </trkpt>
      <trkpt lat="44.80973" lon="5.10971">
        <ele>707.31243896484</ele>
        <time>2011-05-07T11:46:39Z</time>
      </trkpt>
      <trkpt lat="44.80954" lon="5.10935">
        <ele>710.79321289062</ele>
        <time>2011-05-07T11:46:49Z</time>
      </trkpt>
      <trkpt lat="44.80948" lon="5.10926">
        <ele>712.07641601562</ele>
        <time>2011-05-07T11:46:52Z</time>
      </trkpt>
      <trkpt lat="44.80931" lon="5.10904">
        <ele>713.91381835938</ele>
        <time>2011-05-07T11:47:00Z</time>
      </trkpt>
      <trkpt lat="44.80914" lon="5.10884">
        <ele>715.94561767578</ele>
        <time>2011-05-07T11:47:08Z</time>
      </trkpt>
      <trkpt lat="44.80898" lon="5.10866">
        <ele>719.31079101562</ele>
        <time>2011-05-07T11:47:15Z</time>
      </trkpt>
      <trkpt lat="44.80881" lon="5.10859">
        <ele>720.67602539062</ele>
        <time>2011-05-07T11:47:21Z</time>
      </trkpt>
      <trkpt lat="44.80863" lon="5.10857">
        <ele>721.11743164062</ele>
        <time>2011-05-07T11:47:27Z</time>
      </trkpt>
      <trkpt lat="44.80839" lon="5.10852">
        <ele>722.01031494141</ele>
        <time>2011-05-07T11:47:36Z</time>
      </trkpt>
      <trkpt lat="44.80814" lon="5.10848">
        <ele>719.64660644531</ele>
        <time>2011-05-07T11:47:45Z</time>
      </trkpt>
      <trkpt lat="44.80795" lon="5.10844">
        <ele>717.94226074219</ele>
        <time>2011-05-07T11:47:52Z</time>
      </trkpt>
      <trkpt lat="44.80777" lon="5.10838">
        <ele>718.001953125</ele>
        <time>2011-05-07T11:47:59Z</time>
      </trkpt>
      <trkpt lat="44.80759" lon="5.10833">
        <ele>719.96575927734</ele>
        <time>2011-05-07T11:48:06Z</time>
      </trkpt>
      <trkpt lat="44.80736" lon="5.10831">
        <ele>717.73651123047</ele>
        <time>2011-05-07T11:48:14Z</time>
      </trkpt>
      <trkpt lat="44.80719" lon="5.1083">
        <ele>715.04595947266</ele>
        <time>2011-05-07T11:48:20Z</time>
      </trkpt>
      <trkpt lat="44.80714" lon="5.10817">
        <ele>720.86602783203</ele>
        <time>2011-05-07T11:48:24Z</time>
      </trkpt>
      <trkpt lat="44.80723" lon="5.10811">
        <ele>724.68377685547</ele>
        <time>2011-05-07T11:48:27Z</time>
      </trkpt>
      <trkpt lat="44.80727" lon="5.10811">
        <ele>725.14483642578</ele>
        <time>2011-05-07T11:48:28Z</time>
      </trkpt>
      <trkpt lat="44.80738" lon="5.1081">
        <ele>726.50122070312</ele>
        <time>2011-05-07T11:48:31Z</time>
      </trkpt>
      <trkpt lat="44.80751" lon="5.10806">
        <ele>728.92761230469</ele>
        <time>2011-05-07T11:48:34Z</time>
      </trkpt>
      <trkpt lat="44.80772" lon="5.10794">
        <ele>733.71057128906</ele>
        <time>2011-05-07T11:48:39Z</time>
      </trkpt>
      <trkpt lat="44.80799" lon="5.10774">
        <ele>740.30688476562</ele>
        <time>2011-05-07T11:48:46Z</time>
      </trkpt>
      <trkpt lat="44.80824" lon="5.10748">
        <ele>742.0546875</ele>
        <time>2011-05-07T11:48:52Z</time>
      </trkpt>
      <trkpt lat="44.80851" lon="5.10706">
        <ele>741.22692871094</ele>
        <time>2011-05-07T11:48:59Z</time>
      </trkpt>
      <trkpt lat="44.80878" lon="5.10669">
        <ele>740</ele>
        <time>2011-05-07T11:49:06Z</time>
      </trkpt>
      <trkpt lat="44.80883" lon="5.10664">
        <ele>740</ele>
        <time>2011-05-07T11:49:07Z</time>
      </trkpt>
      <trkpt lat="44.80923" lon="5.10638">
        <ele>740.58996582031</ele>
        <time>2011-05-07T11:49:14Z</time>
      </trkpt>
      <trkpt lat="44.80954" lon="5.10627">
        <ele>745.75006103516</ele>
        <time>2011-05-07T11:49:19Z</time>
      </trkpt>
      <trkpt lat="44.80985" lon="5.10627">
        <ele>752.40625</ele>
        <time>2011-05-07T11:49:24Z</time>
      </trkpt>
      <trkpt lat="44.80999" lon="5.10625">
        <ele>755.22937011719</ele>
        <time>2011-05-07T11:49:26Z</time>
      </trkpt>
      <trkpt lat="44.81024" lon="5.10613">
        <ele>757.67864990234</ele>
        <time>2011-05-07T11:49:30Z</time>
      </trkpt>
      <trkpt lat="44.81059" lon="5.10596">
        <ele>759.59295654297</ele>
        <time>2011-05-07T11:49:35Z</time>
      </trkpt>
      <trkpt lat="44.81091" lon="5.10594">
        <ele>760</ele>
        <time>2011-05-07T11:49:40Z</time>
      </trkpt>
      <trkpt lat="44.81127" lon="5.1059">
        <ele>760.14184570312</ele>
        <time>2011-05-07T11:49:46Z</time>
      </trkpt>
      <trkpt lat="44.81166" lon="5.10587">
        <ele>760.69458007812</ele>
        <time>2011-05-07T11:49:53Z</time>
      </trkpt>
      <trkpt lat="44.81204" lon="5.10586">
        <ele>760.6923828125</ele>
        <time>2011-05-07T11:50:00Z</time>
      </trkpt>
      <trkpt lat="44.8122" lon="5.10587">
        <ele>761.06744384766</ele>
        <time>2011-05-07T11:50:03Z</time>
      </trkpt>
      <trkpt lat="44.81247" lon="5.1058">
        <ele>760</ele>
        <time>2011-05-07T11:50:08Z</time>
      </trkpt>
      <trkpt lat="44.81277" lon="5.10557">
        <ele>760</ele>
        <time>2011-05-07T11:50:15Z</time>
      </trkpt>
      <trkpt lat="44.813" lon="5.10538">
        <ele>760</ele>
        <time>2011-05-07T11:50:22Z</time>
      </trkpt>
      <trkpt lat="44.81315" lon="5.10525">
        <ele>760</ele>
        <time>2011-05-07T11:50:26Z</time>
      </trkpt>
      <trkpt lat="44.8135" lon="5.10502">
        <ele>760</ele>
        <time>2011-05-07T11:50:34Z</time>
      </trkpt>
      <trkpt lat="44.8137" lon="5.10486">
        <ele>760</ele>
        <time>2011-05-07T11:50:39Z</time>
      </trkpt>
      <trkpt lat="44.81408" lon="5.10449">
        <ele>764.79528808594</ele>
        <time>2011-05-07T11:50:48Z</time>
      </trkpt>
      <trkpt lat="44.81438" lon="5.10418">
        <ele>772.708984375</ele>
        <time>2011-05-07T11:50:55Z</time>
      </trkpt>
      <trkpt lat="44.81457" lon="5.10414">
        <ele>776.79431152344</ele>
        <time>2011-05-07T11:50:59Z</time>
      </trkpt>
      <trkpt lat="44.81461" lon="5.10417">
        <ele>777.47192382812</ele>
        <time>2011-05-07T11:51:00Z</time>
      </trkpt>
      <trkpt lat="44.81493" lon="5.10456">
        <ele>780.30755615234</ele>
        <time>2011-05-07T11:51:10Z</time>
      </trkpt>
      <trkpt lat="44.8152" lon="5.10483">
        <ele>783.82653808594</ele>
        <time>2011-05-07T11:51:18Z</time>
      </trkpt>
      <trkpt lat="44.81549" lon="5.10508">
        <ele>786.98913574219</ele>
        <time>2011-05-07T11:51:26Z</time>
      </trkpt>
      <trkpt lat="44.81566" lon="5.10524">
        <ele>787.87829589844</ele>
        <time>2011-05-07T11:51:33Z</time>
      </trkpt>
      <trkpt lat="44.81582" lon="5.10542">
        <ele>788.28735351562</ele>
        <time>2011-05-07T11:51:40Z</time>
      </trkpt>
      <trkpt lat="44.81601" lon="5.10565">
        <ele>789.01507568359</ele>
        <time>2011-05-07T11:51:48Z</time>
      </trkpt>
      <trkpt lat="44.81625" lon="5.10593">
        <ele>789.82745361328</ele>
        <time>2011-05-07T11:51:58Z</time>
      </trkpt>
      <trkpt lat="44.81654" lon="5.10622">
        <ele>790.81964111328</ele>
        <time>2011-05-07T11:52:09Z</time>
      </trkpt>
      <trkpt lat="44.81675" lon="5.10642">
        <ele>791.48687744141</ele>
        <time>2011-05-07T11:52:17Z</time>
      </trkpt>
      <trkpt lat="44.81698" lon="5.10665">
        <ele>791.46398925781</ele>
        <time>2011-05-07T11:52:26Z</time>
      </trkpt>
      <trkpt lat="44.8172" lon="5.1069">
        <ele>790.31384277344</ele>
        <time>2011-05-07T11:52:34Z</time>
      </trkpt>
      <trkpt lat="44.8173" lon="5.10716">
        <ele>789.72436523438</ele>
        <time>2011-05-07T11:52:40Z</time>
      </trkpt>
      <trkpt lat="44.81731" lon="5.10743">
        <ele>787.32501220703</ele>
        <time>2011-05-07T11:52:45Z</time>
      </trkpt>
      <trkpt lat="44.81731" lon="5.10778">
        <ele>784.58966064453</ele>
        <time>2011-05-07T11:52:52Z</time>
      </trkpt>
      <trkpt lat="44.81739" lon="5.10802">
        <ele>783.37603759766</ele>
        <time>2011-05-07T11:52:57Z</time>
      </trkpt>
      <trkpt lat="44.81753" lon="5.10816">
        <ele>785.20617675781</ele>
        <time>2011-05-07T11:53:02Z</time>
      </trkpt>
      <trkpt lat="44.81781" lon="5.10825">
        <ele>789.62628173828</ele>
        <time>2011-05-07T11:53:10Z</time>
      </trkpt>
      <trkpt lat="44.81812" lon="5.10833">
        <ele>793.21313476562</ele>
        <time>2011-05-07T11:53:19Z</time>
      </trkpt>
      <trkpt lat="44.81836" lon="5.10839">
        <ele>797.76654052734</ele>
        <time>2011-05-07T11:53:26Z</time>
      </trkpt>
      <trkpt lat="44.81863" lon="5.10842">
        <ele>802.76092529297</ele>
        <time>2011-05-07T11:53:34Z</time>
      </trkpt>
      <trkpt lat="44.81889" lon="5.1084">
        <ele>805.45947265625</ele>
        <time>2011-05-07T11:53:42Z</time>
      </trkpt>
      <trkpt lat="44.81917" lon="5.10838">
        <ele>808.37310791016</ele>
        <time>2011-05-07T11:53:51Z</time>
      </trkpt>
      <trkpt lat="44.81945" lon="5.10839">
        <ele>812.267578125</ele>
        <time>2011-05-07T11:54:00Z</time>
      </trkpt>
      <trkpt lat="44.81969" lon="5.10843">
        <ele>814.94891357422</ele>
        <time>2011-05-07T11:54:08Z</time>
      </trkpt>
      <trkpt lat="44.82003" lon="5.10849">
        <ele>818.13616943359</ele>
        <time>2011-05-07T11:54:19Z</time>
      </trkpt>
      <trkpt lat="44.82037" lon="5.10856">
        <ele>820.18469238281</ele>
        <time>2011-05-07T11:54:30Z</time>
      </trkpt>
      <trkpt lat="44.82063" lon="5.10861">
        <ele>822.78765869141</ele>
        <time>2011-05-07T11:54:39Z</time>
      </trkpt>
      <trkpt lat="44.82088" lon="5.10862">
        <ele>825.13708496094</ele>
        <time>2011-05-07T11:54:48Z</time>
      </trkpt>
      <trkpt lat="44.82112" lon="5.10854">
        <ele>826.59326171875</ele>
        <time>2011-05-07T11:54:57Z</time>
      </trkpt>
      <trkpt lat="44.82133" lon="5.1085">
        <ele>829.25054931641</ele>
        <time>2011-05-07T11:55:05Z</time>
      </trkpt>
      <trkpt lat="44.82153" lon="5.10847">
        <ele>831.01965332031</ele>
        <time>2011-05-07T11:55:12Z</time>
      </trkpt>
      <trkpt lat="44.82165" lon="5.10848">
        <ele>831.88745117188</ele>
        <time>2011-05-07T11:55:17Z</time>
      </trkpt>
      <trkpt lat="44.82185" lon="5.10852">
        <ele>834.01928710938</ele>
        <time>2011-05-07T11:55:24Z</time>
      </trkpt>
      <trkpt lat="44.82204" lon="5.10868">
        <ele>836.03802490234</ele>
        <time>2011-05-07T11:55:31Z</time>
      </trkpt>
      <trkpt lat="44.82223" lon="5.10889">
        <ele>838.03253173828</ele>
        <time>2011-05-07T11:55:39Z</time>
      </trkpt>
      <trkpt lat="44.82245" lon="5.10916">
        <ele>838.01409912109</ele>
        <time>2011-05-07T11:55:48Z</time>
      </trkpt>
      <trkpt lat="44.82269" lon="5.10934">
        <ele>837.37530517578</ele>
        <time>2011-05-07T11:55:56Z</time>
      </trkpt>
      <trkpt lat="44.82291" lon="5.10943">
        <ele>837.04058837891</ele>
        <time>2011-05-07T11:56:02Z</time>
      </trkpt>
      <trkpt lat="44.82313" lon="5.10949">
        <ele>836.82086181641</ele>
        <time>2011-05-07T11:56:08Z</time>
      </trkpt>
      <trkpt lat="44.82321" lon="5.1095">
        <ele>836.8173828125</ele>
        <time>2011-05-07T11:56:10Z</time>
      </trkpt>
      <trkpt lat="44.8235" lon="5.10937">
        <ele>837.2568359375</ele>
        <time>2011-05-07T11:56:17Z</time>
      </trkpt>
      <trkpt lat="44.82363" lon="5.10929">
        <ele>837.55212402344</ele>
        <time>2011-05-07T11:56:20Z</time>
      </trkpt>
      <trkpt lat="44.82385" lon="5.10905">
        <ele>838.42419433594</ele>
        <time>2011-05-07T11:56:26Z</time>
      </trkpt>
      <trkpt lat="44.82409" lon="5.10864">
        <ele>836.95233154297</ele>
        <time>2011-05-07T11:56:33Z</time>
      </trkpt>
      <trkpt lat="44.82412" lon="5.10857">
        <ele>836.87255859375</ele>
        <time>2011-05-07T11:56:34Z</time>
      </trkpt>
      <trkpt lat="44.82436" lon="5.10793">
        <ele>841.00238037109</ele>
        <time>2011-05-07T11:56:42Z</time>
      </trkpt>
      <trkpt lat="44.8247" lon="5.10749">
        <ele>843.15515136719</ele>
        <time>2011-05-07T11:56:49Z</time>
      </trkpt>
      <trkpt lat="44.82507" lon="5.10721">
        <ele>846.10400390625</ele>
        <time>2011-05-07T11:56:55Z</time>
      </trkpt>
      <trkpt lat="44.8256" lon="5.10697">
        <ele>848.05712890625</ele>
        <time>2011-05-07T11:57:03Z</time>
      </trkpt>
      <trkpt lat="44.82604" lon="5.10692">
        <ele>849.12945556641</ele>
        <time>2011-05-07T11:57:10Z</time>
      </trkpt>
      <trkpt lat="44.82622" lon="5.1069">
        <ele>848.39215087891</ele>
        <time>2011-05-07T11:57:13Z</time>
      </trkpt>
      <trkpt lat="44.82639" lon="5.10693">
        <ele>847.03576660156</ele>
        <time>2011-05-07T11:57:16Z</time>
      </trkpt>
      <trkpt lat="44.82671" lon="5.10712">
        <ele>845.04736328125</ele>
        <time>2011-05-07T11:57:22Z</time>
      </trkpt>
      <trkpt lat="44.82698" lon="5.10741">
        <ele>842.88360595703</ele>
        <time>2011-05-07T11:57:28Z</time>
      </trkpt>
      <trkpt lat="44.82719" lon="5.10775">
        <ele>841.20104980469</ele>
        <time>2011-05-07T11:57:34Z</time>
      </trkpt>
      <trkpt lat="44.82734" lon="5.10798">
        <ele>840.00036621094</ele>
        <time>2011-05-07T11:57:38Z</time>
      </trkpt>
      <trkpt lat="44.82759" lon="5.10809">
        <ele>833.63562011719</ele>
        <time>2011-05-07T11:57:43Z</time>
      </trkpt>
      <trkpt lat="44.82776" lon="5.10802">
        <ele>826.93334960938</ele>
        <time>2011-05-07T11:57:46Z</time>
      </trkpt>
      <trkpt lat="44.82798" lon="5.10785">
        <ele>827.44512939453</ele>
        <time>2011-05-07T11:57:50Z</time>
      </trkpt>
      <trkpt lat="44.82832" lon="5.10764">
        <ele>830.40783691406</ele>
        <time>2011-05-07T11:57:55Z</time>
      </trkpt>
      <trkpt lat="44.82864" lon="5.10726">
        <ele>840.21575927734</ele>
        <time>2011-05-07T11:58:00Z</time>
      </trkpt>
      <trkpt lat="44.82881" lon="5.10696">
        <ele>840.72192382812</ele>
        <time>2011-05-07T11:58:03Z</time>
      </trkpt>
      <trkpt lat="44.82912" lon="5.10669">
        <ele>842.5751953125</ele>
        <time>2011-05-07T11:58:07Z</time>
      </trkpt>
      <trkpt lat="44.82944" lon="5.1067">
        <ele>844.97448730469</ele>
        <time>2011-05-07T11:58:11Z</time>
      </trkpt>
      <trkpt lat="44.82965" lon="5.10675">
        <ele>846.29187011719</ele>
        <time>2011-05-07T11:58:14Z</time>
      </trkpt>
      <trkpt lat="44.82991" lon="5.10687">
        <ele>847.66088867188</ele>
        <time>2011-05-07T11:58:18Z</time>
      </trkpt>
      <trkpt lat="44.83041" lon="5.10725">
        <ele>849.2607421875</ele>
        <time>2011-05-07T11:58:27Z</time>
      </trkpt>
      <trkpt lat="44.83072" lon="5.10749">
        <ele>848.65991210938</ele>
        <time>2011-05-07T11:58:33Z</time>
      </trkpt>
      <trkpt lat="44.83102" lon="5.10768">
        <ele>850.34332275391</ele>
        <time>2011-05-07T11:58:38Z</time>
      </trkpt>
      <trkpt lat="44.83137" lon="5.1079">
        <ele>850.14099121094</ele>
        <time>2011-05-07T11:58:44Z</time>
      </trkpt>
      <trkpt lat="44.83178" lon="5.10803">
        <ele>850.70440673828</ele>
        <time>2011-05-07T11:58:50Z</time>
      </trkpt>
      <trkpt lat="44.83216" lon="5.10806">
        <ele>850.95043945312</ele>
        <time>2011-05-07T11:58:55Z</time>
      </trkpt>
      <trkpt lat="44.83271" lon="5.10804">
        <ele>850.39727783203</ele>
        <time>2011-05-07T11:59:02Z</time>
      </trkpt>
      <trkpt lat="44.83321" lon="5.10809">
        <ele>840.830078125</ele>
        <time>2011-05-07T11:59:08Z</time>
      </trkpt>
      <trkpt lat="44.8338" lon="5.10811">
        <ele>840</ele>
        <time>2011-05-07T11:59:15Z</time>
      </trkpt>
      <trkpt lat="44.83429" lon="5.10794">
        <ele>840</ele>
        <time>2011-05-07T11:59:21Z</time>
      </trkpt>
      <trkpt lat="44.83467" lon="5.10767">
        <ele>840</ele>
        <time>2011-05-07T11:59:26Z</time>
      </trkpt>
      <trkpt lat="44.83508" lon="5.10724">
        <ele>840</ele>
        <time>2011-05-07T11:59:32Z</time>
      </trkpt>
      <trkpt lat="44.83514" lon="5.10716">
        <ele>839.783203125</ele>
        <time>2011-05-07T11:59:33Z</time>
      </trkpt>
      <trkpt lat="44.83534" lon="5.1068">
        <ele>838.25451660156</ele>
        <time>2011-05-07T11:59:37Z</time>
      </trkpt>
      <trkpt lat="44.83559" lon="5.10654">
        <ele>836.3095703125</ele>
        <time>2011-05-07T11:59:41Z</time>
      </trkpt>
      <trkpt lat="44.83593" lon="5.10648">
        <ele>830.23645019531</ele>
        <time>2011-05-07T11:59:46Z</time>
      </trkpt>
      <trkpt lat="44.83605" lon="5.10659">
        <ele>826.43103027344</ele>
        <time>2011-05-07T11:59:48Z</time>
      </trkpt>
      <trkpt lat="44.8364" lon="5.10693">
        <ele>822.86499023438</ele>
        <time>2011-05-07T11:59:55Z</time>
      </trkpt>
      <trkpt lat="44.83654" lon="5.10704">
        <ele>823.1220703125</ele>
        <time>2011-05-07T11:59:58Z</time>
      </trkpt>
      <trkpt lat="44.83671" lon="5.10718">
        <ele>824.19891357422</ele>
        <time>2011-05-07T12:00:02Z</time>
      </trkpt>
      <trkpt lat="44.83702" lon="5.10749">
        <ele>831.96441650391</ele>
        <time>2011-05-07T12:00:09Z</time>
      </trkpt>
      <trkpt lat="44.83727" lon="5.10774">
        <ele>838.36303710938</ele>
        <time>2011-05-07T12:00:15Z</time>
      </trkpt>
      <trkpt lat="44.83754" lon="5.10805">
        <ele>839.42974853516</ele>
        <time>2011-05-07T12:00:21Z</time>
      </trkpt>
      <trkpt lat="44.83763" lon="5.10817">
        <ele>840.24957275391</ele>
        <time>2011-05-07T12:00:23Z</time>
      </trkpt>
      <trkpt lat="44.83813" lon="5.10865">
        <ele>846.42578125</ele>
        <time>2011-05-07T12:00:32Z</time>
      </trkpt>
      <trkpt lat="44.83853" lon="5.10921">
        <ele>854.78112792969</ele>
        <time>2011-05-07T12:00:41Z</time>
      </trkpt>
      <trkpt lat="44.83895" lon="5.10983">
        <ele>857.23773193359</ele>
        <time>2011-05-07T12:00:51Z</time>
      </trkpt>
      <trkpt lat="44.83923" lon="5.11021">
        <ele>857.46728515625</ele>
        <time>2011-05-07T12:00:57Z</time>
      </trkpt>
      <trkpt lat="44.83933" lon="5.11054">
        <ele>856.63299560547</ele>
        <time>2011-05-07T12:01:01Z</time>
      </trkpt>
      <trkpt lat="44.8394" lon="5.11112">
        <ele>854.82025146484</ele>
        <time>2011-05-07T12:01:06Z</time>
      </trkpt>
      <trkpt lat="44.83947" lon="5.11137">
        <ele>854.14904785156</ele>
        <time>2011-05-07T12:01:08Z</time>
      </trkpt>
      <trkpt lat="44.83979" lon="5.11203">
        <ele>853.96459960938</ele>
        <time>2011-05-07T12:01:14Z</time>
      </trkpt>
      <trkpt lat="44.84005" lon="5.11234">
        <ele>854.53833007812</ele>
        <time>2011-05-07T12:01:18Z</time>
      </trkpt>
      <trkpt lat="44.8404" lon="5.11259">
        <ele>855.61895751953</ele>
        <time>2011-05-07T12:01:23Z</time>
      </trkpt>
      <trkpt lat="44.84088" lon="5.11284">
        <ele>857.15911865234</ele>
        <time>2011-05-07T12:01:30Z</time>
      </trkpt>
      <trkpt lat="44.84139" lon="5.11316">
        <ele>858.01306152344</ele>
        <time>2011-05-07T12:01:38Z</time>
      </trkpt>
      <trkpt lat="44.84168" lon="5.1135">
        <ele>859.05676269531</ele>
        <time>2011-05-07T12:01:44Z</time>
      </trkpt>
      <trkpt lat="44.84193" lon="5.11392">
        <ele>859.93566894531</ele>
        <time>2011-05-07T12:01:51Z</time>
      </trkpt>
      <trkpt lat="44.84222" lon="5.11437">
        <ele>860</ele>
        <time>2011-05-07T12:01:59Z</time>
      </trkpt>
      <trkpt lat="44.84247" lon="5.11473">
        <ele>860</ele>
        <time>2011-05-07T12:02:06Z</time>
      </trkpt>
      <trkpt lat="44.84262" lon="5.11496">
        <ele>860</ele>
        <time>2011-05-07T12:02:12Z</time>
      </trkpt>
      <trkpt lat="44.84283" lon="5.11518">
        <ele>860</ele>
        <time>2011-05-07T12:02:20Z</time>
      </trkpt>
      <trkpt lat="44.84303" lon="5.11533">
        <ele>860</ele>
        <time>2011-05-07T12:02:27Z</time>
      </trkpt>
      <trkpt lat="44.84332" lon="5.11558">
        <ele>860</ele>
        <time>2011-05-07T12:02:38Z</time>
      </trkpt>
      <trkpt lat="44.84359" lon="5.11583">
        <ele>860</ele>
        <time>2011-05-07T12:02:48Z</time>
      </trkpt>
      <trkpt lat="44.84373" lon="5.11606">
        <ele>861.66131591797</ele>
        <time>2011-05-07T12:02:55Z</time>
      </trkpt>
      <trkpt lat="44.8439" lon="5.11645">
        <ele>865.88012695312</ele>
        <time>2011-05-07T12:03:06Z</time>
      </trkpt>
      <trkpt lat="44.84401" lon="5.11678">
        <ele>869.91790771484</ele>
        <time>2011-05-07T12:03:15Z</time>
      </trkpt>
      <trkpt lat="44.84408" lon="5.11702">
        <ele>871.74963378906</ele>
        <time>2011-05-07T12:03:22Z</time>
      </trkpt>
      <trkpt lat="44.84414" lon="5.11726">
        <ele>873.20690917969</ele>
        <time>2011-05-07T12:03:29Z</time>
      </trkpt>
      <trkpt lat="44.84422" lon="5.11756">
        <ele>875.54931640625</ele>
        <time>2011-05-07T12:03:37Z</time>
      </trkpt>
      <trkpt lat="44.8443" lon="5.1178">
        <ele>877.04388427734</ele>
        <time>2011-05-07T12:03:44Z</time>
      </trkpt>
      <trkpt lat="44.84442" lon="5.1181">
        <ele>879.06213378906</ele>
        <time>2011-05-07T12:03:52Z</time>
      </trkpt>
      <trkpt lat="44.84452" lon="5.11832">
        <ele>881.09619140625</ele>
        <time>2011-05-07T12:03:59Z</time>
      </trkpt>
      <trkpt lat="44.84462" lon="5.11852">
        <ele>884.52777099609</ele>
        <time>2011-05-07T12:04:06Z</time>
      </trkpt>
      <trkpt lat="44.84472" lon="5.11873">
        <ele>887.32104492188</ele>
        <time>2011-05-07T12:04:14Z</time>
      </trkpt>
      <trkpt lat="44.8448" lon="5.11891">
        <ele>889.20208740234</ele>
        <time>2011-05-07T12:04:21Z</time>
      </trkpt>
      <trkpt lat="44.8449" lon="5.11913">
        <ele>892.33319091797</ele>
        <time>2011-05-07T12:04:29Z</time>
      </trkpt>
      <trkpt lat="44.84499" lon="5.11934">
        <ele>895.14428710938</ele>
        <time>2011-05-07T12:04:36Z</time>
      </trkpt>
      <trkpt lat="44.8451" lon="5.11957">
        <ele>897.83770751953</ele>
        <time>2011-05-07T12:04:44Z</time>
      </trkpt>
      <trkpt lat="44.8452" lon="5.11979">
        <ele>899.46447753906</ele>
        <time>2011-05-07T12:04:51Z</time>
      </trkpt>
      <trkpt lat="44.84534" lon="5.12001">
        <ele>901.20178222656</ele>
        <time>2011-05-07T12:04:58Z</time>
      </trkpt>
      <trkpt lat="44.84553" lon="5.12028">
        <ele>904.55310058594</ele>
        <time>2011-05-07T12:05:06Z</time>
      </trkpt>
      <trkpt lat="44.84568" lon="5.12057">
        <ele>905.97027587891</ele>
        <time>2011-05-07T12:05:11Z</time>
      </trkpt>
      <trkpt lat="44.84591" lon="5.12112">
        <ele>908.72467041016</ele>
        <time>2011-05-07T12:05:18Z</time>
      </trkpt>
      <trkpt lat="44.84597" lon="5.12139">
        <ele>907.39392089844</ele>
        <time>2011-05-07T12:05:21Z</time>
      </trkpt>
      <trkpt lat="44.84599" lon="5.12194">
        <ele>902.64794921875</ele>
        <time>2011-05-07T12:05:27Z</time>
      </trkpt>
      <trkpt lat="44.84608" lon="5.12236">
        <ele>899.51177978516</ele>
        <time>2011-05-07T12:05:32Z</time>
      </trkpt>
      <trkpt lat="44.84628" lon="5.12259">
        <ele>900.06030273438</ele>
        <time>2011-05-07T12:05:36Z</time>
      </trkpt>
      <trkpt lat="44.84677" lon="5.1229">
        <ele>901.56988525391</ele>
        <time>2011-05-07T12:05:43Z</time>
      </trkpt>
      <trkpt lat="44.8474" lon="5.12322">
        <ele>901.78955078125</ele>
        <time>2011-05-07T12:05:51Z</time>
      </trkpt>
      <trkpt lat="44.84781" lon="5.12351">
        <ele>900.66961669922</ele>
        <time>2011-05-07T12:05:56Z</time>
      </trkpt>
      <trkpt lat="44.84823" lon="5.12391">
        <ele>904.89971923828</ele>
        <time>2011-05-07T12:06:02Z</time>
      </trkpt>
      <trkpt lat="44.84849" lon="5.12413">
        <ele>906.25085449219</ele>
        <time>2011-05-07T12:06:06Z</time>
      </trkpt>
      <trkpt lat="44.84875" lon="5.12457">
        <ele>908.02697753906</ele>
        <time>2011-05-07T12:06:12Z</time>
      </trkpt>
      <trkpt lat="44.84896" lon="5.12497">
        <ele>908.52349853516</ele>
        <time>2011-05-07T12:06:18Z</time>
      </trkpt>
      <trkpt lat="44.84937" lon="5.12564">
        <ele>905.42144775391</ele>
        <time>2011-05-07T12:06:28Z</time>
      </trkpt>
      <trkpt lat="44.84952" lon="5.12593">
        <ele>904.05432128906</ele>
        <time>2011-05-07T12:06:32Z</time>
      </trkpt>
      <trkpt lat="44.84986" lon="5.1263">
        <ele>900.97180175781</ele>
        <time>2011-05-07T12:06:39Z</time>
      </trkpt>
      <trkpt lat="44.85014" lon="5.12654">
        <ele>898.89984130859</ele>
        <time>2011-05-07T12:06:44Z</time>
      </trkpt>
      <trkpt lat="44.85021" lon="5.12658">
        <ele>897.88562011719</ele>
        <time>2011-05-07T12:06:45Z</time>
      </trkpt>
      <trkpt lat="44.85053" lon="5.12665">
        <ele>893.39819335938</ele>
        <time>2011-05-07T12:06:49Z</time>
      </trkpt>
      <trkpt lat="44.8507" lon="5.1266">
        <ele>892.66064453125</ele>
        <time>2011-05-07T12:06:51Z</time>
      </trkpt>
      <trkpt lat="44.85123" lon="5.12635">
        <ele>889.99975585938</ele>
        <time>2011-05-07T12:06:57Z</time>
      </trkpt>
      <trkpt lat="44.85174" lon="5.12604">
        <ele>886.98907470703</ele>
        <time>2011-05-07T12:07:02Z</time>
      </trkpt>
      <trkpt lat="44.85224" lon="5.126">
        <ele>884.41058349609</ele>
        <time>2011-05-07T12:07:06Z</time>
      </trkpt>
      <trkpt lat="44.85292" lon="5.12612">
        <ele>883.42144775391</ele>
        <time>2011-05-07T12:07:11Z</time>
      </trkpt>
      <trkpt lat="44.8535" lon="5.1262">
        <ele>879.26348876953</ele>
        <time>2011-05-07T12:07:15Z</time>
      </trkpt>
      <trkpt lat="44.85436" lon="5.12644">
        <ele>879</ele>
        <time>2011-05-07T12:07:21Z</time>
      </trkpt>
      <trkpt lat="44.855" lon="5.12659">
        <ele>879</ele>
        <time>2011-05-07T12:07:25Z</time>
      </trkpt>
      <trkpt lat="44.85563" lon="5.12669">
        <ele>879</ele>
        <time>2011-05-07T12:07:29Z</time>
      </trkpt>
      <trkpt lat="44.85638" lon="5.12686">
        <ele>879</ele>
        <time>2011-05-07T12:07:34Z</time>
      </trkpt>
      <trkpt lat="44.8572" lon="5.12707">
        <ele>879</ele>
        <time>2011-05-07T12:07:40Z</time>
      </trkpt>
      <trkpt lat="44.85757" lon="5.12722">
        <ele>879</ele>
        <time>2011-05-07T12:07:43Z</time>
      </trkpt>
      <trkpt lat="44.85802" lon="5.12722">
        <ele>879</ele>
        <time>2011-05-07T12:07:47Z</time>
      </trkpt>
      <trkpt lat="44.85811" lon="5.12721">
        <ele>879</ele>
        <time>2011-05-07T12:07:48Z</time>
      </trkpt>
      <trkpt lat="44.85854" lon="5.12732">
        <ele>879</ele>
        <time>2011-05-07T12:07:53Z</time>
      </trkpt>
      <trkpt lat="44.85878" lon="5.12745">
        <ele>879</ele>
        <time>2011-05-07T12:07:56Z</time>
      </trkpt>
      <trkpt lat="44.859" lon="5.12755">
        <ele>879</ele>
        <time>2011-05-07T12:07:59Z</time>
      </trkpt>
      <trkpt lat="44.85915" lon="5.12763">
        <ele>879</ele>
        <time>2011-05-07T12:08:01Z</time>
      </trkpt>
      <trkpt lat="44.85922" lon="5.12767">
        <ele>878.70068359375</ele>
        <time>2011-05-07T12:08:02Z</time>
      </trkpt>
      <trkpt lat="44.85944" lon="5.12778">
        <ele>877.00561523438</ele>
        <time>2011-05-07T12:08:05Z</time>
      </trkpt>
      <trkpt lat="44.86003" lon="5.12802">
        <ele>874.74841308594</ele>
        <time>2011-05-07T12:08:12Z</time>
      </trkpt>
      <trkpt lat="44.86043" lon="5.12814">
        <ele>872.29736328125</ele>
        <time>2011-05-07T12:08:16Z</time>
      </trkpt>
      <trkpt lat="44.86088" lon="5.12822">
        <ele>869.09301757812</ele>
        <time>2011-05-07T12:08:20Z</time>
      </trkpt>
      <trkpt lat="44.86155" lon="5.12832">
        <ele>863.91162109375</ele>
        <time>2011-05-07T12:08:25Z</time>
      </trkpt>
      <trkpt lat="44.86182" lon="5.12836">
        <ele>862.66864013672</ele>
        <time>2011-05-07T12:08:27Z</time>
      </trkpt>
      <trkpt lat="44.86218" lon="5.12842">
        <ele>863.51141357422</ele>
        <time>2011-05-07T12:08:30Z</time>
      </trkpt>
      <trkpt lat="44.86229" lon="5.12844">
        <ele>863.27655029297</ele>
        <time>2011-05-07T12:08:31Z</time>
      </trkpt>
      <trkpt lat="44.86271" lon="5.12852">
        <ele>861.62585449219</ele>
        <time>2011-05-07T12:08:35Z</time>
      </trkpt>
      <trkpt lat="44.86308" lon="5.12877">
        <ele>861.02746582031</ele>
        <time>2011-05-07T12:08:39Z</time>
      </trkpt>
      <trkpt lat="44.86334" lon="5.12903">
        <ele>861.01141357422</ele>
        <time>2011-05-07T12:08:42Z</time>
      </trkpt>
      <trkpt lat="44.86373" lon="5.12927">
        <ele>860</ele>
        <time>2011-05-07T12:08:46Z</time>
      </trkpt>
      <trkpt lat="44.86391" lon="5.12939">
        <ele>860</ele>
        <time>2011-05-07T12:08:48Z</time>
      </trkpt>
      <trkpt lat="44.86424" lon="5.1298">
        <ele>860</ele>
        <time>2011-05-07T12:08:52Z</time>
      </trkpt>
      <trkpt lat="44.86457" lon="5.13029">
        <ele>864.791015625</ele>
        <time>2011-05-07T12:08:56Z</time>
      </trkpt>
      <trkpt lat="44.86503" lon="5.13068">
        <ele>872.81317138672</ele>
        <time>2011-05-07T12:09:01Z</time>
      </trkpt>
      <trkpt lat="44.86535" lon="5.13095">
        <ele>876.51147460938</ele>
        <time>2011-05-07T12:09:05Z</time>
      </trkpt>
      <trkpt lat="44.86541" lon="5.13103">
        <ele>876.97839355469</ele>
        <time>2011-05-07T12:09:06Z</time>
      </trkpt>
      <trkpt lat="44.86568" lon="5.13145">
        <ele>879</ele>
        <time>2011-05-07T12:09:11Z</time>
      </trkpt>
      <trkpt lat="44.86592" lon="5.13179">
        <ele>879.32940673828</ele>
        <time>2011-05-07T12:09:16Z</time>
      </trkpt>
      <trkpt lat="44.86623" lon="5.13213">
        <ele>880</ele>
        <time>2011-05-07T12:09:22Z</time>
      </trkpt>
      <trkpt lat="44.86655" lon="5.1324">
        <ele>880</ele>
        <time>2011-05-07T12:09:28Z</time>
      </trkpt>
      <trkpt lat="44.86692" lon="5.13268">
        <ele>880</ele>
        <time>2011-05-07T12:09:35Z</time>
      </trkpt>
      <trkpt lat="44.86737" lon="5.13308">
        <ele>880</ele>
        <time>2011-05-07T12:09:44Z</time>
      </trkpt>
      <trkpt lat="44.86742" lon="5.13311">
        <ele>880</ele>
        <time>2011-05-07T12:09:45Z</time>
      </trkpt>
      <trkpt lat="44.86768" lon="5.13343">
        <ele>880</ele>
        <time>2011-05-07T12:09:53Z</time>
      </trkpt>
      <trkpt lat="44.86787" lon="5.13377">
        <ele>880</ele>
        <time>2011-05-07T12:10:01Z</time>
      </trkpt>
      <trkpt lat="44.8681" lon="5.13417">
        <ele>880.30511474609</ele>
        <time>2011-05-07T12:10:11Z</time>
      </trkpt>
      <trkpt lat="44.86827" lon="5.13446">
        <ele>880</ele>
        <time>2011-05-07T12:10:19Z</time>
      </trkpt>
      <trkpt lat="44.86845" lon="5.13472">
        <ele>883.66174316406</ele>
        <time>2011-05-07T12:10:27Z</time>
      </trkpt>
      <trkpt lat="44.86869" lon="5.135">
        <ele>890.71374511719</ele>
        <time>2011-05-07T12:10:37Z</time>
      </trkpt>
      <trkpt lat="44.86889" lon="5.13515">
        <ele>894.37701416016</ele>
        <time>2011-05-07T12:10:45Z</time>
      </trkpt>
      <trkpt lat="44.86896" lon="5.1352">
        <ele>896.63055419922</ele>
        <time>2011-05-07T12:10:48Z</time>
      </trkpt>
      <trkpt lat="44.86922" lon="5.13532">
        <ele>906.29522705078</ele>
        <time>2011-05-07T12:10:58Z</time>
      </trkpt>
      <trkpt lat="44.86939" lon="5.13539">
        <ele>916.42028808594</ele>
        <time>2011-05-07T12:11:05Z</time>
      </trkpt>
      <trkpt lat="44.86942" lon="5.1354">
        <ele>918.12310791016</ele>
        <time>2011-05-07T12:11:06Z</time>
      </trkpt>
      <trkpt lat="44.86953" lon="5.13546">
        <ele>920</ele>
        <time>2011-05-07T12:11:11Z</time>
      </trkpt>
      <trkpt lat="44.86973" lon="5.13555">
        <ele>920</ele>
        <time>2011-05-07T12:11:19Z</time>
      </trkpt>
      <trkpt lat="44.86989" lon="5.13565">
        <ele>919.73303222656</ele>
        <time>2011-05-07T12:11:25Z</time>
      </trkpt>
      <trkpt lat="44.87012" lon="5.13578">
        <ele>918.69317626953</ele>
        <time>2011-05-07T12:11:34Z</time>
      </trkpt>
      <trkpt lat="44.87032" lon="5.13587">
        <ele>916.34173583984</ele>
        <time>2011-05-07T12:11:42Z</time>
      </trkpt>
      <trkpt lat="44.8705" lon="5.13595">
        <ele>913.01434326172</ele>
        <time>2011-05-07T12:11:49Z</time>
      </trkpt>
      <trkpt lat="44.87072" lon="5.13607">
        <ele>907.64587402344</ele>
        <time>2011-05-07T12:11:57Z</time>
      </trkpt>
      <trkpt lat="44.87091" lon="5.13629">
        <ele>904.58471679688</ele>
        <time>2011-05-07T12:12:04Z</time>
      </trkpt>
      <trkpt lat="44.87108" lon="5.13661">
        <ele>903.97283935547</ele>
        <time>2011-05-07T12:12:12Z</time>
      </trkpt>
      <trkpt lat="44.87123" lon="5.13689">
        <ele>905.56811523438</ele>
        <time>2011-05-07T12:12:19Z</time>
      </trkpt>
      <trkpt lat="44.8714" lon="5.13722">
        <ele>909.52838134766</ele>
        <time>2011-05-07T12:12:27Z</time>
      </trkpt>
      <trkpt lat="44.87157" lon="5.13757">
        <ele>917.82568359375</ele>
        <time>2011-05-07T12:12:35Z</time>
      </trkpt>
      <trkpt lat="44.87174" lon="5.13791">
        <ele>923.3896484375</ele>
        <time>2011-05-07T12:12:43Z</time>
      </trkpt>
      <trkpt lat="44.87192" lon="5.13819">
        <ele>930.41247558594</ele>
        <time>2011-05-07T12:12:50Z</time>
      </trkpt>
      <trkpt lat="44.87215" lon="5.13848">
        <ele>936.99694824219</ele>
        <time>2011-05-07T12:12:58Z</time>
      </trkpt>
      <trkpt lat="44.87239" lon="5.13864">
        <ele>942.06378173828</ele>
        <time>2011-05-07T12:13:05Z</time>
      </trkpt>
      <trkpt lat="44.87255" lon="5.13864">
        <ele>946.14727783203</ele>
        <time>2011-05-07T12:13:10Z</time>
      </trkpt>
      <trkpt lat="44.87267" lon="5.13862">
        <ele>949.74090576172</ele>
        <time>2011-05-07T12:13:15Z</time>
      </trkpt>
      <trkpt lat="44.87288" lon="5.13862">
        <ele>955.72113037109</ele>
        <time>2011-05-07T12:13:23Z</time>
      </trkpt>
      <trkpt lat="44.87311" lon="5.13869">
        <ele>961.66058349609</ele>
        <time>2011-05-07T12:13:31Z</time>
      </trkpt>
      <trkpt lat="44.87328" lon="5.13879">
        <ele>963.99761962891</ele>
        <time>2011-05-07T12:13:36Z</time>
      </trkpt>
      <trkpt lat="44.87358" lon="5.13902">
        <ele>967.65600585938</ele>
        <time>2011-05-07T12:13:45Z</time>
      </trkpt>
      <trkpt lat="44.87379" lon="5.13926">
        <ele>968.31396484375</ele>
        <time>2011-05-07T12:13:53Z</time>
      </trkpt>
      <trkpt lat="44.87391" lon="5.13951">
        <ele>966.84381103516</ele>
        <time>2011-05-07T12:13:59Z</time>
      </trkpt>
      <trkpt lat="44.87403" lon="5.1397">
        <ele>966.78802490234</ele>
        <time>2011-05-07T12:14:05Z</time>
      </trkpt>
      <trkpt lat="44.87423" lon="5.13986">
        <ele>967.14025878906</ele>
        <time>2011-05-07T12:14:13Z</time>
      </trkpt>
      <trkpt lat="44.87439" lon="5.13997">
        <ele>968.53887939453</ele>
        <time>2011-05-07T12:14:19Z</time>
      </trkpt>
      <trkpt lat="44.87462" lon="5.14006">
        <ele>973.25573730469</ele>
        <time>2011-05-07T12:14:27Z</time>
      </trkpt>
      <trkpt lat="44.87468" lon="5.14008">
        <ele>974.74078369141</ele>
        <time>2011-05-07T12:14:29Z</time>
      </trkpt>
      <trkpt lat="44.8749" lon="5.14013">
        <ele>978.27191162109</ele>
        <time>2011-05-07T12:14:37Z</time>
      </trkpt>
      <trkpt lat="44.87509" lon="5.14016">
        <ele>980.29907226562</ele>
        <time>2011-05-07T12:14:44Z</time>
      </trkpt>
      <trkpt lat="44.87533" lon="5.14018">
        <ele>982.76556396484</ele>
        <time>2011-05-07T12:14:53Z</time>
      </trkpt>
      <trkpt lat="44.87548" lon="5.14019">
        <ele>986.73663330078</ele>
        <time>2011-05-07T12:15:00Z</time>
      </trkpt>
      <trkpt lat="44.87561" lon="5.14021">
        <ele>989.57995605469</ele>
        <time>2011-05-07T12:15:07Z</time>
      </trkpt>
      <trkpt lat="44.87572" lon="5.14023">
        <ele>991.708984375</ele>
        <time>2011-05-07T12:15:12Z</time>
      </trkpt>
      <trkpt lat="44.87588" lon="5.14029">
        <ele>995.10955810547</ele>
        <time>2011-05-07T12:15:19Z</time>
      </trkpt>
      <trkpt lat="44.87601" lon="5.14039">
        <ele>997.79724121094</ele>
        <time>2011-05-07T12:15:25Z</time>
      </trkpt>
      <trkpt lat="44.87608" lon="5.14051">
        <ele>999.18280029297</ele>
        <time>2011-05-07T12:15:29Z</time>
      </trkpt>
      <trkpt lat="44.87617" lon="5.14077">
        <ele>1000.3067016602</ele>
        <time>2011-05-07T12:15:37Z</time>
      </trkpt>
      <trkpt lat="44.87619" lon="5.14091">
        <ele>1000.045715332</ele>
        <time>2011-05-07T12:15:41Z</time>
      </trkpt>
      <trkpt lat="44.87621" lon="5.14106">
        <ele>999.21099853516</ele>
        <time>2011-05-07T12:15:47Z</time>
      </trkpt>
      <trkpt lat="44.87621" lon="5.14127">
        <ele>997.32592773438</ele>
        <time>2011-05-07T12:15:56Z</time>
      </trkpt>
      <trkpt lat="44.87618" lon="5.14145">
        <ele>995.86187744141</ele>
        <time>2011-05-07T12:16:04Z</time>
      </trkpt>
      <trkpt lat="44.87615" lon="5.14168">
        <ele>995.29467773438</ele>
        <time>2011-05-07T12:16:13Z</time>
      </trkpt>
      <trkpt lat="44.87614" lon="5.14185">
        <ele>995.18481445312</ele>
        <time>2011-05-07T12:16:19Z</time>
      </trkpt>
      <trkpt lat="44.87612" lon="5.14216">
        <ele>996.583984375</ele>
        <time>2011-05-07T12:16:28Z</time>
      </trkpt>
      <trkpt lat="44.87614" lon="5.14244">
        <ele>999.37030029297</ele>
        <time>2011-05-07T12:16:35Z</time>
      </trkpt>
      <trkpt lat="44.87624" lon="5.14271">
        <ele>1000</ele>
        <time>2011-05-07T12:16:43Z</time>
      </trkpt>
      <trkpt lat="44.87638" lon="5.14302">
        <ele>1000</ele>
        <time>2011-05-07T12:16:52Z</time>
      </trkpt>
      <trkpt lat="44.8765" lon="5.14329">
        <ele>1000</ele>
        <time>2011-05-07T12:17:00Z</time>
      </trkpt>
      <trkpt lat="44.8766" lon="5.14347">
        <ele>999.64245605469</ele>
        <time>2011-05-07T12:17:04Z</time>
      </trkpt>
      <trkpt lat="44.87672" lon="5.14359">
        <ele>998.87213134766</ele>
        <time>2011-05-07T12:17:07Z</time>
      </trkpt>
      <trkpt lat="44.87695" lon="5.14372">
        <ele>998</ele>
        <time>2011-05-07T12:17:11Z</time>
      </trkpt>
      <trkpt lat="44.87728" lon="5.14378">
        <ele>996.92791748047</ele>
        <time>2011-05-07T12:17:15Z</time>
      </trkpt>
      <trkpt lat="44.87765" lon="5.14399">
        <ele>990.29083251953</ele>
        <time>2011-05-07T12:17:19Z</time>
      </trkpt>
      <trkpt lat="44.87812" lon="5.14412">
        <ele>985.25909423828</ele>
        <time>2011-05-07T12:17:23Z</time>
      </trkpt>
      <trkpt lat="44.87838" lon="5.14416">
        <ele>983.90203857422</ele>
        <time>2011-05-07T12:17:25Z</time>
      </trkpt>
      <trkpt lat="44.87889" lon="5.14436">
        <ele>979.703125</ele>
        <time>2011-05-07T12:17:29Z</time>
      </trkpt>
      <trkpt lat="44.87902" lon="5.14441">
        <ele>980.27026367188</ele>
        <time>2011-05-07T12:17:30Z</time>
      </trkpt>
      <trkpt lat="44.87941" lon="5.14437">
        <ele>982.43499755859</ele>
        <time>2011-05-07T12:17:33Z</time>
      </trkpt>
      <trkpt lat="44.87976" lon="5.1441">
        <ele>978.37103271484</ele>
        <time>2011-05-07T12:17:36Z</time>
      </trkpt>
      <trkpt lat="44.87986" lon="5.14398">
        <ele>975.25970458984</ele>
        <time>2011-05-07T12:17:37Z</time>
      </trkpt>
      <trkpt lat="44.87995" lon="5.14385">
        <ele>971.16906738281</ele>
        <time>2011-05-07T12:17:38Z</time>
      </trkpt>
      <trkpt lat="44.88011" lon="5.14361">
        <ele>965.10235595703</ele>
        <time>2011-05-07T12:17:40Z</time>
      </trkpt>
      <trkpt lat="44.88039" lon="5.14347">
        <ele>964.72528076172</ele>
        <time>2011-05-07T12:17:43Z</time>
      </trkpt>
      <trkpt lat="44.88066" lon="5.14357">
        <ele>973.79962158203</ele>
        <time>2011-05-07T12:17:46Z</time>
      </trkpt>
      <trkpt lat="44.88081" lon="5.14369">
        <ele>981.83282470703</ele>
        <time>2011-05-07T12:17:48Z</time>
      </trkpt>
      <trkpt lat="44.88108" lon="5.14393">
        <ele>991.84454345703</ele>
        <time>2011-05-07T12:17:52Z</time>
      </trkpt>
      <trkpt lat="44.88128" lon="5.14402">
        <ele>998.76550292969</ele>
        <time>2011-05-07T12:17:56Z</time>
      </trkpt>
      <trkpt lat="44.88144" lon="5.14393">
        <ele>1001.2230834961</ele>
        <time>2011-05-07T12:18:01Z</time>
      </trkpt>
      <trkpt lat="44.88148" lon="5.14384">
        <ele>1000.8786621094</ele>
        <time>2011-05-07T12:18:03Z</time>
      </trkpt>
      <trkpt lat="44.88152" lon="5.14353">
        <ele>998.02899169922</ele>
        <time>2011-05-07T12:18:09Z</time>
      </trkpt>
      <trkpt lat="44.8814" lon="5.14331">
        <ele>989.96533203125</ele>
        <time>2011-05-07T12:18:14Z</time>
      </trkpt>
      <trkpt lat="44.88124" lon="5.14304">
        <ele>979.62927246094</ele>
        <time>2011-05-07T12:18:21Z</time>
      </trkpt>
      <trkpt lat="44.88116" lon="5.14281">
        <ele>968.62573242188</ele>
        <time>2011-05-07T12:18:28Z</time>
      </trkpt>
      <trkpt lat="44.88116" lon="5.14277">
        <ele>967.49639892578</ele>
        <time>2011-05-07T12:18:29Z</time>
      </trkpt>
      <trkpt lat="44.88118" lon="5.14252">
        <ele>959.95385742188</ele>
        <time>2011-05-07T12:18:37Z</time>
      </trkpt>
      <trkpt lat="44.88125" lon="5.14235">
        <ele>958.39190673828</ele>
        <time>2011-05-07T12:18:43Z</time>
      </trkpt>
      <trkpt lat="44.88136" lon="5.1422">
        <ele>957.31439208984</ele>
        <time>2011-05-07T12:18:49Z</time>
      </trkpt>
      <trkpt lat="44.88157" lon="5.14213">
        <ele>955.87524414062</ele>
        <time>2011-05-07T12:18:55Z</time>
      </trkpt>
      <trkpt lat="44.88182" lon="5.14209">
        <ele>955.3642578125</ele>
        <time>2011-05-07T12:19:01Z</time>
      </trkpt>
      <trkpt lat="44.88216" lon="5.14203">
        <ele>953.72662353516</ele>
        <time>2011-05-07T12:19:07Z</time>
      </trkpt>
      <trkpt lat="44.88231" lon="5.14201">
        <ele>953.55499267578</ele>
        <time>2011-05-07T12:19:09Z</time>
      </trkpt>
      <trkpt lat="44.88261" lon="5.14207">
        <ele>956.29656982422</ele>
        <time>2011-05-07T12:19:13Z</time>
      </trkpt>
      <trkpt lat="44.88299" lon="5.14231">
        <ele>964.26544189453</ele>
        <time>2011-05-07T12:19:18Z</time>
      </trkpt>
      <trkpt lat="44.88316" lon="5.14244">
        <ele>966.02026367188</ele>
        <time>2011-05-07T12:19:20Z</time>
      </trkpt>
      <trkpt lat="44.88347" lon="5.14253">
        <ele>966.73107910156</ele>
        <time>2011-05-07T12:19:23Z</time>
      </trkpt>
      <trkpt lat="44.88406" lon="5.1428">
        <ele>980.35815429688</ele>
        <time>2011-05-07T12:19:28Z</time>
      </trkpt>
      <trkpt lat="44.88445" lon="5.14283">
        <ele>985.66717529297</ele>
        <time>2011-05-07T12:19:31Z</time>
      </trkpt>
      <trkpt lat="44.88457" lon="5.14277">
        <ele>987.23846435547</ele>
        <time>2011-05-07T12:19:32Z</time>
      </trkpt>
      <trkpt lat="44.88501" lon="5.14251">
        <ele>990.205078125</ele>
        <time>2011-05-07T12:19:37Z</time>
      </trkpt>
      <trkpt lat="44.88537" lon="5.14235">
        <ele>990.23028564453</ele>
        <time>2011-05-07T12:19:42Z</time>
      </trkpt>
      <trkpt lat="44.88545" lon="5.14232">
        <ele>990.34014892578</ele>
        <time>2011-05-07T12:19:43Z</time>
      </trkpt>
      <trkpt lat="44.88568" lon="5.14227">
        <ele>990.3583984375</ele>
        <time>2011-05-07T12:19:46Z</time>
      </trkpt>
      <trkpt lat="44.88597" lon="5.14233">
        <ele>990.76007080078</ele>
        <time>2011-05-07T12:19:50Z</time>
      </trkpt>
      <trkpt lat="44.88622" lon="5.14252">
        <ele>991.84387207031</ele>
        <time>2011-05-07T12:19:55Z</time>
      </trkpt>
      <trkpt lat="44.88628" lon="5.14255">
        <ele>992.12536621094</ele>
        <time>2011-05-07T12:19:57Z</time>
      </trkpt>
      <trkpt lat="44.88643" lon="5.14262">
        <ele>992.56958007812</ele>
        <time>2011-05-07T12:20:03Z</time>
      </trkpt>
      <trkpt lat="44.8866" lon="5.14273">
        <ele>992.98083496094</ele>
        <time>2011-05-07T12:20:10Z</time>
      </trkpt>
      <trkpt lat="44.88671" lon="5.14285">
        <ele>993.90631103516</ele>
        <time>2011-05-07T12:20:16Z</time>
      </trkpt>
      <trkpt lat="44.8868" lon="5.143">
        <ele>995.72595214844</ele>
        <time>2011-05-07T12:20:21Z</time>
      </trkpt>
      <trkpt lat="44.88692" lon="5.14319">
        <ele>997.05834960938</ele>
        <time>2011-05-07T12:20:28Z</time>
      </trkpt>
      <trkpt lat="44.88708" lon="5.14338">
        <ele>997.76672363281</ele>
        <time>2011-05-07T12:20:35Z</time>
      </trkpt>
      <trkpt lat="44.88723" lon="5.14351">
        <ele>998.5283203125</ele>
        <time>2011-05-07T12:20:40Z</time>
      </trkpt>
      <trkpt lat="44.88746" lon="5.14359">
        <ele>999.64068603516</ele>
        <time>2011-05-07T12:20:47Z</time>
      </trkpt>
      <trkpt lat="44.88768" lon="5.14377">
        <ele>1001.7698364258</ele>
        <time>2011-05-07T12:20:55Z</time>
      </trkpt>
      <trkpt lat="44.88789" lon="5.14394">
        <ele>1004.8611450195</ele>
        <time>2011-05-07T12:21:03Z</time>
      </trkpt>
      <trkpt lat="44.88812" lon="5.14403">
        <ele>1007.4644775391</ele>
        <time>2011-05-07T12:21:11Z</time>
      </trkpt>
      <trkpt lat="44.88834" lon="5.14403">
        <ele>1007.6677856445</ele>
        <time>2011-05-07T12:21:19Z</time>
      </trkpt>
      <trkpt lat="44.88854" lon="5.14399">
        <ele>1007.8660888672</ele>
        <time>2011-05-07T12:21:26Z</time>
      </trkpt>
      <trkpt lat="44.88876" lon="5.14395">
        <ele>1008.2583007812</ele>
        <time>2011-05-07T12:21:34Z</time>
      </trkpt>
      <trkpt lat="44.88894" lon="5.14399">
        <ele>1010.146484375</ele>
        <time>2011-05-07T12:21:40Z</time>
      </trkpt>
      <trkpt lat="44.88905" lon="5.14405">
        <ele>1012.0759887695</ele>
        <time>2011-05-07T12:21:44Z</time>
      </trkpt>
      <trkpt lat="44.8893" lon="5.14422">
        <ele>1016.8187866211</ele>
        <time>2011-05-07T12:21:53Z</time>
      </trkpt>
      <trkpt lat="44.88952" lon="5.1444">
        <ele>1020.6978759766</ele>
        <time>2011-05-07T12:22:01Z</time>
      </trkpt>
      <trkpt lat="44.88966" lon="5.14461">
        <ele>1023.0798339844</ele>
        <time>2011-05-07T12:22:08Z</time>
      </trkpt>
      <trkpt lat="44.88982" lon="5.14476">
        <ele>1025.1243896484</ele>
        <time>2011-05-07T12:22:15Z</time>
      </trkpt>
      <trkpt lat="44.88999" lon="5.14479">
        <ele>1026.6470947266</ele>
        <time>2011-05-07T12:22:21Z</time>
      </trkpt>
      <trkpt lat="44.89018" lon="5.14486">
        <ele>1027.5321044922</ele>
        <time>2011-05-07T12:22:28Z</time>
      </trkpt>
      <trkpt lat="44.8902" lon="5.14489">
        <ele>1027.7999267578</ele>
        <time>2011-05-07T12:22:29Z</time>
      </trkpt>
      <trkpt lat="44.89026" lon="5.14501">
        <ele>1029.0496826172</ele>
        <time>2011-05-07T12:22:33Z</time>
      </trkpt>
      <trkpt lat="44.89029" lon="5.14528">
        <ele>1029.9675292969</ele>
        <time>2011-05-07T12:22:39Z</time>
      </trkpt>
      <trkpt lat="44.89027" lon="5.1456">
        <ele>1033.3278808594</ele>
        <time>2011-05-07T12:22:45Z</time>
      </trkpt>
      <trkpt lat="44.89024" lon="5.14604">
        <ele>1036.6384277344</ele>
        <time>2011-05-07T12:22:51Z</time>
      </trkpt>
      <trkpt lat="44.8902" lon="5.1467">
        <ele>1037.3842773438</ele>
        <time>2011-05-07T12:22:59Z</time>
      </trkpt>
      <trkpt lat="44.89007" lon="5.14718">
        <ele>1038</ele>
        <time>2011-05-07T12:23:06Z</time>
      </trkpt>
      <trkpt lat="44.89005" lon="5.14724">
        <ele>1038.0684814453</ele>
        <time>2011-05-07T12:23:07Z</time>
      </trkpt>
      <trkpt lat="44.88989" lon="5.14792">
        <ele>1039</ele>
        <time>2011-05-07T12:23:17Z</time>
      </trkpt>
      <trkpt lat="44.88986" lon="5.14805">
        <ele>1039</ele>
        <time>2011-05-07T12:23:19Z</time>
      </trkpt>
      <trkpt lat="44.88961" lon="5.14858">
        <ele>1039.0380859375</ele>
        <time>2011-05-07T12:23:28Z</time>
      </trkpt>
      <trkpt lat="44.88943" lon="5.14897">
        <ele>1039.3153076172</ele>
        <time>2011-05-07T12:23:34Z</time>
      </trkpt>
      <trkpt lat="44.8894" lon="5.14903">
        <ele>1039.5915527344</ele>
        <time>2011-05-07T12:23:35Z</time>
      </trkpt>
      <trkpt lat="44.88929" lon="5.14961">
        <ele>1040</ele>
        <time>2011-05-07T12:23:43Z</time>
      </trkpt>
      <trkpt lat="44.88923" lon="5.15011">
        <ele>1040</ele>
        <time>2011-05-07T12:23:51Z</time>
      </trkpt>
      <trkpt lat="44.88922" lon="5.15017">
        <ele>1040</ele>
        <time>2011-05-07T12:23:52Z</time>
      </trkpt>
      <trkpt lat="44.88916" lon="5.15061">
        <ele>1040</ele>
        <time>2011-05-07T12:24:00Z</time>
      </trkpt>
      <trkpt lat="44.88911" lon="5.15102">
        <ele>1040.6584472656</ele>
        <time>2011-05-07T12:24:08Z</time>
      </trkpt>
      <trkpt lat="44.88907" lon="5.15136">
        <ele>1042.8128662109</ele>
        <time>2011-05-07T12:24:15Z</time>
      </trkpt>
      <trkpt lat="44.88901" lon="5.15182">
        <ele>1046.1259765625</ele>
        <time>2011-05-07T12:24:24Z</time>
      </trkpt>
      <trkpt lat="44.88896" lon="5.15218">
        <ele>1047.8658447266</ele>
        <time>2011-05-07T12:24:31Z</time>
      </trkpt>
      <trkpt lat="44.8889" lon="5.15256">
        <ele>1050.4337158203</ele>
        <time>2011-05-07T12:24:39Z</time>
      </trkpt>
      <trkpt lat="44.88883" lon="5.15291">
        <ele>1052.8557128906</ele>
        <time>2011-05-07T12:24:47Z</time>
      </trkpt>
      <trkpt lat="44.88878" lon="5.15318">
        <ele>1054.5070800781</ele>
        <time>2011-05-07T12:24:54Z</time>
      </trkpt>
      <trkpt lat="44.88876" lon="5.15339">
        <ele>1055.7280273438</ele>
        <time>2011-05-07T12:25:00Z</time>
      </trkpt>
      <trkpt lat="44.88874" lon="5.15359">
        <ele>1056.3975830078</ele>
        <time>2011-05-07T12:25:06Z</time>
      </trkpt>
      <trkpt lat="44.8887" lon="5.15379">
        <ele>1057.8282470703</ele>
        <time>2011-05-07T12:25:12Z</time>
      </trkpt>
      <trkpt lat="44.88863" lon="5.15405">
        <ele>1059.9145507812</ele>
        <time>2011-05-07T12:25:20Z</time>
      </trkpt>
      <trkpt lat="44.88858" lon="5.15421">
        <ele>1061.2003173828</ele>
        <time>2011-05-07T12:25:25Z</time>
      </trkpt>
      <trkpt lat="44.88851" lon="5.15435">
        <ele>1062.0118408203</ele>
        <time>2011-05-07T12:25:30Z</time>
      </trkpt>
      <trkpt lat="44.8884" lon="5.15451">
        <ele>1062.4525146484</ele>
        <time>2011-05-07T12:25:36Z</time>
      </trkpt>
      <trkpt lat="44.88826" lon="5.15464">
        <ele>1062.1533203125</ele>
        <time>2011-05-07T12:25:42Z</time>
      </trkpt>
      <trkpt lat="44.88808" lon="5.15479">
        <ele>1060.87890625</ele>
        <time>2011-05-07T12:25:50Z</time>
      </trkpt>
      <trkpt lat="44.888" lon="5.15497">
        <ele>1061.3956298828</ele>
        <time>2011-05-07T12:25:56Z</time>
      </trkpt>
      <trkpt lat="44.88792" lon="5.15526">
        <ele>1063.3713378906</ele>
        <time>2011-05-07T12:26:04Z</time>
      </trkpt>
      <trkpt lat="44.88787" lon="5.15549">
        <ele>1064.7956542969</ele>
        <time>2011-05-07T12:26:11Z</time>
      </trkpt>
      <trkpt lat="44.88784" lon="5.15579">
        <ele>1066.00390625</ele>
        <time>2011-05-07T12:26:19Z</time>
      </trkpt>
      <trkpt lat="44.88782" lon="5.15602">
        <ele>1067.1405029297</ele>
        <time>2011-05-07T12:26:25Z</time>
      </trkpt>
      <trkpt lat="44.88773" lon="5.15627">
        <ele>1067.7338867188</ele>
        <time>2011-05-07T12:26:32Z</time>
      </trkpt>
      <trkpt lat="44.88763" lon="5.15641">
        <ele>1067.5385742188</ele>
        <time>2011-05-07T12:26:38Z</time>
      </trkpt>
      <trkpt lat="44.88752" lon="5.15651">
        <ele>1067.0681152344</ele>
        <time>2011-05-07T12:26:44Z</time>
      </trkpt>
      <trkpt lat="44.88742" lon="5.15662">
        <ele>1066.4243164062</ele>
        <time>2011-05-07T12:26:49Z</time>
      </trkpt>
      <trkpt lat="44.88733" lon="5.15684">
        <ele>1067.2561035156</ele>
        <time>2011-05-07T12:26:56Z</time>
      </trkpt>
      <trkpt lat="44.88729" lon="5.15707">
        <ele>1068.5891113281</ele>
        <time>2011-05-07T12:27:03Z</time>
      </trkpt>
      <trkpt lat="44.88728" lon="5.15728">
        <ele>1070.1707763672</ele>
        <time>2011-05-07T12:27:09Z</time>
      </trkpt>
      <trkpt lat="44.88726" lon="5.15754">
        <ele>1072.5899658203</ele>
        <time>2011-05-07T12:27:16Z</time>
      </trkpt>
      <trkpt lat="44.88724" lon="5.15769">
        <ele>1073.4343261719</ele>
        <time>2011-05-07T12:27:21Z</time>
      </trkpt>
      <trkpt lat="44.8872" lon="5.15787">
        <ele>1075.1096191406</ele>
        <time>2011-05-07T12:27:27Z</time>
      </trkpt>
      <trkpt lat="44.88719" lon="5.15793">
        <ele>1075.8504638672</ele>
        <time>2011-05-07T12:27:32Z</time>
      </trkpt>
      <trkpt lat="44.88726" lon="5.15788">
        <ele>1075.2076416016</ele>
        <time>2011-05-07T12:27:55Z</time>
      </trkpt>
      <trkpt lat="44.88729" lon="5.15789">
        <ele>1075.3022460938</ele>
        <time>2011-05-07T12:27:56Z</time>
      </trkpt>
      <trkpt lat="44.88721" lon="5.15792">
        <ele>1075.6369628906</ele>
        <time>2011-05-07T12:28:51Z</time>
      </trkpt>
      <trkpt lat="44.88721" lon="5.15793">
        <ele>1075.67578125</ele>
        <time>2011-05-07T12:28:52Z</time>
      </trkpt>
      <trkpt lat="44.88709" lon="5.15793">
        <ele>1076.5814208984</ele>
        <time>2011-05-07T12:30:14Z</time>
      </trkpt>
      <trkpt lat="44.88708" lon="5.15795">
        <ele>1076.9855957031</ele>
        <time>2011-05-07T12:30:15Z</time>
      </trkpt>
      <trkpt lat="44.88696" lon="5.15816">
        <ele>1079.8990478516</ele>
        <time>2011-05-07T12:30:23Z</time>
      </trkpt>
      <trkpt lat="44.88687" lon="5.15831">
        <ele>1080</ele>
        <time>2011-05-07T12:30:29Z</time>
      </trkpt>
      <trkpt lat="44.88676" lon="5.15856">
        <ele>1080</ele>
        <time>2011-05-07T12:30:36Z</time>
      </trkpt>
      <trkpt lat="44.88667" lon="5.15881">
        <ele>1080</ele>
        <time>2011-05-07T12:30:43Z</time>
      </trkpt>
      <trkpt lat="44.8866" lon="5.15905">
        <ele>1080</ele>
        <time>2011-05-07T12:30:48Z</time>
      </trkpt>
      <trkpt lat="44.88644" lon="5.15947">
        <ele>1080</ele>
        <time>2011-05-07T12:30:55Z</time>
      </trkpt>
      <trkpt lat="44.88616" lon="5.15999">
        <ele>1080</ele>
        <time>2011-05-07T12:31:03Z</time>
      </trkpt>
      <trkpt lat="44.88598" lon="5.16029">
        <ele>1080</ele>
        <time>2011-05-07T12:31:07Z</time>
      </trkpt>
      <trkpt lat="44.88584" lon="5.1605">
        <ele>1080</ele>
        <time>2011-05-07T12:31:10Z</time>
      </trkpt>
      <trkpt lat="44.88578" lon="5.16091">
        <ele>1081</ele>
        <time>2011-05-07T12:31:14Z</time>
      </trkpt>
      <trkpt lat="44.88586" lon="5.16114">
        <ele>1081</ele>
        <time>2011-05-07T12:31:16Z</time>
      </trkpt>
      <trkpt lat="44.88618" lon="5.16172">
        <ele>1081.04296875</ele>
        <time>2011-05-07T12:31:21Z</time>
      </trkpt>
      <trkpt lat="44.88624" lon="5.16185">
        <ele>1081.3074951172</ele>
        <time>2011-05-07T12:31:22Z</time>
      </trkpt>
      <trkpt lat="44.88638" lon="5.1625">
        <ele>1080.9500732422</ele>
        <time>2011-05-07T12:31:26Z</time>
      </trkpt>
      <trkpt lat="44.88634" lon="5.16283">
        <ele>1080.2406005859</ele>
        <time>2011-05-07T12:31:28Z</time>
      </trkpt>
      <trkpt lat="44.88623" lon="5.16348">
        <ele>1075.5988769531</ele>
        <time>2011-05-07T12:31:32Z</time>
      </trkpt>
      <trkpt lat="44.88622" lon="5.1644">
        <ele>1068.5222167969</ele>
        <time>2011-05-07T12:31:37Z</time>
      </trkpt>
      <trkpt lat="44.8861" lon="5.16495">
        <ele>1064.3000488281</ele>
        <time>2011-05-07T12:31:40Z</time>
      </trkpt>
      <trkpt lat="44.88602" lon="5.16511">
        <ele>1062.5559082031</ele>
        <time>2011-05-07T12:31:41Z</time>
      </trkpt>
      <trkpt lat="44.88555" lon="5.16586">
        <ele>1052.8601074219</ele>
        <time>2011-05-07T12:31:46Z</time>
      </trkpt>
      <trkpt lat="44.88539" lon="5.1662">
        <ele>1050.01171875</ele>
        <time>2011-05-07T12:31:48Z</time>
      </trkpt>
      <trkpt lat="44.88532" lon="5.1666">
        <ele>1046.6190185547</ele>
        <time>2011-05-07T12:31:50Z</time>
      </trkpt>
      <trkpt lat="44.88537" lon="5.16722">
        <ele>1042.9973144531</ele>
        <time>2011-05-07T12:31:53Z</time>
      </trkpt>
      <trkpt lat="44.88551" lon="5.16758">
        <ele>1041.4299316406</ele>
        <time>2011-05-07T12:31:55Z</time>
      </trkpt>
      <trkpt lat="44.88561" lon="5.16773">
        <ele>1040.3142089844</ele>
        <time>2011-05-07T12:31:56Z</time>
      </trkpt>
      <trkpt lat="44.88581" lon="5.16803">
        <ele>1038.1546630859</ele>
        <time>2011-05-07T12:31:58Z</time>
      </trkpt>
      <trkpt lat="44.88608" lon="5.16878">
        <ele>1031.8978271484</ele>
        <time>2011-05-07T12:32:02Z</time>
      </trkpt>
      <trkpt lat="44.8861" lon="5.16921">
        <ele>1028.5289306641</ele>
        <time>2011-05-07T12:32:04Z</time>
      </trkpt>
      <trkpt lat="44.8861" lon="5.17009">
        <ele>1021.4154052734</ele>
        <time>2011-05-07T12:32:08Z</time>
      </trkpt>
      <trkpt lat="44.88594" lon="5.17091">
        <ele>1019.0433959961</ele>
        <time>2011-05-07T12:32:12Z</time>
      </trkpt>
      <trkpt lat="44.88559" lon="5.172">
        <ele>1017.5928955078</ele>
        <time>2011-05-07T12:32:18Z</time>
      </trkpt>
      <trkpt lat="44.88538" lon="5.17287">
        <ele>1016.5119018555</ele>
        <time>2011-05-07T12:32:23Z</time>
      </trkpt>
      <trkpt lat="44.88532" lon="5.17319">
        <ele>1016.294921875</ele>
        <time>2011-05-07T12:32:25Z</time>
      </trkpt>
      <trkpt lat="44.88528" lon="5.17393">
        <ele>1015.0070800781</ele>
        <time>2011-05-07T12:32:30Z</time>
      </trkpt>
      <trkpt lat="44.88528" lon="5.17407">
        <ele>1014.9796142578</ele>
        <time>2011-05-07T12:32:31Z</time>
      </trkpt>
      <trkpt lat="44.88531" lon="5.17436">
        <ele>1014.0509033203</ele>
        <time>2011-05-07T12:32:33Z</time>
      </trkpt>
      <trkpt lat="44.88547" lon="5.17475">
        <ele>1011.8746337891</ele>
        <time>2011-05-07T12:32:36Z</time>
      </trkpt>
      <trkpt lat="44.88579" lon="5.175">
        <ele>1007.6656494141</ele>
        <time>2011-05-07T12:32:39Z</time>
      </trkpt>
      <trkpt lat="44.88605" lon="5.17526">
        <ele>1004.4815673828</ele>
        <time>2011-05-07T12:32:43Z</time>
      </trkpt>
      <trkpt lat="44.88596" lon="5.17546">
        <ele>1004.4283447266</ele>
        <time>2011-05-07T12:32:45Z</time>
      </trkpt>
      <trkpt lat="44.88572" lon="5.17576">
        <ele>1005.8467407227</ele>
        <time>2011-05-07T12:32:48Z</time>
      </trkpt>
      <trkpt lat="44.88558" lon="5.17618">
        <ele>1005.2512207031</ele>
        <time>2011-05-07T12:32:51Z</time>
      </trkpt>
      <trkpt lat="44.88556" lon="5.17635">
        <ele>1004.3121337891</ele>
        <time>2011-05-07T12:32:52Z</time>
      </trkpt>
      <trkpt lat="44.8854" lon="5.17699">
        <ele>1001.2564697266</ele>
        <time>2011-05-07T12:32:56Z</time>
      </trkpt>
      <trkpt lat="44.88518" lon="5.17721">
        <ele>1000.4496459961</ele>
        <time>2011-05-07T12:32:58Z</time>
      </trkpt>
      <trkpt lat="44.88492" lon="5.1773">
        <ele>1000.6344604492</ele>
        <time>2011-05-07T12:33:00Z</time>
      </trkpt>
      <trkpt lat="44.88475" lon="5.17751">
        <ele>998.84796142578</ele>
        <time>2011-05-07T12:33:02Z</time>
      </trkpt>
      <trkpt lat="44.88479" lon="5.17784">
        <ele>995.53662109375</ele>
        <time>2011-05-07T12:33:04Z</time>
      </trkpt>
      <trkpt lat="44.88485" lon="5.17798">
        <ele>994.53063964844</ele>
        <time>2011-05-07T12:33:05Z</time>
      </trkpt>
      <trkpt lat="44.885" lon="5.17824">
        <ele>991.98822021484</ele>
        <time>2011-05-07T12:33:07Z</time>
      </trkpt>
      <trkpt lat="44.88539" lon="5.1786">
        <ele>983.76184082031</ele>
        <time>2011-05-07T12:33:11Z</time>
      </trkpt>
      <trkpt lat="44.88574" lon="5.17875">
        <ele>976.36029052734</ele>
        <time>2011-05-07T12:33:14Z</time>
      </trkpt>
      <trkpt lat="44.88593" lon="5.17887">
        <ele>973.53070068359</ele>
        <time>2011-05-07T12:33:16Z</time>
      </trkpt>
      <trkpt lat="44.88591" lon="5.17907">
        <ele>971.69970703125</ele>
        <time>2011-05-07T12:33:18Z</time>
      </trkpt>
      <trkpt lat="44.88575" lon="5.1792">
        <ele>971.90649414062</ele>
        <time>2011-05-07T12:33:20Z</time>
      </trkpt>
      <trkpt lat="44.88531" lon="5.17945">
        <ele>977.22668457031</ele>
        <time>2011-05-07T12:33:25Z</time>
      </trkpt>
      <trkpt lat="44.88485" lon="5.17974">
        <ele>978.38189697266</ele>
        <time>2011-05-07T12:33:30Z</time>
      </trkpt>
      <trkpt lat="44.88446" lon="5.17991">
        <ele>978.88836669922</ele>
        <time>2011-05-07T12:33:34Z</time>
      </trkpt>
      <trkpt lat="44.88375" lon="5.18018">
        <ele>976.15161132812</ele>
        <time>2011-05-07T12:33:41Z</time>
      </trkpt>
      <trkpt lat="44.88328" lon="5.1803">
        <ele>973.96716308594</ele>
        <time>2011-05-07T12:33:46Z</time>
      </trkpt>
      <trkpt lat="44.88314" lon="5.18039">
        <ele>972.58422851562</ele>
        <time>2011-05-07T12:33:49Z</time>
      </trkpt>
      <trkpt lat="44.88314" lon="5.18051">
        <ele>969.69879150391</ele>
        <time>2011-05-07T12:33:52Z</time>
      </trkpt>
      <trkpt lat="44.8832" lon="5.18054">
        <ele>968.87158203125</ele>
        <time>2011-05-07T12:33:56Z</time>
      </trkpt>
      <trkpt lat="44.88321" lon="5.18054">
        <ele>968.82794189453</ele>
        <time>2011-05-07T12:33:57Z</time>
      </trkpt>
      <trkpt lat="44.88334" lon="5.18055">
        <ele>968.11785888672</ele>
        <time>2011-05-07T12:34:04Z</time>
      </trkpt>
      <trkpt lat="44.88354" lon="5.18054">
        <ele>968.37536621094</ele>
        <time>2011-05-07T12:34:09Z</time>
      </trkpt>
      <trkpt lat="44.8839" lon="5.18054">
        <ele>968.32165527344</ele>
        <time>2011-05-07T12:34:15Z</time>
      </trkpt>
      <trkpt lat="44.88435" lon="5.18056">
        <ele>965.92065429688</ele>
        <time>2011-05-07T12:34:21Z</time>
      </trkpt>
      <trkpt lat="44.88477" lon="5.1806">
        <ele>965.17364501953</ele>
        <time>2011-05-07T12:34:26Z</time>
      </trkpt>
      <trkpt lat="44.88522" lon="5.18073">
        <ele>961.53649902344</ele>
        <time>2011-05-07T12:34:31Z</time>
      </trkpt>
      <trkpt lat="44.88551" lon="5.18084">
        <ele>959.01123046875</ele>
        <time>2011-05-07T12:34:34Z</time>
      </trkpt>
      <trkpt lat="44.88588" lon="5.18108">
        <ele>949.78271484375</ele>
        <time>2011-05-07T12:34:38Z</time>
      </trkpt>
      <trkpt lat="44.88597" lon="5.18116">
        <ele>947.31298828125</ele>
        <time>2011-05-07T12:34:39Z</time>
      </trkpt>
      <trkpt lat="44.88641" lon="5.1816">
        <ele>940</ele>
        <time>2011-05-07T12:34:44Z</time>
      </trkpt>
      <trkpt lat="44.88662" lon="5.18196">
        <ele>940</ele>
        <time>2011-05-07T12:34:47Z</time>
      </trkpt>
      <trkpt lat="44.88685" lon="5.1825">
        <ele>940</ele>
        <time>2011-05-07T12:34:52Z</time>
      </trkpt>
      <trkpt lat="44.88688" lon="5.18259">
        <ele>940</ele>
        <time>2011-05-07T12:34:53Z</time>
      </trkpt>
      <trkpt lat="44.88713" lon="5.18291">
        <ele>940</ele>
        <time>2011-05-07T12:34:58Z</time>
      </trkpt>
      <trkpt lat="44.88731" lon="5.18307">
        <ele>940</ele>
        <time>2011-05-07T12:35:01Z</time>
      </trkpt>
      <trkpt lat="44.8874" lon="5.18343">
        <ele>940</ele>
        <time>2011-05-07T12:35:05Z</time>
      </trkpt>
      <trkpt lat="44.88741" lon="5.18363">
        <ele>940</ele>
        <time>2011-05-07T12:35:07Z</time>
      </trkpt>
      <trkpt lat="44.88732" lon="5.18403">
        <ele>940</ele>
        <time>2011-05-07T12:35:11Z</time>
      </trkpt>
      <trkpt lat="44.88714" lon="5.18453">
        <ele>940</ele>
        <time>2011-05-07T12:35:16Z</time>
      </trkpt>
      <trkpt lat="44.88714" lon="5.18485">
        <ele>940</ele>
        <time>2011-05-07T12:35:19Z</time>
      </trkpt>
      <trkpt lat="44.8873" lon="5.18507">
        <ele>940</ele>
        <time>2011-05-07T12:35:22Z</time>
      </trkpt>
      <trkpt lat="44.88779" lon="5.18547">
        <ele>940</ele>
        <time>2011-05-07T12:35:29Z</time>
      </trkpt>
      <trkpt lat="44.88794" lon="5.18559">
        <ele>940</ele>
        <time>2011-05-07T12:35:31Z</time>
      </trkpt>
      <trkpt lat="44.88842" lon="5.18597">
        <ele>940</ele>
        <time>2011-05-07T12:35:37Z</time>
      </trkpt>
      <trkpt lat="44.8891" lon="5.18652">
        <ele>940</ele>
        <time>2011-05-07T12:35:45Z</time>
      </trkpt>
      <trkpt lat="44.88966" lon="5.18703">
        <ele>937.22442626953</ele>
        <time>2011-05-07T12:35:52Z</time>
      </trkpt>
      <trkpt lat="44.89053" lon="5.18784">
        <ele>932.896484375</ele>
        <time>2011-05-07T12:36:03Z</time>
      </trkpt>
      <trkpt lat="44.89129" lon="5.18854">
        <ele>929.60626220703</ele>
        <time>2011-05-07T12:36:12Z</time>
      </trkpt>
      <trkpt lat="44.89219" lon="5.18935">
        <ele>921.80889892578</ele>
        <time>2011-05-07T12:36:22Z</time>
      </trkpt>
      <trkpt lat="44.89278" lon="5.18976">
        <ele>920.00775146484</ele>
        <time>2011-05-07T12:36:28Z</time>
      </trkpt>
      <trkpt lat="44.89351" lon="5.19022">
        <ele>920</ele>
        <time>2011-05-07T12:36:35Z</time>
      </trkpt>
      <trkpt lat="44.89463" lon="5.19082">
        <ele>920</ele>
        <time>2011-05-07T12:36:45Z</time>
      </trkpt>
      <trkpt lat="44.89575" lon="5.1915">
        <ele>921.29669189453</ele>
        <time>2011-05-07T12:36:55Z</time>
      </trkpt>
      <trkpt lat="44.89706" lon="5.19236">
        <ele>923.81036376953</ele>
        <time>2011-05-07T12:37:07Z</time>
      </trkpt>
      <trkpt lat="44.89795" lon="5.19289">
        <ele>925.59954833984</ele>
        <time>2011-05-07T12:37:15Z</time>
      </trkpt>
      <trkpt lat="44.89904" lon="5.19339">
        <ele>928.60900878906</ele>
        <time>2011-05-07T12:37:24Z</time>
      </trkpt>
      <trkpt lat="44.89981" lon="5.19364">
        <ele>929.45928955078</ele>
        <time>2011-05-07T12:37:30Z</time>
      </trkpt>
      <trkpt lat="44.90097" lon="5.19392">
        <ele>931.28387451172</ele>
        <time>2011-05-07T12:37:39Z</time>
      </trkpt>
      <trkpt lat="44.90148" lon="5.19393">
        <ele>933.18090820312</ele>
        <time>2011-05-07T12:37:43Z</time>
      </trkpt>
      <trkpt lat="44.90209" lon="5.19375">
        <ele>936.51879882812</ele>
        <time>2011-05-07T12:37:48Z</time>
      </trkpt>
      <trkpt lat="44.90269" lon="5.19361">
        <ele>938.99951171875</ele>
        <time>2011-05-07T12:37:53Z</time>
      </trkpt>
      <trkpt lat="44.90326" lon="5.19364">
        <ele>938.53942871094</ele>
        <time>2011-05-07T12:37:58Z</time>
      </trkpt>
      <trkpt lat="44.9038" lon="5.19362">
        <ele>938.85534667969</ele>
        <time>2011-05-07T12:38:03Z</time>
      </trkpt>
      <trkpt lat="44.90453" lon="5.1935">
        <ele>941.37847900391</ele>
        <time>2011-05-07T12:38:10Z</time>
      </trkpt>
      <trkpt lat="44.90512" lon="5.19332">
        <ele>945.13311767578</ele>
        <time>2011-05-07T12:38:16Z</time>
      </trkpt>
      <trkpt lat="44.90581" lon="5.19308">
        <ele>945.83477783203</ele>
        <time>2011-05-07T12:38:23Z</time>
      </trkpt>
      <trkpt lat="44.9062" lon="5.19294">
        <ele>946.10766601562</ele>
        <time>2011-05-07T12:38:27Z</time>
      </trkpt>
      <trkpt lat="44.90686" lon="5.19272">
        <ele>947.56671142578</ele>
        <time>2011-05-07T12:38:34Z</time>
      </trkpt>
      <trkpt lat="44.90773" lon="5.19252">
        <ele>946.21374511719</ele>
        <time>2011-05-07T12:38:43Z</time>
      </trkpt>
      <trkpt lat="44.90865" lon="5.19233">
        <ele>946.15307617188</ele>
        <time>2011-05-07T12:38:52Z</time>
      </trkpt>
      <trkpt lat="44.90932" lon="5.19219">
        <ele>945.61987304688</ele>
        <time>2011-05-07T12:38:58Z</time>
      </trkpt>
      <trkpt lat="44.90956" lon="5.19211">
        <ele>946.61242675781</ele>
        <time>2011-05-07T12:39:00Z</time>
      </trkpt>
      <trkpt lat="44.91005" lon="5.19214">
        <ele>943.46099853516</ele>
        <time>2011-05-07T12:39:04Z</time>
      </trkpt>
      <trkpt lat="44.91075" lon="5.19233">
        <ele>937.43444824219</ele>
        <time>2011-05-07T12:39:10Z</time>
      </trkpt>
      <trkpt lat="44.91125" lon="5.19247">
        <ele>935.29302978516</ele>
        <time>2011-05-07T12:39:15Z</time>
      </trkpt>
      <trkpt lat="44.91159" lon="5.19253">
        <ele>934.720703125</ele>
        <time>2011-05-07T12:39:19Z</time>
      </trkpt>
      <trkpt lat="44.91196" lon="5.19258">
        <ele>935.90618896484</ele>
        <time>2011-05-07T12:39:24Z</time>
      </trkpt>
      <trkpt lat="44.9122" lon="5.19258">
        <ele>937.65026855469</ele>
        <time>2011-05-07T12:39:28Z</time>
      </trkpt>
      <trkpt lat="44.91229" lon="5.19245">
        <ele>940.47222900391</ele>
        <time>2011-05-07T12:39:31Z</time>
      </trkpt>
      <trkpt lat="44.91223" lon="5.19236">
        <ele>940.60852050781</ele>
        <time>2011-05-07T12:39:33Z</time>
      </trkpt>
      <trkpt lat="44.91211" lon="5.1922">
        <ele>941.02313232422</ele>
        <time>2011-05-07T12:39:38Z</time>
      </trkpt>
      <trkpt lat="44.91207" lon="5.19215">
        <ele>941.28912353516</ele>
        <time>2011-05-07T12:39:40Z</time>
      </trkpt>
      <trkpt lat="44.91199" lon="5.19204">
        <ele>941.99932861328</ele>
        <time>2011-05-07T12:39:45Z</time>
      </trkpt>
      <trkpt lat="44.91182" lon="5.19178">
        <ele>943.09936523438</ele>
        <time>2011-05-07T12:39:54Z</time>
      </trkpt>
      <trkpt lat="44.91167" lon="5.19155">
        <ele>945.07171630859</ele>
        <time>2011-05-07T12:40:02Z</time>
      </trkpt>
      <trkpt lat="44.91153" lon="5.19133">
        <ele>949.01196289062</ele>
        <time>2011-05-07T12:40:10Z</time>
      </trkpt>
      <trkpt lat="44.91142" lon="5.19115">
        <ele>952.17517089844</ele>
        <time>2011-05-07T12:40:16Z</time>
      </trkpt>
      <trkpt lat="44.9113" lon="5.19097">
        <ele>954.83190917969</ele>
        <time>2011-05-07T12:40:22Z</time>
      </trkpt>
      <trkpt lat="44.91111" lon="5.19079">
        <ele>957.94030761719</ele>
        <time>2011-05-07T12:40:30Z</time>
      </trkpt>
      <trkpt lat="44.91091" lon="5.19068">
        <ele>961.70697021484</ele>
        <time>2011-05-07T12:40:38Z</time>
      </trkpt>
      <trkpt lat="44.91076" lon="5.19062">
        <ele>964.16558837891</ele>
        <time>2011-05-07T12:40:44Z</time>
      </trkpt>
      <trkpt lat="44.91057" lon="5.19056">
        <ele>966.89630126953</ele>
        <time>2011-05-07T12:40:52Z</time>
      </trkpt>
      <trkpt lat="44.91036" lon="5.19049">
        <ele>969.55023193359</ele>
        <time>2011-05-07T12:41:01Z</time>
      </trkpt>
      <trkpt lat="44.91011" lon="5.19043">
        <ele>972.82702636719</ele>
        <time>2011-05-07T12:41:12Z</time>
      </trkpt>
      <trkpt lat="44.90994" lon="5.1904">
        <ele>974.72680664062</ele>
        <time>2011-05-07T12:41:19Z</time>
      </trkpt>
      <trkpt lat="44.90978" lon="5.19038">
        <ele>976.03833007812</ele>
        <time>2011-05-07T12:41:25Z</time>
      </trkpt>
      <trkpt lat="44.90961" lon="5.19035">
        <ele>977.02099609375</ele>
        <time>2011-05-07T12:41:32Z</time>
      </trkpt>
      <trkpt lat="44.90945" lon="5.19033">
        <ele>977.30249023438</ele>
        <time>2011-05-07T12:41:38Z</time>
      </trkpt>
      <trkpt lat="44.90926" lon="5.1903">
        <ele>980.83520507812</ele>
        <time>2011-05-07T12:41:45Z</time>
      </trkpt>
      <trkpt lat="44.90918" lon="5.1903">
        <ele>982.42059326172</ele>
        <time>2011-05-07T12:41:48Z</time>
      </trkpt>
      <trkpt lat="44.90895" lon="5.19031">
        <ele>984.04284667969</ele>
        <time>2011-05-07T12:41:56Z</time>
      </trkpt>
      <trkpt lat="44.90882" lon="5.19031">
        <ele>984.98168945312</ele>
        <time>2011-05-07T12:42:01Z</time>
      </trkpt>
      <trkpt lat="44.90863" lon="5.19029">
        <ele>986.59851074219</ele>
        <time>2011-05-07T12:42:08Z</time>
      </trkpt>
      <trkpt lat="44.90847" lon="5.19031">
        <ele>987.57836914062</ele>
        <time>2011-05-07T12:42:14Z</time>
      </trkpt>
      <trkpt lat="44.90836" lon="5.1903">
        <ele>988.50531005859</ele>
        <time>2011-05-07T12:42:19Z</time>
      </trkpt>
      <trkpt lat="44.90821" lon="5.19031">
        <ele>989.87884521484</ele>
        <time>2011-05-07T12:42:25Z</time>
      </trkpt>
      <trkpt lat="44.90806" lon="5.19032">
        <ele>991.16156005859</ele>
        <time>2011-05-07T12:42:31Z</time>
      </trkpt>
      <trkpt lat="44.90788" lon="5.19033">
        <ele>992.34875488281</ele>
        <time>2011-05-07T12:42:37Z</time>
      </trkpt>
      <trkpt lat="44.90764" lon="5.19035">
        <ele>992.77935791016</ele>
        <time>2011-05-07T12:42:44Z</time>
      </trkpt>
      <trkpt lat="44.90747" lon="5.19036">
        <ele>993.08776855469</ele>
        <time>2011-05-07T12:42:49Z</time>
      </trkpt>
      <trkpt lat="44.90727" lon="5.19036">
        <ele>994.48162841797</ele>
        <time>2011-05-07T12:42:55Z</time>
      </trkpt>
      <trkpt lat="44.90704" lon="5.1904">
        <ele>994.94360351562</ele>
        <time>2011-05-07T12:43:02Z</time>
      </trkpt>
      <trkpt lat="44.90687" lon="5.19041">
        <ele>995.38305664062</ele>
        <time>2011-05-07T12:43:08Z</time>
      </trkpt>
      <trkpt lat="44.9067" lon="5.1904">
        <ele>996.06280517578</ele>
        <time>2011-05-07T12:43:14Z</time>
      </trkpt>
      <trkpt lat="44.90653" lon="5.1904">
        <ele>999.48266601562</ele>
        <time>2011-05-07T12:43:20Z</time>
      </trkpt>
      <trkpt lat="44.90635" lon="5.19041">
        <ele>1003.3549194336</ele>
        <time>2011-05-07T12:43:26Z</time>
      </trkpt>
      <trkpt lat="44.90622" lon="5.19043">
        <ele>1004.3312988281</ele>
        <time>2011-05-07T12:43:30Z</time>
      </trkpt>
      <trkpt lat="44.90619" lon="5.19033">
        <ele>1008.9920654297</ele>
        <time>2011-05-07T12:43:34Z</time>
      </trkpt>
      <trkpt lat="44.90626" lon="5.19031">
        <ele>1008.5702514648</ele>
        <time>2011-05-07T12:43:37Z</time>
      </trkpt>
      <trkpt lat="44.90649" lon="5.19025">
        <ele>1005.2598266602</ele>
        <time>2011-05-07T12:43:44Z</time>
      </trkpt>
      <trkpt lat="44.9067" lon="5.19017">
        <ele>1003.9803466797</ele>
        <time>2011-05-07T12:43:50Z</time>
      </trkpt>
      <trkpt lat="44.90692" lon="5.19003">
        <ele>1006.4075317383</ele>
        <time>2011-05-07T12:43:56Z</time>
      </trkpt>
      <trkpt lat="44.90712" lon="5.18986">
        <ele>1016.7805786133</ele>
        <time>2011-05-07T12:44:03Z</time>
      </trkpt>
      <trkpt lat="44.90729" lon="5.18974">
        <ele>1023.6647949219</ele>
        <time>2011-05-07T12:44:09Z</time>
      </trkpt>
      <trkpt lat="44.90746" lon="5.18964">
        <ele>1023.3478393555</ele>
        <time>2011-05-07T12:44:15Z</time>
      </trkpt>
      <trkpt lat="44.9076" lon="5.18958">
        <ele>1025.5738525391</ele>
        <time>2011-05-07T12:44:20Z</time>
      </trkpt>
      <trkpt lat="44.90779" lon="5.1895">
        <ele>1029.2795410156</ele>
        <time>2011-05-07T12:44:27Z</time>
      </trkpt>
      <trkpt lat="44.908" lon="5.18945">
        <ele>1029.9650878906</ele>
        <time>2011-05-07T12:44:35Z</time>
      </trkpt>
      <trkpt lat="44.90813" lon="5.18941">
        <ele>1032.4709472656</ele>
        <time>2011-05-07T12:44:40Z</time>
      </trkpt>
      <trkpt lat="44.9083" lon="5.18936">
        <ele>1035.3723144531</ele>
        <time>2011-05-07T12:44:47Z</time>
      </trkpt>
      <trkpt lat="44.90854" lon="5.18928">
        <ele>1033.0129394531</ele>
        <time>2011-05-07T12:44:55Z</time>
      </trkpt>
      <trkpt lat="44.90877" lon="5.18916">
        <ele>1036.1413574219</ele>
        <time>2011-05-07T12:45:03Z</time>
      </trkpt>
      <trkpt lat="44.90902" lon="5.18906">
        <ele>1033.3898925781</ele>
        <time>2011-05-07T12:45:12Z</time>
      </trkpt>
      <trkpt lat="44.90918" lon="5.189">
        <ele>1030.73828125</ele>
        <time>2011-05-07T12:45:18Z</time>
      </trkpt>
      <trkpt lat="44.90937" lon="5.18892">
        <ele>1028.9432373047</ele>
        <time>2011-05-07T12:45:25Z</time>
      </trkpt>
      <trkpt lat="44.90951" lon="5.18887">
        <ele>1027.7279052734</ele>
        <time>2011-05-07T12:45:31Z</time>
      </trkpt>
      <trkpt lat="44.90969" lon="5.1888">
        <ele>1028.0986328125</ele>
        <time>2011-05-07T12:45:38Z</time>
      </trkpt>
      <trkpt lat="44.90984" lon="5.18874">
        <ele>1028.2657470703</ele>
        <time>2011-05-07T12:45:44Z</time>
      </trkpt>
      <trkpt lat="44.90994" lon="5.18869">
        <ele>1028.1319580078</ele>
        <time>2011-05-07T12:45:48Z</time>
      </trkpt>
      <trkpt lat="44.91011" lon="5.18863">
        <ele>1026.4287109375</ele>
        <time>2011-05-07T12:45:54Z</time>
      </trkpt>
      <trkpt lat="44.91026" lon="5.18856">
        <ele>1024.5338134766</ele>
        <time>2011-05-07T12:45:59Z</time>
      </trkpt>
      <trkpt lat="44.9104" lon="5.18848">
        <ele>1023.1634521484</ele>
        <time>2011-05-07T12:46:04Z</time>
      </trkpt>
      <trkpt lat="44.91053" lon="5.18841">
        <ele>1021.4299926758</ele>
        <time>2011-05-07T12:46:09Z</time>
      </trkpt>
      <trkpt lat="44.9107" lon="5.18834">
        <ele>1017.7388916016</ele>
        <time>2011-05-07T12:46:16Z</time>
      </trkpt>
      <trkpt lat="44.91084" lon="5.18825">
        <ele>1014.7694091797</ele>
        <time>2011-05-07T12:46:22Z</time>
      </trkpt>
      <trkpt lat="44.91101" lon="5.18818">
        <ele>1012.7106933594</ele>
        <time>2011-05-07T12:46:28Z</time>
      </trkpt>
      <trkpt lat="44.91117" lon="5.18805">
        <ele>1012.0467529297</ele>
        <time>2011-05-07T12:46:35Z</time>
      </trkpt>
      <trkpt lat="44.91119" lon="5.18802">
        <ele>1012.3300170898</ele>
        <time>2011-05-07T12:46:36Z</time>
      </trkpt>
      <trkpt lat="44.91118" lon="5.18787">
        <ele>1013.9522094727</ele>
        <time>2011-05-07T12:46:41Z</time>
      </trkpt>
      <trkpt lat="44.91106" lon="5.18777">
        <ele>1015.8725585938</ele>
        <time>2011-05-07T12:46:47Z</time>
      </trkpt>
      <trkpt lat="44.91091" lon="5.18765">
        <ele>1018.8486328125</ele>
        <time>2011-05-07T12:46:54Z</time>
      </trkpt>
      <trkpt lat="44.9108" lon="5.18752">
        <ele>1020.9105834961</ele>
        <time>2011-05-07T12:47:00Z</time>
      </trkpt>
      <trkpt lat="44.91075" lon="5.18738">
        <ele>1023.7590942383</ele>
        <time>2011-05-07T12:47:05Z</time>
      </trkpt>
      <trkpt lat="44.91069" lon="5.18726">
        <ele>1026.6700439453</ele>
        <time>2011-05-07T12:47:09Z</time>
      </trkpt>
      <trkpt lat="44.91063" lon="5.1871">
        <ele>1030.4969482422</ele>
        <time>2011-05-07T12:47:14Z</time>
      </trkpt>
      <trkpt lat="44.91054" lon="5.1869">
        <ele>1034.5092773438</ele>
        <time>2011-05-07T12:47:19Z</time>
      </trkpt>
      <trkpt lat="44.91045" lon="5.18674">
        <ele>1036.3975830078</ele>
        <time>2011-05-07T12:47:24Z</time>
      </trkpt>
      <trkpt lat="44.91036" lon="5.18654">
        <ele>1037.7436523438</ele>
        <time>2011-05-07T12:47:30Z</time>
      </trkpt>
      <trkpt lat="44.9103" lon="5.18637">
        <ele>1037.9219970703</ele>
        <time>2011-05-07T12:47:35Z</time>
      </trkpt>
      <trkpt lat="44.91023" lon="5.18617">
        <ele>1038.1628417969</ele>
        <time>2011-05-07T12:47:40Z</time>
      </trkpt>
      <trkpt lat="44.9102" lon="5.18597">
        <ele>1039.1512451172</ele>
        <time>2011-05-07T12:47:45Z</time>
      </trkpt>
      <trkpt lat="44.91015" lon="5.18579">
        <ele>1040</ele>
        <time>2011-05-07T12:47:50Z</time>
      </trkpt>
      <trkpt lat="44.91008" lon="5.1856">
        <ele>1040</ele>
        <time>2011-05-07T12:47:56Z</time>
      </trkpt>
      <trkpt lat="44.91002" lon="5.18542">
        <ele>1040.0961914062</ele>
        <time>2011-05-07T12:48:01Z</time>
      </trkpt>
      <trkpt lat="44.90993" lon="5.18522">
        <ele>1040.7984619141</ele>
        <time>2011-05-07T12:48:07Z</time>
      </trkpt>
      <trkpt lat="44.90989" lon="5.18507">
        <ele>1042.1964111328</ele>
        <time>2011-05-07T12:48:12Z</time>
      </trkpt>
      <trkpt lat="44.90982" lon="5.18489">
        <ele>1043.8787841797</ele>
        <time>2011-05-07T12:48:18Z</time>
      </trkpt>
      <trkpt lat="44.90974" lon="5.18472">
        <ele>1046.3940429688</ele>
        <time>2011-05-07T12:48:25Z</time>
      </trkpt>
      <trkpt lat="44.90959" lon="5.18452">
        <ele>1052.455078125</ele>
        <time>2011-05-07T12:48:33Z</time>
      </trkpt>
      <trkpt lat="44.90945" lon="5.18432">
        <ele>1056.6834716797</ele>
        <time>2011-05-07T12:48:41Z</time>
      </trkpt>
      <trkpt lat="44.90939" lon="5.18413">
        <ele>1060.2510986328</ele>
        <time>2011-05-07T12:48:47Z</time>
      </trkpt>
      <trkpt lat="44.90946" lon="5.18394">
        <ele>1064.2121582031</ele>
        <time>2011-05-07T12:48:53Z</time>
      </trkpt>
      <trkpt lat="44.9096" lon="5.18386">
        <ele>1067.3361816406</ele>
        <time>2011-05-07T12:48:59Z</time>
      </trkpt>
      <trkpt lat="44.90962" lon="5.18385">
        <ele>1067.8018798828</ele>
        <time>2011-05-07T12:49:00Z</time>
      </trkpt>
      <trkpt lat="44.90984" lon="5.18384">
        <ele>1070.1527099609</ele>
        <time>2011-05-07T12:49:09Z</time>
      </trkpt>
      <trkpt lat="44.91003" lon="5.18384">
        <ele>1071.9818115234</ele>
        <time>2011-05-07T12:49:16Z</time>
      </trkpt>
      <trkpt lat="44.91016" lon="5.18386">
        <ele>1073.8299560547</ele>
        <time>2011-05-07T12:49:21Z</time>
      </trkpt>
      <trkpt lat="44.91031" lon="5.18393">
        <ele>1075.3903808594</ele>
        <time>2011-05-07T12:49:28Z</time>
      </trkpt>
      <trkpt lat="44.91047" lon="5.18404">
        <ele>1078.1013183594</ele>
        <time>2011-05-07T12:49:35Z</time>
      </trkpt>
      <trkpt lat="44.91059" lon="5.18416">
        <ele>1079.5006103516</ele>
        <time>2011-05-07T12:49:41Z</time>
      </trkpt>
      <trkpt lat="44.9107" lon="5.18429">
        <ele>1078.9056396484</ele>
        <time>2011-05-07T12:49:47Z</time>
      </trkpt>
      <trkpt lat="44.91081" lon="5.18444">
        <ele>1076.5648193359</ele>
        <time>2011-05-07T12:49:53Z</time>
      </trkpt>
      <trkpt lat="44.91096" lon="5.18469">
        <ele>1069.5679931641</ele>
        <time>2011-05-07T12:50:01Z</time>
      </trkpt>
      <trkpt lat="44.91116" lon="5.18497">
        <ele>1065.7357177734</ele>
        <time>2011-05-07T12:50:11Z</time>
      </trkpt>
      <trkpt lat="44.9113" lon="5.18513">
        <ele>1063.6802978516</ele>
        <time>2011-05-07T12:50:18Z</time>
      </trkpt>
      <trkpt lat="44.91144" lon="5.18528">
        <ele>1061.3001708984</ele>
        <time>2011-05-07T12:50:25Z</time>
      </trkpt>
      <trkpt lat="44.91156" lon="5.18543">
        <ele>1061.2415771484</ele>
        <time>2011-05-07T12:50:32Z</time>
      </trkpt>
      <trkpt lat="44.91173" lon="5.18559">
        <ele>1059.1613769531</ele>
        <time>2011-05-07T12:50:40Z</time>
      </trkpt>
      <trkpt lat="44.91195" lon="5.1857">
        <ele>1056.2846679688</ele>
        <time>2011-05-07T12:50:49Z</time>
      </trkpt>
      <trkpt lat="44.91219" lon="5.18572">
        <ele>1054.6146240234</ele>
        <time>2011-05-07T12:50:59Z</time>
      </trkpt>
      <trkpt lat="44.91235" lon="5.18568">
        <ele>1054.9029541016</ele>
        <time>2011-05-07T12:51:06Z</time>
      </trkpt>
      <trkpt lat="44.9125" lon="5.18555">
        <ele>1058.2081298828</ele>
        <time>2011-05-07T12:51:13Z</time>
      </trkpt>
      <trkpt lat="44.91267" lon="5.18529">
        <ele>1063.6463623047</ele>
        <time>2011-05-07T12:51:22Z</time>
      </trkpt>
      <trkpt lat="44.91281" lon="5.18507">
        <ele>1070.5095214844</ele>
        <time>2011-05-07T12:51:30Z</time>
      </trkpt>
      <trkpt lat="44.91291" lon="5.18493">
        <ele>1071.5120849609</ele>
        <time>2011-05-07T12:51:36Z</time>
      </trkpt>
      <trkpt lat="44.91309" lon="5.18467">
        <ele>1073.0457763672</ele>
        <time>2011-05-07T12:51:46Z</time>
      </trkpt>
      <trkpt lat="44.91323" lon="5.18445">
        <ele>1076.1499023438</ele>
        <time>2011-05-07T12:51:54Z</time>
      </trkpt>
      <trkpt lat="44.91338" lon="5.1842">
        <ele>1078.3798828125</ele>
        <time>2011-05-07T12:52:02Z</time>
      </trkpt>
      <trkpt lat="44.91354" lon="5.18391">
        <ele>1080.70703125</ele>
        <time>2011-05-07T12:52:13Z</time>
      </trkpt>
      <trkpt lat="44.91367" lon="5.18368">
        <ele>1081.6549072266</ele>
        <time>2011-05-07T12:52:21Z</time>
      </trkpt>
      <trkpt lat="44.9138" lon="5.18331">
        <ele>1085.0888671875</ele>
        <time>2011-05-07T12:52:31Z</time>
      </trkpt>
      <trkpt lat="44.91387" lon="5.18297">
        <ele>1094.486328125</ele>
        <time>2011-05-07T12:52:39Z</time>
      </trkpt>
      <trkpt lat="44.91391" lon="5.18273">
        <ele>1101.0476074219</ele>
        <time>2011-05-07T12:52:46Z</time>
      </trkpt>
      <trkpt lat="44.91394" lon="5.18255">
        <ele>1103.9230957031</ele>
        <time>2011-05-07T12:52:52Z</time>
      </trkpt>
      <trkpt lat="44.91397" lon="5.18235">
        <ele>1107.6434326172</ele>
        <time>2011-05-07T12:52:58Z</time>
      </trkpt>
      <trkpt lat="44.91406" lon="5.18223">
        <ele>1110.7178955078</ele>
        <time>2011-05-07T12:53:03Z</time>
      </trkpt>
      <trkpt lat="44.91418" lon="5.18225">
        <ele>1111.6456298828</ele>
        <time>2011-05-07T12:53:08Z</time>
      </trkpt>
      <trkpt lat="44.9143" lon="5.18237">
        <ele>1110.2448730469</ele>
        <time>2011-05-07T12:53:14Z</time>
      </trkpt>
      <trkpt lat="44.9144" lon="5.1825">
        <ele>1108.7308349609</ele>
        <time>2011-05-07T12:53:21Z</time>
      </trkpt>
      <trkpt lat="44.91454" lon="5.1826">
        <ele>1107.8737792969</ele>
        <time>2011-05-07T12:53:28Z</time>
      </trkpt>
      <trkpt lat="44.91467" lon="5.18262">
        <ele>1108.0798339844</ele>
        <time>2011-05-07T12:53:33Z</time>
      </trkpt>
      <trkpt lat="44.91476" lon="5.18256">
        <ele>1109.1501464844</ele>
        <time>2011-05-07T12:53:38Z</time>
      </trkpt>
      <trkpt lat="44.91495" lon="5.18244">
        <ele>1111.1007080078</ele>
        <time>2011-05-07T12:53:46Z</time>
      </trkpt>
      <trkpt lat="44.91515" lon="5.18227">
        <ele>1114.5281982422</ele>
        <time>2011-05-07T12:53:55Z</time>
      </trkpt>
      <trkpt lat="44.9153" lon="5.18214">
        <ele>1117.4134521484</ele>
        <time>2011-05-07T12:54:02Z</time>
      </trkpt>
      <trkpt lat="44.91541" lon="5.18205">
        <ele>1120.1108398438</ele>
        <time>2011-05-07T12:54:07Z</time>
      </trkpt>
      <trkpt lat="44.91557" lon="5.18191">
        <ele>1125.4210205078</ele>
        <time>2011-05-07T12:54:14Z</time>
      </trkpt>
      <trkpt lat="44.9157" lon="5.18181">
        <ele>1130.8139648438</ele>
        <time>2011-05-07T12:54:20Z</time>
      </trkpt>
      <trkpt lat="44.91581" lon="5.18186">
        <ele>1129.9046630859</ele>
        <time>2011-05-07T12:54:25Z</time>
      </trkpt>
      <trkpt lat="44.91589" lon="5.18206">
        <ele>1127.4376220703</ele>
        <time>2011-05-07T12:54:31Z</time>
      </trkpt>
      <trkpt lat="44.91589" lon="5.18231">
        <ele>1123.7954101562</ele>
        <time>2011-05-07T12:54:38Z</time>
      </trkpt>
      <trkpt lat="44.91591" lon="5.18257">
        <ele>1124.5153808594</ele>
        <time>2011-05-07T12:54:45Z</time>
      </trkpt>
      <trkpt lat="44.91594" lon="5.18278">
        <ele>1126.1020507812</ele>
        <time>2011-05-07T12:54:51Z</time>
      </trkpt>
      <trkpt lat="44.91597" lon="5.18299">
        <ele>1129.5998535156</ele>
        <time>2011-05-07T12:54:57Z</time>
      </trkpt>
      <trkpt lat="44.91603" lon="5.18328">
        <ele>1133.9489746094</ele>
        <time>2011-05-07T12:55:05Z</time>
      </trkpt>
      <trkpt lat="44.91608" lon="5.18349">
        <ele>1137.7941894531</ele>
        <time>2011-05-07T12:55:11Z</time>
      </trkpt>
      <trkpt lat="44.91619" lon="5.1837">
        <ele>1145.0153808594</ele>
        <time>2011-05-07T12:55:18Z</time>
      </trkpt>
      <trkpt lat="44.91634" lon="5.18386">
        <ele>1149.8005371094</ele>
        <time>2011-05-07T12:55:25Z</time>
      </trkpt>
      <trkpt lat="44.9165" lon="5.18399">
        <ele>1156.4973144531</ele>
        <time>2011-05-07T12:55:32Z</time>
      </trkpt>
      <trkpt lat="44.91669" lon="5.18407">
        <ele>1169.5402832031</ele>
        <time>2011-05-07T12:55:39Z</time>
      </trkpt>
      <trkpt lat="44.91687" lon="5.18412">
        <ele>1184.5747070312</ele>
        <time>2011-05-07T12:55:46Z</time>
      </trkpt>
      <trkpt lat="44.91711" lon="5.18417">
        <ele>1193.5729980469</ele>
        <time>2011-05-07T12:55:55Z</time>
      </trkpt>
      <trkpt lat="44.91732" lon="5.18423">
        <ele>1192.6711425781</ele>
        <time>2011-05-07T12:56:03Z</time>
      </trkpt>
      <trkpt lat="44.91752" lon="5.18436">
        <ele>1187.2493896484</ele>
        <time>2011-05-07T12:56:12Z</time>
      </trkpt>
      <trkpt lat="44.91758" lon="5.18442">
        <ele>1184.9721679688</ele>
        <time>2011-05-07T12:56:15Z</time>
      </trkpt>
      <trkpt lat="44.91766" lon="5.18436">
        <ele>1185.6489257812</ele>
        <time>2011-05-07T12:56:19Z</time>
      </trkpt>
      <trkpt lat="44.91761" lon="5.18428">
        <ele>1188.3046875</ele>
        <time>2011-05-07T12:56:22Z</time>
      </trkpt>
      <trkpt lat="44.91759" lon="5.18425">
        <ele>1189.2663574219</ele>
        <time>2011-05-07T12:56:23Z</time>
      </trkpt>
      <trkpt lat="44.91726" lon="5.18398">
        <ele>1198.3214111328</ele>
        <time>2011-05-07T12:56:33Z</time>
      </trkpt>
      <trkpt lat="44.91696" lon="5.18383">
        <ele>1200</ele>
        <time>2011-05-07T12:56:41Z</time>
      </trkpt>
      <trkpt lat="44.91685" lon="5.18376">
        <ele>1194.4666748047</ele>
        <time>2011-05-07T12:56:44Z</time>
      </trkpt>
      <trkpt lat="44.91684" lon="5.18365">
        <ele>1196.484375</ele>
        <time>2011-05-07T12:56:47Z</time>
      </trkpt>
      <trkpt lat="44.9169" lon="5.18366">
        <ele>1198.5260009766</ele>
        <time>2011-05-07T12:56:49Z</time>
      </trkpt>
      <trkpt lat="44.91725" lon="5.18382">
        <ele>1199.8602294922</ele>
        <time>2011-05-07T12:56:59Z</time>
      </trkpt>
      <trkpt lat="44.91755" lon="5.18395">
        <ele>1195.5565185547</ele>
        <time>2011-05-07T12:57:08Z</time>
      </trkpt>
      <trkpt lat="44.91781" lon="5.18409">
        <ele>1187.4927978516</ele>
        <time>2011-05-07T12:57:16Z</time>
      </trkpt>
      <trkpt lat="44.91785" lon="5.18411">
        <ele>1186.3111572266</ele>
        <time>2011-05-07T12:57:17Z</time>
      </trkpt>
      <trkpt lat="44.91801" lon="5.18421">
        <ele>1180.2541503906</ele>
        <time>2011-05-07T12:57:22Z</time>
      </trkpt>
      <trkpt lat="44.9183" lon="5.18437">
        <ele>1155.4713134766</ele>
        <time>2011-05-07T12:57:32Z</time>
      </trkpt>
      <trkpt lat="44.91856" lon="5.18449">
        <ele>1131.8421630859</ele>
        <time>2011-05-07T12:57:40Z</time>
      </trkpt>
      <trkpt lat="44.91861" lon="5.18451">
        <ele>1128.0211181641</ele>
        <time>2011-05-07T12:57:41Z</time>
      </trkpt>
      <trkpt lat="44.91878" lon="5.18458">
        <ele>1122.7491455078</ele>
        <time>2011-05-07T12:57:44Z</time>
      </trkpt>
      <trkpt lat="44.91916" lon="5.18485">
        <ele>1117.2955322266</ele>
        <time>2011-05-07T12:57:49Z</time>
      </trkpt>
      <trkpt lat="44.91933" lon="5.18499">
        <ele>1111.3459472656</ele>
        <time>2011-05-07T12:57:51Z</time>
      </trkpt>
      <trkpt lat="44.91975" lon="5.18513">
        <ele>1107.0450439453</ele>
        <time>2011-05-07T12:57:55Z</time>
      </trkpt>
      <trkpt lat="44.92034" lon="5.18524">
        <ele>1103.654296875</ele>
        <time>2011-05-07T12:58:00Z</time>
      </trkpt>
      <trkpt lat="44.92083" lon="5.18532">
        <ele>1102.5318603516</ele>
        <time>2011-05-07T12:58:04Z</time>
      </trkpt>
      <trkpt lat="44.92095" lon="5.18532">
        <ele>1099.8034667969</ele>
        <time>2011-05-07T12:58:05Z</time>
      </trkpt>
      <trkpt lat="44.92176" lon="5.18545">
        <ele>1095.8608398438</ele>
        <time>2011-05-07T12:58:11Z</time>
      </trkpt>
      <trkpt lat="44.92231" lon="5.18559">
        <ele>1103.2924804688</ele>
        <time>2011-05-07T12:58:15Z</time>
      </trkpt>
      <trkpt lat="44.92246" lon="5.18562">
        <ele>1105.3908691406</ele>
        <time>2011-05-07T12:58:16Z</time>
      </trkpt>
      <trkpt lat="44.92333" lon="5.18561">
        <ele>1097.7702636719</ele>
        <time>2011-05-07T12:58:22Z</time>
      </trkpt>
      <trkpt lat="44.92392" lon="5.18561">
        <ele>1086.3231201172</ele>
        <time>2011-05-07T12:58:26Z</time>
      </trkpt>
      <trkpt lat="44.92437" lon="5.18573">
        <ele>1087.9919433594</ele>
        <time>2011-05-07T12:58:29Z</time>
      </trkpt>
      <trkpt lat="44.92498" lon="5.18572">
        <ele>1078.0056152344</ele>
        <time>2011-05-07T12:58:33Z</time>
      </trkpt>
      <trkpt lat="44.92567" lon="5.18591">
        <ele>1064.8356933594</ele>
        <time>2011-05-07T12:58:38Z</time>
      </trkpt>
      <trkpt lat="44.92589" lon="5.18603">
        <ele>1062.6021728516</ele>
        <time>2011-05-07T12:58:41Z</time>
      </trkpt>
      <trkpt lat="44.9259" lon="5.18591">
        <ele>1055.9291992188</ele>
        <time>2011-05-07T12:58:43Z</time>
      </trkpt>
      <trkpt lat="44.9258" lon="5.18582">
        <ele>1054.6424560547</ele>
        <time>2011-05-07T12:58:45Z</time>
      </trkpt>
      <trkpt lat="44.92541" lon="5.18561">
        <ele>1059.2303466797</ele>
        <time>2011-05-07T12:58:50Z</time>
      </trkpt>
      <trkpt lat="44.92501" lon="5.18542">
        <ele>1062.2316894531</ele>
        <time>2011-05-07T12:58:54Z</time>
      </trkpt>
      <trkpt lat="44.92479" lon="5.18533">
        <ele>1063.3555908203</ele>
        <time>2011-05-07T12:58:56Z</time>
      </trkpt>
      <trkpt lat="44.92433" lon="5.18515">
        <ele>1060.4012451172</ele>
        <time>2011-05-07T12:59:00Z</time>
      </trkpt>
      <trkpt lat="44.92389" lon="5.18488">
        <ele>1052.8723144531</ele>
        <time>2011-05-07T12:59:04Z</time>
      </trkpt>
      <trkpt lat="44.92338" lon="5.18472">
        <ele>1054.0522460938</ele>
        <time>2011-05-07T12:59:08Z</time>
      </trkpt>
      <trkpt lat="44.92246" lon="5.18441">
        <ele>1045.1313476562</ele>
        <time>2011-05-07T12:59:15Z</time>
      </trkpt>
      <trkpt lat="44.92236" lon="5.18439">
        <ele>1043.9228515625</ele>
        <time>2011-05-07T12:59:16Z</time>
      </trkpt>
      <trkpt lat="44.92229" lon="5.18426">
        <ele>1036.3148193359</ele>
        <time>2011-05-07T12:59:19Z</time>
      </trkpt>
      <trkpt lat="44.9224" lon="5.18425">
        <ele>1035.79296875</ele>
        <time>2011-05-07T12:59:21Z</time>
      </trkpt>
      <trkpt lat="44.92253" lon="5.18431">
        <ele>1038.8558349609</ele>
        <time>2011-05-07T12:59:23Z</time>
      </trkpt>
      <trkpt lat="44.923" lon="5.18435">
        <ele>1036.9791259766</ele>
        <time>2011-05-07T12:59:28Z</time>
      </trkpt>
      <trkpt lat="44.92321" lon="5.18436">
        <ele>1035.0762939453</ele>
        <time>2011-05-07T12:59:30Z</time>
      </trkpt>
      <trkpt lat="44.92393" lon="5.18438">
        <ele>1026.7644042969</ele>
        <time>2011-05-07T12:59:36Z</time>
      </trkpt>
      <trkpt lat="44.92455" lon="5.18447">
        <ele>1025.509765625</ele>
        <time>2011-05-07T12:59:41Z</time>
      </trkpt>
      <trkpt lat="44.92533" lon="5.18466">
        <ele>1020.4031982422</ele>
        <time>2011-05-07T12:59:47Z</time>
      </trkpt>
      <trkpt lat="44.92625" lon="5.18495">
        <ele>1006.772277832</ele>
        <time>2011-05-07T12:59:54Z</time>
      </trkpt>
      <trkpt lat="44.92642" lon="5.18503">
        <ele>1004.0767822266</ele>
        <time>2011-05-07T12:59:56Z</time>
      </trkpt>
      <trkpt lat="44.92644" lon="5.18489">
        <ele>998.65521240234</ele>
        <time>2011-05-07T12:59:59Z</time>
      </trkpt>
      <trkpt lat="44.92633" lon="5.18483">
        <ele>1000.8002929688</ele>
        <time>2011-05-07T13:00:01Z</time>
      </trkpt>
      <trkpt lat="44.9259" lon="5.18461">
        <ele>1001.8899536133</ele>
        <time>2011-05-07T13:00:06Z</time>
      </trkpt>
      <trkpt lat="44.92548" lon="5.18438">
        <ele>1002.0079345703</ele>
        <time>2011-05-07T13:00:10Z</time>
      </trkpt>
      <trkpt lat="44.92493" lon="5.184">
        <ele>994.23693847656</ele>
        <time>2011-05-07T13:00:15Z</time>
      </trkpt>
      <trkpt lat="44.92444" lon="5.18374">
        <ele>991.49835205078</ele>
        <time>2011-05-07T13:00:19Z</time>
      </trkpt>
      <trkpt lat="44.92379" lon="5.18348">
        <ele>985.23797607422</ele>
        <time>2011-05-07T13:00:24Z</time>
      </trkpt>
      <trkpt lat="44.92284" lon="5.18314">
        <ele>979.89428710938</ele>
        <time>2011-05-07T13:00:31Z</time>
      </trkpt>
      <trkpt lat="44.92201" lon="5.18278">
        <ele>965.34033203125</ele>
        <time>2011-05-07T13:00:37Z</time>
      </trkpt>
      <trkpt lat="44.92188" lon="5.18274">
        <ele>964.47290039062</ele>
        <time>2011-05-07T13:00:38Z</time>
      </trkpt>
      <trkpt lat="44.9216" lon="5.18269">
        <ele>965.60070800781</ele>
        <time>2011-05-07T13:00:41Z</time>
      </trkpt>
      <trkpt lat="44.92159" lon="5.18258">
        <ele>961.32049560547</ele>
        <time>2011-05-07T13:00:43Z</time>
      </trkpt>
      <trkpt lat="44.9217" lon="5.18253">
        <ele>958.89758300781</ele>
        <time>2011-05-07T13:00:45Z</time>
      </trkpt>
      <trkpt lat="44.92176" lon="5.18254">
        <ele>958.68371582031</ele>
        <time>2011-05-07T13:00:46Z</time>
      </trkpt>
      <trkpt lat="44.92224" lon="5.18262">
        <ele>959.57061767578</ele>
        <time>2011-05-07T13:00:51Z</time>
      </trkpt>
      <trkpt lat="44.9227" lon="5.18264">
        <ele>958.65191650391</ele>
        <time>2011-05-07T13:00:55Z</time>
      </trkpt>
      <trkpt lat="44.9232" lon="5.1827">
        <ele>955.72149658203</ele>
        <time>2011-05-07T13:00:59Z</time>
      </trkpt>
      <trkpt lat="44.92333" lon="5.18271">
        <ele>954.61254882812</ele>
        <time>2011-05-07T13:01:00Z</time>
      </trkpt>
      <trkpt lat="44.92416" lon="5.1827">
        <ele>944.74285888672</ele>
        <time>2011-05-07T13:01:06Z</time>
      </trkpt>
      <trkpt lat="44.92485" lon="5.18267">
        <ele>927.96978759766</ele>
        <time>2011-05-07T13:01:11Z</time>
      </trkpt>
      <trkpt lat="44.92498" lon="5.18271">
        <ele>924.98284912109</ele>
        <time>2011-05-07T13:01:12Z</time>
      </trkpt>
      <trkpt lat="44.92564" lon="5.18303">
        <ele>925.37103271484</ele>
        <time>2011-05-07T13:01:17Z</time>
      </trkpt>
      <trkpt lat="44.9262" lon="5.1832">
        <ele>933.65783691406</ele>
        <time>2011-05-07T13:01:21Z</time>
      </trkpt>
      <trkpt lat="44.92678" lon="5.1833">
        <ele>922.64715576172</ele>
        <time>2011-05-07T13:01:25Z</time>
      </trkpt>
      <trkpt lat="44.92746" lon="5.1833">
        <ele>911.52001953125</ele>
        <time>2011-05-07T13:01:30Z</time>
      </trkpt>
      <trkpt lat="44.92757" lon="5.18319">
        <ele>908.1806640625</ele>
        <time>2011-05-07T13:01:33Z</time>
      </trkpt>
      <trkpt lat="44.92747" lon="5.18311">
        <ele>909.84387207031</ele>
        <time>2011-05-07T13:01:35Z</time>
      </trkpt>
      <trkpt lat="44.9274" lon="5.18311">
        <ele>910.9326171875</ele>
        <time>2011-05-07T13:01:36Z</time>
      </trkpt>
      <trkpt lat="44.92682" lon="5.18298">
        <ele>914.19000244141</ele>
        <time>2011-05-07T13:01:42Z</time>
      </trkpt>
      <trkpt lat="44.9264" lon="5.18278">
        <ele>910.14990234375</ele>
        <time>2011-05-07T13:01:46Z</time>
      </trkpt>
      <trkpt lat="44.92588" lon="5.18247">
        <ele>897.57788085938</ele>
        <time>2011-05-07T13:01:51Z</time>
      </trkpt>
      <trkpt lat="44.92542" lon="5.18207">
        <ele>894.18505859375</ele>
        <time>2011-05-07T13:01:55Z</time>
      </trkpt>
      <trkpt lat="44.925" lon="5.18157">
        <ele>887.89984130859</ele>
        <time>2011-05-07T13:01:59Z</time>
      </trkpt>
      <trkpt lat="44.92442" lon="5.18137">
        <ele>887.00006103516</ele>
        <time>2011-05-07T13:02:03Z</time>
      </trkpt>
      <trkpt lat="44.92427" lon="5.18138">
        <ele>889.29943847656</ele>
        <time>2011-05-07T13:02:04Z</time>
      </trkpt>
      <trkpt lat="44.92352" lon="5.1813">
        <ele>891.84033203125</ele>
        <time>2011-05-07T13:02:09Z</time>
      </trkpt>
      <trkpt lat="44.92271" lon="5.18079">
        <ele>880.32775878906</ele>
        <time>2011-05-07T13:02:15Z</time>
      </trkpt>
      <trkpt lat="44.92255" lon="5.18074">
        <ele>881.22790527344</ele>
        <time>2011-05-07T13:02:17Z</time>
      </trkpt>
      <trkpt lat="44.92254" lon="5.18059">
        <ele>879.30676269531</ele>
        <time>2011-05-07T13:02:20Z</time>
      </trkpt>
      <trkpt lat="44.92267" lon="5.1806">
        <ele>878.84118652344</ele>
        <time>2011-05-07T13:02:22Z</time>
      </trkpt>
      <trkpt lat="44.92321" lon="5.18073">
        <ele>875.66180419922</ele>
        <time>2011-05-07T13:02:28Z</time>
      </trkpt>
      <trkpt lat="44.92378" lon="5.18082">
        <ele>874.34790039062</ele>
        <time>2011-05-07T13:02:33Z</time>
      </trkpt>
      <trkpt lat="44.9239" lon="5.18082">
        <ele>874.41656494141</ele>
        <time>2011-05-07T13:02:34Z</time>
      </trkpt>
      <trkpt lat="44.92461" lon="5.18071">
        <ele>866.61700439453</ele>
        <time>2011-05-07T13:02:40Z</time>
      </trkpt>
      <trkpt lat="44.92508" lon="5.18036">
        <ele>850.41625976562</ele>
        <time>2011-05-07T13:02:44Z</time>
      </trkpt>
      <trkpt lat="44.92531" lon="5.18027">
        <ele>843.57250976562</ele>
        <time>2011-05-07T13:02:46Z</time>
      </trkpt>
      <trkpt lat="44.92554" lon="5.18039">
        <ele>848.98706054688</ele>
        <time>2011-05-07T13:02:48Z</time>
      </trkpt>
      <trkpt lat="44.92562" lon="5.18051">
        <ele>854.15747070312</ele>
        <time>2011-05-07T13:02:49Z</time>
      </trkpt>
      <trkpt lat="44.92613" lon="5.18085">
        <ele>860.60107421875</ele>
        <time>2011-05-07T13:02:54Z</time>
      </trkpt>
      <trkpt lat="44.92638" lon="5.18086">
        <ele>860.99584960938</ele>
        <time>2011-05-07T13:02:56Z</time>
      </trkpt>
      <trkpt lat="44.92686" lon="5.18095">
        <ele>880.14288330078</ele>
        <time>2011-05-07T13:03:00Z</time>
      </trkpt>
      <trkpt lat="44.92696" lon="5.18086">
        <ele>881.09539794922</ele>
        <time>2011-05-07T13:03:01Z</time>
      </trkpt>
      <trkpt lat="44.92712" lon="5.18059">
        <ele>883.71148681641</ele>
        <time>2011-05-07T13:03:03Z</time>
      </trkpt>
      <trkpt lat="44.92754" lon="5.17967">
        <ele>882.33282470703</ele>
        <time>2011-05-07T13:03:09Z</time>
      </trkpt>
      <trkpt lat="44.92771" lon="5.17896">
        <ele>878.77056884766</ele>
        <time>2011-05-07T13:03:13Z</time>
      </trkpt>
      <trkpt lat="44.92771" lon="5.17876">
        <ele>873.91131591797</ele>
        <time>2011-05-07T13:03:14Z</time>
      </trkpt>
      <trkpt lat="44.92779" lon="5.17805">
        <ele>862.22454833984</ele>
        <time>2011-05-07T13:03:18Z</time>
      </trkpt>
      <trkpt lat="44.92796" lon="5.17782">
        <ele>864.43127441406</ele>
        <time>2011-05-07T13:03:20Z</time>
      </trkpt>
      <trkpt lat="44.92799" lon="5.17751">
        <ele>858.32586669922</ele>
        <time>2011-05-07T13:03:22Z</time>
      </trkpt>
      <trkpt lat="44.92793" lon="5.17702">
        <ele>845.02117919922</ele>
        <time>2011-05-07T13:03:25Z</time>
      </trkpt>
      <trkpt lat="44.92804" lon="5.17671">
        <ele>838.63043212891</ele>
        <time>2011-05-07T13:03:27Z</time>
      </trkpt>
      <trkpt lat="44.92826" lon="5.17656">
        <ele>837.79901123047</ele>
        <time>2011-05-07T13:03:29Z</time>
      </trkpt>
      <trkpt lat="44.92838" lon="5.1765">
        <ele>837.98590087891</ele>
        <time>2011-05-07T13:03:30Z</time>
      </trkpt>
      <trkpt lat="44.92929" lon="5.17617">
        <ele>832.69158935547</ele>
        <time>2011-05-07T13:03:37Z</time>
      </trkpt>
      <trkpt lat="44.92991" lon="5.17585">
        <ele>821.19384765625</ele>
        <time>2011-05-07T13:03:42Z</time>
      </trkpt>
      <trkpt lat="44.93015" lon="5.1757">
        <ele>819.42236328125</ele>
        <time>2011-05-07T13:03:44Z</time>
      </trkpt>
      <trkpt lat="44.93071" lon="5.17512">
        <ele>819.48846435547</ele>
        <time>2011-05-07T13:03:49Z</time>
      </trkpt>
      <trkpt lat="44.93092" lon="5.17484">
        <ele>818.36071777344</ele>
        <time>2011-05-07T13:03:51Z</time>
      </trkpt>
      <trkpt lat="44.93122" lon="5.17416">
        <ele>815.38043212891</ele>
        <time>2011-05-07T13:03:55Z</time>
      </trkpt>
      <trkpt lat="44.93151" lon="5.17378">
        <ele>812.48071289062</ele>
        <time>2011-05-07T13:03:58Z</time>
      </trkpt>
      <trkpt lat="44.93165" lon="5.17375">
        <ele>815.95599365234</ele>
        <time>2011-05-07T13:03:59Z</time>
      </trkpt>
      <trkpt lat="44.93214" lon="5.17344">
        <ele>818.70770263672</ele>
        <time>2011-05-07T13:04:03Z</time>
      </trkpt>
      <trkpt lat="44.93227" lon="5.17308">
        <ele>816.16204833984</ele>
        <time>2011-05-07T13:04:05Z</time>
      </trkpt>
      <trkpt lat="44.9323" lon="5.17288">
        <ele>814.73901367188</ele>
        <time>2011-05-07T13:04:06Z</time>
      </trkpt>
      <trkpt lat="44.93248" lon="5.1719">
        <ele>801.66156005859</ele>
        <time>2011-05-07T13:04:11Z</time>
      </trkpt>
      <trkpt lat="44.93276" lon="5.1712">
        <ele>785.36737060547</ele>
        <time>2011-05-07T13:04:15Z</time>
      </trkpt>
      <trkpt lat="44.93284" lon="5.17104">
        <ele>782.04522705078</ele>
        <time>2011-05-07T13:04:16Z</time>
      </trkpt>
      <trkpt lat="44.93319" lon="5.17082">
        <ele>783.57281494141</ele>
        <time>2011-05-07T13:04:20Z</time>
      </trkpt>
      <trkpt lat="44.93339" lon="5.17093">
        <ele>789.00872802734</ele>
        <time>2011-05-07T13:04:22Z</time>
      </trkpt>
      <trkpt lat="44.93362" lon="5.17089">
        <ele>793.82006835938</ele>
        <time>2011-05-07T13:04:24Z</time>
      </trkpt>
      <trkpt lat="44.93379" lon="5.17068">
        <ele>790.40045166016</ele>
        <time>2011-05-07T13:04:26Z</time>
      </trkpt>
      <trkpt lat="44.93389" lon="5.17037">
        <ele>784.93780517578</ele>
        <time>2011-05-07T13:04:28Z</time>
      </trkpt>
      <trkpt lat="44.93415" lon="5.16912">
        <ele>775.20208740234</ele>
        <time>2011-05-07T13:04:35Z</time>
      </trkpt>
      <trkpt lat="44.93429" lon="5.16857">
        <ele>775.01019287109</ele>
        <time>2011-05-07T13:04:38Z</time>
      </trkpt>
      <trkpt lat="44.93433" lon="5.16799">
        <ele>774.349609375</ele>
        <time>2011-05-07T13:04:41Z</time>
      </trkpt>
      <trkpt lat="44.93429" lon="5.1678">
        <ele>772.17395019531</ele>
        <time>2011-05-07T13:04:42Z</time>
      </trkpt>
      <trkpt lat="44.93424" lon="5.16712">
        <ele>767.27044677734</ele>
        <time>2011-05-07T13:04:46Z</time>
      </trkpt>
      <trkpt lat="44.93428" lon="5.16696">
        <ele>767.64312744141</ele>
        <time>2011-05-07T13:04:47Z</time>
      </trkpt>
      <trkpt lat="44.93433" lon="5.16628">
        <ele>755.25402832031</ele>
        <time>2011-05-07T13:04:51Z</time>
      </trkpt>
      <trkpt lat="44.93428" lon="5.16594">
        <ele>741.54180908203</ele>
        <time>2011-05-07T13:04:53Z</time>
      </trkpt>
      <trkpt lat="44.93431" lon="5.16564">
        <ele>733.81854248047</ele>
        <time>2011-05-07T13:04:55Z</time>
      </trkpt>
      <trkpt lat="44.93449" lon="5.1654">
        <ele>738.71313476562</ele>
        <time>2011-05-07T13:04:57Z</time>
      </trkpt>
      <trkpt lat="44.9346" lon="5.16531">
        <ele>743.5302734375</ele>
        <time>2011-05-07T13:04:58Z</time>
      </trkpt>
      <trkpt lat="44.93487" lon="5.16501">
        <ele>753.68804931641</ele>
        <time>2011-05-07T13:05:01Z</time>
      </trkpt>
      <trkpt lat="44.93502" lon="5.16458">
        <ele>761.56536865234</ele>
        <time>2011-05-07T13:05:04Z</time>
      </trkpt>
      <trkpt lat="44.93508" lon="5.16409">
        <ele>756.89099121094</ele>
        <time>2011-05-07T13:05:07Z</time>
      </trkpt>
      <trkpt lat="44.93503" lon="5.16357">
        <ele>741.28149414062</ele>
        <time>2011-05-07T13:05:10Z</time>
      </trkpt>
      <trkpt lat="44.93484" lon="5.16275">
        <ele>714.26824951172</ele>
        <time>2011-05-07T13:05:15Z</time>
      </trkpt>
      <trkpt lat="44.93492" lon="5.16235">
        <ele>712.00762939453</ele>
        <time>2011-05-07T13:05:18Z</time>
      </trkpt>
      <trkpt lat="44.93523" lon="5.16224">
        <ele>719.23382568359</ele>
        <time>2011-05-07T13:05:21Z</time>
      </trkpt>
      <trkpt lat="44.93555" lon="5.16205">
        <ele>724.73712158203</ele>
        <time>2011-05-07T13:05:24Z</time>
      </trkpt>
      <trkpt lat="44.93589" lon="5.16159">
        <ele>720.47766113281</ele>
        <time>2011-05-07T13:05:28Z</time>
      </trkpt>
      <trkpt lat="44.93616" lon="5.16126">
        <ele>715.70123291016</ele>
        <time>2011-05-07T13:05:31Z</time>
      </trkpt>
      <trkpt lat="44.93641" lon="5.16124">
        <ele>719.46429443359</ele>
        <time>2011-05-07T13:05:33Z</time>
      </trkpt>
      <trkpt lat="44.93653" lon="5.16124">
        <ele>720.53076171875</ele>
        <time>2011-05-07T13:05:34Z</time>
      </trkpt>
      <trkpt lat="44.93676" lon="5.16119">
        <ele>721.01208496094</ele>
        <time>2011-05-07T13:05:36Z</time>
      </trkpt>
      <trkpt lat="44.9371" lon="5.16098">
        <ele>716.88055419922</ele>
        <time>2011-05-07T13:05:39Z</time>
      </trkpt>
      <trkpt lat="44.93763" lon="5.16049">
        <ele>705.64093017578</ele>
        <time>2011-05-07T13:05:44Z</time>
      </trkpt>
      <trkpt lat="44.93797" lon="5.16021">
        <ele>701.73223876953</ele>
        <time>2011-05-07T13:05:47Z</time>
      </trkpt>
      <trkpt lat="44.93824" lon="5.16038">
        <ele>700.88537597656</ele>
        <time>2011-05-07T13:05:50Z</time>
      </trkpt>
      <trkpt lat="44.93832" lon="5.16067">
        <ele>701.12420654297</ele>
        <time>2011-05-07T13:05:52Z</time>
      </trkpt>
      <trkpt lat="44.93834" lon="5.16083">
        <ele>701.89465332031</ele>
        <time>2011-05-07T13:05:53Z</time>
      </trkpt>
      <trkpt lat="44.93842" lon="5.16171">
        <ele>701.18231201172</ele>
        <time>2011-05-07T13:05:58Z</time>
      </trkpt>
      <trkpt lat="44.93842" lon="5.16189">
        <ele>700.30993652344</ele>
        <time>2011-05-07T13:05:59Z</time>
      </trkpt>
      <trkpt lat="44.93831" lon="5.16255">
        <ele>699.98779296875</ele>
        <time>2011-05-07T13:06:03Z</time>
      </trkpt>
      <trkpt lat="44.93803" lon="5.16285">
        <ele>701.49438476562</ele>
        <time>2011-05-07T13:06:06Z</time>
      </trkpt>
      <trkpt lat="44.93779" lon="5.16283">
        <ele>706.12890625</ele>
        <time>2011-05-07T13:06:08Z</time>
      </trkpt>
      <trkpt lat="44.93761" lon="5.16292">
        <ele>707.27954101562</ele>
        <time>2011-05-07T13:06:12Z</time>
      </trkpt>
      <trkpt lat="44.93772" lon="5.16298">
        <ele>705.42559814453</ele>
        <time>2011-05-07T13:06:14Z</time>
      </trkpt>
      <trkpt lat="44.93779" lon="5.16299">
        <ele>704.51342773438</ele>
        <time>2011-05-07T13:06:15Z</time>
      </trkpt>
      <trkpt lat="44.93796" lon="5.16301">
        <ele>700.69647216797</ele>
        <time>2011-05-07T13:06:17Z</time>
      </trkpt>
      <trkpt lat="44.93836" lon="5.16288">
        <ele>694.29089355469</ele>
        <time>2011-05-07T13:06:21Z</time>
      </trkpt>
      <trkpt lat="44.9386" lon="5.16251">
        <ele>688.45391845703</ele>
        <time>2011-05-07T13:06:24Z</time>
      </trkpt>
      <trkpt lat="44.93885" lon="5.16194">
        <ele>678.50238037109</ele>
        <time>2011-05-07T13:06:28Z</time>
      </trkpt>
      <trkpt lat="44.93893" lon="5.16142">
        <ele>676.48370361328</ele>
        <time>2011-05-07T13:06:31Z</time>
      </trkpt>
      <trkpt lat="44.93891" lon="5.16106">
        <ele>677.85894775391</ele>
        <time>2011-05-07T13:06:33Z</time>
      </trkpt>
      <trkpt lat="44.93883" lon="5.16014">
        <ele>665.50506591797</ele>
        <time>2011-05-07T13:06:38Z</time>
      </trkpt>
      <trkpt lat="44.93882" lon="5.15958">
        <ele>656.78918457031</ele>
        <time>2011-05-07T13:06:41Z</time>
      </trkpt>
      <trkpt lat="44.93885" lon="5.1594">
        <ele>652.99224853516</ele>
        <time>2011-05-07T13:06:42Z</time>
      </trkpt>
      <trkpt lat="44.93884" lon="5.15874">
        <ele>644.59887695312</ele>
        <time>2011-05-07T13:06:46Z</time>
      </trkpt>
      <trkpt lat="44.93875" lon="5.15867">
        <ele>644.54510498047</ele>
        <time>2011-05-07T13:06:47Z</time>
      </trkpt>
      <trkpt lat="44.93851" lon="5.1587">
        <ele>647.75201416016</ele>
        <time>2011-05-07T13:06:49Z</time>
      </trkpt>
      <trkpt lat="44.93841" lon="5.15877">
        <ele>650.36694335938</ele>
        <time>2011-05-07T13:06:50Z</time>
      </trkpt>
      <trkpt lat="44.93817" lon="5.15888">
        <ele>655.51000976562</ele>
        <time>2011-05-07T13:06:53Z</time>
      </trkpt>
      <trkpt lat="44.93813" lon="5.15869">
        <ele>651.32556152344</ele>
        <time>2011-05-07T13:06:55Z</time>
      </trkpt>
      <trkpt lat="44.93827" lon="5.15856">
        <ele>647.71801757812</ele>
        <time>2011-05-07T13:06:57Z</time>
      </trkpt>
      <trkpt lat="44.93845" lon="5.1585">
        <ele>645.11682128906</ele>
        <time>2011-05-07T13:06:59Z</time>
      </trkpt>
      <trkpt lat="44.93866" lon="5.15845">
        <ele>642.3720703125</ele>
        <time>2011-05-07T13:07:01Z</time>
      </trkpt>
      <trkpt lat="44.93907" lon="5.15861">
        <ele>635.57037353516</ele>
        <time>2011-05-07T13:07:05Z</time>
      </trkpt>
      <trkpt lat="44.93914" lon="5.15909">
        <ele>640.80078125</ele>
        <time>2011-05-07T13:07:08Z</time>
      </trkpt>
      <trkpt lat="44.93913" lon="5.15924">
        <ele>642.89215087891</ele>
        <time>2011-05-07T13:07:09Z</time>
      </trkpt>
      <trkpt lat="44.93914" lon="5.16008">
        <ele>651.72973632812</ele>
        <time>2011-05-07T13:07:14Z</time>
      </trkpt>
      <trkpt lat="44.93917" lon="5.16025">
        <ele>652.73040771484</ele>
        <time>2011-05-07T13:07:15Z</time>
      </trkpt>
      <trkpt lat="44.93922" lon="5.16059">
        <ele>653.59637451172</ele>
        <time>2011-05-07T13:07:17Z</time>
      </trkpt>
      <trkpt lat="44.93948" lon="5.16161">
        <ele>646.77587890625</ele>
        <time>2011-05-07T13:07:23Z</time>
      </trkpt>
      <trkpt lat="44.93953" lon="5.16176">
        <ele>644.03302001953</ele>
        <time>2011-05-07T13:07:24Z</time>
      </trkpt>
      <trkpt lat="44.93955" lon="5.16189">
        <ele>642.39880371094</ele>
        <time>2011-05-07T13:07:25Z</time>
      </trkpt>
      <trkpt lat="44.9397" lon="5.16197">
        <ele>633.51812744141</ele>
        <time>2011-05-07T13:07:28Z</time>
      </trkpt>
      <trkpt lat="44.9397" lon="5.16179">
        <ele>633.52734375</ele>
        <time>2011-05-07T13:07:30Z</time>
      </trkpt>
      <trkpt lat="44.93966" lon="5.16168">
        <ele>635.86193847656</ele>
        <time>2011-05-07T13:07:31Z</time>
      </trkpt>
      <trkpt lat="44.93954" lon="5.16106">
        <ele>643.49768066406</ele>
        <time>2011-05-07T13:07:36Z</time>
      </trkpt>
      <trkpt lat="44.93942" lon="5.16032">
        <ele>644.06811523438</ele>
        <time>2011-05-07T13:07:41Z</time>
      </trkpt>
      <trkpt lat="44.93941" lon="5.15963">
        <ele>639.64868164062</ele>
        <time>2011-05-07T13:07:45Z</time>
      </trkpt>
      <trkpt lat="44.93945" lon="5.15872">
        <ele>625.66802978516</ele>
        <time>2011-05-07T13:07:50Z</time>
      </trkpt>
      <trkpt lat="44.93946" lon="5.158">
        <ele>614.63092041016</ele>
        <time>2011-05-07T13:07:54Z</time>
      </trkpt>
      <trkpt lat="44.93916" lon="5.15765">
        <ele>613.47937011719</ele>
        <time>2011-05-07T13:07:57Z</time>
      </trkpt>
      <trkpt lat="44.93903" lon="5.15759">
        <ele>614.73596191406</ele>
        <time>2011-05-07T13:07:58Z</time>
      </trkpt>
      <trkpt lat="44.9384" lon="5.15728">
        <ele>614.26159667969</ele>
        <time>2011-05-07T13:08:03Z</time>
      </trkpt>
      <trkpt lat="44.93774" lon="5.15712">
        <ele>614.87933349609</ele>
        <time>2011-05-07T13:08:08Z</time>
      </trkpt>
      <trkpt lat="44.93736" lon="5.15727">
        <ele>616.09143066406</ele>
        <time>2011-05-07T13:08:11Z</time>
      </trkpt>
      <trkpt lat="44.9372" lon="5.15754">
        <ele>620.33166503906</ele>
        <time>2011-05-07T13:08:13Z</time>
      </trkpt>
      <trkpt lat="44.93714" lon="5.15765">
        <ele>621.29840087891</ele>
        <time>2011-05-07T13:08:14Z</time>
      </trkpt>
      <trkpt lat="44.93706" lon="5.15762">
        <ele>619.63739013672</ele>
        <time>2011-05-07T13:08:16Z</time>
      </trkpt>
      <trkpt lat="44.93709" lon="5.15744">
        <ele>616.66412353516</ele>
        <time>2011-05-07T13:08:18Z</time>
      </trkpt>
      <trkpt lat="44.93714" lon="5.15735">
        <ele>615.09857177734</ele>
        <time>2011-05-07T13:08:19Z</time>
      </trkpt>
      <trkpt lat="44.93732" lon="5.15703">
        <ele>610.68780517578</ele>
        <time>2011-05-07T13:08:22Z</time>
      </trkpt>
      <trkpt lat="44.93757" lon="5.15678">
        <ele>605.54083251953</ele>
        <time>2011-05-07T13:08:25Z</time>
      </trkpt>
      <trkpt lat="44.93779" lon="5.15676">
        <ele>604.79553222656</ele>
        <time>2011-05-07T13:08:27Z</time>
      </trkpt>
      <trkpt lat="44.93841" lon="5.15681">
        <ele>600.90258789062</ele>
        <time>2011-05-07T13:08:32Z</time>
      </trkpt>
      <trkpt lat="44.93893" lon="5.15689">
        <ele>597.54302978516</ele>
        <time>2011-05-07T13:08:36Z</time>
      </trkpt>
      <trkpt lat="44.93943" lon="5.15702">
        <ele>591.47149658203</ele>
        <time>2011-05-07T13:08:40Z</time>
      </trkpt>
      <trkpt lat="44.93986" lon="5.15725">
        <ele>585.94677734375</ele>
        <time>2011-05-07T13:08:43Z</time>
      </trkpt>
      <trkpt lat="44.94029" lon="5.15798">
        <ele>583.57641601562</ele>
        <time>2011-05-07T13:08:47Z</time>
      </trkpt>
      <trkpt lat="44.94043" lon="5.15854">
        <ele>585.33148193359</ele>
        <time>2011-05-07T13:08:50Z</time>
      </trkpt>
      <trkpt lat="44.94044" lon="5.15881">
        <ele>588.57568359375</ele>
        <time>2011-05-07T13:08:52Z</time>
      </trkpt>
      <trkpt lat="44.94049" lon="5.15895">
        <ele>587.99786376953</ele>
        <time>2011-05-07T13:08:54Z</time>
      </trkpt>
      <trkpt lat="44.94057" lon="5.15881">
        <ele>583.34368896484</ele>
        <time>2011-05-07T13:08:56Z</time>
      </trkpt>
      <trkpt lat="44.94055" lon="5.15859">
        <ele>581.20617675781</ele>
        <time>2011-05-07T13:08:58Z</time>
      </trkpt>
      <trkpt lat="44.94048" lon="5.15806">
        <ele>578.72869873047</ele>
        <time>2011-05-07T13:09:02Z</time>
      </trkpt>
      <trkpt lat="44.94032" lon="5.1575">
        <ele>578.64752197266</ele>
        <time>2011-05-07T13:09:06Z</time>
      </trkpt>
      <trkpt lat="44.94002" lon="5.15685">
        <ele>575.68811035156</ele>
        <time>2011-05-07T13:09:11Z</time>
      </trkpt>
      <trkpt lat="44.93986" lon="5.15662">
        <ele>572.46795654297</ele>
        <time>2011-05-07T13:09:13Z</time>
      </trkpt>
      <trkpt lat="44.93928" lon="5.15609">
        <ele>571.59387207031</ele>
        <time>2011-05-07T13:09:19Z</time>
      </trkpt>
      <trkpt lat="44.93921" lon="5.15589">
        <ele>566.23937988281</ele>
        <time>2011-05-07T13:09:22Z</time>
      </trkpt>
      <trkpt lat="44.93934" lon="5.15591">
        <ele>565.52563476562</ele>
        <time>2011-05-07T13:09:24Z</time>
      </trkpt>
      <trkpt lat="44.93952" lon="5.15608">
        <ele>567.51239013672</ele>
        <time>2011-05-07T13:09:27Z</time>
      </trkpt>
      <trkpt lat="44.94001" lon="5.15655">
        <ele>569.32348632812</ele>
        <time>2011-05-07T13:09:35Z</time>
      </trkpt>
      <trkpt lat="44.94037" lon="5.1569">
        <ele>568.56610107422</ele>
        <time>2011-05-07T13:09:40Z</time>
      </trkpt>
      <trkpt lat="44.94089" lon="5.15739">
        <ele>561.05987548828</ele>
        <time>2011-05-07T13:09:46Z</time>
      </trkpt>
      <trkpt lat="44.94128" lon="5.15774">
        <ele>550.38745117188</ele>
        <time>2011-05-07T13:09:50Z</time>
      </trkpt>
      <trkpt lat="44.94155" lon="5.15814">
        <ele>543.18670654297</ele>
        <time>2011-05-07T13:09:53Z</time>
      </trkpt>
      <trkpt lat="44.9416" lon="5.15853">
        <ele>542.68505859375</ele>
        <time>2011-05-07T13:09:55Z</time>
      </trkpt>
      <trkpt lat="44.94156" lon="5.15892">
        <ele>544.53381347656</ele>
        <time>2011-05-07T13:09:57Z</time>
      </trkpt>
      <trkpt lat="44.94157" lon="5.15932">
        <ele>544.70788574219</ele>
        <time>2011-05-07T13:09:59Z</time>
      </trkpt>
      <trkpt lat="44.9417" lon="5.15989">
        <ele>541.20306396484</ele>
        <time>2011-05-07T13:10:02Z</time>
      </trkpt>
      <trkpt lat="44.9418" lon="5.1609">
        <ele>545.17956542969</ele>
        <time>2011-05-07T13:10:07Z</time>
      </trkpt>
      <trkpt lat="44.94184" lon="5.1617">
        <ele>546.16949462891</ele>
        <time>2011-05-07T13:10:11Z</time>
      </trkpt>
      <trkpt lat="44.94184" lon="5.16203">
        <ele>547.19708251953</ele>
        <time>2011-05-07T13:10:13Z</time>
      </trkpt>
      <trkpt lat="44.94202" lon="5.16225">
        <ele>545.48065185547</ele>
        <time>2011-05-07T13:10:16Z</time>
      </trkpt>
      <trkpt lat="44.94223" lon="5.16218">
        <ele>546.09014892578</ele>
        <time>2011-05-07T13:10:18Z</time>
      </trkpt>
      <trkpt lat="44.94234" lon="5.16198">
        <ele>549.66986083984</ele>
        <time>2011-05-07T13:10:20Z</time>
      </trkpt>
      <trkpt lat="44.94239" lon="5.16187">
        <ele>550.50836181641</ele>
        <time>2011-05-07T13:10:21Z</time>
      </trkpt>
      <trkpt lat="44.94273" lon="5.16099">
        <ele>552.05126953125</ele>
        <time>2011-05-07T13:10:28Z</time>
      </trkpt>
      <trkpt lat="44.94278" lon="5.16086">
        <ele>551.87854003906</ele>
        <time>2011-05-07T13:10:29Z</time>
      </trkpt>
      <trkpt lat="44.94294" lon="5.16031">
        <ele>550.05157470703</ele>
        <time>2011-05-07T13:10:33Z</time>
      </trkpt>
      <trkpt lat="44.94315" lon="5.15927">
        <ele>538.20794677734</ele>
        <time>2011-05-07T13:10:40Z</time>
      </trkpt>
      <trkpt lat="44.9434" lon="5.15805">
        <ele>527.64831542969</ele>
        <time>2011-05-07T13:10:48Z</time>
      </trkpt>
      <trkpt lat="44.94364" lon="5.1569">
        <ele>519.85400390625</ele>
        <time>2011-05-07T13:10:55Z</time>
      </trkpt>
      <trkpt lat="44.94387" lon="5.15578">
        <ele>510.09216308594</ele>
        <time>2011-05-07T13:11:01Z</time>
      </trkpt>
      <trkpt lat="44.94414" lon="5.1546">
        <ele>504.88311767578</ele>
        <time>2011-05-07T13:11:07Z</time>
      </trkpt>
      <trkpt lat="44.94444" lon="5.15364">
        <ele>504.09155273438</ele>
        <time>2011-05-07T13:11:12Z</time>
      </trkpt>
      <trkpt lat="44.94459" lon="5.15266">
        <ele>499.0641784668</ele>
        <time>2011-05-07T13:11:17Z</time>
      </trkpt>
      <trkpt lat="44.94474" lon="5.15128">
        <ele>484.38064575195</ele>
        <time>2011-05-07T13:11:24Z</time>
      </trkpt>
      <trkpt lat="44.94476" lon="5.15108">
        <ele>481.3713684082</ele>
        <time>2011-05-07T13:11:25Z</time>
      </trkpt>
      <trkpt lat="44.94491" lon="5.15053">
        <ele>476.7375793457</ele>
        <time>2011-05-07T13:11:28Z</time>
      </trkpt>
      <trkpt lat="44.945" lon="5.15038">
        <ele>475.66741943359</ele>
        <time>2011-05-07T13:11:29Z</time>
      </trkpt>
      <trkpt lat="44.94565" lon="5.1494">
        <ele>461.23114013672</ele>
        <time>2011-05-07T13:11:36Z</time>
      </trkpt>
      <trkpt lat="44.9463" lon="5.14849">
        <ele>445.14859008789</ele>
        <time>2011-05-07T13:11:43Z</time>
      </trkpt>
      <trkpt lat="44.94666" lon="5.14824">
        <ele>440</ele>
        <time>2011-05-07T13:11:46Z</time>
      </trkpt>
      <trkpt lat="44.94691" lon="5.14821">
        <ele>440</ele>
        <time>2011-05-07T13:11:48Z</time>
      </trkpt>
      <trkpt lat="44.94756" lon="5.14804">
        <ele>440</ele>
        <time>2011-05-07T13:11:53Z</time>
      </trkpt>
      <trkpt lat="44.94813" lon="5.14749">
        <ele>440</ele>
        <time>2011-05-07T13:11:58Z</time>
      </trkpt>
      <trkpt lat="44.94823" lon="5.14738">
        <ele>440</ele>
        <time>2011-05-07T13:11:59Z</time>
      </trkpt>
      <trkpt lat="44.94872" lon="5.14717">
        <ele>440</ele>
        <time>2011-05-07T13:12:03Z</time>
      </trkpt>
      <trkpt lat="44.94909" lon="5.14705">
        <ele>440</ele>
        <time>2011-05-07T13:12:06Z</time>
      </trkpt>
      <trkpt lat="44.9496" lon="5.14665">
        <ele>440</ele>
        <time>2011-05-07T13:12:11Z</time>
      </trkpt>
      <trkpt lat="44.9501" lon="5.14621">
        <ele>440</ele>
        <time>2011-05-07T13:12:16Z</time>
      </trkpt>
      <trkpt lat="44.95067" lon="5.14591">
        <ele>440</ele>
        <time>2011-05-07T13:12:21Z</time>
      </trkpt>
      <trkpt lat="44.9509" lon="5.14579">
        <ele>440</ele>
        <time>2011-05-07T13:12:23Z</time>
      </trkpt>
      <trkpt lat="44.95135" lon="5.14546">
        <ele>440</ele>
        <time>2011-05-07T13:12:27Z</time>
      </trkpt>
      <trkpt lat="44.95151" lon="5.14518">
        <ele>440</ele>
        <time>2011-05-07T13:12:29Z</time>
      </trkpt>
      <trkpt lat="44.95171" lon="5.14477">
        <ele>440</ele>
        <time>2011-05-07T13:12:32Z</time>
      </trkpt>
      <trkpt lat="44.95202" lon="5.14432">
        <ele>438.53829956055</ele>
        <time>2011-05-07T13:12:36Z</time>
      </trkpt>
      <trkpt lat="44.95238" lon="5.14403">
        <ele>437.4928894043</ele>
        <time>2011-05-07T13:12:40Z</time>
      </trkpt>
      <trkpt lat="44.95262" lon="5.14391">
        <ele>437.25231933594</ele>
        <time>2011-05-07T13:12:43Z</time>
      </trkpt>
      <trkpt lat="44.95268" lon="5.14384">
        <ele>436.72161865234</ele>
        <time>2011-05-07T13:12:44Z</time>
      </trkpt>
      <trkpt lat="44.95279" lon="5.14371">
        <ele>435.95364379883</ele>
        <time>2011-05-07T13:12:46Z</time>
      </trkpt>
      <trkpt lat="44.95309" lon="5.14348">
        <ele>435.86505126953</ele>
        <time>2011-05-07T13:12:52Z</time>
      </trkpt>
      <trkpt lat="44.95327" lon="5.14335">
        <ele>430.8405456543</ele>
        <time>2011-05-07T13:12:57Z</time>
      </trkpt>
      <trkpt lat="44.95343" lon="5.14328">
        <ele>431.70471191406</ele>
        <time>2011-05-07T13:13:02Z</time>
      </trkpt>
      <trkpt lat="44.95353" lon="5.14324">
        <ele>433.90197753906</ele>
        <time>2011-05-07T13:13:05Z</time>
      </trkpt>
      <trkpt lat="44.95377" lon="5.14313">
        <ele>435.82403564453</ele>
        <time>2011-05-07T13:13:11Z</time>
      </trkpt>
      <trkpt lat="44.95404" lon="5.14293">
        <ele>434.56665039062</ele>
        <time>2011-05-07T13:13:17Z</time>
      </trkpt>
      <trkpt lat="44.95414" lon="5.14285">
        <ele>433.99145507812</ele>
        <time>2011-05-07T13:13:19Z</time>
      </trkpt>
      <trkpt lat="44.95432" lon="5.14272">
        <ele>434.27114868164</ele>
        <time>2011-05-07T13:13:22Z</time>
      </trkpt>
      <trkpt lat="44.95458" lon="5.14256">
        <ele>436.46578979492</ele>
        <time>2011-05-07T13:13:26Z</time>
      </trkpt>
      <trkpt lat="44.95494" lon="5.1423">
        <ele>439.71258544922</ele>
        <time>2011-05-07T13:13:33Z</time>
      </trkpt>
      <trkpt lat="44.95507" lon="5.1422">
        <ele>442.77740478516</ele>
        <time>2011-05-07T13:13:37Z</time>
      </trkpt>
      <trkpt lat="44.95507" lon="5.14218">
        <ele>442.98724365234</ele>
        <time>2011-05-07T13:13:41Z</time>
      </trkpt>
      <trkpt lat="44.95514" lon="5.14227">
        <ele>446.54891967773</ele>
        <time>2011-05-07T13:14:06Z</time>
      </trkpt>
      <trkpt lat="44.9552" lon="5.14227">
        <ele>448.97366333008</ele>
        <time>2011-05-07T13:14:13Z</time>
      </trkpt>
      <trkpt lat="44.95535" lon="5.1422">
        <ele>452.8616027832</ele>
        <time>2011-05-07T13:14:18Z</time>
      </trkpt>
      <trkpt lat="44.9554" lon="5.14218">
        <ele>453.42358398438</ele>
        <time>2011-05-07T13:14:19Z</time>
      </trkpt>
      <trkpt lat="44.95566" lon="5.14197">
        <ele>454.54348754883</ele>
        <time>2011-05-07T13:14:24Z</time>
      </trkpt>
      <trkpt lat="44.95576" lon="5.14185">
        <ele>454.3151550293</ele>
        <time>2011-05-07T13:14:26Z</time>
      </trkpt>
      <trkpt lat="44.95589" lon="5.14163">
        <ele>454.1842956543</ele>
        <time>2011-05-07T13:14:29Z</time>
      </trkpt>
      <trkpt lat="44.95605" lon="5.14127">
        <ele>452.73889160156</ele>
        <time>2011-05-07T13:14:33Z</time>
      </trkpt>
      <trkpt lat="44.95618" lon="5.14073">
        <ele>451.0700378418</ele>
        <time>2011-05-07T13:14:38Z</time>
      </trkpt>
      <trkpt lat="44.95638" lon="5.13991">
        <ele>448.30938720703</ele>
        <time>2011-05-07T13:14:45Z</time>
      </trkpt>
      <trkpt lat="44.9564" lon="5.1398">
        <ele>447.53991699219</ele>
        <time>2011-05-07T13:14:46Z</time>
      </trkpt>
      <trkpt lat="44.95643" lon="5.13956">
        <ele>446.41165161133</ele>
        <time>2011-05-07T13:14:48Z</time>
      </trkpt>
      <trkpt lat="44.95645" lon="5.13944">
        <ele>445.99108886719</ele>
        <time>2011-05-07T13:14:49Z</time>
      </trkpt>
      <trkpt lat="44.95652" lon="5.13856">
        <ele>442.17419433594</ele>
        <time>2011-05-07T13:14:57Z</time>
      </trkpt>
      <trkpt lat="44.95652" lon="5.13846">
        <ele>441.67221069336</ele>
        <time>2011-05-07T13:14:58Z</time>
      </trkpt>
      <trkpt lat="44.95654" lon="5.13811">
        <ele>440.20687866211</ele>
        <time>2011-05-07T13:15:02Z</time>
      </trkpt>
      <trkpt lat="44.95654" lon="5.13803">
        <ele>439.65515136719</ele>
        <time>2011-05-07T13:15:03Z</time>
      </trkpt>
      <trkpt lat="44.95654" lon="5.13794">
        <ele>438.57711791992</ele>
        <time>2011-05-07T13:15:04Z</time>
      </trkpt>
      <trkpt lat="44.95653" lon="5.13776">
        <ele>436.41693115234</ele>
        <time>2011-05-07T13:15:06Z</time>
      </trkpt>
      <trkpt lat="44.95658" lon="5.13742">
        <ele>434.52020263672</ele>
        <time>2011-05-07T13:15:10Z</time>
      </trkpt>
      <trkpt lat="44.95691" lon="5.13672">
        <ele>435.71862792969</ele>
        <time>2011-05-07T13:15:19Z</time>
      </trkpt>
      <trkpt lat="44.9573" lon="5.13601">
        <ele>433.537109375</ele>
        <time>2011-05-07T13:15:28Z</time>
      </trkpt>
      <trkpt lat="44.95744" lon="5.13576">
        <ele>431.94659423828</ele>
        <time>2011-05-07T13:15:31Z</time>
      </trkpt>
      <trkpt lat="44.95773" lon="5.13525">
        <ele>429.78982543945</ele>
        <time>2011-05-07T13:15:37Z</time>
      </trkpt>
      <trkpt lat="44.95814" lon="5.13448">
        <ele>425.49670410156</ele>
        <time>2011-05-07T13:15:45Z</time>
      </trkpt>
      <trkpt lat="44.95834" lon="5.13411">
        <ele>422.7067565918</ele>
        <time>2011-05-07T13:15:49Z</time>
      </trkpt>
      <trkpt lat="44.95872" lon="5.13345">
        <ele>416.72033691406</ele>
        <time>2011-05-07T13:15:56Z</time>
      </trkpt>
      <trkpt lat="44.95902" lon="5.13287">
        <ele>408.40145874023</ele>
        <time>2011-05-07T13:16:02Z</time>
      </trkpt>
      <trkpt lat="44.95918" lon="5.13258">
        <ele>405.18579101562</ele>
        <time>2011-05-07T13:16:05Z</time>
      </trkpt>
      <trkpt lat="44.9593" lon="5.13241">
        <ele>402.71710205078</ele>
        <time>2011-05-07T13:16:07Z</time>
      </trkpt>
      <trkpt lat="44.95938" lon="5.13235">
        <ele>401.47305297852</ele>
        <time>2011-05-07T13:16:08Z</time>
      </trkpt>
      <trkpt lat="44.95955" lon="5.13203">
        <ele>398.96270751953</ele>
        <time>2011-05-07T13:16:11Z</time>
      </trkpt>
      <trkpt lat="44.9596" lon="5.13179">
        <ele>397.5549621582</ele>
        <time>2011-05-07T13:16:13Z</time>
      </trkpt>
      <trkpt lat="44.95999" lon="5.13105">
        <ele>393.82489013672</ele>
        <time>2011-05-07T13:16:20Z</time>
      </trkpt>
      <trkpt lat="44.9603" lon="5.13056">
        <ele>390.90466308594</ele>
        <time>2011-05-07T13:16:25Z</time>
      </trkpt>
      <trkpt lat="44.9608" lon="5.12978">
        <ele>388.02474975586</ele>
        <time>2011-05-07T13:16:33Z</time>
      </trkpt>
      <trkpt lat="44.96093" lon="5.12959">
        <ele>387.16973876953</ele>
        <time>2011-05-07T13:16:35Z</time>
      </trkpt>
      <trkpt lat="44.96107" lon="5.1294">
        <ele>386.15808105469</ele>
        <time>2011-05-07T13:16:37Z</time>
      </trkpt>
      <trkpt lat="44.96151" lon="5.1289">
        <ele>384.17016601562</ele>
        <time>2011-05-07T13:16:43Z</time>
      </trkpt>
      <trkpt lat="44.96191" lon="5.1285">
        <ele>382.12310791016</ele>
        <time>2011-05-07T13:16:48Z</time>
      </trkpt>
      <trkpt lat="44.96232" lon="5.12803">
        <ele>380</ele>
        <time>2011-05-07T13:16:53Z</time>
      </trkpt>
      <trkpt lat="44.9627" lon="5.1277">
        <ele>379.79428100586</ele>
        <time>2011-05-07T13:16:57Z</time>
      </trkpt>
      <trkpt lat="44.96281" lon="5.12764">
        <ele>379.39218139648</ele>
        <time>2011-05-07T13:16:58Z</time>
      </trkpt>
      <trkpt lat="44.96338" lon="5.12736">
        <ele>375.23867797852</ele>
        <time>2011-05-07T13:17:03Z</time>
      </trkpt>
      <trkpt lat="44.96373" lon="5.12717">
        <ele>373.37451171875</ele>
        <time>2011-05-07T13:17:06Z</time>
      </trkpt>
      <trkpt lat="44.96457" lon="5.12666">
        <ele>369.53024291992</ele>
        <time>2011-05-07T13:17:13Z</time>
      </trkpt>
      <trkpt lat="44.96508" lon="5.12608">
        <ele>365.60949707031</ele>
        <time>2011-05-07T13:17:18Z</time>
      </trkpt>
      <trkpt lat="44.96565" lon="5.12533">
        <ele>362.1340637207</ele>
        <time>2011-05-07T13:17:24Z</time>
      </trkpt>
      <trkpt lat="44.96619" lon="5.1248">
        <ele>360.20703125</ele>
        <time>2011-05-07T13:17:29Z</time>
      </trkpt>
      <trkpt lat="44.9671" lon="5.12397">
        <ele>356.74188232422</ele>
        <time>2011-05-07T13:17:37Z</time>
      </trkpt>
      <trkpt lat="44.96721" lon="5.12386">
        <ele>356.03436279297</ele>
        <time>2011-05-07T13:17:38Z</time>
      </trkpt>
      <trkpt lat="44.96763" lon="5.12338">
        <ele>352.23504638672</ele>
        <time>2011-05-07T13:17:42Z</time>
      </trkpt>
      <trkpt lat="44.96846" lon="5.12219">
        <ele>346.44830322266</ele>
        <time>2011-05-07T13:17:51Z</time>
      </trkpt>
      <trkpt lat="44.96934" lon="5.1209">
        <ele>340.52044677734</ele>
        <time>2011-05-07T13:18:01Z</time>
      </trkpt>
      <trkpt lat="44.96943" lon="5.12077">
        <ele>339.84118652344</ele>
        <time>2011-05-07T13:18:02Z</time>
      </trkpt>
      <trkpt lat="44.96991" lon="5.12023">
        <ele>337.48962402344</ele>
        <time>2011-05-07T13:18:07Z</time>
      </trkpt>
      <trkpt lat="44.97047" lon="5.11987">
        <ele>337</ele>
        <time>2011-05-07T13:18:12Z</time>
      </trkpt>
      <trkpt lat="44.97092" lon="5.11961">
        <ele>335.68597412109</ele>
        <time>2011-05-07T13:18:16Z</time>
      </trkpt>
      <trkpt lat="44.97149" lon="5.11928">
        <ele>332.42633056641</ele>
        <time>2011-05-07T13:18:21Z</time>
      </trkpt>
      <trkpt lat="44.97244" lon="5.11873">
        <ele>327.09658813477</ele>
        <time>2011-05-07T13:18:29Z</time>
      </trkpt>
      <trkpt lat="44.97318" lon="5.11835">
        <ele>323.60995483398</ele>
        <time>2011-05-07T13:18:35Z</time>
      </trkpt>
      <trkpt lat="44.97395" lon="5.11812">
        <ele>320.8186340332</ele>
        <time>2011-05-07T13:18:41Z</time>
      </trkpt>
      <trkpt lat="44.97475" lon="5.11786">
        <ele>319.20556640625</ele>
        <time>2011-05-07T13:18:47Z</time>
      </trkpt>
      <trkpt lat="44.9752" lon="5.11743">
        <ele>316.26391601562</ele>
        <time>2011-05-07T13:18:51Z</time>
      </trkpt>
      <trkpt lat="44.9753" lon="5.11728">
        <ele>315.86865234375</ele>
        <time>2011-05-07T13:18:52Z</time>
      </trkpt>
      <trkpt lat="44.97572" lon="5.11658">
        <ele>312.07397460938</ele>
        <time>2011-05-07T13:18:57Z</time>
      </trkpt>
      <trkpt lat="44.97621" lon="5.11581">
        <ele>308.24487304688</ele>
        <time>2011-05-07T13:19:03Z</time>
      </trkpt>
      <trkpt lat="44.97653" lon="5.11531">
        <ele>305.6015625</ele>
        <time>2011-05-07T13:19:07Z</time>
      </trkpt>
      <trkpt lat="44.97712" lon="5.11443">
        <ele>302.9306640625</ele>
        <time>2011-05-07T13:19:14Z</time>
      </trkpt>
      <trkpt lat="44.97739" lon="5.11407">
        <ele>302</ele>
        <time>2011-05-07T13:19:17Z</time>
      </trkpt>
      <trkpt lat="44.97792" lon="5.11366">
        <ele>300.57275390625</ele>
        <time>2011-05-07T13:19:22Z</time>
      </trkpt>
      <trkpt lat="44.97863" lon="5.11318">
        <ele>300</ele>
        <time>2011-05-07T13:19:28Z</time>
      </trkpt>
      <trkpt lat="44.97971" lon="5.11244">
        <ele>299.05908203125</ele>
        <time>2011-05-07T13:19:37Z</time>
      </trkpt>
      <trkpt lat="44.98018" lon="5.11182">
        <ele>296.34246826172</ele>
        <time>2011-05-07T13:19:42Z</time>
      </trkpt>
      <trkpt lat="44.98081" lon="5.11094">
        <ele>293.09027099609</ele>
        <time>2011-05-07T13:19:49Z</time>
      </trkpt>
      <trkpt lat="44.98131" lon="5.11045">
        <ele>290.99996948242</ele>
        <time>2011-05-07T13:19:54Z</time>
      </trkpt>
      <trkpt lat="44.98172" lon="5.11005">
        <ele>288.97601318359</ele>
        <time>2011-05-07T13:19:58Z</time>
      </trkpt>
      <trkpt lat="44.98236" lon="5.10923">
        <ele>284.97448730469</ele>
        <time>2011-05-07T13:20:05Z</time>
      </trkpt>
      <trkpt lat="44.98284" lon="5.10873">
        <ele>282.78436279297</ele>
        <time>2011-05-07T13:20:10Z</time>
      </trkpt>
      <trkpt lat="44.98338" lon="5.10842">
        <ele>278.82055664062</ele>
        <time>2011-05-07T13:20:15Z</time>
      </trkpt>
      <trkpt lat="44.98383" lon="5.10817">
        <ele>277.5458984375</ele>
        <time>2011-05-07T13:20:19Z</time>
      </trkpt>
      <trkpt lat="44.9846" lon="5.10773">
        <ele>274.42602539062</ele>
        <time>2011-05-07T13:20:26Z</time>
      </trkpt>
      <trkpt lat="44.98539" lon="5.1072">
        <ele>271.93426513672</ele>
        <time>2011-05-07T13:20:33Z</time>
      </trkpt>
      <trkpt lat="44.98616" lon="5.1066">
        <ele>268.62097167969</ele>
        <time>2011-05-07T13:20:40Z</time>
      </trkpt>
      <trkpt lat="44.9866" lon="5.10625">
        <ele>267.11682128906</ele>
        <time>2011-05-07T13:20:44Z</time>
      </trkpt>
      <trkpt lat="44.98724" lon="5.10578">
        <ele>263.93658447266</ele>
        <time>2011-05-07T13:20:50Z</time>
      </trkpt>
      <trkpt lat="44.98735" lon="5.1057">
        <ele>263.55206298828</ele>
        <time>2011-05-07T13:20:51Z</time>
      </trkpt>
      <trkpt lat="44.98755" lon="5.10553">
        <ele>262.98187255859</ele>
        <time>2011-05-07T13:20:53Z</time>
      </trkpt>
      <trkpt lat="44.9879" lon="5.10508">
        <ele>261.69213867188</ele>
        <time>2011-05-07T13:20:57Z</time>
      </trkpt>
      <trkpt lat="44.98797" lon="5.10495">
        <ele>261.31359863281</ele>
        <time>2011-05-07T13:20:58Z</time>
      </trkpt>
      <trkpt lat="44.98848" lon="5.10393">
        <ele>260</ele>
        <time>2011-05-07T13:21:06Z</time>
      </trkpt>
      <trkpt lat="44.98906" lon="5.10277">
        <ele>256.33685302734</ele>
        <time>2011-05-07T13:21:15Z</time>
      </trkpt>
      <trkpt lat="44.9893" lon="5.10249">
        <ele>255</ele>
        <time>2011-05-07T13:21:18Z</time>
      </trkpt>
      <trkpt lat="44.98951" lon="5.10245">
        <ele>254.75177001953</ele>
        <time>2011-05-07T13:21:20Z</time>
      </trkpt>
      <trkpt lat="44.99008" lon="5.10234">
        <ele>253</ele>
        <time>2011-05-07T13:21:25Z</time>
      </trkpt>
      <trkpt lat="44.99102" lon="5.10206">
        <ele>250.74270629883</ele>
        <time>2011-05-07T13:21:33Z</time>
      </trkpt>
      <trkpt lat="44.99161" lon="5.10186">
        <ele>249</ele>
        <time>2011-05-07T13:21:38Z</time>
      </trkpt>
      <trkpt lat="44.99204" lon="5.10161">
        <ele>248</ele>
        <time>2011-05-07T13:21:42Z</time>
      </trkpt>
      <trkpt lat="44.99215" lon="5.10153">
        <ele>248</ele>
        <time>2011-05-07T13:21:43Z</time>
      </trkpt>
      <trkpt lat="44.99284" lon="5.10095">
        <ele>245</ele>
        <time>2011-05-07T13:21:50Z</time>
      </trkpt>
      <trkpt lat="44.9936" lon="5.10035">
        <ele>244</ele>
        <time>2011-05-07T13:21:58Z</time>
      </trkpt>
      <trkpt lat="44.99444" lon="5.09966">
        <ele>241.76541137695</ele>
        <time>2011-05-07T13:22:07Z</time>
      </trkpt>
      <trkpt lat="44.99526" lon="5.09899">
        <ele>240.05627441406</ele>
        <time>2011-05-07T13:22:16Z</time>
      </trkpt>
      <trkpt lat="44.99583" lon="5.09849">
        <ele>240</ele>
        <time>2011-05-07T13:22:22Z</time>
      </trkpt>
      <trkpt lat="44.99603" lon="5.09831">
        <ele>240</ele>
        <time>2011-05-07T13:22:24Z</time>
      </trkpt>
      <trkpt lat="44.99672" lon="5.09768">
        <ele>240</ele>
        <time>2011-05-07T13:22:31Z</time>
      </trkpt>
      <trkpt lat="44.99743" lon="5.09716">
        <ele>239.24224853516</ele>
        <time>2011-05-07T13:22:38Z</time>
      </trkpt>
      <trkpt lat="44.99829" lon="5.09662">
        <ele>237.86076354981</ele>
        <time>2011-05-07T13:22:46Z</time>
      </trkpt>
      <trkpt lat="44.99886" lon="5.09636">
        <ele>236.09591674805</ele>
        <time>2011-05-07T13:22:51Z</time>
      </trkpt>
      <trkpt lat="44.99941" lon="5.09609">
        <ele>234.12860107422</ele>
        <time>2011-05-07T13:22:56Z</time>
      </trkpt>
      <trkpt lat="45.00011" lon="5.09551">
        <ele>225.60174560547</ele>
        <time>2011-05-07T13:23:03Z</time>
      </trkpt>
      <trkpt lat="45.0011" lon="5.09468">
        <ele>222.84883117676</ele>
        <time>2011-05-07T13:23:13Z</time>
      </trkpt>
      <trkpt lat="45.00204" lon="5.09386">
        <ele>220.65289306641</ele>
        <time>2011-05-07T13:23:23Z</time>
      </trkpt>
      <trkpt lat="45.00259" lon="5.09336">
        <ele>220</ele>
        <time>2011-05-07T13:23:29Z</time>
      </trkpt>
      <trkpt lat="45.00314" lon="5.09292">
        <ele>220</ele>
        <time>2011-05-07T13:23:35Z</time>
      </trkpt>
      <trkpt lat="45.0038" lon="5.09258">
        <ele>220</ele>
        <time>2011-05-07T13:23:42Z</time>
      </trkpt>
      <trkpt lat="45.00434" lon="5.09225">
        <ele>218.44471740723</ele>
        <time>2011-05-07T13:23:48Z</time>
      </trkpt>
      <trkpt lat="45.00481" lon="5.09191">
        <ele>218</ele>
        <time>2011-05-07T13:23:53Z</time>
      </trkpt>
      <trkpt lat="45.00527" lon="5.09153">
        <ele>218</ele>
        <time>2011-05-07T13:23:58Z</time>
      </trkpt>
      <trkpt lat="45.00591" lon="5.0911">
        <ele>218</ele>
        <time>2011-05-07T13:24:05Z</time>
      </trkpt>
      <trkpt lat="45.00616" lon="5.09095">
        <ele>218</ele>
        <time>2011-05-07T13:24:08Z</time>
      </trkpt>
      <trkpt lat="45.00674" lon="5.09066">
        <ele>218</ele>
        <time>2011-05-07T13:24:15Z</time>
      </trkpt>
      <trkpt lat="45.00688" lon="5.09061">
        <ele>218</ele>
        <time>2011-05-07T13:24:17Z</time>
      </trkpt>
      <trkpt lat="45.00729" lon="5.09034">
        <ele>218</ele>
        <time>2011-05-07T13:24:23Z</time>
      </trkpt>
      <trkpt lat="45.00763" lon="5.09002">
        <ele>218</ele>
        <time>2011-05-07T13:24:28Z</time>
      </trkpt>
      <trkpt lat="45.00799" lon="5.08969">
        <ele>218</ele>
        <time>2011-05-07T13:24:33Z</time>
      </trkpt>
      <trkpt lat="45.00859" lon="5.08928">
        <ele>218</ele>
        <time>2011-05-07T13:24:40Z</time>
      </trkpt>
      <trkpt lat="45.0092" lon="5.08896">
        <ele>218</ele>
        <time>2011-05-07T13:24:46Z</time>
      </trkpt>
      <trkpt lat="45.00931" lon="5.08893">
        <ele>218</ele>
        <time>2011-05-07T13:24:47Z</time>
      </trkpt>
      <trkpt lat="45.00966" lon="5.08894">
        <ele>218</ele>
        <time>2011-05-07T13:24:50Z</time>
      </trkpt>
      <trkpt lat="45.01013" lon="5.08885">
        <ele>216.98628234863</ele>
        <time>2011-05-07T13:24:54Z</time>
      </trkpt>
      <trkpt lat="45.01024" lon="5.08878">
        <ele>216.22406005859</ele>
        <time>2011-05-07T13:24:55Z</time>
      </trkpt>
      <trkpt lat="45.01084" lon="5.08824">
        <ele>214.9948425293</ele>
        <time>2011-05-07T13:25:01Z</time>
      </trkpt>
      <trkpt lat="45.0111" lon="5.0878">
        <ele>213.12075805664</ele>
        <time>2011-05-07T13:25:05Z</time>
      </trkpt>
      <trkpt lat="45.01146" lon="5.08701">
        <ele>210.96139526367</ele>
        <time>2011-05-07T13:25:12Z</time>
      </trkpt>
      <trkpt lat="45.01182" lon="5.08639">
        <ele>207.44502258301</ele>
        <time>2011-05-07T13:25:18Z</time>
      </trkpt>
      <trkpt lat="45.01249" lon="5.08545">
        <ele>199.68310546875</ele>
        <time>2011-05-07T13:25:28Z</time>
      </trkpt>
      <trkpt lat="45.0129" lon="5.08477">
        <ele>199</ele>
        <time>2011-05-07T13:25:35Z</time>
      </trkpt>
      <trkpt lat="45.01307" lon="5.08448">
        <ele>199</ele>
        <time>2011-05-07T13:25:38Z</time>
      </trkpt>
      <trkpt lat="45.01342" lon="5.08414">
        <ele>199</ele>
        <time>2011-05-07T13:25:43Z</time>
      </trkpt>
      <trkpt lat="45.01351" lon="5.0841">
        <ele>199</ele>
        <time>2011-05-07T13:25:44Z</time>
      </trkpt>
      <trkpt lat="45.01376" lon="5.08401">
        <ele>199</ele>
        <time>2011-05-07T13:25:47Z</time>
      </trkpt>
      <trkpt lat="45.01406" lon="5.08376">
        <ele>199</ele>
        <time>2011-05-07T13:25:51Z</time>
      </trkpt>
      <trkpt lat="45.01463" lon="5.08304">
        <ele>199</ele>
        <time>2011-05-07T13:25:59Z</time>
      </trkpt>
      <trkpt lat="45.01523" lon="5.08232">
        <ele>198.17822265625</ele>
        <time>2011-05-07T13:26:07Z</time>
      </trkpt>
      <trkpt lat="45.01598" lon="5.08161">
        <ele>197.44023132324</ele>
        <time>2011-05-07T13:26:16Z</time>
      </trkpt>
      <trkpt lat="45.0164" lon="5.08121">
        <ele>197</ele>
        <time>2011-05-07T13:26:21Z</time>
      </trkpt>
      <trkpt lat="45.01705" lon="5.08057">
        <ele>195.06309509277</ele>
        <time>2011-05-07T13:26:29Z</time>
      </trkpt>
      <trkpt lat="45.01759" lon="5.0799">
        <ele>193.66381835938</ele>
        <time>2011-05-07T13:26:36Z</time>
      </trkpt>
      <trkpt lat="45.01821" lon="5.07902">
        <ele>193.43908691406</ele>
        <time>2011-05-07T13:26:45Z</time>
      </trkpt>
      <trkpt lat="45.01877" lon="5.07826">
        <ele>192.43408203125</ele>
        <time>2011-05-07T13:26:53Z</time>
      </trkpt>
      <trkpt lat="45.01916" lon="5.0779">
        <ele>192</ele>
        <time>2011-05-07T13:26:58Z</time>
      </trkpt>
      <trkpt lat="45.01973" lon="5.07745">
        <ele>191.16653442383</ele>
        <time>2011-05-07T13:27:05Z</time>
      </trkpt>
      <trkpt lat="45.02034" lon="5.07707">
        <ele>191</ele>
        <time>2011-05-07T13:27:12Z</time>
      </trkpt>
      <trkpt lat="45.021" lon="5.07676">
        <ele>191</ele>
        <time>2011-05-07T13:27:19Z</time>
      </trkpt>
      <trkpt lat="45.0216" lon="5.07661">
        <ele>191</ele>
        <time>2011-05-07T13:27:25Z</time>
      </trkpt>
      <trkpt lat="45.02226" lon="5.07668">
        <ele>189</ele>
        <time>2011-05-07T13:27:31Z</time>
      </trkpt>
      <trkpt lat="45.0225" lon="5.07668">
        <ele>189</ele>
        <time>2011-05-07T13:27:33Z</time>
      </trkpt>
      <trkpt lat="45.02286" lon="5.07657">
        <ele>189</ele>
        <time>2011-05-07T13:27:36Z</time>
      </trkpt>
      <trkpt lat="45.02333" lon="5.07637">
        <ele>189</ele>
        <time>2011-05-07T13:27:40Z</time>
      </trkpt>
      <trkpt lat="45.02396" lon="5.07588">
        <ele>186.87631225586</ele>
        <time>2011-05-07T13:27:47Z</time>
      </trkpt>
      <trkpt lat="45.02443" lon="5.07562">
        <ele>183.32092285156</ele>
        <time>2011-05-07T13:27:52Z</time>
      </trkpt>
      <trkpt lat="45.02482" lon="5.07536">
        <ele>181.28161621094</ele>
        <time>2011-05-07T13:27:56Z</time>
      </trkpt>
      <trkpt lat="45.025" lon="5.0752">
        <ele>180.71685791016</ele>
        <time>2011-05-07T13:27:58Z</time>
      </trkpt>
      <trkpt lat="45.02542" lon="5.075">
        <ele>180.01477050781</ele>
        <time>2011-05-07T13:28:02Z</time>
      </trkpt>
      <trkpt lat="45.02603" lon="5.07477">
        <ele>179.17877197266</ele>
        <time>2011-05-07T13:28:08Z</time>
      </trkpt>
      <trkpt lat="45.02649" lon="5.07445">
        <ele>177.64498901367</ele>
        <time>2011-05-07T13:28:13Z</time>
      </trkpt>
      <trkpt lat="45.02665" lon="5.07438">
        <ele>177.05702209473</ele>
        <time>2011-05-07T13:28:15Z</time>
      </trkpt>
      <trkpt lat="45.02679" lon="5.07452">
        <ele>176.68344116211</ele>
        <time>2011-05-07T13:28:17Z</time>
      </trkpt>
      <trkpt lat="45.02678" lon="5.07471">
        <ele>177.19979858398</ele>
        <time>2011-05-07T13:28:19Z</time>
      </trkpt>
      <trkpt lat="45.02674" lon="5.07492">
        <ele>177.6376953125</ele>
        <time>2011-05-07T13:28:21Z</time>
      </trkpt>
      <trkpt lat="45.02686" lon="5.07532">
        <ele>177.69258117676</ele>
        <time>2011-05-07T13:28:25Z</time>
      </trkpt>
      <trkpt lat="45.02708" lon="5.07551">
        <ele>176.94178771973</ele>
        <time>2011-05-07T13:28:28Z</time>
      </trkpt>
      <trkpt lat="45.02776" lon="5.0759">
        <ele>175</ele>
        <time>2011-05-07T13:28:36Z</time>
      </trkpt>
      <trkpt lat="45.02824" lon="5.07603">
        <ele>172.33526611328</ele>
        <time>2011-05-07T13:28:41Z</time>
      </trkpt>
      <trkpt lat="45.02906" lon="5.0761">
        <ele>171</ele>
        <time>2011-05-07T13:28:49Z</time>
      </trkpt>
      <trkpt lat="45.03008" lon="5.0761">
        <ele>169</ele>
        <time>2011-05-07T13:28:59Z</time>
      </trkpt>
      <trkpt lat="45.03065" lon="5.07594">
        <ele>168</ele>
        <time>2011-05-07T13:29:05Z</time>
      </trkpt>
      <trkpt lat="45.03109" lon="5.07583">
        <ele>167.06304931641</ele>
        <time>2011-05-07T13:29:10Z</time>
      </trkpt>
      <trkpt lat="45.0314" lon="5.07593">
        <ele>167.35873413086</ele>
        <time>2011-05-07T13:29:14Z</time>
      </trkpt>
      <trkpt lat="45.03149" lon="5.07611">
        <ele>168</ele>
        <time>2011-05-07T13:29:16Z</time>
      </trkpt>
      <trkpt lat="45.03167" lon="5.07644">
        <ele>167.98937988281</ele>
        <time>2011-05-07T13:29:20Z</time>
      </trkpt>
      <trkpt lat="45.03183" lon="5.07639">
        <ele>167.39886474609</ele>
        <time>2011-05-07T13:29:22Z</time>
      </trkpt>
      <trkpt lat="45.03195" lon="5.07622">
        <ele>167</ele>
        <time>2011-05-07T13:29:24Z</time>
      </trkpt>
      <trkpt lat="45.0321" lon="5.07594">
        <ele>167</ele>
        <time>2011-05-07T13:29:27Z</time>
      </trkpt>
      <trkpt lat="45.03233" lon="5.07579">
        <ele>166.61358642578</ele>
        <time>2011-05-07T13:29:30Z</time>
      </trkpt>
      <trkpt lat="45.03241" lon="5.07576">
        <ele>166.31146240234</ele>
        <time>2011-05-07T13:29:31Z</time>
      </trkpt>
      <trkpt lat="45.03259" lon="5.07574">
        <ele>166</ele>
        <time>2011-05-07T13:29:33Z</time>
      </trkpt>
      <trkpt lat="45.0333" lon="5.07576">
        <ele>165.11169433594</ele>
        <time>2011-05-07T13:29:41Z</time>
      </trkpt>
      <trkpt lat="45.03384" lon="5.07578">
        <ele>164.8565826416</ele>
        <time>2011-05-07T13:29:47Z</time>
      </trkpt>
      <trkpt lat="45.03425" lon="5.07587">
        <ele>165</ele>
        <time>2011-05-07T13:29:52Z</time>
      </trkpt>
      <trkpt lat="45.03473" lon="5.07598">
        <ele>164</ele>
        <time>2011-05-07T13:29:58Z</time>
      </trkpt>
      <trkpt lat="45.03501" lon="5.07601">
        <ele>163.97308349609</ele>
        <time>2011-05-07T13:30:03Z</time>
      </trkpt>
      <trkpt lat="45.03516" lon="5.076">
        <ele>163.42376708984</ele>
        <time>2011-05-07T13:30:06Z</time>
      </trkpt>
      <trkpt lat="45.03529" lon="5.07613">
        <ele>163</ele>
        <time>2011-05-07T13:30:10Z</time>
      </trkpt>
      <trkpt lat="45.03526" lon="5.07627">
        <ele>163.08044433594</ele>
        <time>2011-05-07T13:30:12Z</time>
      </trkpt>
      <trkpt lat="45.03505" lon="5.07689">
        <ele>163.96327209473</ele>
        <time>2011-05-07T13:30:19Z</time>
      </trkpt>
      <trkpt lat="45.03479" lon="5.07743">
        <ele>165</ele>
        <time>2011-05-07T13:30:25Z</time>
      </trkpt>
      <trkpt lat="45.03455" lon="5.07789">
        <ele>165.60729980469</ele>
        <time>2011-05-07T13:30:30Z</time>
      </trkpt>
      <trkpt lat="45.03444" lon="5.07819">
        <ele>166</ele>
        <time>2011-05-07T13:30:33Z</time>
      </trkpt>
      <trkpt lat="45.0344" lon="5.07872">
        <ele>166.40950012207</ele>
        <time>2011-05-07T13:30:38Z</time>
      </trkpt>
      <trkpt lat="45.03442" lon="5.07883">
        <ele>166.78715515137</ele>
        <time>2011-05-07T13:30:39Z</time>
      </trkpt>
      <trkpt lat="45.03462" lon="5.07956">
        <ele>166.6435546875</ele>
        <time>2011-05-07T13:30:46Z</time>
      </trkpt>
      <trkpt lat="45.03492" lon="5.08051">
        <ele>167</ele>
        <time>2011-05-07T13:30:55Z</time>
      </trkpt>
      <trkpt lat="45.03519" lon="5.08111">
        <ele>167.32763671875</ele>
        <time>2011-05-07T13:31:01Z</time>
      </trkpt>
      <trkpt lat="45.03555" lon="5.08186">
        <ele>167.00642395019</ele>
        <time>2011-05-07T13:31:09Z</time>
      </trkpt>
      <trkpt lat="45.03559" lon="5.08218">
        <ele>167.73376464844</ele>
        <time>2011-05-07T13:31:13Z</time>
      </trkpt>
      <trkpt lat="45.03563" lon="5.08264">
        <ele>167.73461914062</ele>
        <time>2011-05-07T13:31:18Z</time>
      </trkpt>
      <trkpt lat="45.03567" lon="5.08272">
        <ele>167.58355712891</ele>
        <time>2011-05-07T13:31:19Z</time>
      </trkpt>
      <trkpt lat="45.03579" lon="5.0832">
        <ele>167.15783691406</ele>
        <time>2011-05-07T13:31:24Z</time>
      </trkpt>
      <trkpt lat="45.03574" lon="5.08412">
        <ele>168.35009765625</ele>
        <time>2011-05-07T13:31:32Z</time>
      </trkpt>
      <trkpt lat="45.03569" lon="5.08471">
        <ele>168.50115966797</ele>
        <time>2011-05-07T13:31:37Z</time>
      </trkpt>
      <trkpt lat="45.03569" lon="5.08546">
        <ele>169.52862548828</ele>
        <time>2011-05-07T13:31:43Z</time>
      </trkpt>
      <trkpt lat="45.03566" lon="5.0858">
        <ele>169.61102294922</ele>
        <time>2011-05-07T13:31:46Z</time>
      </trkpt>
      <trkpt lat="45.03571" lon="5.08619">
        <ele>169.44622802734</ele>
        <time>2011-05-07T13:31:50Z</time>
      </trkpt>
      <trkpt lat="45.03584" lon="5.08631">
        <ele>168.97930908203</ele>
        <time>2011-05-07T13:31:52Z</time>
      </trkpt>
      <trkpt lat="45.03599" lon="5.0864">
        <ele>168.48384094238</ele>
        <time>2011-05-07T13:31:54Z</time>
      </trkpt>
      <trkpt lat="45.03654" lon="5.08651">
        <ele>166.87881469727</ele>
        <time>2011-05-07T13:32:00Z</time>
      </trkpt>
      <trkpt lat="45.03732" lon="5.08668">
        <ele>163.32934570312</ele>
        <time>2011-05-07T13:32:08Z</time>
      </trkpt>
      <trkpt lat="45.03789" lon="5.08683">
        <ele>160.60473632812</ele>
        <time>2011-05-07T13:32:14Z</time>
      </trkpt>
      <trkpt lat="45.03835" lon="5.08694">
        <ele>157.8190612793</ele>
        <time>2011-05-07T13:32:19Z</time>
      </trkpt>
      <trkpt lat="45.03863" lon="5.08701">
        <ele>153.57928466797</ele>
        <time>2011-05-07T13:32:22Z</time>
      </trkpt>
      <trkpt lat="45.03894" lon="5.08707">
        <ele>147.52423095703</ele>
        <time>2011-05-07T13:32:25Z</time>
      </trkpt>
      <trkpt lat="45.03936" lon="5.08702">
        <ele>141.87594604492</ele>
        <time>2011-05-07T13:32:29Z</time>
      </trkpt>
      <trkpt lat="45.03957" lon="5.08696">
        <ele>141.02597045898</ele>
        <time>2011-05-07T13:32:31Z</time>
      </trkpt>
      <trkpt lat="45.04015" lon="5.08679">
        <ele>141</ele>
        <time>2011-05-07T13:32:37Z</time>
      </trkpt>
      <trkpt lat="45.04053" lon="5.08669">
        <ele>141</ele>
        <time>2011-05-07T13:32:42Z</time>
      </trkpt>
      <trkpt lat="45.041" lon="5.08656">
        <ele>141</ele>
        <time>2011-05-07T13:32:49Z</time>
      </trkpt>
      <trkpt lat="45.0414" lon="5.08644">
        <ele>149.52691650391</ele>
        <time>2011-05-07T13:32:56Z</time>
      </trkpt>
      <trkpt lat="45.04161" lon="5.08634">
        <ele>161.24702453613</ele>
        <time>2011-05-07T13:33:00Z</time>
      </trkpt>
      <trkpt lat="45.04167" lon="5.08632">
        <ele>164.09155273438</ele>
        <time>2011-05-07T13:33:01Z</time>
      </trkpt>
      <trkpt lat="45.04179" lon="5.0863">
        <ele>166.22015380859</ele>
        <time>2011-05-07T13:33:03Z</time>
      </trkpt>
      <trkpt lat="45.04196" lon="5.08623">
        <ele>169.06201171875</ele>
        <time>2011-05-07T13:33:06Z</time>
      </trkpt>
      <trkpt lat="45.04211" lon="5.08611">
        <ele>169.59338378906</ele>
        <time>2011-05-07T13:33:09Z</time>
      </trkpt>
      <trkpt lat="45.04229" lon="5.0859">
        <ele>170</ele>
        <time>2011-05-07T13:33:13Z</time>
      </trkpt>
      <trkpt lat="45.04237" lon="5.08578">
        <ele>170</ele>
        <time>2011-05-07T13:33:15Z</time>
      </trkpt>
      <trkpt lat="45.04248" lon="5.08561">
        <ele>170</ele>
        <time>2011-05-07T13:33:18Z</time>
      </trkpt>
      <trkpt lat="45.04263" lon="5.08521">
        <ele>170</ele>
        <time>2011-05-07T13:33:24Z</time>
      </trkpt>
      <trkpt lat="45.04271" lon="5.08498">
        <ele>170</ele>
        <time>2011-05-07T13:33:28Z</time>
      </trkpt>
      <trkpt lat="45.04282" lon="5.0848">
        <ele>169.88841247559</ele>
        <time>2011-05-07T13:33:32Z</time>
      </trkpt>
      <trkpt lat="45.04309" lon="5.08457">
        <ele>169.126953125</ele>
        <time>2011-05-07T13:33:40Z</time>
      </trkpt>
      <trkpt lat="45.04325" lon="5.08449">
        <ele>169.71746826172</ele>
        <time>2011-05-07T13:33:45Z</time>
      </trkpt>
      <trkpt lat="45.04334" lon="5.0845">
        <ele>170</ele>
        <time>2011-05-07T13:33:47Z</time>
      </trkpt>
      <trkpt lat="45.04351" lon="5.08465">
        <ele>170</ele>
        <time>2011-05-07T13:33:51Z</time>
      </trkpt>
      <trkpt lat="45.04358" lon="5.08486">
        <ele>170</ele>
        <time>2011-05-07T13:33:54Z</time>
      </trkpt>
      <trkpt lat="45.04364" lon="5.08547">
        <ele>170</ele>
        <time>2011-05-07T13:34:02Z</time>
      </trkpt>
      <trkpt lat="45.04367" lon="5.08571">
        <ele>170</ele>
        <time>2011-05-07T13:34:05Z</time>
      </trkpt>
      <trkpt lat="45.04382" lon="5.08598">
        <ele>170</ele>
        <time>2011-05-07T13:34:09Z</time>
      </trkpt>
      <trkpt lat="45.04404" lon="5.08602">
        <ele>170</ele>
        <time>2011-05-07T13:34:12Z</time>
      </trkpt>
      <trkpt lat="45.04478" lon="5.0859">
        <ele>170</ele>
        <time>2011-05-07T13:34:21Z</time>
      </trkpt>
      <trkpt lat="45.04529" lon="5.08581">
        <ele>170</ele>
        <time>2011-05-07T13:34:27Z</time>
      </trkpt>
      <trkpt lat="45.04603" lon="5.0857">
        <ele>170</ele>
        <time>2011-05-07T13:34:36Z</time>
      </trkpt>
      <trkpt lat="45.04653" lon="5.0856">
        <ele>170</ele>
        <time>2011-05-07T13:34:43Z</time>
      </trkpt>
      <trkpt lat="45.04703" lon="5.0855">
        <ele>170</ele>
        <time>2011-05-07T13:34:50Z</time>
      </trkpt>
      <trkpt lat="45.04775" lon="5.08535">
        <ele>170</ele>
        <time>2011-05-07T13:34:59Z</time>
      </trkpt>
      <trkpt lat="45.04789" lon="5.08532">
        <ele>170</ele>
        <time>2011-05-07T13:35:01Z</time>
      </trkpt>
      <trkpt lat="45.04815" lon="5.08542">
        <ele>170</ele>
        <time>2011-05-07T13:35:05Z</time>
      </trkpt>
      <trkpt lat="45.04829" lon="5.08534">
        <ele>170</ele>
        <time>2011-05-07T13:35:08Z</time>
      </trkpt>
      <trkpt lat="45.04848" lon="5.0852">
        <ele>170</ele>
        <time>2011-05-07T13:35:11Z</time>
      </trkpt>
      <trkpt lat="45.04855" lon="5.08519">
        <ele>170</ele>
        <time>2011-05-07T13:35:12Z</time>
      </trkpt>
      <trkpt lat="45.04913" lon="5.08517">
        <ele>170</ele>
        <time>2011-05-07T13:35:20Z</time>
      </trkpt>
      <trkpt lat="45.0498" lon="5.08513">
        <ele>170</ele>
        <time>2011-05-07T13:35:29Z</time>
      </trkpt>
      <trkpt lat="45.05035" lon="5.0851">
        <ele>170</ele>
        <time>2011-05-07T13:35:37Z</time>
      </trkpt>
      <trkpt lat="45.05069" lon="5.08508">
        <ele>170</ele>
        <time>2011-05-07T13:35:43Z</time>
      </trkpt>
      <trkpt lat="45.05076" lon="5.08509">
        <ele>170</ele>
        <time>2011-05-07T13:35:46Z</time>
      </trkpt>
      <trkpt lat="45.05077" lon="5.0851">
        <ele>170</ele>
        <time>2011-05-07T13:35:47Z</time>
      </trkpt>
      <trkpt lat="45.05082" lon="5.085">
        <ele>170</ele>
        <time>2011-05-07T13:35:51Z</time>
      </trkpt>
      <trkpt lat="45.0508" lon="5.08489">
        <ele>170</ele>
        <time>2011-05-07T13:35:53Z</time>
      </trkpt>
      <trkpt lat="45.05075" lon="5.0844">
        <ele>170</ele>
        <time>2011-05-07T13:36:00Z</time>
      </trkpt>
      <trkpt lat="45.05069" lon="5.08386">
        <ele>170</ele>
        <time>2011-05-07T13:36:07Z</time>
      </trkpt>
      <trkpt lat="45.05064" lon="5.08317">
        <ele>170</ele>
        <time>2011-05-07T13:36:15Z</time>
      </trkpt>
      <trkpt lat="45.05063" lon="5.08299">
        <ele>170</ele>
        <time>2011-05-07T13:36:17Z</time>
      </trkpt>
      <trkpt lat="45.05055" lon="5.08266">
        <ele>170</ele>
        <time>2011-05-07T13:36:21Z</time>
      </trkpt>
      <trkpt lat="45.0503" lon="5.08181">
        <ele>170</ele>
        <time>2011-05-07T13:36:31Z</time>
      </trkpt>
      <trkpt lat="45.05019" lon="5.08112">
        <ele>170</ele>
        <time>2011-05-07T13:36:38Z</time>
      </trkpt>
      <trkpt lat="45.05017" lon="5.08046">
        <ele>170</ele>
        <time>2011-05-07T13:36:45Z</time>
      </trkpt>
      <trkpt lat="45.05022" lon="5.07976">
        <ele>170</ele>
        <time>2011-05-07T13:36:53Z</time>
      </trkpt>
      <trkpt lat="45.05024" lon="5.07961">
        <ele>170</ele>
        <time>2011-05-07T13:36:55Z</time>
      </trkpt>
      <trkpt lat="45.05029" lon="5.07944">
        <ele>170</ele>
        <time>2011-05-07T13:36:59Z</time>
      </trkpt>
      <trkpt lat="45.05038" lon="5.07931">
        <ele>170</ele>
        <time>2011-05-07T13:37:03Z</time>
      </trkpt>
      <trkpt lat="45.05043" lon="5.0791">
        <ele>170</ele>
        <time>2011-05-07T13:37:06Z</time>
      </trkpt>
      <trkpt lat="45.05046" lon="5.07878">
        <ele>170</ele>
        <time>2011-05-07T13:37:10Z</time>
      </trkpt>
      <trkpt lat="45.0505" lon="5.07871">
        <ele>170</ele>
        <time>2011-05-07T13:37:11Z</time>
      </trkpt>
      <trkpt lat="45.05077" lon="5.07841">
        <ele>170</ele>
        <time>2011-05-07T13:37:16Z</time>
      </trkpt>
      <trkpt lat="45.05125" lon="5.07809">
        <ele>170</ele>
        <time>2011-05-07T13:37:22Z</time>
      </trkpt>
      <trkpt lat="45.05134" lon="5.07803">
        <ele>170</ele>
        <time>2011-05-07T13:37:23Z</time>
      </trkpt>
      <trkpt lat="45.05177" lon="5.07772">
        <ele>170</ele>
        <time>2011-05-07T13:37:28Z</time>
      </trkpt>
      <trkpt lat="45.0521" lon="5.07749">
        <ele>170</ele>
        <time>2011-05-07T13:37:33Z</time>
      </trkpt>
      <trkpt lat="45.05251" lon="5.07729">
        <ele>170</ele>
        <time>2011-05-07T13:37:40Z</time>
      </trkpt>
      <trkpt lat="45.05272" lon="5.0771">
        <ele>170</ele>
        <time>2011-05-07T13:37:44Z</time>
      </trkpt>
      <trkpt lat="45.0532" lon="5.07643">
        <ele>170</ele>
        <time>2011-05-07T13:37:54Z</time>
      </trkpt>
      <trkpt lat="45.05356" lon="5.07591">
        <ele>170</ele>
        <time>2011-05-07T13:38:01Z</time>
      </trkpt>
      <trkpt lat="45.05396" lon="5.07524">
        <ele>170</ele>
        <time>2011-05-07T13:38:09Z</time>
      </trkpt>
      <trkpt lat="45.05436" lon="5.07443">
        <ele>170</ele>
        <time>2011-05-07T13:38:18Z</time>
      </trkpt>
      <trkpt lat="45.05477" lon="5.07361">
        <ele>170</ele>
        <time>2011-05-07T13:38:27Z</time>
      </trkpt>
      <trkpt lat="45.05517" lon="5.07279">
        <ele>170</ele>
        <time>2011-05-07T13:38:36Z</time>
      </trkpt>
      <trkpt lat="45.05553" lon="5.07206">
        <ele>169.04498291016</ele>
        <time>2011-05-07T13:38:44Z</time>
      </trkpt>
      <trkpt lat="45.05565" lon="5.07183">
        <ele>169</ele>
        <time>2011-05-07T13:38:47Z</time>
      </trkpt>
      <trkpt lat="45.05586" lon="5.07156">
        <ele>169</ele>
        <time>2011-05-07T13:38:51Z</time>
      </trkpt>
      <trkpt lat="45.05589" lon="5.07147">
        <ele>169</ele>
        <time>2011-05-07T13:38:52Z</time>
      </trkpt>
      <trkpt lat="45.05594" lon="5.07128">
        <ele>169</ele>
        <time>2011-05-07T13:38:54Z</time>
      </trkpt>
      <trkpt lat="45.05619" lon="5.07057">
        <ele>169.27203369141</ele>
        <time>2011-05-07T13:39:01Z</time>
      </trkpt>
      <trkpt lat="45.05639" lon="5.06979">
        <ele>170.01361083984</ele>
        <time>2011-05-07T13:39:08Z</time>
      </trkpt>
      <trkpt lat="45.05651" lon="5.06897">
        <ele>170.43933105469</ele>
        <time>2011-05-07T13:39:15Z</time>
      </trkpt>
      <trkpt lat="45.0566" lon="5.0682">
        <ele>170.29618835449</ele>
        <time>2011-05-07T13:39:22Z</time>
      </trkpt>
      <trkpt lat="45.05675" lon="5.06723">
        <ele>170</ele>
        <time>2011-05-07T13:39:31Z</time>
      </trkpt>
      <trkpt lat="45.05694" lon="5.0663">
        <ele>169.99114990234</ele>
        <time>2011-05-07T13:39:40Z</time>
      </trkpt>
      <trkpt lat="45.05716" lon="5.06552">
        <ele>169.96997070312</ele>
        <time>2011-05-07T13:39:48Z</time>
      </trkpt>
      <trkpt lat="45.05741" lon="5.06493">
        <ele>170</ele>
        <time>2011-05-07T13:39:55Z</time>
      </trkpt>
      <trkpt lat="45.05763" lon="5.06461">
        <ele>170</ele>
        <time>2011-05-07T13:40:00Z</time>
      </trkpt>
      <trkpt lat="45.05788" lon="5.06436">
        <ele>170</ele>
        <time>2011-05-07T13:40:05Z</time>
      </trkpt>
      <trkpt lat="45.05836" lon="5.06428">
        <ele>170.03970336914</ele>
        <time>2011-05-07T13:40:12Z</time>
      </trkpt>
      <trkpt lat="45.05843" lon="5.06426">
        <ele>170.11312866211</ele>
        <time>2011-05-07T13:40:13Z</time>
      </trkpt>
      <trkpt lat="45.05881" lon="5.06408">
        <ele>170.49398803711</ele>
        <time>2011-05-07T13:40:19Z</time>
      </trkpt>
      <trkpt lat="45.05939" lon="5.06385">
        <ele>170.97038269043</ele>
        <time>2011-05-07T13:40:27Z</time>
      </trkpt>
      <trkpt lat="45.06002" lon="5.06362">
        <ele>171</ele>
        <time>2011-05-07T13:40:35Z</time>
      </trkpt>
      <trkpt lat="45.06059" lon="5.06354">
        <ele>171</ele>
        <time>2011-05-07T13:40:42Z</time>
      </trkpt>
      <trkpt lat="45.06123" lon="5.06346">
        <ele>171.20755004883</ele>
        <time>2011-05-07T13:40:50Z</time>
      </trkpt>
      <trkpt lat="45.06182" lon="5.06346">
        <ele>172</ele>
        <time>2011-05-07T13:40:57Z</time>
      </trkpt>
      <trkpt lat="45.06207" lon="5.06345">
        <ele>172</ele>
        <time>2011-05-07T13:41:00Z</time>
      </trkpt>
      <trkpt lat="45.06256" lon="5.06333">
        <ele>172</ele>
        <time>2011-05-07T13:41:06Z</time>
      </trkpt>
      <trkpt lat="45.0631" lon="5.06314">
        <ele>172</ele>
        <time>2011-05-07T13:41:13Z</time>
      </trkpt>
      <trkpt lat="45.06371" lon="5.06286">
        <ele>172</ele>
        <time>2011-05-07T13:41:21Z</time>
      </trkpt>
      <trkpt lat="45.06439" lon="5.06246">
        <ele>173</ele>
        <time>2011-05-07T13:41:30Z</time>
      </trkpt>
      <trkpt lat="45.06506" lon="5.06209">
        <ele>173</ele>
        <time>2011-05-07T13:41:39Z</time>
      </trkpt>
      <trkpt lat="45.06571" lon="5.06174">
        <ele>172.26371765137</ele>
        <time>2011-05-07T13:41:48Z</time>
      </trkpt>
      <trkpt lat="45.06631" lon="5.06144">
        <ele>173</ele>
        <time>2011-05-07T13:41:56Z</time>
      </trkpt>
      <trkpt lat="45.06691" lon="5.06113">
        <ele>173</ele>
        <time>2011-05-07T13:42:04Z</time>
      </trkpt>
      <trkpt lat="45.06732" lon="5.06079">
        <ele>172.54606628418</ele>
        <time>2011-05-07T13:42:10Z</time>
      </trkpt>
      <trkpt lat="45.06774" lon="5.0603">
        <ele>172</ele>
        <time>2011-05-07T13:42:17Z</time>
      </trkpt>
      <trkpt lat="45.06789" lon="5.06008">
        <ele>172</ele>
        <time>2011-05-07T13:42:20Z</time>
      </trkpt>
      <trkpt lat="45.06799" lon="5.05967">
        <ele>171.86701965332</ele>
        <time>2011-05-07T13:42:24Z</time>
      </trkpt>
      <trkpt lat="45.06799" lon="5.05947">
        <ele>171.32136535644</ele>
        <time>2011-05-07T13:42:26Z</time>
      </trkpt>
      <trkpt lat="45.06792" lon="5.05851">
        <ele>171</ele>
        <time>2011-05-07T13:42:36Z</time>
      </trkpt>
      <trkpt lat="45.06788" lon="5.05804">
        <ele>170.97454833984</ele>
        <time>2011-05-07T13:42:41Z</time>
      </trkpt>
      <trkpt lat="45.06797" lon="5.05783">
        <ele>170.44342041016</ele>
        <time>2011-05-07T13:42:44Z</time>
      </trkpt>
      <trkpt lat="45.06803" lon="5.0578">
        <ele>170.18005371094</ele>
        <time>2011-05-07T13:42:45Z</time>
      </trkpt>
      <trkpt lat="45.0684" lon="5.05764">
        <ele>170</ele>
        <time>2011-05-07T13:42:51Z</time>
      </trkpt>
      <trkpt lat="45.06875" lon="5.05742">
        <ele>170</ele>
        <time>2011-05-07T13:42:57Z</time>
      </trkpt>
      <trkpt lat="45.06901" lon="5.05714">
        <ele>170.85668945312</ele>
        <time>2011-05-07T13:43:02Z</time>
      </trkpt>
      <trkpt lat="45.06911" lon="5.05704">
        <ele>171.57080078125</ele>
        <time>2011-05-07T13:43:04Z</time>
      </trkpt>
      <trkpt lat="45.06929" lon="5.05678">
        <ele>172.43084716797</ele>
        <time>2011-05-07T13:43:08Z</time>
      </trkpt>
      <trkpt lat="45.06969" lon="5.05648">
        <ele>174.74560546875</ele>
        <time>2011-05-07T13:43:15Z</time>
      </trkpt>
      <trkpt lat="45.0698" lon="5.0564">
        <ele>175.27105712891</ele>
        <time>2011-05-07T13:43:17Z</time>
      </trkpt>
      <trkpt lat="45.06998" lon="5.05614">
        <ele>175.93023681641</ele>
        <time>2011-05-07T13:43:21Z</time>
      </trkpt>
      <trkpt lat="45.07028" lon="5.05551">
        <ele>178.0302734375</ele>
        <time>2011-05-07T13:43:29Z</time>
      </trkpt>
      <trkpt lat="45.0704" lon="5.05529">
        <ele>178.9091796875</ele>
        <time>2011-05-07T13:43:32Z</time>
      </trkpt>
      <trkpt lat="45.07054" lon="5.05497">
        <ele>179.89794921875</ele>
        <time>2011-05-07T13:43:37Z</time>
      </trkpt>
      <trkpt lat="45.07066" lon="5.05468">
        <ele>180</ele>
        <time>2011-05-07T13:43:42Z</time>
      </trkpt>
      <trkpt lat="45.07078" lon="5.05443">
        <ele>180</ele>
        <time>2011-05-07T13:43:47Z</time>
      </trkpt>
      <trkpt lat="45.07085" lon="5.05431">
        <ele>180.1904296875</ele>
        <time>2011-05-07T13:43:51Z</time>
      </trkpt>
      <trkpt lat="45.07087" lon="5.05427">
        <ele>180.57495117188</ele>
        <time>2011-05-07T13:43:55Z</time>
      </trkpt>
      <trkpt lat="45.07095" lon="5.0541">
        <ele>181.61865234375</ele>
        <time>2011-05-07T13:44:00Z</time>
      </trkpt>
      <trkpt lat="45.07096" lon="5.05358">
        <ele>181.37878417969</ele>
        <time>2011-05-07T13:44:08Z</time>
      </trkpt>
      <trkpt lat="45.07098" lon="5.05309">
        <ele>181.15510559082</ele>
        <time>2011-05-07T13:44:15Z</time>
      </trkpt>
      <trkpt lat="45.07112" lon="5.05283">
        <ele>182.1455078125</ele>
        <time>2011-05-07T13:44:20Z</time>
      </trkpt>
      <trkpt lat="45.07116" lon="5.05279">
        <ele>182.69482421875</ele>
        <time>2011-05-07T13:44:21Z</time>
      </trkpt>
      <trkpt lat="45.07148" lon="5.05237">
        <ele>185.14903259277</ele>
        <time>2011-05-07T13:44:30Z</time>
      </trkpt>
      <trkpt lat="45.07175" lon="5.05201">
        <ele>186.97729492188</ele>
        <time>2011-05-07T13:44:38Z</time>
      </trkpt>
      <trkpt lat="45.07201" lon="5.05168">
        <ele>188.52746582031</ele>
        <time>2011-05-07T13:44:46Z</time>
      </trkpt>
      <trkpt lat="45.07224" lon="5.05136">
        <ele>189.15068054199</ele>
        <time>2011-05-07T13:44:53Z</time>
      </trkpt>
      <trkpt lat="45.0723" lon="5.05127">
        <ele>189.74978637695</ele>
        <time>2011-05-07T13:44:55Z</time>
      </trkpt>
      <trkpt lat="45.07259" lon="5.05092">
        <ele>191.9248046875</ele>
        <time>2011-05-07T13:45:03Z</time>
      </trkpt>
      <trkpt lat="45.0729" lon="5.05055">
        <ele>192.39868164062</ele>
        <time>2011-05-07T13:45:11Z</time>
      </trkpt>
      <trkpt lat="45.07305" lon="5.05037">
        <ele>192.30255126953</ele>
        <time>2011-05-07T13:45:15Z</time>
      </trkpt>
      <trkpt lat="45.07311" lon="5.05027">
        <ele>192.39593505859</ele>
        <time>2011-05-07T13:45:17Z</time>
      </trkpt>
      <trkpt lat="45.0732" lon="5.05008">
        <ele>192.3049621582</ele>
        <time>2011-05-07T13:45:21Z</time>
      </trkpt>
      <trkpt lat="45.07337" lon="5.04993">
        <ele>193.02593994141</ele>
        <time>2011-05-07T13:45:27Z</time>
      </trkpt>
      <trkpt lat="45.07369" lon="5.04967">
        <ele>194.09141540527</ele>
        <time>2011-05-07T13:45:35Z</time>
      </trkpt>
      <trkpt lat="45.07401" lon="5.04942">
        <ele>194.34375</ele>
        <time>2011-05-07T13:45:42Z</time>
      </trkpt>
      <trkpt lat="45.07435" lon="5.04921">
        <ele>194.80895996094</ele>
        <time>2011-05-07T13:45:48Z</time>
      </trkpt>
      <trkpt lat="45.07476" lon="5.0491">
        <ele>194.89729309082</ele>
        <time>2011-05-07T13:45:54Z</time>
      </trkpt>
      <trkpt lat="45.07532" lon="5.04905">
        <ele>195.62471008301</ele>
        <time>2011-05-07T13:46:01Z</time>
      </trkpt>
      <trkpt lat="45.07608" lon="5.04896">
        <ele>196.22065734863</ele>
        <time>2011-05-07T13:46:10Z</time>
      </trkpt>
      <trkpt lat="45.07674" lon="5.04889">
        <ele>196.00440979004</ele>
        <time>2011-05-07T13:46:18Z</time>
      </trkpt>
      <trkpt lat="45.07743" lon="5.04883">
        <ele>195.94630432129</ele>
        <time>2011-05-07T13:46:27Z</time>
      </trkpt>
      <trkpt lat="45.07812" lon="5.04876">
        <ele>196.12496948242</ele>
        <time>2011-05-07T13:46:36Z</time>
      </trkpt>
      <trkpt lat="45.07874" lon="5.04866">
        <ele>196.07289123535</ele>
        <time>2011-05-07T13:46:44Z</time>
      </trkpt>
      <trkpt lat="45.07974" lon="5.04853">
        <ele>197.05152893066</ele>
        <time>2011-05-07T13:46:57Z</time>
      </trkpt>
      <trkpt lat="45.08059" lon="5.04843">
        <ele>198</ele>
        <time>2011-05-07T13:47:08Z</time>
      </trkpt>
      <trkpt lat="45.08157" lon="5.04831">
        <ele>198</ele>
        <time>2011-05-07T13:47:20Z</time>
      </trkpt>
      <trkpt lat="45.0825" lon="5.04819">
        <ele>197.4853515625</ele>
        <time>2011-05-07T13:47:31Z</time>
      </trkpt>
      <trkpt lat="45.08282" lon="5.04815">
        <ele>197.05334472656</ele>
        <time>2011-05-07T13:47:35Z</time>
      </trkpt>
      <trkpt lat="45.08355" lon="5.04806">
        <ele>197</ele>
        <time>2011-05-07T13:47:44Z</time>
      </trkpt>
      <trkpt lat="45.08411" lon="5.04801">
        <ele>197</ele>
        <time>2011-05-07T13:47:51Z</time>
      </trkpt>
      <trkpt lat="45.08448" lon="5.04801">
        <ele>197.82867431641</ele>
        <time>2011-05-07T13:47:56Z</time>
      </trkpt>
      <trkpt lat="45.08466" lon="5.04808">
        <ele>198</ele>
        <time>2011-05-07T13:47:59Z</time>
      </trkpt>
      <trkpt lat="45.08487" lon="5.04801">
        <ele>197.84756469727</ele>
        <time>2011-05-07T13:48:03Z</time>
      </trkpt>
      <trkpt lat="45.08519" lon="5.04789">
        <ele>197.80877685547</ele>
        <time>2011-05-07T13:48:08Z</time>
      </trkpt>
      <trkpt lat="45.08593" lon="5.04775">
        <ele>198</ele>
        <time>2011-05-07T13:48:19Z</time>
      </trkpt>
      <trkpt lat="45.08659" lon="5.04769">
        <ele>198</ele>
        <time>2011-05-07T13:48:29Z</time>
      </trkpt>
      <trkpt lat="45.0873" lon="5.04763">
        <ele>198.29138183594</ele>
        <time>2011-05-07T13:48:40Z</time>
      </trkpt>
      <trkpt lat="45.088" lon="5.04754">
        <ele>199.80450439453</ele>
        <time>2011-05-07T13:48:51Z</time>
      </trkpt>
      <trkpt lat="45.08865" lon="5.04744">
        <ele>200</ele>
        <time>2011-05-07T13:49:01Z</time>
      </trkpt>
      <trkpt lat="45.08936" lon="5.04735">
        <ele>200</ele>
        <time>2011-05-07T13:49:11Z</time>
      </trkpt>
      <trkpt lat="45.09015" lon="5.04725">
        <ele>204.51713562012</ele>
        <time>2011-05-07T13:49:22Z</time>
      </trkpt>
      <trkpt lat="45.0906" lon="5.04724">
        <ele>208.07452392578</ele>
        <time>2011-05-07T13:49:29Z</time>
      </trkpt>
      <trkpt lat="45.09106" lon="5.04729">
        <ele>208.76684570312</ele>
        <time>2011-05-07T13:49:37Z</time>
      </trkpt>
      <trkpt lat="45.09144" lon="5.04732">
        <ele>209.64495849609</ele>
        <time>2011-05-07T13:49:44Z</time>
      </trkpt>
      <trkpt lat="45.09166" lon="5.0475">
        <ele>208.9647064209</ele>
        <time>2011-05-07T13:49:49Z</time>
      </trkpt>
      <trkpt lat="45.09171" lon="5.04766">
        <ele>207.86950683594</ele>
        <time>2011-05-07T13:49:51Z</time>
      </trkpt>
      <trkpt lat="45.09174" lon="5.04804">
        <ele>205.80201721191</ele>
        <time>2011-05-07T13:49:55Z</time>
      </trkpt>
      <trkpt lat="45.09186" lon="5.04818">
        <ele>204.42851257324</ele>
        <time>2011-05-07T13:49:58Z</time>
      </trkpt>
      <trkpt lat="45.09192" lon="5.04814">
        <ele>204.45597839356</ele>
        <time>2011-05-07T13:49:59Z</time>
      </trkpt>
      <trkpt lat="45.0924" lon="5.04798">
        <ele>205.53834533691</ele>
        <time>2011-05-07T13:50:07Z</time>
      </trkpt>
      <trkpt lat="45.09276" lon="5.04788">
        <ele>207.21279907227</ele>
        <time>2011-05-07T13:50:13Z</time>
      </trkpt>
      <trkpt lat="45.09288" lon="5.04782">
        <ele>209.09539794922</ele>
        <time>2011-05-07T13:50:15Z</time>
      </trkpt>
      <trkpt lat="45.09312" lon="5.04755">
        <ele>214.31494140625</ele>
        <time>2011-05-07T13:50:20Z</time>
      </trkpt>
      <trkpt lat="45.09316" lon="5.04749">
        <ele>215.19065856934</ele>
        <time>2011-05-07T13:50:21Z</time>
      </trkpt>
      <trkpt lat="45.09326" lon="5.04738">
        <ele>216.73480224609</ele>
        <time>2011-05-07T13:50:23Z</time>
      </trkpt>
      <trkpt lat="45.09356" lon="5.0471">
        <ele>219.71166992188</ele>
        <time>2011-05-07T13:50:29Z</time>
      </trkpt>
      <trkpt lat="45.09393" lon="5.04685">
        <ele>220.67166137695</ele>
        <time>2011-05-07T13:50:36Z</time>
      </trkpt>
      <trkpt lat="45.09428" lon="5.04669">
        <ele>221.10328674316</ele>
        <time>2011-05-07T13:50:43Z</time>
      </trkpt>
      <trkpt lat="45.09466" lon="5.04653">
        <ele>220.22984313965</ele>
        <time>2011-05-07T13:50:50Z</time>
      </trkpt>
      <trkpt lat="45.09502" lon="5.04637">
        <ele>220.06513977051</ele>
        <time>2011-05-07T13:50:57Z</time>
      </trkpt>
      <trkpt lat="45.09537" lon="5.04619">
        <ele>220</ele>
        <time>2011-05-07T13:51:04Z</time>
      </trkpt>
      <trkpt lat="45.09569" lon="5.04593">
        <ele>220</ele>
        <time>2011-05-07T13:51:11Z</time>
      </trkpt>
      <trkpt lat="45.09583" lon="5.04576">
        <ele>220</ele>
        <time>2011-05-07T13:51:14Z</time>
      </trkpt>
      <trkpt lat="45.096" lon="5.04539">
        <ele>220</ele>
        <time>2011-05-07T13:51:19Z</time>
      </trkpt>
      <trkpt lat="45.09618" lon="5.0452">
        <ele>220</ele>
        <time>2011-05-07T13:51:24Z</time>
      </trkpt>
      <trkpt lat="45.09625" lon="5.04499">
        <ele>220</ele>
        <time>2011-05-07T13:51:28Z</time>
      </trkpt>
      <trkpt lat="45.09623" lon="5.04494">
        <ele>220</ele>
        <time>2011-05-07T13:51:29Z</time>
      </trkpt>
      <trkpt lat="45.09624" lon="5.04464">
        <ele>220</ele>
        <time>2011-05-07T13:51:34Z</time>
      </trkpt>
      <trkpt lat="45.09641" lon="5.04411">
        <ele>220</ele>
        <time>2011-05-07T13:51:43Z</time>
      </trkpt>
      <trkpt lat="45.09656" lon="5.04367">
        <ele>220</ele>
        <time>2011-05-07T13:51:50Z</time>
      </trkpt>
      <trkpt lat="45.09679" lon="5.04328">
        <ele>220</ele>
        <time>2011-05-07T13:51:56Z</time>
      </trkpt>
      <trkpt lat="45.09711" lon="5.04295">
        <ele>220</ele>
        <time>2011-05-07T13:52:02Z</time>
      </trkpt>
      <trkpt lat="45.09762" lon="5.04246">
        <ele>219.91122436523</ele>
        <time>2011-05-07T13:52:11Z</time>
      </trkpt>
      <trkpt lat="45.09815" lon="5.0419">
        <ele>219.02204895019</ele>
        <time>2011-05-07T13:52:20Z</time>
      </trkpt>
      <trkpt lat="45.09851" lon="5.04152">
        <ele>218.28558349609</ele>
        <time>2011-05-07T13:52:26Z</time>
      </trkpt>
      <trkpt lat="45.0987" lon="5.04107">
        <ele>216.84164428711</ele>
        <time>2011-05-07T13:52:31Z</time>
      </trkpt>
      <trkpt lat="45.09888" lon="5.04017">
        <ele>213.98284912109</ele>
        <time>2011-05-07T13:52:40Z</time>
      </trkpt>
      <trkpt lat="45.09884" lon="5.03978">
        <ele>214.62321472168</ele>
        <time>2011-05-07T13:52:44Z</time>
      </trkpt>
      <trkpt lat="45.09864" lon="5.03922">
        <ele>215.90724182129</ele>
        <time>2011-05-07T13:52:51Z</time>
      </trkpt>
      <trkpt lat="45.09847" lon="5.03882">
        <ele>216.26174926758</ele>
        <time>2011-05-07T13:52:57Z</time>
      </trkpt>
      <trkpt lat="45.09826" lon="5.03828">
        <ele>216.67028808594</ele>
        <time>2011-05-07T13:53:04Z</time>
      </trkpt>
      <trkpt lat="45.09806" lon="5.0376">
        <ele>217.71398925781</ele>
        <time>2011-05-07T13:53:12Z</time>
      </trkpt>
      <trkpt lat="45.09796" lon="5.03696">
        <ele>218.92910766602</ele>
        <time>2011-05-07T13:53:20Z</time>
      </trkpt>
      <trkpt lat="45.09789" lon="5.03646">
        <ele>216.03210449219</ele>
        <time>2011-05-07T13:53:27Z</time>
      </trkpt>
      <trkpt lat="45.09788" lon="5.03639">
        <ele>215.73168945312</ele>
        <time>2011-05-07T13:53:28Z</time>
      </trkpt>
      <trkpt lat="45.0979" lon="5.03609">
        <ele>214.8201751709</ele>
        <time>2011-05-07T13:53:32Z</time>
      </trkpt>
      <trkpt lat="45.09794" lon="5.03592">
        <ele>214.48028564453</ele>
        <time>2011-05-07T13:53:34Z</time>
      </trkpt>
      <trkpt lat="45.09814" lon="5.03546">
        <ele>214.84931945801</ele>
        <time>2011-05-07T13:53:40Z</time>
      </trkpt>
      <trkpt lat="45.09842" lon="5.03504">
        <ele>216.32281494141</ele>
        <time>2011-05-07T13:53:46Z</time>
      </trkpt>
      <trkpt lat="45.0988" lon="5.03448">
        <ele>218.36474609375</ele>
        <time>2011-05-07T13:53:54Z</time>
      </trkpt>
      <trkpt lat="45.09899" lon="5.03406">
        <ele>219.36901855469</ele>
        <time>2011-05-07T13:53:59Z</time>
      </trkpt>
      <trkpt lat="45.09913" lon="5.03358">
        <ele>219.86340332031</ele>
        <time>2011-05-07T13:54:05Z</time>
      </trkpt>
      <trkpt lat="45.09934" lon="5.0328">
        <ele>220</ele>
        <time>2011-05-07T13:54:16Z</time>
      </trkpt>
      <trkpt lat="45.0995" lon="5.03224">
        <ele>223.5714263916</ele>
        <time>2011-05-07T13:54:25Z</time>
      </trkpt>
      <trkpt lat="45.09966" lon="5.03166">
        <ele>225.51397705078</ele>
        <time>2011-05-07T13:54:34Z</time>
      </trkpt>
      <trkpt lat="45.09979" lon="5.03119">
        <ele>224.02520751953</ele>
        <time>2011-05-07T13:54:41Z</time>
      </trkpt>
      <trkpt lat="45.09997" lon="5.03056">
        <ele>220.90989685059</ele>
        <time>2011-05-07T13:54:50Z</time>
      </trkpt>
      <trkpt lat="45.10016" lon="5.02986">
        <ele>226.16416931152</ele>
        <time>2011-05-07T13:55:00Z</time>
      </trkpt>
      <trkpt lat="45.10032" lon="5.02928">
        <ele>231.02085876465</ele>
        <time>2011-05-07T13:55:09Z</time>
      </trkpt>
      <trkpt lat="45.10044" lon="5.02888">
        <ele>232.87438964844</ele>
        <time>2011-05-07T13:55:16Z</time>
      </trkpt>
      <trkpt lat="45.10056" lon="5.02844">
        <ele>233.64593505859</ele>
        <time>2011-05-07T13:55:24Z</time>
      </trkpt>
      <trkpt lat="45.10057" lon="5.02833">
        <ele>234.18048095703</ele>
        <time>2011-05-07T13:55:26Z</time>
      </trkpt>
      <trkpt lat="45.1006" lon="5.02821">
        <ele>235.09580993652</ele>
        <time>2011-05-07T13:55:28Z</time>
      </trkpt>
      <trkpt lat="45.10065" lon="5.02804">
        <ele>236.40251159668</ele>
        <time>2011-05-07T13:55:31Z</time>
      </trkpt>
      <trkpt lat="45.10069" lon="5.02768">
        <ele>238.01684570312</ele>
        <time>2011-05-07T13:55:37Z</time>
      </trkpt>
      <trkpt lat="45.10068" lon="5.02762">
        <ele>238.30360412598</ele>
        <time>2011-05-07T13:55:38Z</time>
      </trkpt>
      <trkpt lat="45.10059" lon="5.02737">
        <ele>238.65667724609</ele>
        <time>2011-05-07T13:55:43Z</time>
      </trkpt>
      <trkpt lat="45.10035" lon="5.02704">
        <ele>241.92611694336</ele>
        <time>2011-05-07T13:55:51Z</time>
      </trkpt>
      <trkpt lat="45.10023" lon="5.02688">
        <ele>245.37562561035</ele>
        <time>2011-05-07T13:55:55Z</time>
      </trkpt>
      <trkpt lat="45.10001" lon="5.0266">
        <ele>250.36921691894</ele>
        <time>2011-05-07T13:56:02Z</time>
      </trkpt>
      <trkpt lat="45.0999" lon="5.02638">
        <ele>253.17144775391</ele>
        <time>2011-05-07T13:56:07Z</time>
      </trkpt>
      <trkpt lat="45.09988" lon="5.02633">
        <ele>253.86473083496</ele>
        <time>2011-05-07T13:56:08Z</time>
      </trkpt>
      <trkpt lat="45.09977" lon="5.02609">
        <ele>256.77767944336</ele>
        <time>2011-05-07T13:56:12Z</time>
      </trkpt>
      <trkpt lat="45.09968" lon="5.02576">
        <ele>258.76000976562</ele>
        <time>2011-05-07T13:56:18Z</time>
      </trkpt>
      <trkpt lat="45.09944" lon="5.02544">
        <ele>261</ele>
        <time>2011-05-07T13:56:25Z</time>
      </trkpt>
      <trkpt lat="45.09931" lon="5.0253">
        <ele>261</ele>
        <time>2011-05-07T13:56:28Z</time>
      </trkpt>
      <trkpt lat="45.09913" lon="5.02505">
        <ele>261.81256103516</ele>
        <time>2011-05-07T13:56:33Z</time>
      </trkpt>
      <trkpt lat="45.09897" lon="5.02458">
        <ele>262</ele>
        <time>2011-05-07T13:56:39Z</time>
      </trkpt>
      <trkpt lat="45.0989" lon="5.02442">
        <ele>262</ele>
        <time>2011-05-07T13:56:41Z</time>
      </trkpt>
      <trkpt lat="45.09884" lon="5.02425">
        <ele>262</ele>
        <time>2011-05-07T13:56:43Z</time>
      </trkpt>
      <trkpt lat="45.09876" lon="5.02396">
        <ele>260.89562988281</ele>
        <time>2011-05-07T13:56:47Z</time>
      </trkpt>
      <trkpt lat="45.09863" lon="5.02343">
        <ele>256.39819335938</ele>
        <time>2011-05-07T13:56:55Z</time>
      </trkpt>
      <trkpt lat="45.09855" lon="5.02313">
        <ele>254.35884094238</ele>
        <time>2011-05-07T13:56:59Z</time>
      </trkpt>
      <trkpt lat="45.0985" lon="5.02287">
        <ele>252.55334472656</ele>
        <time>2011-05-07T13:57:02Z</time>
      </trkpt>
      <trkpt lat="45.09848" lon="5.0224">
        <ele>249.26556396484</ele>
        <time>2011-05-07T13:57:07Z</time>
      </trkpt>
      <trkpt lat="45.09849" lon="5.0223">
        <ele>248.56861877441</ele>
        <time>2011-05-07T13:57:08Z</time>
      </trkpt>
      <trkpt lat="45.09855" lon="5.02212">
        <ele>247.23652648926</ele>
        <time>2011-05-07T13:57:10Z</time>
      </trkpt>
      <trkpt lat="45.09864" lon="5.02184">
        <ele>245.68647766113</ele>
        <time>2011-05-07T13:57:13Z</time>
      </trkpt>
      <trkpt lat="45.09889" lon="5.02113">
        <ele>241.12866210938</ele>
        <time>2011-05-07T13:57:20Z</time>
      </trkpt>
      <trkpt lat="45.09911" lon="5.0205">
        <ele>239</ele>
        <time>2011-05-07T13:57:26Z</time>
      </trkpt>
      <trkpt lat="45.09922" lon="5.02018">
        <ele>238.64366149902</ele>
        <time>2011-05-07T13:57:29Z</time>
      </trkpt>
      <trkpt lat="45.0994" lon="5.01965">
        <ele>237.96206665039</ele>
        <time>2011-05-07T13:57:34Z</time>
      </trkpt>
      <trkpt lat="45.09944" lon="5.01955">
        <ele>237.99337768555</ele>
        <time>2011-05-07T13:57:35Z</time>
      </trkpt>
      <trkpt lat="45.09978" lon="5.01857">
        <ele>237.06010437012</ele>
        <time>2011-05-07T13:57:44Z</time>
      </trkpt>
      <trkpt lat="45.10019" lon="5.01738">
        <ele>236.68115234375</ele>
        <time>2011-05-07T13:57:54Z</time>
      </trkpt>
      <trkpt lat="45.10048" lon="5.01641">
        <ele>235.74989318848</ele>
        <time>2011-05-07T13:58:02Z</time>
      </trkpt>
      <trkpt lat="45.10057" lon="5.0157">
        <ele>235.02809143066</ele>
        <time>2011-05-07T13:58:08Z</time>
      </trkpt>
      <trkpt lat="45.10065" lon="5.01478">
        <ele>233.47566223144</ele>
        <time>2011-05-07T13:58:16Z</time>
      </trkpt>
      <trkpt lat="45.10071" lon="5.0139">
        <ele>232.02693176269</ele>
        <time>2011-05-07T13:58:24Z</time>
      </trkpt>
      <trkpt lat="45.1008" lon="5.01288">
        <ele>230.87841796875</ele>
        <time>2011-05-07T13:58:34Z</time>
      </trkpt>
      <trkpt lat="45.10089" lon="5.01204">
        <ele>229.35823059082</ele>
        <time>2011-05-07T13:58:42Z</time>
      </trkpt>
      <trkpt lat="45.10107" lon="5.01142">
        <ele>228.12663269043</ele>
        <time>2011-05-07T13:58:48Z</time>
      </trkpt>
      <trkpt lat="45.10135" lon="5.01087">
        <ele>232.33586120606</ele>
        <time>2011-05-07T13:58:54Z</time>
      </trkpt>
      <trkpt lat="45.10187" lon="5.01006">
        <ele>234.45678710938</ele>
        <time>2011-05-07T13:59:03Z</time>
      </trkpt>
      <trkpt lat="45.10218" lon="5.00965">
        <ele>234.23277282715</ele>
        <time>2011-05-07T13:59:08Z</time>
      </trkpt>
      <trkpt lat="45.10271" lon="5.00915">
        <ele>233.64036560059</ele>
        <time>2011-05-07T13:59:15Z</time>
      </trkpt>
      <trkpt lat="45.1034" lon="5.00861">
        <ele>229.96139526367</ele>
        <time>2011-05-07T13:59:23Z</time>
      </trkpt>
      <trkpt lat="45.10425" lon="5.00794">
        <ele>226.00810241699</ele>
        <time>2011-05-07T13:59:32Z</time>
      </trkpt>
      <trkpt lat="45.10479" lon="5.00751">
        <ele>224.25677490234</ele>
        <time>2011-05-07T13:59:38Z</time>
      </trkpt>
      <trkpt lat="45.10533" lon="5.00707">
        <ele>231.31962585449</ele>
        <time>2011-05-07T13:59:45Z</time>
      </trkpt>
      <trkpt lat="45.10553" lon="5.00691">
        <ele>234.96391296387</ele>
        <time>2011-05-07T13:59:48Z</time>
      </trkpt>
      <trkpt lat="45.10593" lon="5.00659">
        <ele>239.83949279785</ele>
        <time>2011-05-07T13:59:55Z</time>
      </trkpt>
      <trkpt lat="45.10632" lon="5.00629">
        <ele>246.86265563965</ele>
        <time>2011-05-07T14:00:03Z</time>
      </trkpt>
      <trkpt lat="45.10675" lon="5.00607">
        <ele>254.02256774902</ele>
        <time>2011-05-07T14:00:12Z</time>
      </trkpt>
      <trkpt lat="45.10716" lon="5.00593">
        <ele>258.12365722656</ele>
        <time>2011-05-07T14:00:20Z</time>
      </trkpt>
      <trkpt lat="45.10752" lon="5.00588">
        <ele>261.61364746094</ele>
        <time>2011-05-07T14:00:27Z</time>
      </trkpt>
      <trkpt lat="45.10782" lon="5.00585">
        <ele>263.88494873047</ele>
        <time>2011-05-07T14:00:33Z</time>
      </trkpt>
      <trkpt lat="45.1082" lon="5.00581">
        <ele>266.46646118164</ele>
        <time>2011-05-07T14:00:41Z</time>
      </trkpt>
      <trkpt lat="45.10851" lon="5.00576">
        <ele>268.97769165039</ele>
        <time>2011-05-07T14:00:47Z</time>
      </trkpt>
      <trkpt lat="45.10887" lon="5.00568">
        <ele>270.00561523438</ele>
        <time>2011-05-07T14:00:54Z</time>
      </trkpt>
      <trkpt lat="45.10928" lon="5.00549">
        <ele>267.12451171875</ele>
        <time>2011-05-07T14:01:02Z</time>
      </trkpt>
      <trkpt lat="45.10971" lon="5.0052">
        <ele>263.46813964844</ele>
        <time>2011-05-07T14:01:10Z</time>
      </trkpt>
      <trkpt lat="45.11012" lon="5.0049">
        <ele>256.66156005859</ele>
        <time>2011-05-07T14:01:16Z</time>
      </trkpt>
      <trkpt lat="45.11054" lon="5.0046">
        <ele>251.19520568848</ele>
        <time>2011-05-07T14:01:21Z</time>
      </trkpt>
      <trkpt lat="45.11103" lon="5.00429">
        <ele>245.41708374023</ele>
        <time>2011-05-07T14:01:26Z</time>
      </trkpt>
      <trkpt lat="45.11147" lon="5.00404">
        <ele>240.98887634277</ele>
        <time>2011-05-07T14:01:30Z</time>
      </trkpt>
      <trkpt lat="45.11233" lon="5.00359">
        <ele>238</ele>
        <time>2011-05-07T14:01:37Z</time>
      </trkpt>
      <trkpt lat="45.11271" lon="5.00338">
        <ele>238</ele>
        <time>2011-05-07T14:01:40Z</time>
      </trkpt>
      <trkpt lat="45.11319" lon="5.00304">
        <ele>237</ele>
        <time>2011-05-07T14:01:44Z</time>
      </trkpt>
      <trkpt lat="45.11383" lon="5.00251">
        <ele>237</ele>
        <time>2011-05-07T14:01:50Z</time>
      </trkpt>
      <trkpt lat="45.11438" lon="5.00199">
        <ele>237</ele>
        <time>2011-05-07T14:01:56Z</time>
      </trkpt>
      <trkpt lat="45.11462" lon="5.00177">
        <ele>237</ele>
        <time>2011-05-07T14:01:59Z</time>
      </trkpt>
      <trkpt lat="45.11521" lon="5.00121">
        <ele>239.39360046387</ele>
        <time>2011-05-07T14:02:07Z</time>
      </trkpt>
      <trkpt lat="45.1157" lon="5.00072">
        <ele>241.66624450684</ele>
        <time>2011-05-07T14:02:14Z</time>
      </trkpt>
      <trkpt lat="45.1161" lon="5.00019">
        <ele>243.02984619141</ele>
        <time>2011-05-07T14:02:21Z</time>
      </trkpt>
      <trkpt lat="45.11655" lon="4.99959">
        <ele>235.40298461914</ele>
        <time>2011-05-07T14:02:28Z</time>
      </trkpt>
      <trkpt lat="45.11701" lon="4.99922">
        <ele>235.15686035156</ele>
        <time>2011-05-07T14:02:33Z</time>
      </trkpt>
      <trkpt lat="45.11746" lon="4.99902">
        <ele>234.72839355469</ele>
        <time>2011-05-07T14:02:37Z</time>
      </trkpt>
      <trkpt lat="45.11818" lon="4.99873">
        <ele>228.4559173584</ele>
        <time>2011-05-07T14:02:43Z</time>
      </trkpt>
      <trkpt lat="45.11867" lon="4.9985">
        <ele>220.99188232422</ele>
        <time>2011-05-07T14:02:47Z</time>
      </trkpt>
      <trkpt lat="45.11929" lon="4.99791">
        <ele>210.59121704102</ele>
        <time>2011-05-07T14:02:53Z</time>
      </trkpt>
      <trkpt lat="45.11945" lon="4.99768">
        <ele>209.31114196777</ele>
        <time>2011-05-07T14:02:55Z</time>
      </trkpt>
      <trkpt lat="45.11979" lon="4.99711">
        <ele>207.77751159668</ele>
        <time>2011-05-07T14:03:00Z</time>
      </trkpt>
      <trkpt lat="45.12019" lon="4.99636">
        <ele>208.06066894531</ele>
        <time>2011-05-07T14:03:07Z</time>
      </trkpt>
      <trkpt lat="45.12046" lon="4.99587">
        <ele>207.48944091797</ele>
        <time>2011-05-07T14:03:12Z</time>
      </trkpt>
      <trkpt lat="45.12089" lon="4.99509">
        <ele>207.05810546875</ele>
        <time>2011-05-07T14:03:20Z</time>
      </trkpt>
      <trkpt lat="45.1213" lon="4.99428">
        <ele>208.52125549316</ele>
        <time>2011-05-07T14:03:28Z</time>
      </trkpt>
      <trkpt lat="45.12144" lon="4.99383">
        <ele>208.79431152344</ele>
        <time>2011-05-07T14:03:32Z</time>
      </trkpt>
      <trkpt lat="45.12161" lon="4.99318">
        <ele>208.63075256348</ele>
        <time>2011-05-07T14:03:38Z</time>
      </trkpt>
      <trkpt lat="45.12191" lon="4.99202">
        <ele>209.48196411133</ele>
        <time>2011-05-07T14:03:49Z</time>
      </trkpt>
      <trkpt lat="45.12204" lon="4.99148">
        <ele>210.63943481445</ele>
        <time>2011-05-07T14:03:55Z</time>
      </trkpt>
      <trkpt lat="45.12215" lon="4.99107">
        <ele>211.75289916992</ele>
        <time>2011-05-07T14:04:00Z</time>
      </trkpt>
      <trkpt lat="45.12221" lon="4.99093">
        <ele>212.42311096191</ele>
        <time>2011-05-07T14:04:02Z</time>
      </trkpt>
      <trkpt lat="45.12232" lon="4.99076">
        <ele>214.18045043945</ele>
        <time>2011-05-07T14:04:05Z</time>
      </trkpt>
      <trkpt lat="45.12237" lon="4.99049">
        <ele>215.85438537598</ele>
        <time>2011-05-07T14:04:09Z</time>
      </trkpt>
      <trkpt lat="45.1222" lon="4.99037">
        <ele>214.07278442383</ele>
        <time>2011-05-07T14:04:12Z</time>
      </trkpt>
      <trkpt lat="45.12184" lon="4.99015">
        <ele>209.36868286133</ele>
        <time>2011-05-07T14:04:17Z</time>
      </trkpt>
      <trkpt lat="45.12162" lon="4.98993">
        <ele>206.81419372559</ele>
        <time>2011-05-07T14:04:20Z</time>
      </trkpt>
      <trkpt lat="45.12128" lon="4.98949">
        <ele>205.32695007324</ele>
        <time>2011-05-07T14:04:25Z</time>
      </trkpt>
      <trkpt lat="45.1209" lon="4.98881">
        <ele>203.67739868164</ele>
        <time>2011-05-07T14:04:32Z</time>
      </trkpt>
      <trkpt lat="45.12066" lon="4.98825">
        <ele>203.84539794922</ele>
        <time>2011-05-07T14:04:38Z</time>
      </trkpt>
      <trkpt lat="45.12043" lon="4.98754">
        <ele>203.5466003418</ele>
        <time>2011-05-07T14:04:45Z</time>
      </trkpt>
      <trkpt lat="45.12027" lon="4.98678">
        <ele>203.56205749512</ele>
        <time>2011-05-07T14:04:52Z</time>
      </trkpt>
      <trkpt lat="45.12019" lon="4.98607">
        <ele>203.85054016113</ele>
        <time>2011-05-07T14:04:59Z</time>
      </trkpt>
      <trkpt lat="45.12018" lon="4.98587">
        <ele>203.97723388672</ele>
        <time>2011-05-07T14:05:01Z</time>
      </trkpt>
      <trkpt lat="45.12019" lon="4.9852">
        <ele>204.92680358887</ele>
        <time>2011-05-07T14:05:08Z</time>
      </trkpt>
      <trkpt lat="45.1202" lon="4.98492">
        <ele>205.24133300781</ele>
        <time>2011-05-07T14:05:11Z</time>
      </trkpt>
      <trkpt lat="45.12031" lon="4.9845">
        <ele>205.37408447266</ele>
        <time>2011-05-07T14:05:16Z</time>
      </trkpt>
      <trkpt lat="45.12051" lon="4.98418">
        <ele>205.61212158203</ele>
        <time>2011-05-07T14:05:21Z</time>
      </trkpt>
      <trkpt lat="45.12055" lon="4.98401">
        <ele>205.28242492676</ele>
        <time>2011-05-07T14:05:24Z</time>
      </trkpt>
      <trkpt lat="45.12051" lon="4.98384">
        <ele>204.82122802734</ele>
        <time>2011-05-07T14:05:27Z</time>
      </trkpt>
      <trkpt lat="45.12051" lon="4.9837">
        <ele>204.48477172852</ele>
        <time>2011-05-07T14:05:29Z</time>
      </trkpt>
      <trkpt lat="45.12058" lon="4.98328">
        <ele>203.77180480957</ele>
        <time>2011-05-07T14:05:34Z</time>
      </trkpt>
      <trkpt lat="45.12067" lon="4.98265">
        <ele>204.78861999512</ele>
        <time>2011-05-07T14:05:41Z</time>
      </trkpt>
      <trkpt lat="45.12071" lon="4.9821">
        <ele>205.54928588867</ele>
        <time>2011-05-07T14:05:48Z</time>
      </trkpt>
      <trkpt lat="45.1207" lon="4.98195">
        <ele>205.75756835938</ele>
        <time>2011-05-07T14:05:50Z</time>
      </trkpt>
      <trkpt lat="45.12067" lon="4.98152">
        <ele>205.76568603516</ele>
        <time>2011-05-07T14:05:56Z</time>
      </trkpt>
      <trkpt lat="45.12058" lon="4.98098">
        <ele>204.15080261231</ele>
        <time>2011-05-07T14:06:03Z</time>
      </trkpt>
      <trkpt lat="45.12037" lon="4.98015">
        <ele>202.16175842285</ele>
        <time>2011-05-07T14:06:13Z</time>
      </trkpt>
      <trkpt lat="45.12016" lon="4.97932">
        <ele>199.89717102051</ele>
        <time>2011-05-07T14:06:23Z</time>
      </trkpt>
      <trkpt lat="45.12" lon="4.97852">
        <ele>198.23863220215</ele>
        <time>2011-05-07T14:06:32Z</time>
      </trkpt>
      <trkpt lat="45.11981" lon="4.9774">
        <ele>197.69654846191</ele>
        <time>2011-05-07T14:06:44Z</time>
      </trkpt>
      <trkpt lat="45.11964" lon="4.97641">
        <ele>196.75871276856</ele>
        <time>2011-05-07T14:06:54Z</time>
      </trkpt>
      <trkpt lat="45.11952" lon="4.97573">
        <ele>197.15063476562</ele>
        <time>2011-05-07T14:07:01Z</time>
      </trkpt>
      <trkpt lat="45.1194" lon="4.97505">
        <ele>196.81471252441</ele>
        <time>2011-05-07T14:07:08Z</time>
      </trkpt>
      <trkpt lat="45.11924" lon="4.97413">
        <ele>196.17948913574</ele>
        <time>2011-05-07T14:07:17Z</time>
      </trkpt>
      <trkpt lat="45.11907" lon="4.97315">
        <ele>196.07803344727</ele>
        <time>2011-05-07T14:07:27Z</time>
      </trkpt>
      <trkpt lat="45.11893" lon="4.97235">
        <ele>196.57577514648</ele>
        <time>2011-05-07T14:07:36Z</time>
      </trkpt>
      <trkpt lat="45.11885" lon="4.97193">
        <ele>196.67791748047</ele>
        <time>2011-05-07T14:07:42Z</time>
      </trkpt>
      <trkpt lat="45.11879" lon="4.97153">
        <ele>196.71548461914</ele>
        <time>2011-05-07T14:07:47Z</time>
      </trkpt>
      <trkpt lat="45.11882" lon="4.97114">
        <ele>197.01739501953</ele>
        <time>2011-05-07T14:07:52Z</time>
      </trkpt>
      <trkpt lat="45.11889" lon="4.97099">
        <ele>197.2790222168</ele>
        <time>2011-05-07T14:07:55Z</time>
      </trkpt>
      <trkpt lat="45.11901" lon="4.97088">
        <ele>197.62515258789</ele>
        <time>2011-05-07T14:08:00Z</time>
      </trkpt>
      <trkpt lat="45.11902" lon="4.97071">
        <ele>197.85633850098</ele>
        <time>2011-05-07T14:08:03Z</time>
      </trkpt>
      <trkpt lat="45.11891" lon="4.97055">
        <ele>197.93190002441</ele>
        <time>2011-05-07T14:08:06Z</time>
      </trkpt>
      <trkpt lat="45.1186" lon="4.97024">
        <ele>198.32205200195</ele>
        <time>2011-05-07T14:08:12Z</time>
      </trkpt>
      <trkpt lat="45.11824" lon="4.96975">
        <ele>198.24568176269</ele>
        <time>2011-05-07T14:08:20Z</time>
      </trkpt>
      <trkpt lat="45.11783" lon="4.96912">
        <ele>196.95222473144</ele>
        <time>2011-05-07T14:08:30Z</time>
      </trkpt>
      <trkpt lat="45.11767" lon="4.96887">
        <ele>196.50312805176</ele>
        <time>2011-05-07T14:08:34Z</time>
      </trkpt>
      <trkpt lat="45.11761" lon="4.96855">
        <ele>195.82334899902</ele>
        <time>2011-05-07T14:08:38Z</time>
      </trkpt>
      <trkpt lat="45.11752" lon="4.96824">
        <ele>195.18116760254</ele>
        <time>2011-05-07T14:08:42Z</time>
      </trkpt>
      <trkpt lat="45.11734" lon="4.96816">
        <ele>195.35527038574</ele>
        <time>2011-05-07T14:08:45Z</time>
      </trkpt>
      <trkpt lat="45.11714" lon="4.96799">
        <ele>195.6661529541</ele>
        <time>2011-05-07T14:08:49Z</time>
      </trkpt>
      <trkpt lat="45.11675" lon="4.96738">
        <ele>195.73976135254</ele>
        <time>2011-05-07T14:08:58Z</time>
      </trkpt>
      <trkpt lat="45.11647" lon="4.96676">
        <ele>194.17782592773</ele>
        <time>2011-05-07T14:09:06Z</time>
      </trkpt>
      <trkpt lat="45.11618" lon="4.96601">
        <ele>195.12091064453</ele>
        <time>2011-05-07T14:09:15Z</time>
      </trkpt>
      <trkpt lat="45.11588" lon="4.96522">
        <ele>195.17527770996</ele>
        <time>2011-05-07T14:09:25Z</time>
      </trkpt>
      <trkpt lat="45.1158" lon="4.96501">
        <ele>194.8180847168</ele>
        <time>2011-05-07T14:09:28Z</time>
      </trkpt>
      <trkpt lat="45.11577" lon="4.96472">
        <ele>195.75431823731</ele>
        <time>2011-05-07T14:09:33Z</time>
      </trkpt>
      <trkpt lat="45.1158" lon="4.96453">
        <ele>196.54847717285</ele>
        <time>2011-05-07T14:09:37Z</time>
      </trkpt>
      <trkpt lat="45.11579" lon="4.96449">
        <ele>196.65844726562</ele>
        <time>2011-05-07T14:09:38Z</time>
      </trkpt>
      <trkpt lat="45.11573" lon="4.96446">
        <ele>196.55950927734</ele>
        <time>2011-05-07T14:09:43Z</time>
      </trkpt>
      <trkpt lat="45.11573" lon="4.96446">
        <ele>196.5559387207</ele>
        <time>2011-05-07T14:09:44Z</time>
      </trkpt>
      <trkpt lat="45.11571" lon="4.96453">
        <ele>196.18359375</ele>
        <time>2011-05-07T14:10:14Z</time>
      </trkpt>
      <trkpt lat="45.11563" lon="4.96452">
        <ele>195.90458679199</ele>
        <time>2011-05-07T14:10:18Z</time>
      </trkpt>
      <trkpt lat="45.11558" lon="4.96434">
        <ele>196.40431213379</ele>
        <time>2011-05-07T14:10:23Z</time>
      </trkpt>
      <trkpt lat="45.11561" lon="4.96426">
        <ele>196.80795288086</ele>
        <time>2011-05-07T14:10:26Z</time>
      </trkpt>
      <trkpt lat="45.11565" lon="4.96428">
        <ele>196.91514587402</ele>
        <time>2011-05-07T14:10:31Z</time>
      </trkpt>
    </trkseg>
  </trk>
</gpx>